<?xml version="1.0" encoding="UTF-8" standalone="no" ?>
<gpx xmlns="http://www.topografix.com/GPX/1/1" xmlns:xsi="http://www.w3.org/2001/XMLSchema-instance" xsi:schemaLocation="http://www.topografix.com/GPX/1/1 http://www.topografix.com/GPX/1/1/gpx.xsd" version="1.1" creator="VisuGPX - https://www.visugpx.com">
  <metadata>
    <name>Les Chemins du Soleil Sud (2/6)</name>
    <desc><![CDATA[Les Chemins du Soleil Sud ou la traversée des préAlpes du Sud (Digne les Bains - Plan de Chaude)]]></desc>
  </metadata>
  <trk>
    <name><![CDATA[gtpas2 Digne Plan de Chaude]]></name>
    <trkseg>
      <trkpt lat="44.0841" lon="6.21633">
        <ele>598</ele>
        <time>2009-07-06T07:53:22Z</time>
      </trkpt>
      <trkpt lat="44.08408" lon="6.2164">
        <ele>599</ele>
        <time>2009-07-06T07:54:23Z</time>
      </trkpt>
      <trkpt lat="44.08405" lon="6.2165">
        <ele>599</ele>
        <time>2009-07-06T07:54:43Z</time>
      </trkpt>
      <trkpt lat="44.084" lon="6.21655">
        <ele>600</ele>
        <time>2009-07-06T07:56:18Z</time>
      </trkpt>
      <trkpt lat="44.08387" lon="6.21675">
        <ele>600</ele>
        <time>2009-07-06T07:56:46Z</time>
      </trkpt>
      <trkpt lat="44.08373" lon="6.21715">
        <ele>602</ele>
        <time>2009-07-06T07:56:58Z</time>
      </trkpt>
      <trkpt lat="44.08368" lon="6.21722">
        <ele>602</ele>
        <time>2009-07-06T07:57:00Z</time>
      </trkpt>
      <trkpt lat="44.08347" lon="6.21737">
        <ele>601</ele>
        <time>2009-07-06T07:57:05Z</time>
      </trkpt>
      <trkpt lat="44.08343" lon="6.21737">
        <ele>601</ele>
        <time>2009-07-06T07:57:06Z</time>
      </trkpt>
      <trkpt lat="44.08328" lon="6.2174">
        <ele>601</ele>
        <time>2009-07-06T07:57:09Z</time>
      </trkpt>
      <trkpt lat="44.08318" lon="6.2174">
        <ele>601</ele>
        <time>2009-07-06T07:57:11Z</time>
      </trkpt>
      <trkpt lat="44.08287" lon="6.21738">
        <ele>601</ele>
        <time>2009-07-06T07:57:17Z</time>
      </trkpt>
      <trkpt lat="44.08282" lon="6.21735">
        <ele>601</ele>
        <time>2009-07-06T07:57:18Z</time>
      </trkpt>
      <trkpt lat="44.08275" lon="6.21732">
        <ele>600</ele>
        <time>2009-07-06T07:57:20Z</time>
      </trkpt>
      <trkpt lat="44.0827" lon="6.21748">
        <ele>601</ele>
        <time>2009-07-06T07:57:24Z</time>
      </trkpt>
      <trkpt lat="44.08248" lon="6.21753">
        <ele>600</ele>
        <time>2009-07-06T07:57:32Z</time>
      </trkpt>
      <trkpt lat="44.08242" lon="6.21743">
        <ele>601</ele>
        <time>2009-07-06T07:57:35Z</time>
      </trkpt>
      <trkpt lat="44.08238" lon="6.21738">
        <ele>601</ele>
        <time>2009-07-06T07:57:36Z</time>
      </trkpt>
      <trkpt lat="44.08232" lon="6.21737">
        <ele>601</ele>
        <time>2009-07-06T07:57:37Z</time>
      </trkpt>
      <trkpt lat="44.08225" lon="6.21738">
        <ele>601</ele>
        <time>2009-07-06T07:57:38Z</time>
      </trkpt>
      <trkpt lat="44.08218" lon="6.21738">
        <ele>601</ele>
        <time>2009-07-06T07:57:39Z</time>
      </trkpt>
      <trkpt lat="44.08143" lon="6.21757">
        <ele>601</ele>
        <time>2009-07-06T07:57:48Z</time>
      </trkpt>
      <trkpt lat="44.08138" lon="6.21758">
        <ele>601</ele>
        <time>2009-07-06T07:57:49Z</time>
      </trkpt>
      <trkpt lat="44.08138" lon="6.21773">
        <ele>600</ele>
        <time>2009-07-06T07:57:54Z</time>
      </trkpt>
      <trkpt lat="44.0815" lon="6.21798">
        <ele>599</ele>
        <time>2009-07-06T07:57:59Z</time>
      </trkpt>
      <trkpt lat="44.0815" lon="6.21805">
        <ele>599</ele>
        <time>2009-07-06T07:58:00Z</time>
      </trkpt>
      <trkpt lat="44.0815" lon="6.2181">
        <ele>599</ele>
        <time>2009-07-06T07:58:01Z</time>
      </trkpt>
      <trkpt lat="44.08152" lon="6.21813">
        <ele>599</ele>
        <time>2009-07-06T07:58:02Z</time>
      </trkpt>
      <trkpt lat="44.08153" lon="6.21818">
        <ele>599</ele>
        <time>2009-07-06T07:58:03Z</time>
      </trkpt>
      <trkpt lat="44.08157" lon="6.21822">
        <ele>599</ele>
        <time>2009-07-06T07:58:04Z</time>
      </trkpt>
      <trkpt lat="44.08158" lon="6.21827">
        <ele>600</ele>
        <time>2009-07-06T07:58:05Z</time>
      </trkpt>
      <trkpt lat="44.08177" lon="6.2187">
        <ele>599</ele>
        <time>2009-07-06T07:58:18Z</time>
      </trkpt>
      <trkpt lat="44.08192" lon="6.21918">
        <ele>600</ele>
        <time>2009-07-06T07:58:31Z</time>
      </trkpt>
      <trkpt lat="44.08213" lon="6.21977">
        <ele>600</ele>
        <time>2009-07-06T07:58:44Z</time>
      </trkpt>
      <trkpt lat="44.08242" lon="6.22048">
        <ele>600</ele>
        <time>2009-07-06T07:59:00Z</time>
      </trkpt>
      <trkpt lat="44.0828" lon="6.22123">
        <ele>601</ele>
        <time>2009-07-06T07:59:17Z</time>
      </trkpt>
      <trkpt lat="44.0832" lon="6.22205">
        <ele>602</ele>
        <time>2009-07-06T07:59:35Z</time>
      </trkpt>
      <trkpt lat="44.08353" lon="6.22267">
        <ele>602</ele>
        <time>2009-07-06T07:59:49Z</time>
      </trkpt>
      <trkpt lat="44.08393" lon="6.22348">
        <ele>603</ele>
        <time>2009-07-06T08:00:06Z</time>
      </trkpt>
      <trkpt lat="44.08438" lon="6.22442">
        <ele>603</ele>
        <time>2009-07-06T08:00:26Z</time>
      </trkpt>
      <trkpt lat="44.08442" lon="6.22445">
        <ele>603</ele>
        <time>2009-07-06T08:00:27Z</time>
      </trkpt>
      <trkpt lat="44.08457" lon="6.22473">
        <ele>603</ele>
        <time>2009-07-06T08:00:33Z</time>
      </trkpt>
      <trkpt lat="44.08502" lon="6.22553">
        <ele>604</ele>
        <time>2009-07-06T08:00:50Z</time>
      </trkpt>
      <trkpt lat="44.08558" lon="6.22617">
        <ele>604</ele>
        <time>2009-07-06T08:01:07Z</time>
      </trkpt>
      <trkpt lat="44.08607" lon="6.22653">
        <ele>604</ele>
        <time>2009-07-06T08:01:22Z</time>
      </trkpt>
      <trkpt lat="44.08637" lon="6.22682">
        <ele>604</ele>
        <time>2009-07-06T08:01:35Z</time>
      </trkpt>
      <trkpt lat="44.0868" lon="6.2272">
        <ele>605</ele>
        <time>2009-07-06T08:01:49Z</time>
      </trkpt>
      <trkpt lat="44.08718" lon="6.22755">
        <ele>605</ele>
        <time>2009-07-06T08:02:02Z</time>
      </trkpt>
      <trkpt lat="44.0871" lon="6.22772">
        <ele>605</ele>
        <time>2009-07-06T08:02:15Z</time>
      </trkpt>
      <trkpt lat="44.08703" lon="6.22778">
        <ele>605</ele>
        <time>2009-07-06T08:02:31Z</time>
      </trkpt>
      <trkpt lat="44.08702" lon="6.22787">
        <ele>605</ele>
        <time>2009-07-06T08:02:34Z</time>
      </trkpt>
      <trkpt lat="44.08695" lon="6.22782">
        <ele>605</ele>
        <time>2009-07-06T08:02:42Z</time>
      </trkpt>
      <trkpt lat="44.08702" lon="6.22768">
        <ele>605</ele>
        <time>2009-07-06T08:02:46Z</time>
      </trkpt>
      <trkpt lat="44.08708" lon="6.22755">
        <ele>605</ele>
        <time>2009-07-06T08:02:50Z</time>
      </trkpt>
      <trkpt lat="44.08702" lon="6.22752">
        <ele>604</ele>
        <time>2009-07-06T08:02:56Z</time>
      </trkpt>
      <trkpt lat="44.08698" lon="6.22757">
        <ele>604</ele>
        <time>2009-07-06T08:03:10Z</time>
      </trkpt>
      <trkpt lat="44.08693" lon="6.22765">
        <ele>604</ele>
        <time>2009-07-06T08:03:15Z</time>
      </trkpt>
      <trkpt lat="44.08692" lon="6.22753">
        <ele>604</ele>
        <time>2009-07-06T08:03:23Z</time>
      </trkpt>
      <trkpt lat="44.08702" lon="6.2274">
        <ele>604</ele>
        <time>2009-07-06T08:03:30Z</time>
      </trkpt>
      <trkpt lat="44.0871" lon="6.22747">
        <ele>604</ele>
        <time>2009-07-06T08:03:45Z</time>
      </trkpt>
      <trkpt lat="44.08725" lon="6.2276">
        <ele>603</ele>
        <time>2009-07-06T08:04:57Z</time>
      </trkpt>
      <trkpt lat="44.08728" lon="6.22763">
        <ele>604</ele>
        <time>2009-07-06T08:05:05Z</time>
      </trkpt>
      <trkpt lat="44.08755" lon="6.22787">
        <ele>604</ele>
        <time>2009-07-06T08:05:17Z</time>
      </trkpt>
      <trkpt lat="44.08797" lon="6.2282">
        <ele>604</ele>
        <time>2009-07-06T08:05:33Z</time>
      </trkpt>
      <trkpt lat="44.0883" lon="6.2285">
        <ele>604</ele>
        <time>2009-07-06T08:05:47Z</time>
      </trkpt>
      <trkpt lat="44.08872" lon="6.22885">
        <ele>604</ele>
        <time>2009-07-06T08:06:03Z</time>
      </trkpt>
      <trkpt lat="44.08907" lon="6.22918">
        <ele>605</ele>
        <time>2009-07-06T08:06:18Z</time>
      </trkpt>
      <trkpt lat="44.08943" lon="6.22947">
        <ele>605</ele>
        <time>2009-07-06T08:06:32Z</time>
      </trkpt>
      <trkpt lat="44.08992" lon="6.2299">
        <ele>606</ele>
        <time>2009-07-06T08:06:49Z</time>
      </trkpt>
      <trkpt lat="44.09033" lon="6.23032">
        <ele>607</ele>
        <time>2009-07-06T08:07:05Z</time>
      </trkpt>
      <trkpt lat="44.09035" lon="6.23042">
        <ele>607</ele>
        <time>2009-07-06T08:07:09Z</time>
      </trkpt>
      <trkpt lat="44.0904" lon="6.23047">
        <ele>607</ele>
        <time>2009-07-06T08:07:13Z</time>
      </trkpt>
      <trkpt lat="44.09057" lon="6.23047">
        <ele>607</ele>
        <time>2009-07-06T08:07:19Z</time>
      </trkpt>
      <trkpt lat="44.09062" lon="6.23052">
        <ele>607</ele>
        <time>2009-07-06T08:07:25Z</time>
      </trkpt>
      <trkpt lat="44.0906" lon="6.23082">
        <ele>608</ele>
        <time>2009-07-06T08:07:31Z</time>
      </trkpt>
      <trkpt lat="44.09065" lon="6.23087">
        <ele>609</ele>
        <time>2009-07-06T08:07:34Z</time>
      </trkpt>
      <trkpt lat="44.09068" lon="6.23098">
        <ele>609</ele>
        <time>2009-07-06T08:07:38Z</time>
      </trkpt>
      <trkpt lat="44.0908" lon="6.23133">
        <ele>609</ele>
        <time>2009-07-06T08:07:48Z</time>
      </trkpt>
      <trkpt lat="44.09095" lon="6.2318">
        <ele>608</ele>
        <time>2009-07-06T08:07:59Z</time>
      </trkpt>
      <trkpt lat="44.0908" lon="6.23258">
        <ele>607</ele>
        <time>2009-07-06T08:08:13Z</time>
      </trkpt>
      <trkpt lat="44.09062" lon="6.2334">
        <ele>608</ele>
        <time>2009-07-06T08:08:28Z</time>
      </trkpt>
      <trkpt lat="44.09048" lon="6.23422">
        <ele>609</ele>
        <time>2009-07-06T08:08:42Z</time>
      </trkpt>
      <trkpt lat="44.09047" lon="6.23503">
        <ele>610</ele>
        <time>2009-07-06T08:08:57Z</time>
      </trkpt>
      <trkpt lat="44.09035" lon="6.23585">
        <ele>611</ele>
        <time>2009-07-06T08:09:12Z</time>
      </trkpt>
      <trkpt lat="44.09017" lon="6.23665">
        <ele>611</ele>
        <time>2009-07-06T08:09:27Z</time>
      </trkpt>
      <trkpt lat="44.09005" lon="6.2369">
        <ele>612</ele>
        <time>2009-07-06T08:09:33Z</time>
      </trkpt>
      <trkpt lat="44.09007" lon="6.23702">
        <ele>612</ele>
        <time>2009-07-06T08:09:35Z</time>
      </trkpt>
      <trkpt lat="44.09002" lon="6.23743">
        <ele>612</ele>
        <time>2009-07-06T08:09:42Z</time>
      </trkpt>
      <trkpt lat="44.08978" lon="6.23858">
        <ele>613</ele>
        <time>2009-07-06T08:10:02Z</time>
      </trkpt>
      <trkpt lat="44.08972" lon="6.23892">
        <ele>613</ele>
        <time>2009-07-06T08:10:08Z</time>
      </trkpt>
      <trkpt lat="44.08968" lon="6.2391">
        <ele>613</ele>
        <time>2009-07-06T08:10:11Z</time>
      </trkpt>
      <trkpt lat="44.08972" lon="6.2401">
        <ele>614</ele>
        <time>2009-07-06T08:10:29Z</time>
      </trkpt>
      <trkpt lat="44.08995" lon="6.24078">
        <ele>615</ele>
        <time>2009-07-06T08:10:43Z</time>
      </trkpt>
      <trkpt lat="44.09018" lon="6.24122">
        <ele>615</ele>
        <time>2009-07-06T08:10:52Z</time>
      </trkpt>
      <trkpt lat="44.09063" lon="6.24212">
        <ele>616</ele>
        <time>2009-07-06T08:11:12Z</time>
      </trkpt>
      <trkpt lat="44.09068" lon="6.24225">
        <ele>617</ele>
        <time>2009-07-06T08:11:15Z</time>
      </trkpt>
      <trkpt lat="44.0911" lon="6.24303">
        <ele>618</ele>
        <time>2009-07-06T08:11:32Z</time>
      </trkpt>
      <trkpt lat="44.09118" lon="6.24357">
        <ele>620</ele>
        <time>2009-07-06T08:11:44Z</time>
      </trkpt>
      <trkpt lat="44.0911" lon="6.24403">
        <ele>622</ele>
        <time>2009-07-06T08:11:56Z</time>
      </trkpt>
      <trkpt lat="44.09087" lon="6.24452">
        <ele>622</ele>
        <time>2009-07-06T08:12:07Z</time>
      </trkpt>
      <trkpt lat="44.09072" lon="6.24478">
        <ele>621</ele>
        <time>2009-07-06T08:12:12Z</time>
      </trkpt>
      <trkpt lat="44.09067" lon="6.24508">
        <ele>621</ele>
        <time>2009-07-06T08:12:16Z</time>
      </trkpt>
      <trkpt lat="44.09068" lon="6.24532">
        <ele>620</ele>
        <time>2009-07-06T08:12:19Z</time>
      </trkpt>
      <trkpt lat="44.09067" lon="6.2457">
        <ele>620</ele>
        <time>2009-07-06T08:12:24Z</time>
      </trkpt>
      <trkpt lat="44.09052" lon="6.24605">
        <ele>621</ele>
        <time>2009-07-06T08:12:30Z</time>
      </trkpt>
      <trkpt lat="44.09043" lon="6.2462">
        <ele>621</ele>
        <time>2009-07-06T08:12:33Z</time>
      </trkpt>
      <trkpt lat="44.09007" lon="6.24702">
        <ele>622</ele>
        <time>2009-07-06T08:12:48Z</time>
      </trkpt>
      <trkpt lat="44.08987" lon="6.24762">
        <ele>623</ele>
        <time>2009-07-06T08:12:58Z</time>
      </trkpt>
      <trkpt lat="44.08985" lon="6.24782">
        <ele>623</ele>
        <time>2009-07-06T08:13:01Z</time>
      </trkpt>
      <trkpt lat="44.08987" lon="6.24802">
        <ele>624</ele>
        <time>2009-07-06T08:13:04Z</time>
      </trkpt>
      <trkpt lat="44.08985" lon="6.24832">
        <ele>624</ele>
        <time>2009-07-06T08:13:09Z</time>
      </trkpt>
      <trkpt lat="44.08977" lon="6.2486">
        <ele>625</ele>
        <time>2009-07-06T08:13:14Z</time>
      </trkpt>
      <trkpt lat="44.08962" lon="6.24883">
        <ele>625</ele>
        <time>2009-07-06T08:13:19Z</time>
      </trkpt>
      <trkpt lat="44.08903" lon="6.24917">
        <ele>626</ele>
        <time>2009-07-06T08:13:34Z</time>
      </trkpt>
      <trkpt lat="44.08872" lon="6.24933">
        <ele>626</ele>
        <time>2009-07-06T08:13:42Z</time>
      </trkpt>
      <trkpt lat="44.08802" lon="6.2497">
        <ele>629</ele>
        <time>2009-07-06T08:14:00Z</time>
      </trkpt>
      <trkpt lat="44.0876" lon="6.2499">
        <ele>631</ele>
        <time>2009-07-06T08:14:13Z</time>
      </trkpt>
      <trkpt lat="44.08735" lon="6.25037">
        <ele>632</ele>
        <time>2009-07-06T08:14:27Z</time>
      </trkpt>
      <trkpt lat="44.08733" lon="6.25038">
        <ele>632</ele>
        <time>2009-07-06T08:14:28Z</time>
      </trkpt>
      <trkpt lat="44.0872" lon="6.25033">
        <ele>631</ele>
        <time>2009-07-06T08:14:36Z</time>
      </trkpt>
      <trkpt lat="44.08692" lon="6.25008">
        <ele>631</ele>
        <time>2009-07-06T08:14:47Z</time>
      </trkpt>
      <trkpt lat="44.08653" lon="6.24997">
        <ele>632</ele>
        <time>2009-07-06T08:14:59Z</time>
      </trkpt>
      <trkpt lat="44.08602" lon="6.24992">
        <ele>634</ele>
        <time>2009-07-06T08:15:14Z</time>
      </trkpt>
      <trkpt lat="44.08557" lon="6.24995">
        <ele>634</ele>
        <time>2009-07-06T08:15:28Z</time>
      </trkpt>
      <trkpt lat="44.08513" lon="6.25022">
        <ele>635</ele>
        <time>2009-07-06T08:15:43Z</time>
      </trkpt>
      <trkpt lat="44.08485" lon="6.25058">
        <ele>636</ele>
        <time>2009-07-06T08:15:56Z</time>
      </trkpt>
      <trkpt lat="44.08467" lon="6.25097">
        <ele>637</ele>
        <time>2009-07-06T08:16:07Z</time>
      </trkpt>
      <trkpt lat="44.08452" lon="6.25145">
        <ele>638</ele>
        <time>2009-07-06T08:16:19Z</time>
      </trkpt>
      <trkpt lat="44.08442" lon="6.252">
        <ele>638</ele>
        <time>2009-07-06T08:16:29Z</time>
      </trkpt>
      <trkpt lat="44.08442" lon="6.25253">
        <ele>640</ele>
        <time>2009-07-06T08:16:42Z</time>
      </trkpt>
      <trkpt lat="44.08445" lon="6.25263">
        <ele>641</ele>
        <time>2009-07-06T08:16:45Z</time>
      </trkpt>
      <trkpt lat="44.08438" lon="6.25277">
        <ele>642</ele>
        <time>2009-07-06T08:16:51Z</time>
      </trkpt>
      <trkpt lat="44.08428" lon="6.25273">
        <ele>642</ele>
        <time>2009-07-06T08:17:06Z</time>
      </trkpt>
      <trkpt lat="44.0841" lon="6.25263">
        <ele>641</ele>
        <time>2009-07-06T08:17:18Z</time>
      </trkpt>
      <trkpt lat="44.08385" lon="6.25282">
        <ele>640</ele>
        <time>2009-07-06T08:17:26Z</time>
      </trkpt>
      <trkpt lat="44.08333" lon="6.25335">
        <ele>641</ele>
        <time>2009-07-06T08:17:43Z</time>
      </trkpt>
      <trkpt lat="44.0829" lon="6.25378">
        <ele>643</ele>
        <time>2009-07-06T08:17:58Z</time>
      </trkpt>
      <trkpt lat="44.08258" lon="6.25427">
        <ele>644</ele>
        <time>2009-07-06T08:18:11Z</time>
      </trkpt>
      <trkpt lat="44.08207" lon="6.25448">
        <ele>645</ele>
        <time>2009-07-06T08:18:26Z</time>
      </trkpt>
      <trkpt lat="44.08187" lon="6.25482">
        <ele>646</ele>
        <time>2009-07-06T08:18:37Z</time>
      </trkpt>
      <trkpt lat="44.08185" lon="6.25495">
        <ele>647</ele>
        <time>2009-07-06T08:18:41Z</time>
      </trkpt>
      <trkpt lat="44.08175" lon="6.25497">
        <ele>646</ele>
        <time>2009-07-06T08:18:47Z</time>
      </trkpt>
      <trkpt lat="44.08137" lon="6.2546">
        <ele>648</ele>
        <time>2009-07-06T08:19:01Z</time>
      </trkpt>
      <trkpt lat="44.0812" lon="6.25475">
        <ele>648</ele>
        <time>2009-07-06T08:19:08Z</time>
      </trkpt>
      <trkpt lat="44.08112" lon="6.25493">
        <ele>649</ele>
        <time>2009-07-06T08:19:14Z</time>
      </trkpt>
      <trkpt lat="44.0809" lon="6.25535">
        <ele>650</ele>
        <time>2009-07-06T08:19:27Z</time>
      </trkpt>
      <trkpt lat="44.08065" lon="6.2556">
        <ele>651</ele>
        <time>2009-07-06T08:19:38Z</time>
      </trkpt>
      <trkpt lat="44.08053" lon="6.25593">
        <ele>653</ele>
        <time>2009-07-06T08:19:49Z</time>
      </trkpt>
      <trkpt lat="44.08038" lon="6.25628">
        <ele>653</ele>
        <time>2009-07-06T08:20:02Z</time>
      </trkpt>
      <trkpt lat="44.08023" lon="6.25655">
        <ele>653</ele>
        <time>2009-07-06T08:20:12Z</time>
      </trkpt>
      <trkpt lat="44.08012" lon="6.25702">
        <ele>654</ele>
        <time>2009-07-06T08:20:24Z</time>
      </trkpt>
      <trkpt lat="44.07992" lon="6.25755">
        <ele>654</ele>
        <time>2009-07-06T08:20:37Z</time>
      </trkpt>
      <trkpt lat="44.07973" lon="6.25797">
        <ele>653</ele>
        <time>2009-07-06T08:20:49Z</time>
      </trkpt>
      <trkpt lat="44.07973" lon="6.25802">
        <ele>653</ele>
        <time>2009-07-06T08:20:51Z</time>
      </trkpt>
      <trkpt lat="44.0797" lon="6.25822">
        <ele>654</ele>
        <time>2009-07-06T08:20:57Z</time>
      </trkpt>
      <trkpt lat="44.07963" lon="6.25863">
        <ele>653</ele>
        <time>2009-07-06T08:21:09Z</time>
      </trkpt>
      <trkpt lat="44.07963" lon="6.25867">
        <ele>653</ele>
        <time>2009-07-06T08:21:10Z</time>
      </trkpt>
      <trkpt lat="44.07985" lon="6.25913">
        <ele>653</ele>
        <time>2009-07-06T08:21:22Z</time>
      </trkpt>
      <trkpt lat="44.08002" lon="6.25943">
        <ele>653</ele>
        <time>2009-07-06T08:21:36Z</time>
      </trkpt>
      <trkpt lat="44.08002" lon="6.25957">
        <ele>653</ele>
        <time>2009-07-06T08:22:34Z</time>
      </trkpt>
      <trkpt lat="44.07978" lon="6.25997">
        <ele>653</ele>
        <time>2009-07-06T08:22:45Z</time>
      </trkpt>
      <trkpt lat="44.07977" lon="6.26005">
        <ele>653</ele>
        <time>2009-07-06T08:22:54Z</time>
      </trkpt>
      <trkpt lat="44.07983" lon="6.2602">
        <ele>655</ele>
        <time>2009-07-06T08:23:05Z</time>
      </trkpt>
      <trkpt lat="44.0799" lon="6.2603">
        <ele>655</ele>
        <time>2009-07-06T08:23:12Z</time>
      </trkpt>
      <trkpt lat="44.07983" lon="6.26058">
        <ele>655</ele>
        <time>2009-07-06T08:23:21Z</time>
      </trkpt>
      <trkpt lat="44.0798" lon="6.26068">
        <ele>656</ele>
        <time>2009-07-06T08:23:25Z</time>
      </trkpt>
      <trkpt lat="44.07967" lon="6.26118">
        <ele>659</ele>
        <time>2009-07-06T08:23:41Z</time>
      </trkpt>
      <trkpt lat="44.07965" lon="6.26123">
        <ele>659</ele>
        <time>2009-07-06T08:23:43Z</time>
      </trkpt>
      <trkpt lat="44.07962" lon="6.2614">
        <ele>660</ele>
        <time>2009-07-06T08:23:48Z</time>
      </trkpt>
      <trkpt lat="44.07952" lon="6.26188">
        <ele>662</ele>
        <time>2009-07-06T08:24:03Z</time>
      </trkpt>
      <trkpt lat="44.07948" lon="6.26237">
        <ele>662</ele>
        <time>2009-07-06T08:24:15Z</time>
      </trkpt>
      <trkpt lat="44.07937" lon="6.2629">
        <ele>662</ele>
        <time>2009-07-06T08:24:27Z</time>
      </trkpt>
      <trkpt lat="44.07935" lon="6.26388">
        <ele>664</ele>
        <time>2009-07-06T08:24:45Z</time>
      </trkpt>
      <trkpt lat="44.07935" lon="6.26455">
        <ele>666</ele>
        <time>2009-07-06T08:24:59Z</time>
      </trkpt>
      <trkpt lat="44.07933" lon="6.26518">
        <ele>667</ele>
        <time>2009-07-06T08:25:12Z</time>
      </trkpt>
      <trkpt lat="44.0793" lon="6.26607">
        <ele>669</ele>
        <time>2009-07-06T08:25:31Z</time>
      </trkpt>
      <trkpt lat="44.07922" lon="6.26657">
        <ele>669</ele>
        <time>2009-07-06T08:25:42Z</time>
      </trkpt>
      <trkpt lat="44.07925" lon="6.26717">
        <ele>670</ele>
        <time>2009-07-06T08:25:54Z</time>
      </trkpt>
      <trkpt lat="44.07935" lon="6.26735">
        <ele>670</ele>
        <time>2009-07-06T08:26:01Z</time>
      </trkpt>
      <trkpt lat="44.0793" lon="6.26747">
        <ele>672</ele>
        <time>2009-07-06T08:26:12Z</time>
      </trkpt>
      <trkpt lat="44.07925" lon="6.26757">
        <ele>675</ele>
        <time>2009-07-06T08:26:23Z</time>
      </trkpt>
      <trkpt lat="44.07925" lon="6.26763">
        <ele>676</ele>
        <time>2009-07-06T08:26:30Z</time>
      </trkpt>
      <trkpt lat="44.07917" lon="6.26777">
        <ele>677</ele>
        <time>2009-07-06T08:26:44Z</time>
      </trkpt>
      <trkpt lat="44.07893" lon="6.268">
        <ele>676</ele>
        <time>2009-07-06T08:26:53Z</time>
      </trkpt>
      <trkpt lat="44.07862" lon="6.26833">
        <ele>675</ele>
        <time>2009-07-06T08:27:03Z</time>
      </trkpt>
      <trkpt lat="44.07863" lon="6.2686">
        <ele>675</ele>
        <time>2009-07-06T08:27:08Z</time>
      </trkpt>
      <trkpt lat="44.0787" lon="6.26907">
        <ele>675</ele>
        <time>2009-07-06T08:27:17Z</time>
      </trkpt>
      <trkpt lat="44.07857" lon="6.26923">
        <ele>675</ele>
        <time>2009-07-06T08:27:21Z</time>
      </trkpt>
      <trkpt lat="44.07805" lon="6.26967">
        <ele>676</ele>
        <time>2009-07-06T08:27:35Z</time>
      </trkpt>
      <trkpt lat="44.0778" lon="6.26972">
        <ele>678</ele>
        <time>2009-07-06T08:27:46Z</time>
      </trkpt>
      <trkpt lat="44.07773" lon="6.26975">
        <ele>679</ele>
        <time>2009-07-06T08:27:51Z</time>
      </trkpt>
      <trkpt lat="44.07763" lon="6.26993">
        <ele>683</ele>
        <time>2009-07-06T08:28:05Z</time>
      </trkpt>
      <trkpt lat="44.07758" lon="6.27005">
        <ele>684</ele>
        <time>2009-07-06T08:28:13Z</time>
      </trkpt>
      <trkpt lat="44.0775" lon="6.2702">
        <ele>688</ele>
        <time>2009-07-06T08:28:23Z</time>
      </trkpt>
      <trkpt lat="44.07745" lon="6.27037">
        <ele>691</ele>
        <time>2009-07-06T08:28:29Z</time>
      </trkpt>
      <trkpt lat="44.07745" lon="6.27045">
        <ele>692</ele>
        <time>2009-07-06T08:28:33Z</time>
      </trkpt>
      <trkpt lat="44.07755" lon="6.27043">
        <ele>693</ele>
        <time>2009-07-06T08:28:40Z</time>
      </trkpt>
      <trkpt lat="44.07753" lon="6.27053">
        <ele>694</ele>
        <time>2009-07-06T08:28:49Z</time>
      </trkpt>
      <trkpt lat="44.0775" lon="6.27055">
        <ele>694</ele>
        <time>2009-07-06T08:28:51Z</time>
      </trkpt>
      <trkpt lat="44.07745" lon="6.27053">
        <ele>695</ele>
        <time>2009-07-06T08:28:55Z</time>
      </trkpt>
      <trkpt lat="44.0773" lon="6.27042">
        <ele>696</ele>
        <time>2009-07-06T08:29:08Z</time>
      </trkpt>
      <trkpt lat="44.07728" lon="6.27037">
        <ele>696</ele>
        <time>2009-07-06T08:29:10Z</time>
      </trkpt>
      <trkpt lat="44.07727" lon="6.27027">
        <ele>696</ele>
        <time>2009-07-06T08:29:15Z</time>
      </trkpt>
      <trkpt lat="44.07723" lon="6.27015">
        <ele>697</ele>
        <time>2009-07-06T08:29:20Z</time>
      </trkpt>
      <trkpt lat="44.07722" lon="6.2697">
        <ele>698</ele>
        <time>2009-07-06T08:29:36Z</time>
      </trkpt>
      <trkpt lat="44.07695" lon="6.26938">
        <ele>700</ele>
        <time>2009-07-06T08:29:52Z</time>
      </trkpt>
      <trkpt lat="44.07692" lon="6.26935">
        <ele>700</ele>
        <time>2009-07-06T08:29:55Z</time>
      </trkpt>
      <trkpt lat="44.07668" lon="6.269">
        <ele>701</ele>
        <time>2009-07-06T08:30:11Z</time>
      </trkpt>
      <trkpt lat="44.0764" lon="6.26883">
        <ele>703</ele>
        <time>2009-07-06T08:30:25Z</time>
      </trkpt>
      <trkpt lat="44.07613" lon="6.26898">
        <ele>703</ele>
        <time>2009-07-06T08:30:39Z</time>
      </trkpt>
      <trkpt lat="44.07607" lon="6.26913">
        <ele>702</ele>
        <time>2009-07-06T08:30:42Z</time>
      </trkpt>
      <trkpt lat="44.0759" lon="6.26935">
        <ele>700</ele>
        <time>2009-07-06T08:30:47Z</time>
      </trkpt>
      <trkpt lat="44.07577" lon="6.26942">
        <ele>700</ele>
        <time>2009-07-06T08:30:50Z</time>
      </trkpt>
      <trkpt lat="44.07558" lon="6.2696">
        <ele>698</ele>
        <time>2009-07-06T08:30:54Z</time>
      </trkpt>
      <trkpt lat="44.07548" lon="6.26993">
        <ele>696</ele>
        <time>2009-07-06T08:30:58Z</time>
      </trkpt>
      <trkpt lat="44.07537" lon="6.2706">
        <ele>693</ele>
        <time>2009-07-06T08:31:04Z</time>
      </trkpt>
      <trkpt lat="44.07513" lon="6.27097">
        <ele>691</ele>
        <time>2009-07-06T08:31:08Z</time>
      </trkpt>
      <trkpt lat="44.07465" lon="6.2709">
        <ele>688</ele>
        <time>2009-07-06T08:31:13Z</time>
      </trkpt>
      <trkpt lat="44.07457" lon="6.27088">
        <ele>689</ele>
        <time>2009-07-06T08:31:14Z</time>
      </trkpt>
      <trkpt lat="44.07425" lon="6.2709">
        <ele>689</ele>
        <time>2009-07-06T08:31:18Z</time>
      </trkpt>
      <trkpt lat="44.07402" lon="6.27098">
        <ele>689</ele>
        <time>2009-07-06T08:31:22Z</time>
      </trkpt>
      <trkpt lat="44.07383" lon="6.27113">
        <ele>690</ele>
        <time>2009-07-06T08:31:27Z</time>
      </trkpt>
      <trkpt lat="44.0736" lon="6.27123">
        <ele>690</ele>
        <time>2009-07-06T08:31:40Z</time>
      </trkpt>
      <trkpt lat="44.07323" lon="6.27128">
        <ele>691</ele>
        <time>2009-07-06T08:31:57Z</time>
      </trkpt>
      <trkpt lat="44.07283" lon="6.27132">
        <ele>692</ele>
        <time>2009-07-06T08:32:13Z</time>
      </trkpt>
      <trkpt lat="44.07245" lon="6.27133">
        <ele>693</ele>
        <time>2009-07-06T08:32:27Z</time>
      </trkpt>
      <trkpt lat="44.0721" lon="6.27195">
        <ele>693</ele>
        <time>2009-07-06T08:32:43Z</time>
      </trkpt>
      <trkpt lat="44.07173" lon="6.27223">
        <ele>694</ele>
        <time>2009-07-06T08:32:55Z</time>
      </trkpt>
      <trkpt lat="44.07128" lon="6.27248">
        <ele>696</ele>
        <time>2009-07-06T08:33:09Z</time>
      </trkpt>
      <trkpt lat="44.07093" lon="6.27243">
        <ele>696</ele>
        <time>2009-07-06T08:33:22Z</time>
      </trkpt>
      <trkpt lat="44.07087" lon="6.2724">
        <ele>696</ele>
        <time>2009-07-06T08:33:24Z</time>
      </trkpt>
      <trkpt lat="44.07075" lon="6.27198">
        <ele>696</ele>
        <time>2009-07-06T08:33:34Z</time>
      </trkpt>
      <trkpt lat="44.07068" lon="6.27163">
        <ele>695</ele>
        <time>2009-07-06T08:33:44Z</time>
      </trkpt>
      <trkpt lat="44.07068" lon="6.27143">
        <ele>695</ele>
        <time>2009-07-06T08:33:50Z</time>
      </trkpt>
      <trkpt lat="44.07095" lon="6.27128">
        <ele>697</ele>
        <time>2009-07-06T08:34:04Z</time>
      </trkpt>
      <trkpt lat="44.07108" lon="6.27113">
        <ele>698</ele>
        <time>2009-07-06T08:34:14Z</time>
      </trkpt>
      <trkpt lat="44.07117" lon="6.27098">
        <ele>700</ele>
        <time>2009-07-06T08:34:22Z</time>
      </trkpt>
      <trkpt lat="44.0712" lon="6.27092">
        <ele>700</ele>
        <time>2009-07-06T08:34:26Z</time>
      </trkpt>
      <trkpt lat="44.07128" lon="6.27073">
        <ele>702</ele>
        <time>2009-07-06T08:34:35Z</time>
      </trkpt>
      <trkpt lat="44.07148" lon="6.2704">
        <ele>704</ele>
        <time>2009-07-06T08:34:53Z</time>
      </trkpt>
      <trkpt lat="44.07163" lon="6.27023">
        <ele>706</ele>
        <time>2009-07-06T08:35:04Z</time>
      </trkpt>
      <trkpt lat="44.07182" lon="6.27003">
        <ele>708</ele>
        <time>2009-07-06T08:35:17Z</time>
      </trkpt>
      <trkpt lat="44.07197" lon="6.26993">
        <ele>710</ele>
        <time>2009-07-06T08:35:26Z</time>
      </trkpt>
      <trkpt lat="44.07213" lon="6.26985">
        <ele>712</ele>
        <time>2009-07-06T08:35:38Z</time>
      </trkpt>
      <trkpt lat="44.07237" lon="6.26977">
        <ele>714</ele>
        <time>2009-07-06T08:35:51Z</time>
      </trkpt>
      <trkpt lat="44.07242" lon="6.26972">
        <ele>714</ele>
        <time>2009-07-06T08:35:55Z</time>
      </trkpt>
      <trkpt lat="44.07262" lon="6.26965">
        <ele>717</ele>
        <time>2009-07-06T08:36:08Z</time>
      </trkpt>
      <trkpt lat="44.07278" lon="6.26957">
        <ele>719</ele>
        <time>2009-07-06T08:36:21Z</time>
      </trkpt>
      <trkpt lat="44.0728" lon="6.26955">
        <ele>719</ele>
        <time>2009-07-06T08:36:24Z</time>
      </trkpt>
      <trkpt lat="44.07278" lon="6.26933">
        <ele>722</ele>
        <time>2009-07-06T08:36:35Z</time>
      </trkpt>
      <trkpt lat="44.07277" lon="6.26923">
        <ele>723</ele>
        <time>2009-07-06T08:36:40Z</time>
      </trkpt>
      <trkpt lat="44.07293" lon="6.26912">
        <ele>725</ele>
        <time>2009-07-06T08:36:53Z</time>
      </trkpt>
      <trkpt lat="44.073" lon="6.26912">
        <ele>726</ele>
        <time>2009-07-06T08:36:57Z</time>
      </trkpt>
      <trkpt lat="44.07312" lon="6.26922">
        <ele>727</ele>
        <time>2009-07-06T08:37:06Z</time>
      </trkpt>
      <trkpt lat="44.07317" lon="6.26922">
        <ele>728</ele>
        <time>2009-07-06T08:37:09Z</time>
      </trkpt>
      <trkpt lat="44.07325" lon="6.2692">
        <ele>729</ele>
        <time>2009-07-06T08:37:14Z</time>
      </trkpt>
      <trkpt lat="44.07347" lon="6.26912">
        <ele>731</ele>
        <time>2009-07-06T08:37:29Z</time>
      </trkpt>
      <trkpt lat="44.07362" lon="6.26903">
        <ele>733</ele>
        <time>2009-07-06T08:37:41Z</time>
      </trkpt>
      <trkpt lat="44.07377" lon="6.26892">
        <ele>735</ele>
        <time>2009-07-06T08:37:54Z</time>
      </trkpt>
      <trkpt lat="44.07392" lon="6.26883">
        <ele>737</ele>
        <time>2009-07-06T08:38:05Z</time>
      </trkpt>
      <trkpt lat="44.07412" lon="6.2687">
        <ele>738</ele>
        <time>2009-07-06T08:38:19Z</time>
      </trkpt>
      <trkpt lat="44.0743" lon="6.26858">
        <ele>741</ele>
        <time>2009-07-06T08:38:31Z</time>
      </trkpt>
      <trkpt lat="44.07448" lon="6.26838">
        <ele>743</ele>
        <time>2009-07-06T08:38:47Z</time>
      </trkpt>
      <trkpt lat="44.0746" lon="6.26818">
        <ele>746</ele>
        <time>2009-07-06T08:39:03Z</time>
      </trkpt>
      <trkpt lat="44.07462" lon="6.26792">
        <ele>748</ele>
        <time>2009-07-06T08:39:16Z</time>
      </trkpt>
      <trkpt lat="44.07462" lon="6.26788">
        <ele>748</ele>
        <time>2009-07-06T08:39:18Z</time>
      </trkpt>
      <trkpt lat="44.0746" lon="6.26767">
        <ele>749</ele>
        <time>2009-07-06T08:39:29Z</time>
      </trkpt>
      <trkpt lat="44.07455" lon="6.26748">
        <ele>751</ele>
        <time>2009-07-06T08:39:38Z</time>
      </trkpt>
      <trkpt lat="44.07447" lon="6.2672">
        <ele>753</ele>
        <time>2009-07-06T08:39:53Z</time>
      </trkpt>
      <trkpt lat="44.07447" lon="6.26708">
        <ele>755</ele>
        <time>2009-07-06T08:40:01Z</time>
      </trkpt>
      <trkpt lat="44.07443" lon="6.26697">
        <ele>755</ele>
        <time>2009-07-06T08:40:09Z</time>
      </trkpt>
      <trkpt lat="44.07457" lon="6.2669">
        <ele>757</ele>
        <time>2009-07-06T08:40:20Z</time>
      </trkpt>
      <trkpt lat="44.07473" lon="6.26705">
        <ele>759</ele>
        <time>2009-07-06T08:40:35Z</time>
      </trkpt>
      <trkpt lat="44.07482" lon="6.2671">
        <ele>761</ele>
        <time>2009-07-06T08:40:42Z</time>
      </trkpt>
      <trkpt lat="44.0749" lon="6.2671">
        <ele>761</ele>
        <time>2009-07-06T08:40:48Z</time>
      </trkpt>
      <trkpt lat="44.07498" lon="6.2671">
        <ele>762</ele>
        <time>2009-07-06T08:40:53Z</time>
      </trkpt>
      <trkpt lat="44.07512" lon="6.26692">
        <ele>764</ele>
        <time>2009-07-06T08:41:10Z</time>
      </trkpt>
      <trkpt lat="44.07523" lon="6.26682">
        <ele>766</ele>
        <time>2009-07-06T08:41:21Z</time>
      </trkpt>
      <trkpt lat="44.07528" lon="6.26678">
        <ele>767</ele>
        <time>2009-07-06T08:41:25Z</time>
      </trkpt>
      <trkpt lat="44.07543" lon="6.26672">
        <ele>769</ele>
        <time>2009-07-06T08:41:37Z</time>
      </trkpt>
      <trkpt lat="44.07548" lon="6.2667">
        <ele>770</ele>
        <time>2009-07-06T08:41:42Z</time>
      </trkpt>
      <trkpt lat="44.07562" lon="6.26653">
        <ele>773</ele>
        <time>2009-07-06T08:41:56Z</time>
      </trkpt>
      <trkpt lat="44.07545" lon="6.26648">
        <ele>775</ele>
        <time>2009-07-06T08:42:06Z</time>
      </trkpt>
      <trkpt lat="44.07543" lon="6.2665">
        <ele>775</ele>
        <time>2009-07-06T08:42:07Z</time>
      </trkpt>
      <trkpt lat="44.0752" lon="6.26657">
        <ele>778</ele>
        <time>2009-07-06T08:42:25Z</time>
      </trkpt>
      <trkpt lat="44.0751" lon="6.2666">
        <ele>779</ele>
        <time>2009-07-06T08:42:31Z</time>
      </trkpt>
      <trkpt lat="44.07502" lon="6.26665">
        <ele>780</ele>
        <time>2009-07-06T08:42:37Z</time>
      </trkpt>
      <trkpt lat="44.07487" lon="6.26662">
        <ele>783</ele>
        <time>2009-07-06T08:42:50Z</time>
      </trkpt>
      <trkpt lat="44.07485" lon="6.26645">
        <ele>784</ele>
        <time>2009-07-06T08:42:59Z</time>
      </trkpt>
      <trkpt lat="44.0749" lon="6.26643">
        <ele>785</ele>
        <time>2009-07-06T08:43:02Z</time>
      </trkpt>
      <trkpt lat="44.07515" lon="6.26637">
        <ele>787</ele>
        <time>2009-07-06T08:43:16Z</time>
      </trkpt>
      <trkpt lat="44.07528" lon="6.26612">
        <ele>788</ele>
        <time>2009-07-06T08:43:29Z</time>
      </trkpt>
      <trkpt lat="44.07532" lon="6.26578">
        <ele>788</ele>
        <time>2009-07-06T08:43:42Z</time>
      </trkpt>
      <trkpt lat="44.07532" lon="6.26568">
        <ele>788</ele>
        <time>2009-07-06T08:43:55Z</time>
      </trkpt>
      <trkpt lat="44.0753" lon="6.26563">
        <ele>788</ele>
        <time>2009-07-06T08:44:43Z</time>
      </trkpt>
      <trkpt lat="44.07503" lon="6.26533">
        <ele>785</ele>
        <time>2009-07-06T08:44:51Z</time>
      </trkpt>
      <trkpt lat="44.0747" lon="6.26482">
        <ele>784</ele>
        <time>2009-07-06T08:44:58Z</time>
      </trkpt>
      <trkpt lat="44.07452" lon="6.26445">
        <ele>785</ele>
        <time>2009-07-06T08:45:09Z</time>
      </trkpt>
      <trkpt lat="44.07433" lon="6.26427">
        <ele>787</ele>
        <time>2009-07-06T08:45:22Z</time>
      </trkpt>
      <trkpt lat="44.07417" lon="6.26403">
        <ele>789</ele>
        <time>2009-07-06T08:45:35Z</time>
      </trkpt>
      <trkpt lat="44.07405" lon="6.26385">
        <ele>791</ele>
        <time>2009-07-06T08:45:46Z</time>
      </trkpt>
      <trkpt lat="44.07388" lon="6.26357">
        <ele>793</ele>
        <time>2009-07-06T08:46:00Z</time>
      </trkpt>
      <trkpt lat="44.0738" lon="6.26347">
        <ele>794</ele>
        <time>2009-07-06T08:46:08Z</time>
      </trkpt>
      <trkpt lat="44.07375" lon="6.26338">
        <ele>795</ele>
        <time>2009-07-06T08:46:13Z</time>
      </trkpt>
      <trkpt lat="44.07363" lon="6.26308">
        <ele>797</ele>
        <time>2009-07-06T08:46:28Z</time>
      </trkpt>
      <trkpt lat="44.07358" lon="6.26302">
        <ele>798</ele>
        <time>2009-07-06T08:46:34Z</time>
      </trkpt>
      <trkpt lat="44.07358" lon="6.26295">
        <ele>798</ele>
        <time>2009-07-06T08:46:38Z</time>
      </trkpt>
      <trkpt lat="44.07347" lon="6.26275">
        <ele>800</ele>
        <time>2009-07-06T08:46:52Z</time>
      </trkpt>
      <trkpt lat="44.07342" lon="6.2627">
        <ele>801</ele>
        <time>2009-07-06T08:46:55Z</time>
      </trkpt>
      <trkpt lat="44.0733" lon="6.26247">
        <ele>803</ele>
        <time>2009-07-06T08:47:08Z</time>
      </trkpt>
      <trkpt lat="44.07323" lon="6.2623">
        <ele>805</ele>
        <time>2009-07-06T08:47:19Z</time>
      </trkpt>
      <trkpt lat="44.0731" lon="6.26207">
        <ele>808</ele>
        <time>2009-07-06T08:47:33Z</time>
      </trkpt>
      <trkpt lat="44.0729" lon="6.26182">
        <ele>809</ele>
        <time>2009-07-06T08:47:45Z</time>
      </trkpt>
      <trkpt lat="44.07275" lon="6.26148">
        <ele>812</ele>
        <time>2009-07-06T08:47:58Z</time>
      </trkpt>
      <trkpt lat="44.07262" lon="6.2612">
        <ele>814</ele>
        <time>2009-07-06T08:48:10Z</time>
      </trkpt>
      <trkpt lat="44.0726" lon="6.26117">
        <ele>815</ele>
        <time>2009-07-06T08:48:12Z</time>
      </trkpt>
      <trkpt lat="44.07248" lon="6.26088">
        <ele>817</ele>
        <time>2009-07-06T08:48:24Z</time>
      </trkpt>
      <trkpt lat="44.07235" lon="6.26057">
        <ele>820</ele>
        <time>2009-07-06T08:48:35Z</time>
      </trkpt>
      <trkpt lat="44.07222" lon="6.2602">
        <ele>823</ele>
        <time>2009-07-06T08:48:45Z</time>
      </trkpt>
      <trkpt lat="44.07218" lon="6.25987">
        <ele>826</ele>
        <time>2009-07-06T08:48:55Z</time>
      </trkpt>
      <trkpt lat="44.07208" lon="6.25943">
        <ele>829</ele>
        <time>2009-07-06T08:49:09Z</time>
      </trkpt>
      <trkpt lat="44.07195" lon="6.259">
        <ele>832</ele>
        <time>2009-07-06T08:49:23Z</time>
      </trkpt>
      <trkpt lat="44.0718" lon="6.25867">
        <ele>835</ele>
        <time>2009-07-06T08:49:35Z</time>
      </trkpt>
      <trkpt lat="44.07165" lon="6.2584">
        <ele>836</ele>
        <time>2009-07-06T08:49:46Z</time>
      </trkpt>
      <trkpt lat="44.07158" lon="6.25833">
        <ele>836</ele>
        <time>2009-07-06T08:49:51Z</time>
      </trkpt>
      <trkpt lat="44.0714" lon="6.25805">
        <ele>838</ele>
        <time>2009-07-06T08:50:02Z</time>
      </trkpt>
      <trkpt lat="44.07122" lon="6.25763">
        <ele>839</ele>
        <time>2009-07-06T08:50:14Z</time>
      </trkpt>
      <trkpt lat="44.07108" lon="6.25723">
        <ele>841</ele>
        <time>2009-07-06T08:50:26Z</time>
      </trkpt>
      <trkpt lat="44.07093" lon="6.25678">
        <ele>844</ele>
        <time>2009-07-06T08:50:40Z</time>
      </trkpt>
      <trkpt lat="44.0709" lon="6.25658">
        <ele>846</ele>
        <time>2009-07-06T08:50:54Z</time>
      </trkpt>
      <trkpt lat="44.07097" lon="6.25658">
        <ele>848</ele>
        <time>2009-07-06T08:57:22Z</time>
      </trkpt>
      <trkpt lat="44.07093" lon="6.25647">
        <ele>849</ele>
        <time>2009-07-06T08:57:51Z</time>
      </trkpt>
      <trkpt lat="44.07095" lon="6.25645">
        <ele>848</ele>
        <time>2009-07-06T08:57:53Z</time>
      </trkpt>
      <trkpt lat="44.071" lon="6.25657">
        <ele>845</ele>
        <time>2009-07-06T08:57:58Z</time>
      </trkpt>
      <trkpt lat="44.0711" lon="6.25672">
        <ele>841</ele>
        <time>2009-07-06T08:58:03Z</time>
      </trkpt>
      <trkpt lat="44.0712" lon="6.25687">
        <ele>838</ele>
        <time>2009-07-06T08:58:12Z</time>
      </trkpt>
      <trkpt lat="44.07123" lon="6.25687">
        <ele>838</ele>
        <time>2009-07-06T08:59:16Z</time>
      </trkpt>
      <trkpt lat="44.07117" lon="6.25692">
        <ele>838</ele>
        <time>2009-07-06T09:00:45Z</time>
      </trkpt>
      <trkpt lat="44.07118" lon="6.257">
        <ele>837</ele>
        <time>2009-07-06T09:00:47Z</time>
      </trkpt>
      <trkpt lat="44.07132" lon="6.25733">
        <ele>834</ele>
        <time>2009-07-06T09:00:53Z</time>
      </trkpt>
      <trkpt lat="44.0715" lon="6.25743">
        <ele>836</ele>
        <time>2009-07-06T09:01:03Z</time>
      </trkpt>
      <trkpt lat="44.07152" lon="6.25743">
        <ele>836</ele>
        <time>2009-07-06T09:01:04Z</time>
      </trkpt>
      <trkpt lat="44.07175" lon="6.2575">
        <ele>840</ele>
        <time>2009-07-06T09:01:20Z</time>
      </trkpt>
      <trkpt lat="44.07198" lon="6.25763">
        <ele>843</ele>
        <time>2009-07-06T09:01:36Z</time>
      </trkpt>
      <trkpt lat="44.07203" lon="6.25765">
        <ele>844</ele>
        <time>2009-07-06T09:01:40Z</time>
      </trkpt>
      <trkpt lat="44.07208" lon="6.25772">
        <ele>844</ele>
        <time>2009-07-06T09:01:45Z</time>
      </trkpt>
      <trkpt lat="44.07215" lon="6.25777">
        <ele>845</ele>
        <time>2009-07-06T09:01:50Z</time>
      </trkpt>
      <trkpt lat="44.07235" lon="6.25792">
        <ele>847</ele>
        <time>2009-07-06T09:02:07Z</time>
      </trkpt>
      <trkpt lat="44.07248" lon="6.25797">
        <ele>849</ele>
        <time>2009-07-06T09:02:16Z</time>
      </trkpt>
      <trkpt lat="44.0725" lon="6.25797">
        <ele>849</ele>
        <time>2009-07-06T09:02:18Z</time>
      </trkpt>
      <trkpt lat="44.07265" lon="6.25807">
        <ele>852</ele>
        <time>2009-07-06T09:02:30Z</time>
      </trkpt>
      <trkpt lat="44.07285" lon="6.25828">
        <ele>852</ele>
        <time>2009-07-06T09:02:44Z</time>
      </trkpt>
      <trkpt lat="44.07288" lon="6.25837">
        <ele>854</ele>
        <time>2009-07-06T09:02:54Z</time>
      </trkpt>
      <trkpt lat="44.0729" lon="6.25835">
        <ele>857</ele>
        <time>2009-07-06T09:03:22Z</time>
      </trkpt>
      <trkpt lat="44.07288" lon="6.25822">
        <ele>858</ele>
        <time>2009-07-06T09:03:36Z</time>
      </trkpt>
      <trkpt lat="44.07283" lon="6.2581">
        <ele>859</ele>
        <time>2009-07-06T09:03:41Z</time>
      </trkpt>
      <trkpt lat="44.0727" lon="6.25793">
        <ele>861</ele>
        <time>2009-07-06T09:03:53Z</time>
      </trkpt>
      <trkpt lat="44.07267" lon="6.25778">
        <ele>861</ele>
        <time>2009-07-06T09:04:06Z</time>
      </trkpt>
      <trkpt lat="44.07265" lon="6.25775">
        <ele>861</ele>
        <time>2009-07-06T09:04:08Z</time>
      </trkpt>
      <trkpt lat="44.07263" lon="6.25768">
        <ele>862</ele>
        <time>2009-07-06T09:04:11Z</time>
      </trkpt>
      <trkpt lat="44.07252" lon="6.25762">
        <ele>863</ele>
        <time>2009-07-06T09:04:24Z</time>
      </trkpt>
      <trkpt lat="44.07252" lon="6.2576">
        <ele>863</ele>
        <time>2009-07-06T09:05:19Z</time>
      </trkpt>
      <trkpt lat="44.07248" lon="6.25753">
        <ele>864</ele>
        <time>2009-07-06T09:05:23Z</time>
      </trkpt>
      <trkpt lat="44.0724" lon="6.25723">
        <ele>866</ele>
        <time>2009-07-06T09:05:35Z</time>
      </trkpt>
      <trkpt lat="44.07228" lon="6.2571">
        <ele>868</ele>
        <time>2009-07-06T09:05:42Z</time>
      </trkpt>
      <trkpt lat="44.07225" lon="6.25707">
        <ele>868</ele>
        <time>2009-07-06T09:05:44Z</time>
      </trkpt>
      <trkpt lat="44.07217" lon="6.25687">
        <ele>870</ele>
        <time>2009-07-06T09:05:54Z</time>
      </trkpt>
      <trkpt lat="44.0721" lon="6.25673">
        <ele>871</ele>
        <time>2009-07-06T09:05:59Z</time>
      </trkpt>
      <trkpt lat="44.07192" lon="6.25647">
        <ele>874</ele>
        <time>2009-07-06T09:06:10Z</time>
      </trkpt>
      <trkpt lat="44.07185" lon="6.25628">
        <ele>875</ele>
        <time>2009-07-06T09:06:19Z</time>
      </trkpt>
      <trkpt lat="44.07178" lon="6.25615">
        <ele>876</ele>
        <time>2009-07-06T09:06:27Z</time>
      </trkpt>
      <trkpt lat="44.07177" lon="6.2561">
        <ele>876</ele>
        <time>2009-07-06T09:06:43Z</time>
      </trkpt>
      <trkpt lat="44.07177" lon="6.25608">
        <ele>876</ele>
        <time>2009-07-06T09:07:18Z</time>
      </trkpt>
      <trkpt lat="44.07175" lon="6.25605">
        <ele>877</ele>
        <time>2009-07-06T09:07:35Z</time>
      </trkpt>
      <trkpt lat="44.07157" lon="6.25573">
        <ele>880</ele>
        <time>2009-07-06T09:07:53Z</time>
      </trkpt>
      <trkpt lat="44.07153" lon="6.25555">
        <ele>882</ele>
        <time>2009-07-06T09:08:04Z</time>
      </trkpt>
      <trkpt lat="44.07158" lon="6.25535">
        <ele>884</ele>
        <time>2009-07-06T09:08:15Z</time>
      </trkpt>
      <trkpt lat="44.07152" lon="6.25517">
        <ele>886</ele>
        <time>2009-07-06T09:08:24Z</time>
      </trkpt>
      <trkpt lat="44.07147" lon="6.25508">
        <ele>886</ele>
        <time>2009-07-06T09:08:30Z</time>
      </trkpt>
      <trkpt lat="44.07143" lon="6.25498">
        <ele>887</ele>
        <time>2009-07-06T09:08:35Z</time>
      </trkpt>
      <trkpt lat="44.07137" lon="6.25473">
        <ele>890</ele>
        <time>2009-07-06T09:08:48Z</time>
      </trkpt>
      <trkpt lat="44.07138" lon="6.2547">
        <ele>890</ele>
        <time>2009-07-06T09:08:50Z</time>
      </trkpt>
      <trkpt lat="44.07132" lon="6.25455">
        <ele>891</ele>
        <time>2009-07-06T09:08:56Z</time>
      </trkpt>
      <trkpt lat="44.07128" lon="6.2545">
        <ele>891</ele>
        <time>2009-07-06T09:08:59Z</time>
      </trkpt>
      <trkpt lat="44.07127" lon="6.25447">
        <ele>891</ele>
        <time>2009-07-06T09:09:01Z</time>
      </trkpt>
      <trkpt lat="44.0713" lon="6.25442">
        <ele>892</ele>
        <time>2009-07-06T09:09:05Z</time>
      </trkpt>
      <trkpt lat="44.07128" lon="6.25433">
        <ele>893</ele>
        <time>2009-07-06T09:09:10Z</time>
      </trkpt>
      <trkpt lat="44.0713" lon="6.25425">
        <ele>893</ele>
        <time>2009-07-06T09:09:13Z</time>
      </trkpt>
      <trkpt lat="44.0712" lon="6.25388">
        <ele>896</ele>
        <time>2009-07-06T09:09:27Z</time>
      </trkpt>
      <trkpt lat="44.07118" lon="6.25385">
        <ele>896</ele>
        <time>2009-07-06T09:09:29Z</time>
      </trkpt>
      <trkpt lat="44.07117" lon="6.25378">
        <ele>897</ele>
        <time>2009-07-06T09:09:33Z</time>
      </trkpt>
      <trkpt lat="44.07113" lon="6.25367">
        <ele>898</ele>
        <time>2009-07-06T09:09:40Z</time>
      </trkpt>
      <trkpt lat="44.07105" lon="6.2535">
        <ele>899</ele>
        <time>2009-07-06T09:09:47Z</time>
      </trkpt>
      <trkpt lat="44.07102" lon="6.25345">
        <ele>899</ele>
        <time>2009-07-06T09:09:51Z</time>
      </trkpt>
      <trkpt lat="44.07088" lon="6.2532">
        <ele>901</ele>
        <time>2009-07-06T09:10:04Z</time>
      </trkpt>
      <trkpt lat="44.07087" lon="6.25308">
        <ele>902</ele>
        <time>2009-07-06T09:10:11Z</time>
      </trkpt>
      <trkpt lat="44.07077" lon="6.2529">
        <ele>904</ele>
        <time>2009-07-06T09:10:24Z</time>
      </trkpt>
      <trkpt lat="44.07072" lon="6.2527">
        <ele>906</ele>
        <time>2009-07-06T09:10:40Z</time>
      </trkpt>
      <trkpt lat="44.07082" lon="6.25242">
        <ele>909</ele>
        <time>2009-07-06T09:10:56Z</time>
      </trkpt>
      <trkpt lat="44.07083" lon="6.25238">
        <ele>909</ele>
        <time>2009-07-06T09:10:59Z</time>
      </trkpt>
      <trkpt lat="44.07075" lon="6.25215">
        <ele>911</ele>
        <time>2009-07-06T09:11:13Z</time>
      </trkpt>
      <trkpt lat="44.07067" lon="6.25205">
        <ele>913</ele>
        <time>2009-07-06T09:11:24Z</time>
      </trkpt>
      <trkpt lat="44.07052" lon="6.25217">
        <ele>914</ele>
        <time>2009-07-06T09:11:34Z</time>
      </trkpt>
      <trkpt lat="44.07045" lon="6.25215">
        <ele>914</ele>
        <time>2009-07-06T09:11:51Z</time>
      </trkpt>
      <trkpt lat="44.07045" lon="6.25213">
        <ele>914</ele>
        <time>2009-07-06T09:12:27Z</time>
      </trkpt>
      <trkpt lat="44.0704" lon="6.2519">
        <ele>916</ele>
        <time>2009-07-06T09:12:41Z</time>
      </trkpt>
      <trkpt lat="44.0704" lon="6.25185">
        <ele>916</ele>
        <time>2009-07-06T09:12:43Z</time>
      </trkpt>
      <trkpt lat="44.07042" lon="6.25178">
        <ele>917</ele>
        <time>2009-07-06T09:12:47Z</time>
      </trkpt>
      <trkpt lat="44.07027" lon="6.25143">
        <ele>920</ele>
        <time>2009-07-06T09:13:08Z</time>
      </trkpt>
      <trkpt lat="44.07025" lon="6.25135">
        <ele>921</ele>
        <time>2009-07-06T09:13:13Z</time>
      </trkpt>
      <trkpt lat="44.07025" lon="6.25132">
        <ele>921</ele>
        <time>2009-07-06T09:13:15Z</time>
      </trkpt>
      <trkpt lat="44.07012" lon="6.25122">
        <ele>922</ele>
        <time>2009-07-06T09:13:26Z</time>
      </trkpt>
      <trkpt lat="44.07007" lon="6.25113">
        <ele>923</ele>
        <time>2009-07-06T09:13:32Z</time>
      </trkpt>
      <trkpt lat="44.06993" lon="6.251">
        <ele>924</ele>
        <time>2009-07-06T09:13:47Z</time>
      </trkpt>
      <trkpt lat="44.06987" lon="6.25088">
        <ele>925</ele>
        <time>2009-07-06T09:14:03Z</time>
      </trkpt>
      <trkpt lat="44.06972" lon="6.25073">
        <ele>927</ele>
        <time>2009-07-06T09:14:39Z</time>
      </trkpt>
      <trkpt lat="44.06962" lon="6.25068">
        <ele>928</ele>
        <time>2009-07-06T09:14:52Z</time>
      </trkpt>
      <trkpt lat="44.06953" lon="6.25067">
        <ele>930</ele>
        <time>2009-07-06T09:14:57Z</time>
      </trkpt>
      <trkpt lat="44.06943" lon="6.25063">
        <ele>931</ele>
        <time>2009-07-06T09:15:03Z</time>
      </trkpt>
      <trkpt lat="44.06925" lon="6.25057">
        <ele>933</ele>
        <time>2009-07-06T09:15:19Z</time>
      </trkpt>
      <trkpt lat="44.06912" lon="6.25048">
        <ele>935</ele>
        <time>2009-07-06T09:15:32Z</time>
      </trkpt>
      <trkpt lat="44.06907" lon="6.25048">
        <ele>936</ele>
        <time>2009-07-06T09:15:34Z</time>
      </trkpt>
      <trkpt lat="44.06892" lon="6.25047">
        <ele>936</ele>
        <time>2009-07-06T09:15:50Z</time>
      </trkpt>
      <trkpt lat="44.06888" lon="6.25045">
        <ele>938</ele>
        <time>2009-07-06T09:16:10Z</time>
      </trkpt>
      <trkpt lat="44.06908" lon="6.25047">
        <ele>941</ele>
        <time>2009-07-06T09:18:32Z</time>
      </trkpt>
      <trkpt lat="44.06938" lon="6.25045">
        <ele>944</ele>
        <time>2009-07-06T09:18:51Z</time>
      </trkpt>
      <trkpt lat="44.06948" lon="6.2504">
        <ele>946</ele>
        <time>2009-07-06T09:19:09Z</time>
      </trkpt>
      <trkpt lat="44.06943" lon="6.25035">
        <ele>947</ele>
        <time>2009-07-06T09:19:23Z</time>
      </trkpt>
      <trkpt lat="44.06927" lon="6.25023">
        <ele>948</ele>
        <time>2009-07-06T09:19:36Z</time>
      </trkpt>
      <trkpt lat="44.06915" lon="6.2502">
        <ele>950</ele>
        <time>2009-07-06T09:19:42Z</time>
      </trkpt>
      <trkpt lat="44.06892" lon="6.2502">
        <ele>952</ele>
        <time>2009-07-06T09:19:56Z</time>
      </trkpt>
      <trkpt lat="44.06887" lon="6.25015">
        <ele>953</ele>
        <time>2009-07-06T09:20:00Z</time>
      </trkpt>
      <trkpt lat="44.0687" lon="6.25012">
        <ele>956</ele>
        <time>2009-07-06T09:20:12Z</time>
      </trkpt>
      <trkpt lat="44.06852" lon="6.25012">
        <ele>958</ele>
        <time>2009-07-06T09:20:24Z</time>
      </trkpt>
      <trkpt lat="44.06845" lon="6.25017">
        <ele>958</ele>
        <time>2009-07-06T09:20:38Z</time>
      </trkpt>
      <trkpt lat="44.06833" lon="6.25023">
        <ele>959</ele>
        <time>2009-07-06T09:21:29Z</time>
      </trkpt>
      <trkpt lat="44.06813" lon="6.25032">
        <ele>960</ele>
        <time>2009-07-06T09:21:41Z</time>
      </trkpt>
      <trkpt lat="44.0681" lon="6.2503">
        <ele>961</ele>
        <time>2009-07-06T09:21:44Z</time>
      </trkpt>
      <trkpt lat="44.06805" lon="6.25003">
        <ele>963</ele>
        <time>2009-07-06T09:21:58Z</time>
      </trkpt>
      <trkpt lat="44.06802" lon="6.24982">
        <ele>965</ele>
        <time>2009-07-06T09:22:07Z</time>
      </trkpt>
      <trkpt lat="44.06802" lon="6.24977">
        <ele>965</ele>
        <time>2009-07-06T09:22:09Z</time>
      </trkpt>
      <trkpt lat="44.06803" lon="6.24965">
        <ele>966</ele>
        <time>2009-07-06T09:22:14Z</time>
      </trkpt>
      <trkpt lat="44.06803" lon="6.24958">
        <ele>966</ele>
        <time>2009-07-06T09:22:17Z</time>
      </trkpt>
      <trkpt lat="44.06793" lon="6.24942">
        <ele>967</ele>
        <time>2009-07-06T09:22:26Z</time>
      </trkpt>
      <trkpt lat="44.0679" lon="6.24918">
        <ele>969</ele>
        <time>2009-07-06T09:22:36Z</time>
      </trkpt>
      <trkpt lat="44.06777" lon="6.24918">
        <ele>969</ele>
        <time>2009-07-06T09:22:43Z</time>
      </trkpt>
      <trkpt lat="44.06768" lon="6.2491">
        <ele>970</ele>
        <time>2009-07-06T09:22:50Z</time>
      </trkpt>
      <trkpt lat="44.06757" lon="6.24888">
        <ele>972</ele>
        <time>2009-07-06T09:23:04Z</time>
      </trkpt>
      <trkpt lat="44.06757" lon="6.2488">
        <ele>972</ele>
        <time>2009-07-06T09:23:08Z</time>
      </trkpt>
      <trkpt lat="44.0675" lon="6.24868">
        <ele>973</ele>
        <time>2009-07-06T09:23:15Z</time>
      </trkpt>
      <trkpt lat="44.06752" lon="6.24852">
        <ele>975</ele>
        <time>2009-07-06T09:23:31Z</time>
      </trkpt>
      <trkpt lat="44.06755" lon="6.24835">
        <ele>977</ele>
        <time>2009-07-06T09:23:46Z</time>
      </trkpt>
      <trkpt lat="44.06757" lon="6.24823">
        <ele>976</ele>
        <time>2009-07-06T09:24:21Z</time>
      </trkpt>
      <trkpt lat="44.06755" lon="6.24815">
        <ele>977</ele>
        <time>2009-07-06T09:24:41Z</time>
      </trkpt>
      <trkpt lat="44.06755" lon="6.24807">
        <ele>977</ele>
        <time>2009-07-06T09:25:05Z</time>
      </trkpt>
      <trkpt lat="44.06757" lon="6.24802">
        <ele>977</ele>
        <time>2009-07-06T09:25:08Z</time>
      </trkpt>
      <trkpt lat="44.06757" lon="6.24798">
        <ele>978</ele>
        <time>2009-07-06T09:25:12Z</time>
      </trkpt>
      <trkpt lat="44.06727" lon="6.24808">
        <ele>980</ele>
        <time>2009-07-06T09:25:24Z</time>
      </trkpt>
      <trkpt lat="44.0671" lon="6.24817">
        <ele>983</ele>
        <time>2009-07-06T09:25:34Z</time>
      </trkpt>
      <trkpt lat="44.06702" lon="6.24823">
        <ele>983</ele>
        <time>2009-07-06T09:25:38Z</time>
      </trkpt>
      <trkpt lat="44.06698" lon="6.24825">
        <ele>983</ele>
        <time>2009-07-06T09:25:40Z</time>
      </trkpt>
      <trkpt lat="44.06688" lon="6.24807">
        <ele>985</ele>
        <time>2009-07-06T09:25:49Z</time>
      </trkpt>
      <trkpt lat="44.0668" lon="6.24785">
        <ele>987</ele>
        <time>2009-07-06T09:25:59Z</time>
      </trkpt>
      <trkpt lat="44.06672" lon="6.24777">
        <ele>988</ele>
        <time>2009-07-06T09:26:04Z</time>
      </trkpt>
      <trkpt lat="44.06667" lon="6.24768">
        <ele>988</ele>
        <time>2009-07-06T09:26:08Z</time>
      </trkpt>
      <trkpt lat="44.0666" lon="6.2476">
        <ele>989</ele>
        <time>2009-07-06T09:26:13Z</time>
      </trkpt>
      <trkpt lat="44.06655" lon="6.2476">
        <ele>990</ele>
        <time>2009-07-06T09:26:29Z</time>
      </trkpt>
      <trkpt lat="44.06662" lon="6.24752">
        <ele>992</ele>
        <time>2009-07-06T09:26:51Z</time>
      </trkpt>
      <trkpt lat="44.06668" lon="6.24747">
        <ele>993</ele>
        <time>2009-07-06T09:26:56Z</time>
      </trkpt>
      <trkpt lat="44.0668" lon="6.2476">
        <ele>994</ele>
        <time>2009-07-06T09:27:07Z</time>
      </trkpt>
      <trkpt lat="44.06695" lon="6.24763">
        <ele>996</ele>
        <time>2009-07-06T09:27:17Z</time>
      </trkpt>
      <trkpt lat="44.06695" lon="6.24765">
        <ele>996</ele>
        <time>2009-07-06T09:27:18Z</time>
      </trkpt>
      <trkpt lat="44.067" lon="6.2477">
        <ele>997</ele>
        <time>2009-07-06T09:27:21Z</time>
      </trkpt>
      <trkpt lat="44.06708" lon="6.2477">
        <ele>997</ele>
        <time>2009-07-06T09:27:26Z</time>
      </trkpt>
      <trkpt lat="44.06712" lon="6.24773">
        <ele>998</ele>
        <time>2009-07-06T09:27:31Z</time>
      </trkpt>
      <trkpt lat="44.06722" lon="6.24767">
        <ele>999</ele>
        <time>2009-07-06T09:27:48Z</time>
      </trkpt>
      <trkpt lat="44.06723" lon="6.24765">
        <ele>1001</ele>
        <time>2009-07-06T09:28:31Z</time>
      </trkpt>
      <trkpt lat="44.06722" lon="6.24763">
        <ele>1002</ele>
        <time>2009-07-06T09:28:32Z</time>
      </trkpt>
      <trkpt lat="44.06703" lon="6.24748">
        <ele>1005</ele>
        <time>2009-07-06T09:28:45Z</time>
      </trkpt>
      <trkpt lat="44.0669" lon="6.24732">
        <ele>1008</ele>
        <time>2009-07-06T09:28:57Z</time>
      </trkpt>
      <trkpt lat="44.06678" lon="6.24717">
        <ele>1010</ele>
        <time>2009-07-06T09:29:12Z</time>
      </trkpt>
      <trkpt lat="44.06677" lon="6.24712">
        <ele>1010</ele>
        <time>2009-07-06T09:29:14Z</time>
      </trkpt>
      <trkpt lat="44.0667" lon="6.24707">
        <ele>1012</ele>
        <time>2009-07-06T09:29:17Z</time>
      </trkpt>
      <trkpt lat="44.0667" lon="6.247">
        <ele>1014</ele>
        <time>2009-07-06T09:29:30Z</time>
      </trkpt>
      <trkpt lat="44.0668" lon="6.24698">
        <ele>1018</ele>
        <time>2009-07-06T09:29:46Z</time>
      </trkpt>
      <trkpt lat="44.06683" lon="6.24698">
        <ele>1019</ele>
        <time>2009-07-06T09:29:48Z</time>
      </trkpt>
      <trkpt lat="44.06693" lon="6.24697">
        <ele>1021</ele>
        <time>2009-07-06T09:29:52Z</time>
      </trkpt>
      <trkpt lat="44.0669" lon="6.24687">
        <ele>1023</ele>
        <time>2009-07-06T09:30:06Z</time>
      </trkpt>
      <trkpt lat="44.0668" lon="6.2468">
        <ele>1023</ele>
        <time>2009-07-06T09:32:20Z</time>
      </trkpt>
      <trkpt lat="44.06678" lon="6.2468">
        <ele>1023</ele>
        <time>2009-07-06T09:32:22Z</time>
      </trkpt>
      <trkpt lat="44.06663" lon="6.2467">
        <ele>1025</ele>
        <time>2009-07-06T09:32:34Z</time>
      </trkpt>
      <trkpt lat="44.06662" lon="6.24665">
        <ele>1025</ele>
        <time>2009-07-06T09:32:37Z</time>
      </trkpt>
      <trkpt lat="44.06658" lon="6.2464">
        <ele>1027</ele>
        <time>2009-07-06T09:32:48Z</time>
      </trkpt>
      <trkpt lat="44.0664" lon="6.24637">
        <ele>1029</ele>
        <time>2009-07-06T09:32:58Z</time>
      </trkpt>
      <trkpt lat="44.06627" lon="6.24625">
        <ele>1031</ele>
        <time>2009-07-06T09:33:11Z</time>
      </trkpt>
      <trkpt lat="44.06615" lon="6.24617">
        <ele>1032</ele>
        <time>2009-07-06T09:33:18Z</time>
      </trkpt>
      <trkpt lat="44.06612" lon="6.24613">
        <ele>1032</ele>
        <time>2009-07-06T09:33:22Z</time>
      </trkpt>
      <trkpt lat="44.06608" lon="6.2461">
        <ele>1033</ele>
        <time>2009-07-06T09:33:25Z</time>
      </trkpt>
      <trkpt lat="44.06607" lon="6.24603">
        <ele>1033</ele>
        <time>2009-07-06T09:33:29Z</time>
      </trkpt>
      <trkpt lat="44.06602" lon="6.24592">
        <ele>1034</ele>
        <time>2009-07-06T09:33:36Z</time>
      </trkpt>
      <trkpt lat="44.06583" lon="6.24595">
        <ele>1035</ele>
        <time>2009-07-06T09:33:47Z</time>
      </trkpt>
      <trkpt lat="44.06568" lon="6.2459">
        <ele>1036</ele>
        <time>2009-07-06T09:34:00Z</time>
      </trkpt>
      <trkpt lat="44.0657" lon="6.2459">
        <ele>1038</ele>
        <time>2009-07-06T09:34:14Z</time>
      </trkpt>
      <trkpt lat="44.06583" lon="6.24587">
        <ele>1039</ele>
        <time>2009-07-06T09:34:28Z</time>
      </trkpt>
      <trkpt lat="44.06587" lon="6.24585">
        <ele>1040</ele>
        <time>2009-07-06T09:34:38Z</time>
      </trkpt>
      <trkpt lat="44.06597" lon="6.24578">
        <ele>1040</ele>
        <time>2009-07-06T09:34:44Z</time>
      </trkpt>
      <trkpt lat="44.06603" lon="6.24585">
        <ele>1041</ele>
        <time>2009-07-06T09:34:51Z</time>
      </trkpt>
      <trkpt lat="44.06617" lon="6.2459">
        <ele>1043</ele>
        <time>2009-07-06T09:35:02Z</time>
      </trkpt>
      <trkpt lat="44.06647" lon="6.246">
        <ele>1046</ele>
        <time>2009-07-06T09:35:23Z</time>
      </trkpt>
      <trkpt lat="44.06668" lon="6.24598">
        <ele>1047</ele>
        <time>2009-07-06T09:35:38Z</time>
      </trkpt>
      <trkpt lat="44.06678" lon="6.24607">
        <ele>1049</ele>
        <time>2009-07-06T09:35:46Z</time>
      </trkpt>
      <trkpt lat="44.0669" lon="6.24613">
        <ele>1050</ele>
        <time>2009-07-06T09:35:55Z</time>
      </trkpt>
      <trkpt lat="44.06693" lon="6.24615">
        <ele>1050</ele>
        <time>2009-07-06T09:35:58Z</time>
      </trkpt>
      <trkpt lat="44.0671" lon="6.24618">
        <ele>1052</ele>
        <time>2009-07-06T09:36:10Z</time>
      </trkpt>
      <trkpt lat="44.0673" lon="6.24635">
        <ele>1054</ele>
        <time>2009-07-06T09:36:27Z</time>
      </trkpt>
      <trkpt lat="44.06733" lon="6.24637">
        <ele>1054</ele>
        <time>2009-07-06T09:36:49Z</time>
      </trkpt>
      <trkpt lat="44.06745" lon="6.24643">
        <ele>1057</ele>
        <time>2009-07-06T09:37:06Z</time>
      </trkpt>
      <trkpt lat="44.0675" lon="6.24643">
        <ele>1060</ele>
        <time>2009-07-06T09:37:23Z</time>
      </trkpt>
      <trkpt lat="44.06755" lon="6.24643">
        <ele>1062</ele>
        <time>2009-07-06T09:37:41Z</time>
      </trkpt>
      <trkpt lat="44.06763" lon="6.24633">
        <ele>1065</ele>
        <time>2009-07-06T09:37:58Z</time>
      </trkpt>
      <trkpt lat="44.06758" lon="6.24622">
        <ele>1066</ele>
        <time>2009-07-06T09:38:21Z</time>
      </trkpt>
      <trkpt lat="44.06755" lon="6.24615">
        <ele>1067</ele>
        <time>2009-07-06T09:38:38Z</time>
      </trkpt>
      <trkpt lat="44.06755" lon="6.24608">
        <ele>1070</ele>
        <time>2009-07-06T09:38:50Z</time>
      </trkpt>
      <trkpt lat="44.06765" lon="6.246">
        <ele>1072</ele>
        <time>2009-07-06T09:38:59Z</time>
      </trkpt>
      <trkpt lat="44.06775" lon="6.2459">
        <ele>1074</ele>
        <time>2009-07-06T09:39:07Z</time>
      </trkpt>
      <trkpt lat="44.06773" lon="6.24585">
        <ele>1075</ele>
        <time>2009-07-06T09:39:10Z</time>
      </trkpt>
      <trkpt lat="44.06772" lon="6.24577">
        <ele>1077</ele>
        <time>2009-07-06T09:39:15Z</time>
      </trkpt>
      <trkpt lat="44.0677" lon="6.2457">
        <ele>1077</ele>
        <time>2009-07-06T09:39:19Z</time>
      </trkpt>
      <trkpt lat="44.06773" lon="6.24567">
        <ele>1077</ele>
        <time>2009-07-06T09:39:22Z</time>
      </trkpt>
      <trkpt lat="44.0677" lon="6.24575">
        <ele>1077</ele>
        <time>2009-07-06T09:39:32Z</time>
      </trkpt>
      <trkpt lat="44.06768" lon="6.24572">
        <ele>1076</ele>
        <time>2009-07-06T09:40:07Z</time>
      </trkpt>
      <trkpt lat="44.0677" lon="6.24572">
        <ele>1079</ele>
        <time>2009-07-06T09:48:33Z</time>
      </trkpt>
      <trkpt lat="44.0677" lon="6.24568">
        <ele>1080</ele>
        <time>2009-07-06T09:48:49Z</time>
      </trkpt>
      <trkpt lat="44.06742" lon="6.24555">
        <ele>1080</ele>
        <time>2009-07-06T09:49:02Z</time>
      </trkpt>
      <trkpt lat="44.06702" lon="6.24525">
        <ele>1080</ele>
        <time>2009-07-06T09:49:15Z</time>
      </trkpt>
      <trkpt lat="44.06658" lon="6.245">
        <ele>1080</ele>
        <time>2009-07-06T09:49:28Z</time>
      </trkpt>
      <trkpt lat="44.06608" lon="6.2446">
        <ele>1081</ele>
        <time>2009-07-06T09:49:43Z</time>
      </trkpt>
      <trkpt lat="44.06563" lon="6.2446">
        <ele>1081</ele>
        <time>2009-07-06T09:49:57Z</time>
      </trkpt>
      <trkpt lat="44.06543" lon="6.2446">
        <ele>1080</ele>
        <time>2009-07-06T09:50:10Z</time>
      </trkpt>
      <trkpt lat="44.06532" lon="6.2446">
        <ele>1081</ele>
        <time>2009-07-06T09:50:38Z</time>
      </trkpt>
      <trkpt lat="44.06502" lon="6.24468">
        <ele>1081</ele>
        <time>2009-07-06T09:50:50Z</time>
      </trkpt>
      <trkpt lat="44.06475" lon="6.24467">
        <ele>1081</ele>
        <time>2009-07-06T09:50:59Z</time>
      </trkpt>
      <trkpt lat="44.0645" lon="6.2446">
        <ele>1082</ele>
        <time>2009-07-06T09:51:11Z</time>
      </trkpt>
      <trkpt lat="44.06435" lon="6.24453">
        <ele>1082</ele>
        <time>2009-07-06T09:51:27Z</time>
      </trkpt>
      <trkpt lat="44.06413" lon="6.24448">
        <ele>1082</ele>
        <time>2009-07-06T09:51:39Z</time>
      </trkpt>
      <trkpt lat="44.06372" lon="6.24455">
        <ele>1082</ele>
        <time>2009-07-06T09:51:50Z</time>
      </trkpt>
      <trkpt lat="44.06353" lon="6.24463">
        <ele>1081</ele>
        <time>2009-07-06T09:51:54Z</time>
      </trkpt>
      <trkpt lat="44.06337" lon="6.2447">
        <ele>1081</ele>
        <time>2009-07-06T09:51:58Z</time>
      </trkpt>
      <trkpt lat="44.06322" lon="6.24477">
        <ele>1080</ele>
        <time>2009-07-06T09:52:01Z</time>
      </trkpt>
      <trkpt lat="44.06297" lon="6.24495">
        <ele>1079</ele>
        <time>2009-07-06T09:52:06Z</time>
      </trkpt>
      <trkpt lat="44.0628" lon="6.24502">
        <ele>1079</ele>
        <time>2009-07-06T09:52:09Z</time>
      </trkpt>
      <trkpt lat="44.06258" lon="6.24513">
        <ele>1078</ele>
        <time>2009-07-06T09:52:14Z</time>
      </trkpt>
      <trkpt lat="44.06225" lon="6.24508">
        <ele>1077</ele>
        <time>2009-07-06T09:52:22Z</time>
      </trkpt>
      <trkpt lat="44.06193" lon="6.2451">
        <ele>1075</ele>
        <time>2009-07-06T09:52:31Z</time>
      </trkpt>
      <trkpt lat="44.06185" lon="6.24507">
        <ele>1075</ele>
        <time>2009-07-06T09:52:35Z</time>
      </trkpt>
      <trkpt lat="44.06145" lon="6.24505">
        <ele>1073</ele>
        <time>2009-07-06T09:52:46Z</time>
      </trkpt>
      <trkpt lat="44.06133" lon="6.24503">
        <ele>1072</ele>
        <time>2009-07-06T09:52:49Z</time>
      </trkpt>
      <trkpt lat="44.06092" lon="6.24505">
        <ele>1071</ele>
        <time>2009-07-06T09:53:00Z</time>
      </trkpt>
      <trkpt lat="44.06088" lon="6.24507">
        <ele>1071</ele>
        <time>2009-07-06T09:53:01Z</time>
      </trkpt>
      <trkpt lat="44.06075" lon="6.24505">
        <ele>1070</ele>
        <time>2009-07-06T09:53:06Z</time>
      </trkpt>
      <trkpt lat="44.06065" lon="6.24508">
        <ele>1070</ele>
        <time>2009-07-06T09:53:09Z</time>
      </trkpt>
      <trkpt lat="44.06057" lon="6.24515">
        <ele>1070</ele>
        <time>2009-07-06T09:53:12Z</time>
      </trkpt>
      <trkpt lat="44.06045" lon="6.24532">
        <ele>1069</ele>
        <time>2009-07-06T09:53:16Z</time>
      </trkpt>
      <trkpt lat="44.06023" lon="6.24553">
        <ele>1069</ele>
        <time>2009-07-06T09:53:24Z</time>
      </trkpt>
      <trkpt lat="44.05998" lon="6.24573">
        <ele>1068</ele>
        <time>2009-07-06T09:53:35Z</time>
      </trkpt>
      <trkpt lat="44.05993" lon="6.2459">
        <ele>1067</ele>
        <time>2009-07-06T09:53:43Z</time>
      </trkpt>
      <trkpt lat="44.05997" lon="6.24593">
        <ele>1066</ele>
        <time>2009-07-06T09:56:44Z</time>
      </trkpt>
      <trkpt lat="44.05982" lon="6.24615">
        <ele>1065</ele>
        <time>2009-07-06T09:56:57Z</time>
      </trkpt>
      <trkpt lat="44.05982" lon="6.24627">
        <ele>1065</ele>
        <time>2009-07-06T09:57:01Z</time>
      </trkpt>
      <trkpt lat="44.05965" lon="6.24643">
        <ele>1063</ele>
        <time>2009-07-06T09:57:10Z</time>
      </trkpt>
      <trkpt lat="44.05962" lon="6.24655">
        <ele>1063</ele>
        <time>2009-07-06T09:59:02Z</time>
      </trkpt>
      <trkpt lat="44.05933" lon="6.247">
        <ele>1061</ele>
        <time>2009-07-06T09:59:16Z</time>
      </trkpt>
      <trkpt lat="44.05928" lon="6.24705">
        <ele>1060</ele>
        <time>2009-07-06T09:59:19Z</time>
      </trkpt>
      <trkpt lat="44.0592" lon="6.2472">
        <ele>1060</ele>
        <time>2009-07-06T09:59:23Z</time>
      </trkpt>
      <trkpt lat="44.05903" lon="6.24738">
        <ele>1060</ele>
        <time>2009-07-06T09:59:35Z</time>
      </trkpt>
      <trkpt lat="44.05903" lon="6.24743">
        <ele>1059</ele>
        <time>2009-07-06T09:59:45Z</time>
      </trkpt>
      <trkpt lat="44.05892" lon="6.24802">
        <ele>1057</ele>
        <time>2009-07-06T09:59:53Z</time>
      </trkpt>
      <trkpt lat="44.05882" lon="6.24818">
        <ele>1057</ele>
        <time>2009-07-06T09:59:55Z</time>
      </trkpt>
      <trkpt lat="44.05867" lon="6.2483">
        <ele>1056</ele>
        <time>2009-07-06T09:59:59Z</time>
      </trkpt>
      <trkpt lat="44.05853" lon="6.2484">
        <ele>1055</ele>
        <time>2009-07-06T10:00:02Z</time>
      </trkpt>
      <trkpt lat="44.05838" lon="6.24847">
        <ele>1054</ele>
        <time>2009-07-06T10:00:05Z</time>
      </trkpt>
      <trkpt lat="44.05817" lon="6.24858">
        <ele>1053</ele>
        <time>2009-07-06T10:00:09Z</time>
      </trkpt>
      <trkpt lat="44.05808" lon="6.24867">
        <ele>1052</ele>
        <time>2009-07-06T10:00:11Z</time>
      </trkpt>
      <trkpt lat="44.0579" lon="6.24887">
        <ele>1051</ele>
        <time>2009-07-06T10:00:15Z</time>
      </trkpt>
      <trkpt lat="44.05782" lon="6.24897">
        <ele>1051</ele>
        <time>2009-07-06T10:00:17Z</time>
      </trkpt>
      <trkpt lat="44.0577" lon="6.24925">
        <ele>1049</ele>
        <time>2009-07-06T10:00:22Z</time>
      </trkpt>
      <trkpt lat="44.05763" lon="6.24943">
        <ele>1048</ele>
        <time>2009-07-06T10:00:26Z</time>
      </trkpt>
      <trkpt lat="44.05762" lon="6.24958">
        <ele>1047</ele>
        <time>2009-07-06T10:00:31Z</time>
      </trkpt>
      <trkpt lat="44.05753" lon="6.24977">
        <ele>1049</ele>
        <time>2009-07-06T10:00:38Z</time>
      </trkpt>
      <trkpt lat="44.05745" lon="6.24985">
        <ele>1050</ele>
        <time>2009-07-06T10:00:43Z</time>
      </trkpt>
      <trkpt lat="44.05733" lon="6.24993">
        <ele>1051</ele>
        <time>2009-07-06T10:00:51Z</time>
      </trkpt>
      <trkpt lat="44.0573" lon="6.24995">
        <ele>1052</ele>
        <time>2009-07-06T10:00:53Z</time>
      </trkpt>
      <trkpt lat="44.05712" lon="6.25007">
        <ele>1055</ele>
        <time>2009-07-06T10:01:08Z</time>
      </trkpt>
      <trkpt lat="44.0571" lon="6.25007">
        <ele>1055</ele>
        <time>2009-07-06T10:01:10Z</time>
      </trkpt>
      <trkpt lat="44.05702" lon="6.25013">
        <ele>1057</ele>
        <time>2009-07-06T10:01:32Z</time>
      </trkpt>
      <trkpt lat="44.05697" lon="6.2502">
        <ele>1059</ele>
        <time>2009-07-06T10:03:46Z</time>
      </trkpt>
      <trkpt lat="44.05675" lon="6.25037">
        <ele>1062</ele>
        <time>2009-07-06T10:03:57Z</time>
      </trkpt>
      <trkpt lat="44.05662" lon="6.25052">
        <ele>1064</ele>
        <time>2009-07-06T10:04:04Z</time>
      </trkpt>
      <trkpt lat="44.05632" lon="6.2506">
        <ele>1068</ele>
        <time>2009-07-06T10:04:17Z</time>
      </trkpt>
      <trkpt lat="44.05607" lon="6.25065">
        <ele>1071</ele>
        <time>2009-07-06T10:04:28Z</time>
      </trkpt>
      <trkpt lat="44.05603" lon="6.25065">
        <ele>1072</ele>
        <time>2009-07-06T10:04:29Z</time>
      </trkpt>
      <trkpt lat="44.05602" lon="6.25063">
        <ele>1072</ele>
        <time>2009-07-06T10:04:30Z</time>
      </trkpt>
      <trkpt lat="44.0559" lon="6.25063">
        <ele>1073</ele>
        <time>2009-07-06T10:04:38Z</time>
      </trkpt>
      <trkpt lat="44.05562" lon="6.25057">
        <ele>1076</ele>
        <time>2009-07-06T10:04:51Z</time>
      </trkpt>
      <trkpt lat="44.05542" lon="6.25042">
        <ele>1079</ele>
        <time>2009-07-06T10:05:04Z</time>
      </trkpt>
      <trkpt lat="44.05522" lon="6.25037">
        <ele>1082</ele>
        <time>2009-07-06T10:05:16Z</time>
      </trkpt>
      <trkpt lat="44.05498" lon="6.25037">
        <ele>1085</ele>
        <time>2009-07-06T10:05:28Z</time>
      </trkpt>
      <trkpt lat="44.05472" lon="6.25038">
        <ele>1088</ele>
        <time>2009-07-06T10:05:41Z</time>
      </trkpt>
      <trkpt lat="44.05448" lon="6.25042">
        <ele>1091</ele>
        <time>2009-07-06T10:05:52Z</time>
      </trkpt>
      <trkpt lat="44.0542" lon="6.2504">
        <ele>1095</ele>
        <time>2009-07-06T10:06:06Z</time>
      </trkpt>
      <trkpt lat="44.05397" lon="6.25038">
        <ele>1097</ele>
        <time>2009-07-06T10:06:19Z</time>
      </trkpt>
      <trkpt lat="44.05372" lon="6.25043">
        <ele>1101</ele>
        <time>2009-07-06T10:06:30Z</time>
      </trkpt>
      <trkpt lat="44.05348" lon="6.25047">
        <ele>1104</ele>
        <time>2009-07-06T10:06:41Z</time>
      </trkpt>
      <trkpt lat="44.05328" lon="6.25053">
        <ele>1107</ele>
        <time>2009-07-06T10:06:50Z</time>
      </trkpt>
      <trkpt lat="44.05307" lon="6.25053">
        <ele>1110</ele>
        <time>2009-07-06T10:07:01Z</time>
      </trkpt>
      <trkpt lat="44.05285" lon="6.2505">
        <ele>1113</ele>
        <time>2009-07-06T10:07:11Z</time>
      </trkpt>
      <trkpt lat="44.05262" lon="6.25045">
        <ele>1116</ele>
        <time>2009-07-06T10:07:24Z</time>
      </trkpt>
      <trkpt lat="44.05245" lon="6.25047">
        <ele>1118</ele>
        <time>2009-07-06T10:07:37Z</time>
      </trkpt>
      <trkpt lat="44.05223" lon="6.25047">
        <ele>1122</ele>
        <time>2009-07-06T10:07:50Z</time>
      </trkpt>
      <trkpt lat="44.05198" lon="6.25045">
        <ele>1124</ele>
        <time>2009-07-06T10:08:05Z</time>
      </trkpt>
      <trkpt lat="44.05185" lon="6.25037">
        <ele>1126</ele>
        <time>2009-07-06T10:08:14Z</time>
      </trkpt>
      <trkpt lat="44.05178" lon="6.25035">
        <ele>1127</ele>
        <time>2009-07-06T10:08:18Z</time>
      </trkpt>
      <trkpt lat="44.05172" lon="6.25033">
        <ele>1128</ele>
        <time>2009-07-06T10:08:22Z</time>
      </trkpt>
      <trkpt lat="44.05157" lon="6.25028">
        <ele>1130</ele>
        <time>2009-07-06T10:08:33Z</time>
      </trkpt>
      <trkpt lat="44.05135" lon="6.25022">
        <ele>1133</ele>
        <time>2009-07-06T10:08:46Z</time>
      </trkpt>
      <trkpt lat="44.0513" lon="6.25017">
        <ele>1134</ele>
        <time>2009-07-06T10:08:49Z</time>
      </trkpt>
      <trkpt lat="44.0511" lon="6.25002">
        <ele>1137</ele>
        <time>2009-07-06T10:09:00Z</time>
      </trkpt>
      <trkpt lat="44.051" lon="6.24995">
        <ele>1139</ele>
        <time>2009-07-06T10:09:06Z</time>
      </trkpt>
      <trkpt lat="44.05083" lon="6.24992">
        <ele>1142</ele>
        <time>2009-07-06T10:09:15Z</time>
      </trkpt>
      <trkpt lat="44.05073" lon="6.24978">
        <ele>1145</ele>
        <time>2009-07-06T10:09:23Z</time>
      </trkpt>
      <trkpt lat="44.0505" lon="6.24952">
        <ele>1148</ele>
        <time>2009-07-06T10:09:37Z</time>
      </trkpt>
      <trkpt lat="44.05045" lon="6.24947">
        <ele>1149</ele>
        <time>2009-07-06T10:09:40Z</time>
      </trkpt>
      <trkpt lat="44.05042" lon="6.24932">
        <ele>1149</ele>
        <time>2009-07-06T10:09:53Z</time>
      </trkpt>
      <trkpt lat="44.05042" lon="6.24925">
        <ele>1149</ele>
        <time>2009-07-06T10:10:09Z</time>
      </trkpt>
      <trkpt lat="44.0504" lon="6.24928">
        <ele>1150</ele>
        <time>2009-07-06T10:10:13Z</time>
      </trkpt>
      <trkpt lat="44.05038" lon="6.24937">
        <ele>1150</ele>
        <time>2009-07-06T10:10:16Z</time>
      </trkpt>
      <trkpt lat="44.05035" lon="6.24952">
        <ele>1152</ele>
        <time>2009-07-06T10:10:20Z</time>
      </trkpt>
      <trkpt lat="44.05032" lon="6.24963">
        <ele>1153</ele>
        <time>2009-07-06T10:10:25Z</time>
      </trkpt>
      <trkpt lat="44.0504" lon="6.24993">
        <ele>1155</ele>
        <time>2009-07-06T10:10:37Z</time>
      </trkpt>
      <trkpt lat="44.0504" lon="6.24998">
        <ele>1155</ele>
        <time>2009-07-06T10:10:39Z</time>
      </trkpt>
      <trkpt lat="44.05047" lon="6.2501">
        <ele>1156</ele>
        <time>2009-07-06T10:10:43Z</time>
      </trkpt>
      <trkpt lat="44.05055" lon="6.25025">
        <ele>1158</ele>
        <time>2009-07-06T10:10:51Z</time>
      </trkpt>
      <trkpt lat="44.05062" lon="6.25038">
        <ele>1159</ele>
        <time>2009-07-06T10:11:03Z</time>
      </trkpt>
      <trkpt lat="44.0507" lon="6.25055">
        <ele>1162</ele>
        <time>2009-07-06T10:11:15Z</time>
      </trkpt>
      <trkpt lat="44.05078" lon="6.25082">
        <ele>1165</ele>
        <time>2009-07-06T10:11:27Z</time>
      </trkpt>
      <trkpt lat="44.0509" lon="6.25108">
        <ele>1168</ele>
        <time>2009-07-06T10:11:39Z</time>
      </trkpt>
      <trkpt lat="44.05092" lon="6.2511">
        <ele>1168</ele>
        <time>2009-07-06T10:11:40Z</time>
      </trkpt>
      <trkpt lat="44.05105" lon="6.25128">
        <ele>1172</ele>
        <time>2009-07-06T10:11:50Z</time>
      </trkpt>
      <trkpt lat="44.05118" lon="6.25147">
        <ele>1174</ele>
        <time>2009-07-06T10:12:03Z</time>
      </trkpt>
      <trkpt lat="44.05122" lon="6.25145">
        <ele>1174</ele>
        <time>2009-07-06T10:12:06Z</time>
      </trkpt>
      <trkpt lat="44.05135" lon="6.25155">
        <ele>1177</ele>
        <time>2009-07-06T10:12:24Z</time>
      </trkpt>
      <trkpt lat="44.0514" lon="6.25158">
        <ele>1177</ele>
        <time>2009-07-06T10:12:27Z</time>
      </trkpt>
      <trkpt lat="44.05153" lon="6.2517">
        <ele>1180</ele>
        <time>2009-07-06T10:12:41Z</time>
      </trkpt>
      <trkpt lat="44.0516" lon="6.2517">
        <ele>1180</ele>
        <time>2009-07-06T10:12:45Z</time>
      </trkpt>
      <trkpt lat="44.05177" lon="6.25175">
        <ele>1182</ele>
        <time>2009-07-06T10:12:52Z</time>
      </trkpt>
      <trkpt lat="44.05205" lon="6.2517">
        <ele>1184</ele>
        <time>2009-07-06T10:13:04Z</time>
      </trkpt>
      <trkpt lat="44.05222" lon="6.25165">
        <ele>1184</ele>
        <time>2009-07-06T10:13:18Z</time>
      </trkpt>
      <trkpt lat="44.0524" lon="6.25167">
        <ele>1185</ele>
        <time>2009-07-06T10:13:45Z</time>
      </trkpt>
      <trkpt lat="44.05247" lon="6.25172">
        <ele>1186</ele>
        <time>2009-07-06T10:13:55Z</time>
      </trkpt>
      <trkpt lat="44.05252" lon="6.25178">
        <ele>1187</ele>
        <time>2009-07-06T10:14:05Z</time>
      </trkpt>
      <trkpt lat="44.05268" lon="6.25193">
        <ele>1190</ele>
        <time>2009-07-06T10:14:16Z</time>
      </trkpt>
      <trkpt lat="44.0527" lon="6.25195">
        <ele>1191</ele>
        <time>2009-07-06T10:14:18Z</time>
      </trkpt>
      <trkpt lat="44.05282" lon="6.25205">
        <ele>1195</ele>
        <time>2009-07-06T10:14:25Z</time>
      </trkpt>
      <trkpt lat="44.05293" lon="6.25213">
        <ele>1197</ele>
        <time>2009-07-06T10:14:34Z</time>
      </trkpt>
      <trkpt lat="44.05308" lon="6.25225">
        <ele>1201</ele>
        <time>2009-07-06T10:14:45Z</time>
      </trkpt>
      <trkpt lat="44.05317" lon="6.25237">
        <ele>1204</ele>
        <time>2009-07-06T10:14:54Z</time>
      </trkpt>
      <trkpt lat="44.05337" lon="6.25248">
        <ele>1206</ele>
        <time>2009-07-06T10:15:06Z</time>
      </trkpt>
      <trkpt lat="44.0534" lon="6.25252">
        <ele>1206</ele>
        <time>2009-07-06T10:15:08Z</time>
      </trkpt>
      <trkpt lat="44.0535" lon="6.25257">
        <ele>1207</ele>
        <time>2009-07-06T10:15:14Z</time>
      </trkpt>
      <trkpt lat="44.05358" lon="6.25268">
        <ele>1209</ele>
        <time>2009-07-06T10:15:20Z</time>
      </trkpt>
      <trkpt lat="44.0536" lon="6.25273">
        <ele>1209</ele>
        <time>2009-07-06T10:15:36Z</time>
      </trkpt>
      <trkpt lat="44.05355" lon="6.25275">
        <ele>1209</ele>
        <time>2009-07-06T10:15:57Z</time>
      </trkpt>
      <trkpt lat="44.05355" lon="6.25275">
        <ele>1212</ele>
        <time>2009-07-06T10:25:26Z</time>
      </trkpt>
      <trkpt lat="44.05362" lon="6.25295">
        <ele>1209</ele>
        <time>2009-07-06T10:32:49Z</time>
      </trkpt>
      <trkpt lat="44.05363" lon="6.25297">
        <ele>1209</ele>
        <time>2009-07-06T10:32:50Z</time>
      </trkpt>
      <trkpt lat="44.0537" lon="6.25298">
        <ele>1208</ele>
        <time>2009-07-06T10:32:52Z</time>
      </trkpt>
      <trkpt lat="44.054" lon="6.25313">
        <ele>1206</ele>
        <time>2009-07-06T10:33:05Z</time>
      </trkpt>
      <trkpt lat="44.05422" lon="6.25327">
        <ele>1203</ele>
        <time>2009-07-06T10:33:17Z</time>
      </trkpt>
      <trkpt lat="44.05438" lon="6.25333">
        <ele>1199</ele>
        <time>2009-07-06T10:33:25Z</time>
      </trkpt>
      <trkpt lat="44.05442" lon="6.25335">
        <ele>1198</ele>
        <time>2009-07-06T10:33:27Z</time>
      </trkpt>
      <trkpt lat="44.0545" lon="6.2534">
        <ele>1197</ele>
        <time>2009-07-06T10:33:41Z</time>
      </trkpt>
      <trkpt lat="44.05457" lon="6.25343">
        <ele>1196</ele>
        <time>2009-07-06T10:33:45Z</time>
      </trkpt>
      <trkpt lat="44.05473" lon="6.25355">
        <ele>1192</ele>
        <time>2009-07-06T10:33:54Z</time>
      </trkpt>
      <trkpt lat="44.0548" lon="6.25358">
        <ele>1191</ele>
        <time>2009-07-06T10:33:57Z</time>
      </trkpt>
      <trkpt lat="44.055" lon="6.25373">
        <ele>1188</ele>
        <time>2009-07-06T10:34:08Z</time>
      </trkpt>
      <trkpt lat="44.05503" lon="6.25377">
        <ele>1186</ele>
        <time>2009-07-06T10:34:20Z</time>
      </trkpt>
      <trkpt lat="44.05503" lon="6.25373">
        <ele>1186</ele>
        <time>2009-07-06T10:34:46Z</time>
      </trkpt>
      <trkpt lat="44.05502" lon="6.25373">
        <ele>1185</ele>
        <time>2009-07-06T10:37:53Z</time>
      </trkpt>
      <trkpt lat="44.05483" lon="6.25377">
        <ele>1182</ele>
        <time>2009-07-06T10:38:04Z</time>
      </trkpt>
      <trkpt lat="44.05478" lon="6.25377">
        <ele>1181</ele>
        <time>2009-07-06T10:38:06Z</time>
      </trkpt>
      <trkpt lat="44.05468" lon="6.25377">
        <ele>1179</ele>
        <time>2009-07-06T10:38:10Z</time>
      </trkpt>
      <trkpt lat="44.05453" lon="6.25378">
        <ele>1177</ele>
        <time>2009-07-06T10:38:16Z</time>
      </trkpt>
      <trkpt lat="44.0544" lon="6.25383">
        <ele>1174</ele>
        <time>2009-07-06T10:38:23Z</time>
      </trkpt>
      <trkpt lat="44.05422" lon="6.25388">
        <ele>1171</ele>
        <time>2009-07-06T10:38:32Z</time>
      </trkpt>
      <trkpt lat="44.0542" lon="6.2539">
        <ele>1171</ele>
        <time>2009-07-06T10:38:33Z</time>
      </trkpt>
      <trkpt lat="44.05415" lon="6.25393">
        <ele>1169</ele>
        <time>2009-07-06T10:38:38Z</time>
      </trkpt>
      <trkpt lat="44.05405" lon="6.25393">
        <ele>1166</ele>
        <time>2009-07-06T10:38:50Z</time>
      </trkpt>
      <trkpt lat="44.0539" lon="6.25398">
        <ele>1162</ele>
        <time>2009-07-06T10:38:58Z</time>
      </trkpt>
      <trkpt lat="44.05373" lon="6.25405">
        <ele>1159</ele>
        <time>2009-07-06T10:39:06Z</time>
      </trkpt>
      <trkpt lat="44.0536" lon="6.25415">
        <ele>1156</ele>
        <time>2009-07-06T10:39:13Z</time>
      </trkpt>
      <trkpt lat="44.05353" lon="6.25418">
        <ele>1154</ele>
        <time>2009-07-06T10:39:16Z</time>
      </trkpt>
      <trkpt lat="44.05347" lon="6.25423">
        <ele>1153</ele>
        <time>2009-07-06T10:39:20Z</time>
      </trkpt>
      <trkpt lat="44.05333" lon="6.2543">
        <ele>1150</ele>
        <time>2009-07-06T10:39:26Z</time>
      </trkpt>
      <trkpt lat="44.0533" lon="6.25432">
        <ele>1148</ele>
        <time>2009-07-06T10:39:28Z</time>
      </trkpt>
      <trkpt lat="44.05315" lon="6.25433">
        <ele>1145</ele>
        <time>2009-07-06T10:39:35Z</time>
      </trkpt>
      <trkpt lat="44.05302" lon="6.25432">
        <ele>1142</ele>
        <time>2009-07-06T10:39:47Z</time>
      </trkpt>
      <trkpt lat="44.053" lon="6.25433">
        <ele>1142</ele>
        <time>2009-07-06T10:39:49Z</time>
      </trkpt>
      <trkpt lat="44.05292" lon="6.25438">
        <ele>1139</ele>
        <time>2009-07-06T10:40:04Z</time>
      </trkpt>
      <trkpt lat="44.05277" lon="6.25445">
        <ele>1136</ele>
        <time>2009-07-06T10:40:15Z</time>
      </trkpt>
      <trkpt lat="44.05265" lon="6.25448">
        <ele>1134</ele>
        <time>2009-07-06T10:40:20Z</time>
      </trkpt>
      <trkpt lat="44.05257" lon="6.25453">
        <ele>1132</ele>
        <time>2009-07-06T10:40:23Z</time>
      </trkpt>
      <trkpt lat="44.05253" lon="6.25455">
        <ele>1131</ele>
        <time>2009-07-06T10:40:25Z</time>
      </trkpt>
      <trkpt lat="44.05248" lon="6.25457">
        <ele>1130</ele>
        <time>2009-07-06T10:40:27Z</time>
      </trkpt>
      <trkpt lat="44.05237" lon="6.25465">
        <ele>1126</ele>
        <time>2009-07-06T10:40:33Z</time>
      </trkpt>
      <trkpt lat="44.05233" lon="6.25465">
        <ele>1126</ele>
        <time>2009-07-06T10:40:34Z</time>
      </trkpt>
      <trkpt lat="44.05222" lon="6.2547">
        <ele>1125</ele>
        <time>2009-07-06T10:40:39Z</time>
      </trkpt>
      <trkpt lat="44.05218" lon="6.25477">
        <ele>1123</ele>
        <time>2009-07-06T10:40:42Z</time>
      </trkpt>
      <trkpt lat="44.05208" lon="6.25493">
        <ele>1120</ele>
        <time>2009-07-06T10:40:48Z</time>
      </trkpt>
      <trkpt lat="44.05193" lon="6.255">
        <ele>1116</ele>
        <time>2009-07-06T10:40:55Z</time>
      </trkpt>
      <trkpt lat="44.0518" lon="6.25512">
        <ele>1113</ele>
        <time>2009-07-06T10:41:00Z</time>
      </trkpt>
      <trkpt lat="44.05168" lon="6.25522">
        <ele>1109</ele>
        <time>2009-07-06T10:41:05Z</time>
      </trkpt>
      <trkpt lat="44.05165" lon="6.25522">
        <ele>1109</ele>
        <time>2009-07-06T10:41:06Z</time>
      </trkpt>
      <trkpt lat="44.05158" lon="6.25523">
        <ele>1108</ele>
        <time>2009-07-06T10:41:09Z</time>
      </trkpt>
      <trkpt lat="44.05143" lon="6.2553">
        <ele>1104</ele>
        <time>2009-07-06T10:41:15Z</time>
      </trkpt>
      <trkpt lat="44.0514" lon="6.25532">
        <ele>1103</ele>
        <time>2009-07-06T10:41:17Z</time>
      </trkpt>
      <trkpt lat="44.05125" lon="6.2554">
        <ele>1099</ele>
        <time>2009-07-06T10:41:23Z</time>
      </trkpt>
      <trkpt lat="44.05113" lon="6.25547">
        <ele>1097</ele>
        <time>2009-07-06T10:41:29Z</time>
      </trkpt>
      <trkpt lat="44.05098" lon="6.25555">
        <ele>1093</ele>
        <time>2009-07-06T10:41:34Z</time>
      </trkpt>
      <trkpt lat="44.05082" lon="6.25563">
        <ele>1090</ele>
        <time>2009-07-06T10:41:39Z</time>
      </trkpt>
      <trkpt lat="44.05073" lon="6.25567">
        <ele>1089</ele>
        <time>2009-07-06T10:41:41Z</time>
      </trkpt>
      <trkpt lat="44.05062" lon="6.25572">
        <ele>1087</ele>
        <time>2009-07-06T10:41:45Z</time>
      </trkpt>
      <trkpt lat="44.05038" lon="6.2559">
        <ele>1083</ele>
        <time>2009-07-06T10:41:52Z</time>
      </trkpt>
      <trkpt lat="44.05025" lon="6.25598">
        <ele>1080</ele>
        <time>2009-07-06T10:41:57Z</time>
      </trkpt>
      <trkpt lat="44.05012" lon="6.25607">
        <ele>1077</ele>
        <time>2009-07-06T10:42:02Z</time>
      </trkpt>
      <trkpt lat="44.05008" lon="6.25608">
        <ele>1076</ele>
        <time>2009-07-06T10:42:03Z</time>
      </trkpt>
      <trkpt lat="44.05002" lon="6.2561">
        <ele>1075</ele>
        <time>2009-07-06T10:42:05Z</time>
      </trkpt>
      <trkpt lat="44.04993" lon="6.25615">
        <ele>1074</ele>
        <time>2009-07-06T10:42:08Z</time>
      </trkpt>
      <trkpt lat="44.04982" lon="6.25622">
        <ele>1072</ele>
        <time>2009-07-06T10:42:18Z</time>
      </trkpt>
      <trkpt lat="44.04973" lon="6.2563">
        <ele>1071</ele>
        <time>2009-07-06T10:43:39Z</time>
      </trkpt>
      <trkpt lat="44.04958" lon="6.25652">
        <ele>1067</ele>
        <time>2009-07-06T10:43:45Z</time>
      </trkpt>
      <trkpt lat="44.04957" lon="6.25655">
        <ele>1067</ele>
        <time>2009-07-06T10:43:46Z</time>
      </trkpt>
      <trkpt lat="44.04948" lon="6.25662">
        <ele>1065</ele>
        <time>2009-07-06T10:43:50Z</time>
      </trkpt>
      <trkpt lat="44.04942" lon="6.25677">
        <ele>1062</ele>
        <time>2009-07-06T10:43:54Z</time>
      </trkpt>
      <trkpt lat="44.04938" lon="6.25687">
        <ele>1061</ele>
        <time>2009-07-06T10:43:56Z</time>
      </trkpt>
      <trkpt lat="44.04923" lon="6.25712">
        <ele>1060</ele>
        <time>2009-07-06T10:44:00Z</time>
      </trkpt>
      <trkpt lat="44.04863" lon="6.2577">
        <ele>1058</ele>
        <time>2009-07-06T10:44:12Z</time>
      </trkpt>
      <trkpt lat="44.0485" lon="6.25785">
        <ele>1057</ele>
        <time>2009-07-06T10:44:17Z</time>
      </trkpt>
      <trkpt lat="44.04848" lon="6.2579">
        <ele>1057</ele>
        <time>2009-07-06T10:44:34Z</time>
      </trkpt>
      <trkpt lat="44.04847" lon="6.25792">
        <ele>1056</ele>
        <time>2009-07-06T10:45:10Z</time>
      </trkpt>
      <trkpt lat="44.04833" lon="6.25797">
        <ele>1054</ele>
        <time>2009-07-06T10:45:17Z</time>
      </trkpt>
      <trkpt lat="44.04832" lon="6.25807">
        <ele>1054</ele>
        <time>2009-07-06T10:45:19Z</time>
      </trkpt>
      <trkpt lat="44.04833" lon="6.25825">
        <ele>1053</ele>
        <time>2009-07-06T10:45:23Z</time>
      </trkpt>
      <trkpt lat="44.04828" lon="6.25868">
        <ele>1049</ele>
        <time>2009-07-06T10:45:30Z</time>
      </trkpt>
      <trkpt lat="44.04825" lon="6.25882">
        <ele>1048</ele>
        <time>2009-07-06T10:45:32Z</time>
      </trkpt>
      <trkpt lat="44.04812" lon="6.25913">
        <ele>1043</ele>
        <time>2009-07-06T10:45:37Z</time>
      </trkpt>
      <trkpt lat="44.04797" lon="6.25935">
        <ele>1038</ele>
        <time>2009-07-06T10:45:41Z</time>
      </trkpt>
      <trkpt lat="44.04787" lon="6.2595">
        <ele>1036</ele>
        <time>2009-07-06T10:45:43Z</time>
      </trkpt>
      <trkpt lat="44.0477" lon="6.25967">
        <ele>1035</ele>
        <time>2009-07-06T10:45:46Z</time>
      </trkpt>
      <trkpt lat="44.04755" lon="6.2597">
        <ele>1035</ele>
        <time>2009-07-06T10:45:48Z</time>
      </trkpt>
      <trkpt lat="44.04712" lon="6.25972">
        <ele>1035</ele>
        <time>2009-07-06T10:45:55Z</time>
      </trkpt>
      <trkpt lat="44.04702" lon="6.25995">
        <ele>1032</ele>
        <time>2009-07-06T10:45:59Z</time>
      </trkpt>
      <trkpt lat="44.047" lon="6.26013">
        <ele>1029</ele>
        <time>2009-07-06T10:46:01Z</time>
      </trkpt>
      <trkpt lat="44.04683" lon="6.26038">
        <ele>1025</ele>
        <time>2009-07-06T10:46:05Z</time>
      </trkpt>
      <trkpt lat="44.04658" lon="6.2605">
        <ele>1022</ele>
        <time>2009-07-06T10:46:09Z</time>
      </trkpt>
      <trkpt lat="44.04653" lon="6.2605">
        <ele>1022</ele>
        <time>2009-07-06T10:46:10Z</time>
      </trkpt>
      <trkpt lat="44.04633" lon="6.2605">
        <ele>1018</ele>
        <time>2009-07-06T10:46:14Z</time>
      </trkpt>
      <trkpt lat="44.04612" lon="6.26048">
        <ele>1015</ele>
        <time>2009-07-06T10:46:17Z</time>
      </trkpt>
      <trkpt lat="44.0459" lon="6.26043">
        <ele>1012</ele>
        <time>2009-07-06T10:46:21Z</time>
      </trkpt>
      <trkpt lat="44.04592" lon="6.26067">
        <ele>1008</ele>
        <time>2009-07-06T10:46:28Z</time>
      </trkpt>
      <trkpt lat="44.04595" lon="6.26073">
        <ele>1007</ele>
        <time>2009-07-06T10:46:29Z</time>
      </trkpt>
      <trkpt lat="44.04612" lon="6.26097">
        <ele>1003</ele>
        <time>2009-07-06T10:46:33Z</time>
      </trkpt>
      <trkpt lat="44.04625" lon="6.26125">
        <ele>1000</ele>
        <time>2009-07-06T10:46:37Z</time>
      </trkpt>
      <trkpt lat="44.04628" lon="6.2616">
        <ele>998</ele>
        <time>2009-07-06T10:46:41Z</time>
      </trkpt>
      <trkpt lat="44.04628" lon="6.26167">
        <ele>998</ele>
        <time>2009-07-06T10:46:42Z</time>
      </trkpt>
      <trkpt lat="44.0462" lon="6.26193">
        <ele>994</ele>
        <time>2009-07-06T10:46:47Z</time>
      </trkpt>
      <trkpt lat="44.04613" lon="6.26213">
        <ele>990</ele>
        <time>2009-07-06T10:46:51Z</time>
      </trkpt>
      <trkpt lat="44.0461" lon="6.26233">
        <ele>986</ele>
        <time>2009-07-06T10:46:54Z</time>
      </trkpt>
      <trkpt lat="44.04607" lon="6.26265">
        <ele>981</ele>
        <time>2009-07-06T10:46:59Z</time>
      </trkpt>
      <trkpt lat="44.046" lon="6.2629">
        <ele>978</ele>
        <time>2009-07-06T10:47:03Z</time>
      </trkpt>
      <trkpt lat="44.04598" lon="6.263">
        <ele>976</ele>
        <time>2009-07-06T10:47:05Z</time>
      </trkpt>
      <trkpt lat="44.04597" lon="6.26305">
        <ele>976</ele>
        <time>2009-07-06T10:47:06Z</time>
      </trkpt>
      <trkpt lat="44.04585" lon="6.26315">
        <ele>974</ele>
        <time>2009-07-06T10:47:09Z</time>
      </trkpt>
      <trkpt lat="44.04582" lon="6.26335">
        <ele>972</ele>
        <time>2009-07-06T10:47:13Z</time>
      </trkpt>
      <trkpt lat="44.0458" lon="6.26392">
        <ele>971</ele>
        <time>2009-07-06T10:47:20Z</time>
      </trkpt>
      <trkpt lat="44.04577" lon="6.26425">
        <ele>971</ele>
        <time>2009-07-06T10:47:24Z</time>
      </trkpt>
      <trkpt lat="44.04567" lon="6.26457">
        <ele>971</ele>
        <time>2009-07-06T10:47:29Z</time>
      </trkpt>
      <trkpt lat="44.0456" lon="6.26482">
        <ele>972</ele>
        <time>2009-07-06T10:47:34Z</time>
      </trkpt>
      <trkpt lat="44.0456" lon="6.26532">
        <ele>972</ele>
        <time>2009-07-06T10:47:46Z</time>
      </trkpt>
      <trkpt lat="44.04563" lon="6.26543">
        <ele>973</ele>
        <time>2009-07-06T10:47:51Z</time>
      </trkpt>
      <trkpt lat="44.04548" lon="6.26528">
        <ele>973</ele>
        <time>2009-07-06T10:47:59Z</time>
      </trkpt>
      <trkpt lat="44.04543" lon="6.26505">
        <ele>975</ele>
        <time>2009-07-06T10:48:04Z</time>
      </trkpt>
      <trkpt lat="44.04545" lon="6.26502">
        <ele>975</ele>
        <time>2009-07-06T10:48:14Z</time>
      </trkpt>
      <trkpt lat="44.04545" lon="6.26502">
        <ele>975</ele>
        <time>2009-07-06T10:48:32Z</time>
      </trkpt>
      <trkpt lat="44.0455" lon="6.26525">
        <ele>974</ele>
        <time>2009-07-06T10:48:38Z</time>
      </trkpt>
      <trkpt lat="44.04558" lon="6.26542">
        <ele>973</ele>
        <time>2009-07-06T10:48:41Z</time>
      </trkpt>
      <trkpt lat="44.04568" lon="6.26565">
        <ele>973</ele>
        <time>2009-07-06T10:48:45Z</time>
      </trkpt>
      <trkpt lat="44.0458" lon="6.26607">
        <ele>973</ele>
        <time>2009-07-06T10:48:56Z</time>
      </trkpt>
      <trkpt lat="44.04578" lon="6.2661">
        <ele>973</ele>
        <time>2009-07-06T10:51:15Z</time>
      </trkpt>
      <trkpt lat="44.04568" lon="6.26583">
        <ele>973</ele>
        <time>2009-07-06T10:51:24Z</time>
      </trkpt>
      <trkpt lat="44.04565" lon="6.2658">
        <ele>972</ele>
        <time>2009-07-06T10:51:47Z</time>
      </trkpt>
      <trkpt lat="44.04555" lon="6.26578">
        <ele>972</ele>
        <time>2009-07-06T10:52:39Z</time>
      </trkpt>
      <trkpt lat="44.04495" lon="6.266">
        <ele>969</ele>
        <time>2009-07-06T10:52:51Z</time>
      </trkpt>
      <trkpt lat="44.04478" lon="6.26607">
        <ele>969</ele>
        <time>2009-07-06T10:52:54Z</time>
      </trkpt>
      <trkpt lat="44.04452" lon="6.26638">
        <ele>969</ele>
        <time>2009-07-06T10:53:01Z</time>
      </trkpt>
      <trkpt lat="44.04438" lon="6.26663">
        <ele>970</ele>
        <time>2009-07-06T10:53:06Z</time>
      </trkpt>
      <trkpt lat="44.04427" lon="6.26683">
        <ele>971</ele>
        <time>2009-07-06T10:53:11Z</time>
      </trkpt>
      <trkpt lat="44.04407" lon="6.26737">
        <ele>972</ele>
        <time>2009-07-06T10:53:21Z</time>
      </trkpt>
      <trkpt lat="44.04378" lon="6.26773">
        <ele>973</ele>
        <time>2009-07-06T10:53:32Z</time>
      </trkpt>
      <trkpt lat="44.04362" lon="6.26798">
        <ele>976</ele>
        <time>2009-07-06T10:53:41Z</time>
      </trkpt>
      <trkpt lat="44.0434" lon="6.2683">
        <ele>979</ele>
        <time>2009-07-06T10:53:53Z</time>
      </trkpt>
      <trkpt lat="44.04335" lon="6.26837">
        <ele>979</ele>
        <time>2009-07-06T10:53:58Z</time>
      </trkpt>
      <trkpt lat="44.04328" lon="6.26867">
        <ele>977</ele>
        <time>2009-07-06T10:54:08Z</time>
      </trkpt>
      <trkpt lat="44.04322" lon="6.2689">
        <ele>974</ele>
        <time>2009-07-06T10:54:17Z</time>
      </trkpt>
      <trkpt lat="44.0432" lon="6.26895">
        <ele>973</ele>
        <time>2009-07-06T10:54:19Z</time>
      </trkpt>
      <trkpt lat="44.0432" lon="6.26898">
        <ele>973</ele>
        <time>2009-07-06T10:54:20Z</time>
      </trkpt>
      <trkpt lat="44.04322" lon="6.26912">
        <ele>971</ele>
        <time>2009-07-06T10:54:23Z</time>
      </trkpt>
      <trkpt lat="44.04322" lon="6.26942">
        <ele>969</ele>
        <time>2009-07-06T10:54:28Z</time>
      </trkpt>
      <trkpt lat="44.04313" lon="6.27">
        <ele>968</ele>
        <time>2009-07-06T10:54:39Z</time>
      </trkpt>
      <trkpt lat="44.04295" lon="6.27038">
        <ele>968</ele>
        <time>2009-07-06T10:54:49Z</time>
      </trkpt>
      <trkpt lat="44.0428" lon="6.27063">
        <ele>969</ele>
        <time>2009-07-06T10:54:57Z</time>
      </trkpt>
      <trkpt lat="44.04273" lon="6.27077">
        <ele>970</ele>
        <time>2009-07-06T10:55:01Z</time>
      </trkpt>
      <trkpt lat="44.04262" lon="6.2713">
        <ele>968</ele>
        <time>2009-07-06T10:55:14Z</time>
      </trkpt>
      <trkpt lat="44.04263" lon="6.27135">
        <ele>967</ele>
        <time>2009-07-06T10:55:16Z</time>
      </trkpt>
      <trkpt lat="44.0427" lon="6.27167">
        <ele>965</ele>
        <time>2009-07-06T10:55:25Z</time>
      </trkpt>
      <trkpt lat="44.04275" lon="6.27173">
        <ele>966</ele>
        <time>2009-07-06T10:55:31Z</time>
      </trkpt>
      <trkpt lat="44.0428" lon="6.27183">
        <ele>969</ele>
        <time>2009-07-06T10:55:45Z</time>
      </trkpt>
      <trkpt lat="44.04265" lon="6.27192">
        <ele>972</ele>
        <time>2009-07-06T10:56:03Z</time>
      </trkpt>
      <trkpt lat="44.04257" lon="6.272">
        <ele>975</ele>
        <time>2009-07-06T10:56:19Z</time>
      </trkpt>
      <trkpt lat="44.04247" lon="6.27205">
        <ele>977</ele>
        <time>2009-07-06T10:56:30Z</time>
      </trkpt>
      <trkpt lat="44.04237" lon="6.27213">
        <ele>980</ele>
        <time>2009-07-06T10:56:41Z</time>
      </trkpt>
      <trkpt lat="44.04227" lon="6.2722">
        <ele>982</ele>
        <time>2009-07-06T10:56:51Z</time>
      </trkpt>
      <trkpt lat="44.04225" lon="6.27222">
        <ele>983</ele>
        <time>2009-07-06T10:56:53Z</time>
      </trkpt>
      <trkpt lat="44.04225" lon="6.27225">
        <ele>983</ele>
        <time>2009-07-06T10:57:13Z</time>
      </trkpt>
      <trkpt lat="44.0422" lon="6.2723">
        <ele>985</ele>
        <time>2009-07-06T10:59:52Z</time>
      </trkpt>
      <trkpt lat="44.04233" lon="6.27238">
        <ele>987</ele>
        <time>2009-07-06T11:00:07Z</time>
      </trkpt>
      <trkpt lat="44.04243" lon="6.27245">
        <ele>990</ele>
        <time>2009-07-06T11:00:22Z</time>
      </trkpt>
      <trkpt lat="44.04242" lon="6.27257">
        <ele>992</ele>
        <time>2009-07-06T11:00:36Z</time>
      </trkpt>
      <trkpt lat="44.04238" lon="6.27275">
        <ele>994</ele>
        <time>2009-07-06T11:00:50Z</time>
      </trkpt>
      <trkpt lat="44.04238" lon="6.27285">
        <ele>995</ele>
        <time>2009-07-06T11:01:11Z</time>
      </trkpt>
      <trkpt lat="44.04233" lon="6.2731">
        <ele>996</ele>
        <time>2009-07-06T11:01:39Z</time>
      </trkpt>
      <trkpt lat="44.04223" lon="6.27347">
        <ele>998</ele>
        <time>2009-07-06T11:01:53Z</time>
      </trkpt>
      <trkpt lat="44.04218" lon="6.27378">
        <ele>999</ele>
        <time>2009-07-06T11:02:06Z</time>
      </trkpt>
      <trkpt lat="44.0422" lon="6.27383">
        <ele>1000</ele>
        <time>2009-07-06T11:02:09Z</time>
      </trkpt>
      <trkpt lat="44.04217" lon="6.27432">
        <ele>1000</ele>
        <time>2009-07-06T11:02:25Z</time>
      </trkpt>
      <trkpt lat="44.04212" lon="6.27467">
        <ele>1001</ele>
        <time>2009-07-06T11:02:37Z</time>
      </trkpt>
      <trkpt lat="44.04215" lon="6.27498">
        <ele>999</ele>
        <time>2009-07-06T11:02:51Z</time>
      </trkpt>
      <trkpt lat="44.04202" lon="6.27542">
        <ele>999</ele>
        <time>2009-07-06T11:03:02Z</time>
      </trkpt>
      <trkpt lat="44.04185" lon="6.27587">
        <ele>999</ele>
        <time>2009-07-06T11:03:17Z</time>
      </trkpt>
      <trkpt lat="44.04175" lon="6.27607">
        <ele>998</ele>
        <time>2009-07-06T11:03:22Z</time>
      </trkpt>
      <trkpt lat="44.04165" lon="6.27638">
        <ele>995</ele>
        <time>2009-07-06T11:03:27Z</time>
      </trkpt>
      <trkpt lat="44.04148" lon="6.2769">
        <ele>992</ele>
        <time>2009-07-06T11:03:36Z</time>
      </trkpt>
      <trkpt lat="44.04143" lon="6.27702">
        <ele>991</ele>
        <time>2009-07-06T11:03:39Z</time>
      </trkpt>
      <trkpt lat="44.04128" lon="6.27713">
        <ele>992</ele>
        <time>2009-07-06T11:03:48Z</time>
      </trkpt>
      <trkpt lat="44.04122" lon="6.27717">
        <ele>992</ele>
        <time>2009-07-06T11:03:52Z</time>
      </trkpt>
      <trkpt lat="44.04108" lon="6.27735">
        <ele>993</ele>
        <time>2009-07-06T11:04:01Z</time>
      </trkpt>
      <trkpt lat="44.04082" lon="6.27757">
        <ele>994</ele>
        <time>2009-07-06T11:04:16Z</time>
      </trkpt>
      <trkpt lat="44.04052" lon="6.2778">
        <ele>996</ele>
        <time>2009-07-06T11:04:32Z</time>
      </trkpt>
      <trkpt lat="44.04028" lon="6.27802">
        <ele>996</ele>
        <time>2009-07-06T11:04:47Z</time>
      </trkpt>
      <trkpt lat="44.04013" lon="6.27815">
        <ele>998</ele>
        <time>2009-07-06T11:05:01Z</time>
      </trkpt>
      <trkpt lat="44.04" lon="6.2783">
        <ele>1001</ele>
        <time>2009-07-06T11:05:16Z</time>
      </trkpt>
      <trkpt lat="44.03987" lon="6.27847">
        <ele>1004</ele>
        <time>2009-07-06T11:05:31Z</time>
      </trkpt>
      <trkpt lat="44.03977" lon="6.27867">
        <ele>1006</ele>
        <time>2009-07-06T11:05:47Z</time>
      </trkpt>
      <trkpt lat="44.03963" lon="6.27868">
        <ele>1008</ele>
        <time>2009-07-06T11:06:02Z</time>
      </trkpt>
      <trkpt lat="44.03963" lon="6.2787">
        <ele>1008</ele>
        <time>2009-07-06T11:10:59Z</time>
      </trkpt>
      <trkpt lat="44.03952" lon="6.27873">
        <ele>1007</ele>
        <time>2009-07-06T11:12:34Z</time>
      </trkpt>
      <trkpt lat="44.03932" lon="6.27877">
        <ele>1004</ele>
        <time>2009-07-06T11:12:44Z</time>
      </trkpt>
      <trkpt lat="44.03903" lon="6.27883">
        <ele>1000</ele>
        <time>2009-07-06T11:12:53Z</time>
      </trkpt>
      <trkpt lat="44.03875" lon="6.27898">
        <ele>997</ele>
        <time>2009-07-06T11:13:02Z</time>
      </trkpt>
      <trkpt lat="44.03867" lon="6.27902">
        <ele>996</ele>
        <time>2009-07-06T11:13:04Z</time>
      </trkpt>
      <trkpt lat="44.03853" lon="6.27908">
        <ele>996</ele>
        <time>2009-07-06T11:13:07Z</time>
      </trkpt>
      <trkpt lat="44.03842" lon="6.27908">
        <ele>995</ele>
        <time>2009-07-06T11:13:10Z</time>
      </trkpt>
      <trkpt lat="44.0382" lon="6.27918">
        <ele>993</ele>
        <time>2009-07-06T11:13:15Z</time>
      </trkpt>
      <trkpt lat="44.03802" lon="6.27925">
        <ele>993</ele>
        <time>2009-07-06T11:13:19Z</time>
      </trkpt>
      <trkpt lat="44.03765" lon="6.27943">
        <ele>995</ele>
        <time>2009-07-06T11:13:30Z</time>
      </trkpt>
      <trkpt lat="44.03737" lon="6.27972">
        <ele>996</ele>
        <time>2009-07-06T11:13:43Z</time>
      </trkpt>
      <trkpt lat="44.037" lon="6.28008">
        <ele>996</ele>
        <time>2009-07-06T11:13:58Z</time>
      </trkpt>
      <trkpt lat="44.03655" lon="6.28055">
        <ele>992</ele>
        <time>2009-07-06T11:14:11Z</time>
      </trkpt>
      <trkpt lat="44.03633" lon="6.28073">
        <ele>989</ele>
        <time>2009-07-06T11:14:19Z</time>
      </trkpt>
      <trkpt lat="44.0361" lon="6.2809">
        <ele>988</ele>
        <time>2009-07-06T11:14:31Z</time>
      </trkpt>
      <trkpt lat="44.03578" lon="6.28112">
        <ele>989</ele>
        <time>2009-07-06T11:14:42Z</time>
      </trkpt>
      <trkpt lat="44.03555" lon="6.28132">
        <ele>990</ele>
        <time>2009-07-06T11:14:53Z</time>
      </trkpt>
      <trkpt lat="44.03538" lon="6.28143">
        <ele>991</ele>
        <time>2009-07-06T11:15:05Z</time>
      </trkpt>
      <trkpt lat="44.03537" lon="6.28145">
        <ele>992</ele>
        <time>2009-07-06T11:15:07Z</time>
      </trkpt>
      <trkpt lat="44.03525" lon="6.28157">
        <ele>993</ele>
        <time>2009-07-06T11:15:16Z</time>
      </trkpt>
      <trkpt lat="44.03502" lon="6.28165">
        <ele>996</ele>
        <time>2009-07-06T11:15:34Z</time>
      </trkpt>
      <trkpt lat="44.03477" lon="6.2818">
        <ele>998</ele>
        <time>2009-07-06T11:15:56Z</time>
      </trkpt>
      <trkpt lat="44.03472" lon="6.28183">
        <ele>998</ele>
        <time>2009-07-06T11:16:00Z</time>
      </trkpt>
      <trkpt lat="44.03447" lon="6.28205">
        <ele>1001</ele>
        <time>2009-07-06T11:16:21Z</time>
      </trkpt>
      <trkpt lat="44.03427" lon="6.28233">
        <ele>1003</ele>
        <time>2009-07-06T11:16:37Z</time>
      </trkpt>
      <trkpt lat="44.03403" lon="6.28252">
        <ele>1004</ele>
        <time>2009-07-06T11:16:53Z</time>
      </trkpt>
      <trkpt lat="44.03383" lon="6.28257">
        <ele>1007</ele>
        <time>2009-07-06T11:17:10Z</time>
      </trkpt>
      <trkpt lat="44.03365" lon="6.28272">
        <ele>1009</ele>
        <time>2009-07-06T11:17:33Z</time>
      </trkpt>
      <trkpt lat="44.03337" lon="6.28275">
        <ele>1012</ele>
        <time>2009-07-06T11:17:55Z</time>
      </trkpt>
      <trkpt lat="44.03317" lon="6.28283">
        <ele>1013</ele>
        <time>2009-07-06T11:18:10Z</time>
      </trkpt>
      <trkpt lat="44.03302" lon="6.28287">
        <ele>1015</ele>
        <time>2009-07-06T11:18:23Z</time>
      </trkpt>
      <trkpt lat="44.03298" lon="6.2829">
        <ele>1016</ele>
        <time>2009-07-06T11:18:26Z</time>
      </trkpt>
      <trkpt lat="44.03278" lon="6.2831">
        <ele>1018</ele>
        <time>2009-07-06T11:18:42Z</time>
      </trkpt>
      <trkpt lat="44.03268" lon="6.28315">
        <ele>1018</ele>
        <time>2009-07-06T11:18:49Z</time>
      </trkpt>
      <trkpt lat="44.03258" lon="6.28323">
        <ele>1019</ele>
        <time>2009-07-06T11:18:56Z</time>
      </trkpt>
      <trkpt lat="44.03232" lon="6.2835">
        <ele>1019</ele>
        <time>2009-07-06T11:19:09Z</time>
      </trkpt>
      <trkpt lat="44.0322" lon="6.2836">
        <ele>1020</ele>
        <time>2009-07-06T11:19:15Z</time>
      </trkpt>
      <trkpt lat="44.03198" lon="6.28375">
        <ele>1020</ele>
        <time>2009-07-06T11:19:31Z</time>
      </trkpt>
      <trkpt lat="44.03193" lon="6.28377">
        <ele>1019</ele>
        <time>2009-07-06T11:19:35Z</time>
      </trkpt>
      <trkpt lat="44.0314" lon="6.28433">
        <ele>1016</ele>
        <time>2009-07-06T11:19:47Z</time>
      </trkpt>
      <trkpt lat="44.03133" lon="6.28438">
        <ele>1017</ele>
        <time>2009-07-06T11:19:48Z</time>
      </trkpt>
      <trkpt lat="44.03097" lon="6.2849">
        <ele>1019</ele>
        <time>2009-07-06T11:19:59Z</time>
      </trkpt>
      <trkpt lat="44.03095" lon="6.28498">
        <ele>1019</ele>
        <time>2009-07-06T11:20:01Z</time>
      </trkpt>
      <trkpt lat="44.031" lon="6.28535">
        <ele>1017</ele>
        <time>2009-07-06T11:20:08Z</time>
      </trkpt>
      <trkpt lat="44.03077" lon="6.28547">
        <ele>1018</ele>
        <time>2009-07-06T11:20:16Z</time>
      </trkpt>
      <trkpt lat="44.03065" lon="6.28543">
        <ele>1019</ele>
        <time>2009-07-06T11:20:23Z</time>
      </trkpt>
      <trkpt lat="44.0305" lon="6.28553">
        <ele>1019</ele>
        <time>2009-07-06T11:20:30Z</time>
      </trkpt>
      <trkpt lat="44.0304" lon="6.28592">
        <ele>1016</ele>
        <time>2009-07-06T11:20:40Z</time>
      </trkpt>
      <trkpt lat="44.03015" lon="6.28605">
        <ele>1018</ele>
        <time>2009-07-06T11:20:50Z</time>
      </trkpt>
      <trkpt lat="44.02992" lon="6.2862">
        <ele>1019</ele>
        <time>2009-07-06T11:21:03Z</time>
      </trkpt>
      <trkpt lat="44.02965" lon="6.28637">
        <ele>1020</ele>
        <time>2009-07-06T11:21:18Z</time>
      </trkpt>
      <trkpt lat="44.02948" lon="6.28652">
        <ele>1021</ele>
        <time>2009-07-06T11:21:28Z</time>
      </trkpt>
      <trkpt lat="44.02925" lon="6.28657">
        <ele>1021</ele>
        <time>2009-07-06T11:21:39Z</time>
      </trkpt>
      <trkpt lat="44.02907" lon="6.28673">
        <ele>1024</ele>
        <time>2009-07-06T11:21:55Z</time>
      </trkpt>
      <trkpt lat="44.02888" lon="6.28685">
        <ele>1027</ele>
        <time>2009-07-06T11:22:09Z</time>
      </trkpt>
      <trkpt lat="44.02873" lon="6.28697">
        <ele>1030</ele>
        <time>2009-07-06T11:22:25Z</time>
      </trkpt>
      <trkpt lat="44.0286" lon="6.28713">
        <ele>1033</ele>
        <time>2009-07-06T11:22:42Z</time>
      </trkpt>
      <trkpt lat="44.02857" lon="6.28725">
        <ele>1034</ele>
        <time>2009-07-06T11:22:50Z</time>
      </trkpt>
      <trkpt lat="44.02842" lon="6.2874">
        <ele>1035</ele>
        <time>2009-07-06T11:23:04Z</time>
      </trkpt>
      <trkpt lat="44.02837" lon="6.28742">
        <ele>1035</ele>
        <time>2009-07-06T11:23:07Z</time>
      </trkpt>
      <trkpt lat="44.02825" lon="6.28743">
        <ele>1036</ele>
        <time>2009-07-06T11:23:17Z</time>
      </trkpt>
      <trkpt lat="44.02812" lon="6.2876">
        <ele>1037</ele>
        <time>2009-07-06T11:23:32Z</time>
      </trkpt>
      <trkpt lat="44.02807" lon="6.28773">
        <ele>1038</ele>
        <time>2009-07-06T11:23:42Z</time>
      </trkpt>
      <trkpt lat="44.02792" lon="6.28793">
        <ele>1041</ele>
        <time>2009-07-06T11:23:55Z</time>
      </trkpt>
      <trkpt lat="44.02785" lon="6.28797">
        <ele>1043</ele>
        <time>2009-07-06T11:23:59Z</time>
      </trkpt>
      <trkpt lat="44.02775" lon="6.2882">
        <ele>1043</ele>
        <time>2009-07-06T11:24:13Z</time>
      </trkpt>
      <trkpt lat="44.02752" lon="6.28832">
        <ele>1045</ele>
        <time>2009-07-06T11:24:29Z</time>
      </trkpt>
      <trkpt lat="44.02748" lon="6.28832">
        <ele>1045</ele>
        <time>2009-07-06T11:24:42Z</time>
      </trkpt>
      <trkpt lat="44.02733" lon="6.28845">
        <ele>1047</ele>
        <time>2009-07-06T11:25:13Z</time>
      </trkpt>
      <trkpt lat="44.02708" lon="6.28867">
        <ele>1049</ele>
        <time>2009-07-06T11:25:32Z</time>
      </trkpt>
      <trkpt lat="44.0269" lon="6.28893">
        <ele>1051</ele>
        <time>2009-07-06T11:25:51Z</time>
      </trkpt>
      <trkpt lat="44.02687" lon="6.28895">
        <ele>1052</ele>
        <time>2009-07-06T11:25:53Z</time>
      </trkpt>
      <trkpt lat="44.02675" lon="6.28928">
        <ele>1054</ele>
        <time>2009-07-06T11:26:11Z</time>
      </trkpt>
      <trkpt lat="44.02667" lon="6.28957">
        <ele>1056</ele>
        <time>2009-07-06T11:26:27Z</time>
      </trkpt>
      <trkpt lat="44.02663" lon="6.28983">
        <ele>1058</ele>
        <time>2009-07-06T11:26:42Z</time>
      </trkpt>
      <trkpt lat="44.02662" lon="6.28988">
        <ele>1058</ele>
        <time>2009-07-06T11:26:45Z</time>
      </trkpt>
      <trkpt lat="44.0266" lon="6.28998">
        <ele>1059</ele>
        <time>2009-07-06T11:26:50Z</time>
      </trkpt>
      <trkpt lat="44.02662" lon="6.29023">
        <ele>1060</ele>
        <time>2009-07-06T11:27:05Z</time>
      </trkpt>
      <trkpt lat="44.02662" lon="6.29045">
        <ele>1062</ele>
        <time>2009-07-06T11:27:17Z</time>
      </trkpt>
      <trkpt lat="44.02663" lon="6.29052">
        <ele>1062</ele>
        <time>2009-07-06T11:27:20Z</time>
      </trkpt>
      <trkpt lat="44.0266" lon="6.29078">
        <ele>1064</ele>
        <time>2009-07-06T11:27:36Z</time>
      </trkpt>
      <trkpt lat="44.02658" lon="6.29095">
        <ele>1065</ele>
        <time>2009-07-06T11:27:50Z</time>
      </trkpt>
      <trkpt lat="44.02655" lon="6.29103">
        <ele>1066</ele>
        <time>2009-07-06T11:27:55Z</time>
      </trkpt>
      <trkpt lat="44.02652" lon="6.29112">
        <ele>1066</ele>
        <time>2009-07-06T11:28:00Z</time>
      </trkpt>
      <trkpt lat="44.02645" lon="6.29137">
        <ele>1068</ele>
        <time>2009-07-06T11:28:16Z</time>
      </trkpt>
      <trkpt lat="44.02643" lon="6.29143">
        <ele>1069</ele>
        <time>2009-07-06T11:28:21Z</time>
      </trkpt>
      <trkpt lat="44.02637" lon="6.29158">
        <ele>1070</ele>
        <time>2009-07-06T11:28:29Z</time>
      </trkpt>
      <trkpt lat="44.02625" lon="6.29185">
        <ele>1072</ele>
        <time>2009-07-06T11:28:45Z</time>
      </trkpt>
      <trkpt lat="44.02618" lon="6.29198">
        <ele>1073</ele>
        <time>2009-07-06T11:28:55Z</time>
      </trkpt>
      <trkpt lat="44.02617" lon="6.29207">
        <ele>1073</ele>
        <time>2009-07-06T11:28:59Z</time>
      </trkpt>
      <trkpt lat="44.02608" lon="6.29232">
        <ele>1076</ele>
        <time>2009-07-06T11:29:15Z</time>
      </trkpt>
      <trkpt lat="44.02602" lon="6.29257">
        <ele>1078</ele>
        <time>2009-07-06T11:29:31Z</time>
      </trkpt>
      <trkpt lat="44.02597" lon="6.29277">
        <ele>1079</ele>
        <time>2009-07-06T11:29:42Z</time>
      </trkpt>
      <trkpt lat="44.02597" lon="6.2931">
        <ele>1082</ele>
        <time>2009-07-06T11:30:01Z</time>
      </trkpt>
      <trkpt lat="44.02603" lon="6.2933">
        <ele>1084</ele>
        <time>2009-07-06T11:30:16Z</time>
      </trkpt>
      <trkpt lat="44.02612" lon="6.29353">
        <ele>1086</ele>
        <time>2009-07-06T11:30:30Z</time>
      </trkpt>
      <trkpt lat="44.02618" lon="6.29365">
        <ele>1087</ele>
        <time>2009-07-06T11:30:39Z</time>
      </trkpt>
      <trkpt lat="44.02622" lon="6.29372">
        <ele>1087</ele>
        <time>2009-07-06T11:30:43Z</time>
      </trkpt>
      <trkpt lat="44.02635" lon="6.29392">
        <ele>1089</ele>
        <time>2009-07-06T11:30:57Z</time>
      </trkpt>
      <trkpt lat="44.0265" lon="6.29412">
        <ele>1091</ele>
        <time>2009-07-06T11:31:13Z</time>
      </trkpt>
      <trkpt lat="44.02647" lon="6.29432">
        <ele>1092</ele>
        <time>2009-07-06T11:31:26Z</time>
      </trkpt>
      <trkpt lat="44.02645" lon="6.29432">
        <ele>1092</ele>
        <time>2009-07-06T11:31:27Z</time>
      </trkpt>
      <trkpt lat="44.02633" lon="6.2945">
        <ele>1094</ele>
        <time>2009-07-06T11:31:37Z</time>
      </trkpt>
      <trkpt lat="44.02625" lon="6.29478">
        <ele>1096</ele>
        <time>2009-07-06T11:31:52Z</time>
      </trkpt>
      <trkpt lat="44.02622" lon="6.29492">
        <ele>1097</ele>
        <time>2009-07-06T11:32:03Z</time>
      </trkpt>
      <trkpt lat="44.02617" lon="6.29515">
        <ele>1099</ele>
        <time>2009-07-06T11:32:18Z</time>
      </trkpt>
      <trkpt lat="44.0261" lon="6.29535">
        <ele>1100</ele>
        <time>2009-07-06T11:32:32Z</time>
      </trkpt>
      <trkpt lat="44.02608" lon="6.29552">
        <ele>1102</ele>
        <time>2009-07-06T11:32:42Z</time>
      </trkpt>
      <trkpt lat="44.02598" lon="6.29577">
        <ele>1104</ele>
        <time>2009-07-06T11:33:01Z</time>
      </trkpt>
      <trkpt lat="44.02595" lon="6.2958">
        <ele>1104</ele>
        <time>2009-07-06T11:33:03Z</time>
      </trkpt>
      <trkpt lat="44.02593" lon="6.29585">
        <ele>1105</ele>
        <time>2009-07-06T11:33:07Z</time>
      </trkpt>
      <trkpt lat="44.0257" lon="6.29608">
        <ele>1105</ele>
        <time>2009-07-06T11:33:23Z</time>
      </trkpt>
      <trkpt lat="44.02558" lon="6.29623">
        <ele>1105</ele>
        <time>2009-07-06T11:33:33Z</time>
      </trkpt>
      <trkpt lat="44.02557" lon="6.29628">
        <ele>1104</ele>
        <time>2009-07-06T11:33:53Z</time>
      </trkpt>
      <trkpt lat="44.02557" lon="6.2963">
        <ele>1105</ele>
        <time>2009-07-06T11:40:07Z</time>
      </trkpt>
      <trkpt lat="44.02572" lon="6.29653">
        <ele>1103</ele>
        <time>2009-07-06T11:40:15Z</time>
      </trkpt>
      <trkpt lat="44.026" lon="6.29662">
        <ele>1101</ele>
        <time>2009-07-06T11:40:21Z</time>
      </trkpt>
      <trkpt lat="44.02628" lon="6.29667">
        <ele>1099</ele>
        <time>2009-07-06T11:40:25Z</time>
      </trkpt>
      <trkpt lat="44.02662" lon="6.29663">
        <ele>1097</ele>
        <time>2009-07-06T11:40:29Z</time>
      </trkpt>
      <trkpt lat="44.02693" lon="6.29662">
        <ele>1094</ele>
        <time>2009-07-06T11:40:33Z</time>
      </trkpt>
      <trkpt lat="44.02725" lon="6.29665">
        <ele>1091</ele>
        <time>2009-07-06T11:40:37Z</time>
      </trkpt>
      <trkpt lat="44.02768" lon="6.29668">
        <ele>1086</ele>
        <time>2009-07-06T11:40:42Z</time>
      </trkpt>
      <trkpt lat="44.02785" lon="6.29668">
        <ele>1086</ele>
        <time>2009-07-06T11:40:44Z</time>
      </trkpt>
      <trkpt lat="44.02817" lon="6.29668">
        <ele>1083</ele>
        <time>2009-07-06T11:40:48Z</time>
      </trkpt>
      <trkpt lat="44.02853" lon="6.29673">
        <ele>1079</ele>
        <time>2009-07-06T11:40:53Z</time>
      </trkpt>
      <trkpt lat="44.02895" lon="6.29673">
        <ele>1075</ele>
        <time>2009-07-06T11:40:59Z</time>
      </trkpt>
      <trkpt lat="44.02918" lon="6.2967">
        <ele>1073</ele>
        <time>2009-07-06T11:41:04Z</time>
      </trkpt>
      <trkpt lat="44.02922" lon="6.2967">
        <ele>1073</ele>
        <time>2009-07-06T11:41:05Z</time>
      </trkpt>
      <trkpt lat="44.02928" lon="6.2968">
        <ele>1072</ele>
        <time>2009-07-06T11:41:09Z</time>
      </trkpt>
      <trkpt lat="44.02932" lon="6.29697">
        <ele>1072</ele>
        <time>2009-07-06T11:41:12Z</time>
      </trkpt>
      <trkpt lat="44.02933" lon="6.29718">
        <ele>1070</ele>
        <time>2009-07-06T11:41:15Z</time>
      </trkpt>
      <trkpt lat="44.02933" lon="6.29723">
        <ele>1070</ele>
        <time>2009-07-06T11:41:16Z</time>
      </trkpt>
      <trkpt lat="44.02953" lon="6.29728">
        <ele>1068</ele>
        <time>2009-07-06T11:41:24Z</time>
      </trkpt>
      <trkpt lat="44.02978" lon="6.29718">
        <ele>1065</ele>
        <time>2009-07-06T11:41:28Z</time>
      </trkpt>
      <trkpt lat="44.03008" lon="6.29713">
        <ele>1062</ele>
        <time>2009-07-06T11:41:37Z</time>
      </trkpt>
      <trkpt lat="44.03008" lon="6.29713">
        <ele>1061</ele>
        <time>2009-07-06T11:41:38Z</time>
      </trkpt>
      <trkpt lat="44.03018" lon="6.2972">
        <ele>1059</ele>
        <time>2009-07-06T11:41:44Z</time>
      </trkpt>
      <trkpt lat="44.03025" lon="6.2972">
        <ele>1058</ele>
        <time>2009-07-06T11:41:47Z</time>
      </trkpt>
      <trkpt lat="44.03035" lon="6.2972">
        <ele>1056</ele>
        <time>2009-07-06T11:41:51Z</time>
      </trkpt>
      <trkpt lat="44.03045" lon="6.29718">
        <ele>1053</ele>
        <time>2009-07-06T11:41:59Z</time>
      </trkpt>
      <trkpt lat="44.03058" lon="6.2972">
        <ele>1049</ele>
        <time>2009-07-06T11:42:04Z</time>
      </trkpt>
      <trkpt lat="44.0307" lon="6.29717">
        <ele>1048</ele>
        <time>2009-07-06T11:42:17Z</time>
      </trkpt>
      <trkpt lat="44.03092" lon="6.29713">
        <ele>1046</ele>
        <time>2009-07-06T11:42:30Z</time>
      </trkpt>
      <trkpt lat="44.03095" lon="6.29713">
        <ele>1045</ele>
        <time>2009-07-06T11:42:31Z</time>
      </trkpt>
      <trkpt lat="44.03097" lon="6.29715">
        <ele>1045</ele>
        <time>2009-07-06T11:42:33Z</time>
      </trkpt>
      <trkpt lat="44.03107" lon="6.29717">
        <ele>1041</ele>
        <time>2009-07-06T11:42:41Z</time>
      </trkpt>
      <trkpt lat="44.03115" lon="6.2971">
        <ele>1040</ele>
        <time>2009-07-06T11:42:45Z</time>
      </trkpt>
      <trkpt lat="44.03125" lon="6.29713">
        <ele>1037</ele>
        <time>2009-07-06T11:42:50Z</time>
      </trkpt>
      <trkpt lat="44.03128" lon="6.29713">
        <ele>1036</ele>
        <time>2009-07-06T11:42:54Z</time>
      </trkpt>
      <trkpt lat="44.03133" lon="6.29707">
        <ele>1034</ele>
        <time>2009-07-06T11:42:59Z</time>
      </trkpt>
      <trkpt lat="44.03138" lon="6.29698">
        <ele>1033</ele>
        <time>2009-07-06T11:43:07Z</time>
      </trkpt>
      <trkpt lat="44.03152" lon="6.297">
        <ele>1032</ele>
        <time>2009-07-06T11:43:12Z</time>
      </trkpt>
      <trkpt lat="44.03175" lon="6.2971">
        <ele>1029</ele>
        <time>2009-07-06T11:43:22Z</time>
      </trkpt>
      <trkpt lat="44.03177" lon="6.29712">
        <ele>1029</ele>
        <time>2009-07-06T11:43:24Z</time>
      </trkpt>
      <trkpt lat="44.03193" lon="6.29715">
        <ele>1026</ele>
        <time>2009-07-06T11:43:33Z</time>
      </trkpt>
      <trkpt lat="44.03208" lon="6.29702">
        <ele>1025</ele>
        <time>2009-07-06T11:43:43Z</time>
      </trkpt>
      <trkpt lat="44.03238" lon="6.29722">
        <ele>1022</ele>
        <time>2009-07-06T11:43:53Z</time>
      </trkpt>
      <trkpt lat="44.03265" lon="6.29722">
        <ele>1019</ele>
        <time>2009-07-06T11:44:02Z</time>
      </trkpt>
      <trkpt lat="44.03285" lon="6.2971">
        <ele>1020</ele>
        <time>2009-07-06T11:44:13Z</time>
      </trkpt>
      <trkpt lat="44.03323" lon="6.2971">
        <ele>1017</ele>
        <time>2009-07-06T11:44:24Z</time>
      </trkpt>
      <trkpt lat="44.03337" lon="6.29708">
        <ele>1016</ele>
        <time>2009-07-06T11:44:28Z</time>
      </trkpt>
      <trkpt lat="44.03353" lon="6.29705">
        <ele>1015</ele>
        <time>2009-07-06T11:44:34Z</time>
      </trkpt>
      <trkpt lat="44.0338" lon="6.29692">
        <ele>1012</ele>
        <time>2009-07-06T11:44:44Z</time>
      </trkpt>
      <trkpt lat="44.03383" lon="6.2969">
        <ele>1011</ele>
        <time>2009-07-06T11:44:46Z</time>
      </trkpt>
      <trkpt lat="44.0339" lon="6.29693">
        <ele>1009</ele>
        <time>2009-07-06T11:44:50Z</time>
      </trkpt>
      <trkpt lat="44.03403" lon="6.297">
        <ele>1005</ele>
        <time>2009-07-06T11:44:57Z</time>
      </trkpt>
      <trkpt lat="44.03407" lon="6.29708">
        <ele>1003</ele>
        <time>2009-07-06T11:45:01Z</time>
      </trkpt>
      <trkpt lat="44.0341" lon="6.29725">
        <ele>1006</ele>
        <time>2009-07-06T11:45:13Z</time>
      </trkpt>
      <trkpt lat="44.03417" lon="6.2973">
        <ele>1007</ele>
        <time>2009-07-06T11:45:25Z</time>
      </trkpt>
      <trkpt lat="44.03445" lon="6.29733">
        <ele>1006</ele>
        <time>2009-07-06T11:46:57Z</time>
      </trkpt>
      <trkpt lat="44.03447" lon="6.29722">
        <ele>1006</ele>
        <time>2009-07-06T11:47:56Z</time>
      </trkpt>
      <trkpt lat="44.03453" lon="6.29723">
        <ele>1006</ele>
        <time>2009-07-06T11:48:24Z</time>
      </trkpt>
      <trkpt lat="44.03447" lon="6.29733">
        <ele>1006</ele>
        <time>2009-07-06T11:48:39Z</time>
      </trkpt>
      <trkpt lat="44.03465" lon="6.29753">
        <ele>1007</ele>
        <time>2009-07-06T11:48:53Z</time>
      </trkpt>
      <trkpt lat="44.03478" lon="6.2976">
        <ele>1007</ele>
        <time>2009-07-06T11:49:03Z</time>
      </trkpt>
      <trkpt lat="44.03502" lon="6.2977">
        <ele>1006</ele>
        <time>2009-07-06T11:49:12Z</time>
      </trkpt>
      <trkpt lat="44.03507" lon="6.29775">
        <ele>1006</ele>
        <time>2009-07-06T11:49:17Z</time>
      </trkpt>
      <trkpt lat="44.03525" lon="6.29785">
        <ele>1005</ele>
        <time>2009-07-06T11:49:27Z</time>
      </trkpt>
      <trkpt lat="44.03542" lon="6.29788">
        <ele>1005</ele>
        <time>2009-07-06T11:49:38Z</time>
      </trkpt>
      <trkpt lat="44.03557" lon="6.29802">
        <ele>1004</ele>
        <time>2009-07-06T11:50:02Z</time>
      </trkpt>
      <trkpt lat="44.03585" lon="6.29812">
        <ele>1003</ele>
        <time>2009-07-06T11:50:11Z</time>
      </trkpt>
      <trkpt lat="44.03588" lon="6.29817">
        <ele>1002</ele>
        <time>2009-07-06T11:50:15Z</time>
      </trkpt>
      <trkpt lat="44.03598" lon="6.29823">
        <ele>1002</ele>
        <time>2009-07-06T11:50:19Z</time>
      </trkpt>
      <trkpt lat="44.03623" lon="6.29838">
        <ele>1001</ele>
        <time>2009-07-06T11:50:25Z</time>
      </trkpt>
      <trkpt lat="44.0366" lon="6.29845">
        <ele>998</ele>
        <time>2009-07-06T11:50:34Z</time>
      </trkpt>
      <trkpt lat="44.03668" lon="6.29842">
        <ele>998</ele>
        <time>2009-07-06T11:50:36Z</time>
      </trkpt>
      <trkpt lat="44.03678" lon="6.29842">
        <ele>997</ele>
        <time>2009-07-06T11:50:38Z</time>
      </trkpt>
      <trkpt lat="44.03693" lon="6.2984">
        <ele>995</ele>
        <time>2009-07-06T11:50:41Z</time>
      </trkpt>
      <trkpt lat="44.03742" lon="6.29865">
        <ele>996</ele>
        <time>2009-07-06T11:50:51Z</time>
      </trkpt>
      <trkpt lat="44.03783" lon="6.29883">
        <ele>998</ele>
        <time>2009-07-06T11:51:04Z</time>
      </trkpt>
      <trkpt lat="44.0381" lon="6.29908">
        <ele>1000</ele>
        <time>2009-07-06T11:51:18Z</time>
      </trkpt>
      <trkpt lat="44.03812" lon="6.29943">
        <ele>1001</ele>
        <time>2009-07-06T11:51:31Z</time>
      </trkpt>
      <trkpt lat="44.038" lon="6.29978">
        <ele>1003</ele>
        <time>2009-07-06T11:51:45Z</time>
      </trkpt>
      <trkpt lat="44.03808" lon="6.3001">
        <ele>1005</ele>
        <time>2009-07-06T11:51:58Z</time>
      </trkpt>
      <trkpt lat="44.03822" lon="6.30043">
        <ele>1006</ele>
        <time>2009-07-06T11:52:13Z</time>
      </trkpt>
      <trkpt lat="44.03832" lon="6.30097">
        <ele>1007</ele>
        <time>2009-07-06T11:52:30Z</time>
      </trkpt>
      <trkpt lat="44.0384" lon="6.3014">
        <ele>1008</ele>
        <time>2009-07-06T11:52:45Z</time>
      </trkpt>
      <trkpt lat="44.03855" lon="6.30183">
        <ele>1008</ele>
        <time>2009-07-06T11:52:57Z</time>
      </trkpt>
      <trkpt lat="44.03892" lon="6.30207">
        <ele>1009</ele>
        <time>2009-07-06T11:53:10Z</time>
      </trkpt>
      <trkpt lat="44.03905" lon="6.30218">
        <ele>1008</ele>
        <time>2009-07-06T11:53:14Z</time>
      </trkpt>
      <trkpt lat="44.03923" lon="6.30245">
        <ele>1007</ele>
        <time>2009-07-06T11:53:20Z</time>
      </trkpt>
      <trkpt lat="44.03948" lon="6.3024">
        <ele>1006</ele>
        <time>2009-07-06T11:53:26Z</time>
      </trkpt>
      <trkpt lat="44.03967" lon="6.30228">
        <ele>1006</ele>
        <time>2009-07-06T11:53:30Z</time>
      </trkpt>
      <trkpt lat="44.03993" lon="6.30197">
        <ele>1005</ele>
        <time>2009-07-06T11:53:36Z</time>
      </trkpt>
      <trkpt lat="44.04018" lon="6.30173">
        <ele>1005</ele>
        <time>2009-07-06T11:53:42Z</time>
      </trkpt>
      <trkpt lat="44.04047" lon="6.30185">
        <ele>1004</ele>
        <time>2009-07-06T11:53:49Z</time>
      </trkpt>
      <trkpt lat="44.04073" lon="6.302">
        <ele>1002</ele>
        <time>2009-07-06T11:53:55Z</time>
      </trkpt>
      <trkpt lat="44.04108" lon="6.30222">
        <ele>1001</ele>
        <time>2009-07-06T11:54:03Z</time>
      </trkpt>
      <trkpt lat="44.04127" lon="6.30228">
        <ele>1000</ele>
        <time>2009-07-06T11:54:07Z</time>
      </trkpt>
      <trkpt lat="44.04183" lon="6.3021">
        <ele>1000</ele>
        <time>2009-07-06T11:54:19Z</time>
      </trkpt>
      <trkpt lat="44.0422" lon="6.30205">
        <ele>1001</ele>
        <time>2009-07-06T11:54:28Z</time>
      </trkpt>
      <trkpt lat="44.04258" lon="6.30207">
        <ele>1000</ele>
        <time>2009-07-06T11:54:38Z</time>
      </trkpt>
      <trkpt lat="44.0431" lon="6.3022">
        <ele>998</ele>
        <time>2009-07-06T11:54:51Z</time>
      </trkpt>
      <trkpt lat="44.04313" lon="6.30223">
        <ele>997</ele>
        <time>2009-07-06T11:54:52Z</time>
      </trkpt>
      <trkpt lat="44.04317" lon="6.30248">
        <ele>996</ele>
        <time>2009-07-06T11:54:57Z</time>
      </trkpt>
      <trkpt lat="44.04312" lon="6.3029">
        <ele>993</ele>
        <time>2009-07-06T11:55:02Z</time>
      </trkpt>
      <trkpt lat="44.04315" lon="6.30317">
        <ele>991</ele>
        <time>2009-07-06T11:55:05Z</time>
      </trkpt>
      <trkpt lat="44.04322" lon="6.30342">
        <ele>990</ele>
        <time>2009-07-06T11:55:08Z</time>
      </trkpt>
      <trkpt lat="44.04325" lon="6.304">
        <ele>986</ele>
        <time>2009-07-06T11:55:14Z</time>
      </trkpt>
      <trkpt lat="44.04325" lon="6.3041">
        <ele>986</ele>
        <time>2009-07-06T11:55:15Z</time>
      </trkpt>
      <trkpt lat="44.0433" lon="6.30425">
        <ele>985</ele>
        <time>2009-07-06T11:55:17Z</time>
      </trkpt>
      <trkpt lat="44.04325" lon="6.30465">
        <ele>985</ele>
        <time>2009-07-06T11:55:21Z</time>
      </trkpt>
      <trkpt lat="44.04323" lon="6.30505">
        <ele>984</ele>
        <time>2009-07-06T11:55:25Z</time>
      </trkpt>
      <trkpt lat="44.04323" lon="6.30543">
        <ele>982</ele>
        <time>2009-07-06T11:55:29Z</time>
      </trkpt>
      <trkpt lat="44.04312" lon="6.306">
        <ele>980</ele>
        <time>2009-07-06T11:55:34Z</time>
      </trkpt>
      <trkpt lat="44.04308" lon="6.3062">
        <ele>979</ele>
        <time>2009-07-06T11:55:36Z</time>
      </trkpt>
      <trkpt lat="44.04307" lon="6.30628">
        <ele>979</ele>
        <time>2009-07-06T11:55:37Z</time>
      </trkpt>
      <trkpt lat="44.04303" lon="6.30682">
        <ele>977</ele>
        <time>2009-07-06T11:55:42Z</time>
      </trkpt>
      <trkpt lat="44.04302" lon="6.30723">
        <ele>976</ele>
        <time>2009-07-06T11:55:46Z</time>
      </trkpt>
      <trkpt lat="44.04313" lon="6.30757">
        <ele>976</ele>
        <time>2009-07-06T11:55:50Z</time>
      </trkpt>
      <trkpt lat="44.04323" lon="6.3077">
        <ele>976</ele>
        <time>2009-07-06T11:55:52Z</time>
      </trkpt>
      <trkpt lat="44.04333" lon="6.30778">
        <ele>976</ele>
        <time>2009-07-06T11:55:54Z</time>
      </trkpt>
      <trkpt lat="44.04347" lon="6.30798">
        <ele>977</ele>
        <time>2009-07-06T11:55:57Z</time>
      </trkpt>
      <trkpt lat="44.04353" lon="6.3081">
        <ele>977</ele>
        <time>2009-07-06T11:55:59Z</time>
      </trkpt>
      <trkpt lat="44.04363" lon="6.30845">
        <ele>977</ele>
        <time>2009-07-06T11:56:04Z</time>
      </trkpt>
      <trkpt lat="44.04367" lon="6.30865">
        <ele>978</ele>
        <time>2009-07-06T11:56:07Z</time>
      </trkpt>
      <trkpt lat="44.04377" lon="6.30892">
        <ele>978</ele>
        <time>2009-07-06T11:56:11Z</time>
      </trkpt>
      <trkpt lat="44.04382" lon="6.30903">
        <ele>978</ele>
        <time>2009-07-06T11:56:13Z</time>
      </trkpt>
      <trkpt lat="44.04427" lon="6.3093">
        <ele>980</ele>
        <time>2009-07-06T11:56:27Z</time>
      </trkpt>
      <trkpt lat="44.04438" lon="6.3093">
        <ele>980</ele>
        <time>2009-07-06T11:56:31Z</time>
      </trkpt>
      <trkpt lat="44.04443" lon="6.30925">
        <ele>980</ele>
        <time>2009-07-06T11:56:54Z</time>
      </trkpt>
      <trkpt lat="44.04448" lon="6.30925">
        <ele>980</ele>
        <time>2009-07-06T11:57:08Z</time>
      </trkpt>
      <trkpt lat="44.04458" lon="6.30915">
        <ele>981</ele>
        <time>2009-07-06T11:57:16Z</time>
      </trkpt>
      <trkpt lat="44.04475" lon="6.30893">
        <ele>982</ele>
        <time>2009-07-06T11:57:28Z</time>
      </trkpt>
      <trkpt lat="44.04488" lon="6.30845">
        <ele>985</ele>
        <time>2009-07-06T11:57:39Z</time>
      </trkpt>
      <trkpt lat="44.04487" lon="6.30807">
        <ele>988</ele>
        <time>2009-07-06T11:57:49Z</time>
      </trkpt>
      <trkpt lat="44.04488" lon="6.3077">
        <ele>991</ele>
        <time>2009-07-06T11:58:02Z</time>
      </trkpt>
      <trkpt lat="44.04488" lon="6.30768">
        <ele>991</ele>
        <time>2009-07-06T11:58:03Z</time>
      </trkpt>
      <trkpt lat="44.04497" lon="6.30737">
        <ele>993</ele>
        <time>2009-07-06T11:58:19Z</time>
      </trkpt>
      <trkpt lat="44.04503" lon="6.30712">
        <ele>995</ele>
        <time>2009-07-06T11:58:33Z</time>
      </trkpt>
      <trkpt lat="44.04517" lon="6.30702">
        <ele>997</ele>
        <time>2009-07-06T11:58:46Z</time>
      </trkpt>
      <trkpt lat="44.04522" lon="6.30702">
        <ele>997</ele>
        <time>2009-07-06T11:58:51Z</time>
      </trkpt>
      <trkpt lat="44.04525" lon="6.30705">
        <ele>997</ele>
        <time>2009-07-06T11:59:11Z</time>
      </trkpt>
      <trkpt lat="44.04525" lon="6.30705">
        <ele>997</ele>
        <time>2009-07-06T12:01:22Z</time>
      </trkpt>
      <trkpt lat="44.0454" lon="6.30708">
        <ele>998</ele>
        <time>2009-07-06T12:01:28Z</time>
      </trkpt>
      <trkpt lat="44.04577" lon="6.307">
        <ele>1001</ele>
        <time>2009-07-06T12:01:40Z</time>
      </trkpt>
      <trkpt lat="44.0461" lon="6.30712">
        <ele>1004</ele>
        <time>2009-07-06T12:01:52Z</time>
      </trkpt>
      <trkpt lat="44.04623" lon="6.3071">
        <ele>1005</ele>
        <time>2009-07-06T12:01:56Z</time>
      </trkpt>
      <trkpt lat="44.04647" lon="6.30697">
        <ele>1007</ele>
        <time>2009-07-06T12:02:04Z</time>
      </trkpt>
      <trkpt lat="44.0466" lon="6.3069">
        <ele>1008</ele>
        <time>2009-07-06T12:02:10Z</time>
      </trkpt>
      <trkpt lat="44.04688" lon="6.30668">
        <ele>1011</ele>
        <time>2009-07-06T12:02:24Z</time>
      </trkpt>
      <trkpt lat="44.04698" lon="6.30643">
        <ele>1013</ele>
        <time>2009-07-06T12:02:35Z</time>
      </trkpt>
      <trkpt lat="44.04718" lon="6.30635">
        <ele>1016</ele>
        <time>2009-07-06T12:02:50Z</time>
      </trkpt>
      <trkpt lat="44.04732" lon="6.30633">
        <ele>1018</ele>
        <time>2009-07-06T12:03:03Z</time>
      </trkpt>
      <trkpt lat="44.04738" lon="6.30627">
        <ele>1018</ele>
        <time>2009-07-06T12:03:06Z</time>
      </trkpt>
      <trkpt lat="44.04755" lon="6.30613">
        <ele>1021</ele>
        <time>2009-07-06T12:03:20Z</time>
      </trkpt>
      <trkpt lat="44.04782" lon="6.30598">
        <ele>1023</ele>
        <time>2009-07-06T12:03:39Z</time>
      </trkpt>
      <trkpt lat="44.04783" lon="6.30595">
        <ele>1023</ele>
        <time>2009-07-06T12:03:41Z</time>
      </trkpt>
      <trkpt lat="44.04797" lon="6.3058">
        <ele>1025</ele>
        <time>2009-07-06T12:03:55Z</time>
      </trkpt>
      <trkpt lat="44.04808" lon="6.30573">
        <ele>1027</ele>
        <time>2009-07-06T12:04:08Z</time>
      </trkpt>
      <trkpt lat="44.04817" lon="6.3057">
        <ele>1028</ele>
        <time>2009-07-06T12:04:14Z</time>
      </trkpt>
      <trkpt lat="44.04837" lon="6.3058">
        <ele>1030</ele>
        <time>2009-07-06T12:04:28Z</time>
      </trkpt>
      <trkpt lat="44.04838" lon="6.30588">
        <ele>1031</ele>
        <time>2009-07-06T12:04:33Z</time>
      </trkpt>
      <trkpt lat="44.04837" lon="6.30607">
        <ele>1031</ele>
        <time>2009-07-06T12:04:41Z</time>
      </trkpt>
      <trkpt lat="44.04832" lon="6.30613">
        <ele>1032</ele>
        <time>2009-07-06T12:04:47Z</time>
      </trkpt>
      <trkpt lat="44.04823" lon="6.3062">
        <ele>1033</ele>
        <time>2009-07-06T12:04:54Z</time>
      </trkpt>
      <trkpt lat="44.04818" lon="6.3063">
        <ele>1034</ele>
        <time>2009-07-06T12:05:01Z</time>
      </trkpt>
      <trkpt lat="44.0482" lon="6.30648">
        <ele>1035</ele>
        <time>2009-07-06T12:05:11Z</time>
      </trkpt>
      <trkpt lat="44.04832" lon="6.30675">
        <ele>1036</ele>
        <time>2009-07-06T12:05:23Z</time>
      </trkpt>
      <trkpt lat="44.04835" lon="6.30683">
        <ele>1037</ele>
        <time>2009-07-06T12:05:26Z</time>
      </trkpt>
      <trkpt lat="44.0484" lon="6.30712">
        <ele>1037</ele>
        <time>2009-07-06T12:05:39Z</time>
      </trkpt>
      <trkpt lat="44.04842" lon="6.30722">
        <ele>1038</ele>
        <time>2009-07-06T12:05:43Z</time>
      </trkpt>
      <trkpt lat="44.04857" lon="6.30738">
        <ele>1039</ele>
        <time>2009-07-06T12:05:53Z</time>
      </trkpt>
      <trkpt lat="44.04875" lon="6.30745">
        <ele>1041</ele>
        <time>2009-07-06T12:06:07Z</time>
      </trkpt>
      <trkpt lat="44.04887" lon="6.30767">
        <ele>1042</ele>
        <time>2009-07-06T12:06:21Z</time>
      </trkpt>
      <trkpt lat="44.04888" lon="6.3077">
        <ele>1042</ele>
        <time>2009-07-06T12:06:23Z</time>
      </trkpt>
      <trkpt lat="44.04892" lon="6.30797">
        <ele>1043</ele>
        <time>2009-07-06T12:06:36Z</time>
      </trkpt>
      <trkpt lat="44.049" lon="6.30827">
        <ele>1044</ele>
        <time>2009-07-06T12:06:48Z</time>
      </trkpt>
      <trkpt lat="44.049" lon="6.30832">
        <ele>1044</ele>
        <time>2009-07-06T12:06:50Z</time>
      </trkpt>
      <trkpt lat="44.04893" lon="6.30848">
        <ele>1046</ele>
        <time>2009-07-06T12:07:00Z</time>
      </trkpt>
      <trkpt lat="44.0489" lon="6.3086">
        <ele>1046</ele>
        <time>2009-07-06T12:07:05Z</time>
      </trkpt>
      <trkpt lat="44.0488" lon="6.30893">
        <ele>1047</ele>
        <time>2009-07-06T12:07:13Z</time>
      </trkpt>
      <trkpt lat="44.04875" lon="6.30915">
        <ele>1047</ele>
        <time>2009-07-06T12:07:21Z</time>
      </trkpt>
      <trkpt lat="44.04868" lon="6.30943">
        <ele>1048</ele>
        <time>2009-07-06T12:07:34Z</time>
      </trkpt>
      <trkpt lat="44.04868" lon="6.30948">
        <ele>1048</ele>
        <time>2009-07-06T12:07:35Z</time>
      </trkpt>
      <trkpt lat="44.04878" lon="6.3099">
        <ele>1050</ele>
        <time>2009-07-06T12:07:51Z</time>
      </trkpt>
      <trkpt lat="44.04882" lon="6.30998">
        <ele>1051</ele>
        <time>2009-07-06T12:07:55Z</time>
      </trkpt>
      <trkpt lat="44.04887" lon="6.31005">
        <ele>1051</ele>
        <time>2009-07-06T12:07:59Z</time>
      </trkpt>
      <trkpt lat="44.0492" lon="6.31022">
        <ele>1047</ele>
        <time>2009-07-06T12:08:09Z</time>
      </trkpt>
      <trkpt lat="44.0496" lon="6.31013">
        <ele>1044</ele>
        <time>2009-07-06T12:08:18Z</time>
      </trkpt>
      <trkpt lat="44.04972" lon="6.31013">
        <ele>1042</ele>
        <time>2009-07-06T12:08:22Z</time>
      </trkpt>
      <trkpt lat="44.04977" lon="6.31023">
        <ele>1042</ele>
        <time>2009-07-06T12:08:30Z</time>
      </trkpt>
      <trkpt lat="44.04988" lon="6.31025">
        <ele>1042</ele>
        <time>2009-07-06T12:08:44Z</time>
      </trkpt>
      <trkpt lat="44.04998" lon="6.31022">
        <ele>1043</ele>
        <time>2009-07-06T12:09:04Z</time>
      </trkpt>
      <trkpt lat="44.0502" lon="6.31018">
        <ele>1045</ele>
        <time>2009-07-06T12:09:22Z</time>
      </trkpt>
      <trkpt lat="44.05028" lon="6.31013">
        <ele>1045</ele>
        <time>2009-07-06T12:09:52Z</time>
      </trkpt>
      <trkpt lat="44.05033" lon="6.31007">
        <ele>1045</ele>
        <time>2009-07-06T12:09:55Z</time>
      </trkpt>
      <trkpt lat="44.05038" lon="6.30995">
        <ele>1045</ele>
        <time>2009-07-06T12:10:00Z</time>
      </trkpt>
      <trkpt lat="44.05057" lon="6.30995">
        <ele>1046</ele>
        <time>2009-07-06T12:10:13Z</time>
      </trkpt>
      <trkpt lat="44.05093" lon="6.31">
        <ele>1047</ele>
        <time>2009-07-06T12:10:30Z</time>
      </trkpt>
      <trkpt lat="44.05112" lon="6.31018">
        <ele>1049</ele>
        <time>2009-07-06T12:10:44Z</time>
      </trkpt>
      <trkpt lat="44.05118" lon="6.31025">
        <ele>1049</ele>
        <time>2009-07-06T12:10:50Z</time>
      </trkpt>
      <trkpt lat="44.05132" lon="6.31027">
        <ele>1050</ele>
        <time>2009-07-06T12:10:57Z</time>
      </trkpt>
      <trkpt lat="44.0514" lon="6.31025">
        <ele>1050</ele>
        <time>2009-07-06T12:11:02Z</time>
      </trkpt>
      <trkpt lat="44.05145" lon="6.3102">
        <ele>1051</ele>
        <time>2009-07-06T12:11:06Z</time>
      </trkpt>
      <trkpt lat="44.05148" lon="6.31015">
        <ele>1051</ele>
        <time>2009-07-06T12:11:09Z</time>
      </trkpt>
      <trkpt lat="44.05152" lon="6.31007">
        <ele>1052</ele>
        <time>2009-07-06T12:11:14Z</time>
      </trkpt>
      <trkpt lat="44.0516" lon="6.31003">
        <ele>1053</ele>
        <time>2009-07-06T12:11:21Z</time>
      </trkpt>
      <trkpt lat="44.05177" lon="6.3099">
        <ele>1056</ele>
        <time>2009-07-06T12:11:36Z</time>
      </trkpt>
      <trkpt lat="44.05178" lon="6.30987">
        <ele>1056</ele>
        <time>2009-07-06T12:11:40Z</time>
      </trkpt>
      <trkpt lat="44.0519" lon="6.30967">
        <ele>1059</ele>
        <time>2009-07-06T12:11:55Z</time>
      </trkpt>
      <trkpt lat="44.05193" lon="6.30958">
        <ele>1059</ele>
        <time>2009-07-06T12:11:59Z</time>
      </trkpt>
      <trkpt lat="44.052" lon="6.3095">
        <ele>1060</ele>
        <time>2009-07-06T12:12:08Z</time>
      </trkpt>
      <trkpt lat="44.05203" lon="6.30945">
        <ele>1061</ele>
        <time>2009-07-06T12:12:12Z</time>
      </trkpt>
      <trkpt lat="44.0521" lon="6.30935">
        <ele>1062</ele>
        <time>2009-07-06T12:12:21Z</time>
      </trkpt>
      <trkpt lat="44.05227" lon="6.3092">
        <ele>1063</ele>
        <time>2009-07-06T12:12:36Z</time>
      </trkpt>
      <trkpt lat="44.05232" lon="6.30913">
        <ele>1064</ele>
        <time>2009-07-06T12:12:42Z</time>
      </trkpt>
      <trkpt lat="44.05237" lon="6.30907">
        <ele>1064</ele>
        <time>2009-07-06T12:12:57Z</time>
      </trkpt>
      <trkpt lat="44.05252" lon="6.30882">
        <ele>1064</ele>
        <time>2009-07-06T12:14:07Z</time>
      </trkpt>
      <trkpt lat="44.05262" lon="6.3087">
        <ele>1065</ele>
        <time>2009-07-06T12:14:13Z</time>
      </trkpt>
      <trkpt lat="44.05268" lon="6.30893">
        <ele>1065</ele>
        <time>2009-07-06T12:14:24Z</time>
      </trkpt>
      <trkpt lat="44.05273" lon="6.3091">
        <ele>1065</ele>
        <time>2009-07-06T12:14:43Z</time>
      </trkpt>
      <trkpt lat="44.05298" lon="6.30948">
        <ele>1064</ele>
        <time>2009-07-06T12:14:58Z</time>
      </trkpt>
      <trkpt lat="44.05322" lon="6.30965">
        <ele>1063</ele>
        <time>2009-07-06T12:15:05Z</time>
      </trkpt>
      <trkpt lat="44.05335" lon="6.31013">
        <ele>1060</ele>
        <time>2009-07-06T12:15:14Z</time>
      </trkpt>
      <trkpt lat="44.05337" lon="6.3102">
        <ele>1060</ele>
        <time>2009-07-06T12:15:15Z</time>
      </trkpt>
      <trkpt lat="44.05343" lon="6.3107">
        <ele>1059</ele>
        <time>2009-07-06T12:15:24Z</time>
      </trkpt>
      <trkpt lat="44.05347" lon="6.31085">
        <ele>1058</ele>
        <time>2009-07-06T12:15:26Z</time>
      </trkpt>
      <trkpt lat="44.0537" lon="6.31117">
        <ele>1056</ele>
        <time>2009-07-06T12:15:32Z</time>
      </trkpt>
      <trkpt lat="44.05375" lon="6.3112">
        <ele>1055</ele>
        <time>2009-07-06T12:15:33Z</time>
      </trkpt>
      <trkpt lat="44.05383" lon="6.31127">
        <ele>1055</ele>
        <time>2009-07-06T12:15:35Z</time>
      </trkpt>
      <trkpt lat="44.054" lon="6.31133">
        <ele>1055</ele>
        <time>2009-07-06T12:15:39Z</time>
      </trkpt>
      <trkpt lat="44.05412" lon="6.31137">
        <ele>1054</ele>
        <time>2009-07-06T12:15:42Z</time>
      </trkpt>
      <trkpt lat="44.0543" lon="6.31155">
        <ele>1053</ele>
        <time>2009-07-06T12:15:47Z</time>
      </trkpt>
      <trkpt lat="44.05447" lon="6.31182">
        <ele>1052</ele>
        <time>2009-07-06T12:15:55Z</time>
      </trkpt>
      <trkpt lat="44.0545" lon="6.31175">
        <ele>1053</ele>
        <time>2009-07-06T12:15:57Z</time>
      </trkpt>
      <trkpt lat="44.05465" lon="6.3115">
        <ele>1052</ele>
        <time>2009-07-06T12:16:02Z</time>
      </trkpt>
      <trkpt lat="44.0547" lon="6.31138">
        <ele>1051</ele>
        <time>2009-07-06T12:16:04Z</time>
      </trkpt>
      <trkpt lat="44.05472" lon="6.3111">
        <ele>1051</ele>
        <time>2009-07-06T12:16:08Z</time>
      </trkpt>
      <trkpt lat="44.05473" lon="6.31092">
        <ele>1051</ele>
        <time>2009-07-06T12:16:11Z</time>
      </trkpt>
      <trkpt lat="44.0551" lon="6.31025">
        <ele>1049</ele>
        <time>2009-07-06T12:16:23Z</time>
      </trkpt>
      <trkpt lat="44.05533" lon="6.31038">
        <ele>1047</ele>
        <time>2009-07-06T12:16:30Z</time>
      </trkpt>
      <trkpt lat="44.05542" lon="6.31067">
        <ele>1046</ele>
        <time>2009-07-06T12:16:35Z</time>
      </trkpt>
      <trkpt lat="44.05543" lon="6.31092">
        <ele>1044</ele>
        <time>2009-07-06T12:16:40Z</time>
      </trkpt>
      <trkpt lat="44.05567" lon="6.31097">
        <ele>1041</ele>
        <time>2009-07-06T12:16:49Z</time>
      </trkpt>
      <trkpt lat="44.05585" lon="6.311">
        <ele>1040</ele>
        <time>2009-07-06T12:16:54Z</time>
      </trkpt>
      <trkpt lat="44.05602" lon="6.31088">
        <ele>1039</ele>
        <time>2009-07-06T12:16:59Z</time>
      </trkpt>
      <trkpt lat="44.05638" lon="6.31042">
        <ele>1038</ele>
        <time>2009-07-06T12:17:11Z</time>
      </trkpt>
      <trkpt lat="44.0568" lon="6.31047">
        <ele>1037</ele>
        <time>2009-07-06T12:17:22Z</time>
      </trkpt>
      <trkpt lat="44.05712" lon="6.31033">
        <ele>1040</ele>
        <time>2009-07-06T12:17:32Z</time>
      </trkpt>
      <trkpt lat="44.05713" lon="6.31032">
        <ele>1040</ele>
        <time>2009-07-06T12:17:33Z</time>
      </trkpt>
      <trkpt lat="44.05737" lon="6.31025">
        <ele>1043</ele>
        <time>2009-07-06T12:17:45Z</time>
      </trkpt>
      <trkpt lat="44.05748" lon="6.31023">
        <ele>1043</ele>
        <time>2009-07-06T12:17:50Z</time>
      </trkpt>
      <trkpt lat="44.05775" lon="6.31012">
        <ele>1042</ele>
        <time>2009-07-06T12:18:03Z</time>
      </trkpt>
      <trkpt lat="44.058" lon="6.31032">
        <ele>1041</ele>
        <time>2009-07-06T12:18:11Z</time>
      </trkpt>
      <trkpt lat="44.05838" lon="6.31072">
        <ele>1042</ele>
        <time>2009-07-06T12:18:23Z</time>
      </trkpt>
      <trkpt lat="44.05848" lon="6.31105">
        <ele>1044</ele>
        <time>2009-07-06T12:18:35Z</time>
      </trkpt>
      <trkpt lat="44.05855" lon="6.31128">
        <ele>1047</ele>
        <time>2009-07-06T12:18:46Z</time>
      </trkpt>
      <trkpt lat="44.05868" lon="6.3115">
        <ele>1048</ele>
        <time>2009-07-06T12:19:00Z</time>
      </trkpt>
      <trkpt lat="44.0589" lon="6.31162">
        <ele>1047</ele>
        <time>2009-07-06T12:19:08Z</time>
      </trkpt>
      <trkpt lat="44.05903" lon="6.31188">
        <ele>1047</ele>
        <time>2009-07-06T12:19:14Z</time>
      </trkpt>
      <trkpt lat="44.05905" lon="6.312">
        <ele>1047</ele>
        <time>2009-07-06T12:19:16Z</time>
      </trkpt>
      <trkpt lat="44.05918" lon="6.31248">
        <ele>1046</ele>
        <time>2009-07-06T12:19:25Z</time>
      </trkpt>
      <trkpt lat="44.05945" lon="6.31303">
        <ele>1046</ele>
        <time>2009-07-06T12:19:37Z</time>
      </trkpt>
      <trkpt lat="44.05952" lon="6.3131">
        <ele>1046</ele>
        <time>2009-07-06T12:19:39Z</time>
      </trkpt>
      <trkpt lat="44.05985" lon="6.31335">
        <ele>1046</ele>
        <time>2009-07-06T12:19:49Z</time>
      </trkpt>
      <trkpt lat="44.05993" lon="6.31352">
        <ele>1044</ele>
        <time>2009-07-06T12:19:52Z</time>
      </trkpt>
      <trkpt lat="44.06018" lon="6.31372">
        <ele>1043</ele>
        <time>2009-07-06T12:19:57Z</time>
      </trkpt>
      <trkpt lat="44.06033" lon="6.31393">
        <ele>1043</ele>
        <time>2009-07-06T12:20:01Z</time>
      </trkpt>
      <trkpt lat="44.06042" lon="6.31407">
        <ele>1042</ele>
        <time>2009-07-06T12:20:03Z</time>
      </trkpt>
      <trkpt lat="44.06055" lon="6.31422">
        <ele>1041</ele>
        <time>2009-07-06T12:20:06Z</time>
      </trkpt>
      <trkpt lat="44.06058" lon="6.31425">
        <ele>1040</ele>
        <time>2009-07-06T12:20:07Z</time>
      </trkpt>
      <trkpt lat="44.06082" lon="6.31462">
        <ele>1037</ele>
        <time>2009-07-06T12:20:12Z</time>
      </trkpt>
      <trkpt lat="44.06115" lon="6.31512">
        <ele>1037</ele>
        <time>2009-07-06T12:20:21Z</time>
      </trkpt>
      <trkpt lat="44.06132" lon="6.31492">
        <ele>1037</ele>
        <time>2009-07-06T12:20:27Z</time>
      </trkpt>
      <trkpt lat="44.06157" lon="6.31438">
        <ele>1040</ele>
        <time>2009-07-06T12:20:42Z</time>
      </trkpt>
      <trkpt lat="44.06187" lon="6.3142">
        <ele>1043</ele>
        <time>2009-07-06T12:20:55Z</time>
      </trkpt>
      <trkpt lat="44.06207" lon="6.31402">
        <ele>1045</ele>
        <time>2009-07-06T12:21:07Z</time>
      </trkpt>
      <trkpt lat="44.06228" lon="6.31377">
        <ele>1048</ele>
        <time>2009-07-06T12:21:22Z</time>
      </trkpt>
      <trkpt lat="44.06253" lon="6.31362">
        <ele>1048</ele>
        <time>2009-07-06T12:21:35Z</time>
      </trkpt>
      <trkpt lat="44.06257" lon="6.31363">
        <ele>1048</ele>
        <time>2009-07-06T12:21:36Z</time>
      </trkpt>
      <trkpt lat="44.0627" lon="6.31367">
        <ele>1047</ele>
        <time>2009-07-06T12:21:39Z</time>
      </trkpt>
      <trkpt lat="44.06307" lon="6.31352">
        <ele>1048</ele>
        <time>2009-07-06T12:21:48Z</time>
      </trkpt>
      <trkpt lat="44.06343" lon="6.31347">
        <ele>1047</ele>
        <time>2009-07-06T12:21:57Z</time>
      </trkpt>
      <trkpt lat="44.06368" lon="6.31338">
        <ele>1046</ele>
        <time>2009-07-06T12:22:01Z</time>
      </trkpt>
      <trkpt lat="44.06415" lon="6.31307">
        <ele>1043</ele>
        <time>2009-07-06T12:22:08Z</time>
      </trkpt>
      <trkpt lat="44.06435" lon="6.31287">
        <ele>1043</ele>
        <time>2009-07-06T12:22:12Z</time>
      </trkpt>
      <trkpt lat="44.06487" lon="6.31257">
        <ele>1044</ele>
        <time>2009-07-06T12:22:24Z</time>
      </trkpt>
      <trkpt lat="44.06527" lon="6.31223">
        <ele>1045</ele>
        <time>2009-07-06T12:22:34Z</time>
      </trkpt>
      <trkpt lat="44.06563" lon="6.312">
        <ele>1043</ele>
        <time>2009-07-06T12:22:43Z</time>
      </trkpt>
      <trkpt lat="44.0658" lon="6.31178">
        <ele>1041</ele>
        <time>2009-07-06T12:22:47Z</time>
      </trkpt>
      <trkpt lat="44.06593" lon="6.31122">
        <ele>1036</ele>
        <time>2009-07-06T12:22:53Z</time>
      </trkpt>
      <trkpt lat="44.06595" lon="6.31097">
        <ele>1035</ele>
        <time>2009-07-06T12:22:55Z</time>
      </trkpt>
      <trkpt lat="44.066" lon="6.31045">
        <ele>1031</ele>
        <time>2009-07-06T12:22:59Z</time>
      </trkpt>
      <trkpt lat="44.06602" lon="6.31012">
        <ele>1030</ele>
        <time>2009-07-06T12:23:02Z</time>
      </trkpt>
      <trkpt lat="44.06578" lon="6.30963">
        <ele>1031</ele>
        <time>2009-07-06T12:23:10Z</time>
      </trkpt>
      <trkpt lat="44.06562" lon="6.30953">
        <ele>1032</ele>
        <time>2009-07-06T12:23:14Z</time>
      </trkpt>
      <trkpt lat="44.06537" lon="6.3094">
        <ele>1032</ele>
        <time>2009-07-06T12:23:25Z</time>
      </trkpt>
      <trkpt lat="44.0651" lon="6.3095">
        <ele>1030</ele>
        <time>2009-07-06T12:24:23Z</time>
      </trkpt>
      <trkpt lat="44.06507" lon="6.30952">
        <ele>1030</ele>
        <time>2009-07-06T12:24:24Z</time>
      </trkpt>
      <trkpt lat="44.0648" lon="6.30953">
        <ele>1027</ele>
        <time>2009-07-06T12:24:28Z</time>
      </trkpt>
      <trkpt lat="44.06442" lon="6.30917">
        <ele>1023</ele>
        <time>2009-07-06T12:24:34Z</time>
      </trkpt>
      <trkpt lat="44.06415" lon="6.30893">
        <ele>1019</ele>
        <time>2009-07-06T12:24:38Z</time>
      </trkpt>
      <trkpt lat="44.06418" lon="6.30848">
        <ele>1016</ele>
        <time>2009-07-06T12:24:43Z</time>
      </trkpt>
      <trkpt lat="44.06433" lon="6.30817">
        <ele>1013</ele>
        <time>2009-07-06T12:24:46Z</time>
      </trkpt>
      <trkpt lat="44.0647" lon="6.30783">
        <ele>1007</ele>
        <time>2009-07-06T12:24:51Z</time>
      </trkpt>
      <trkpt lat="44.06482" lon="6.30782">
        <ele>1006</ele>
        <time>2009-07-06T12:24:53Z</time>
      </trkpt>
      <trkpt lat="44.06495" lon="6.30762">
        <ele>1004</ele>
        <time>2009-07-06T12:24:56Z</time>
      </trkpt>
      <trkpt lat="44.06505" lon="6.30728">
        <ele>1000</ele>
        <time>2009-07-06T12:24:59Z</time>
      </trkpt>
      <trkpt lat="44.06527" lon="6.30692">
        <ele>997</ele>
        <time>2009-07-06T12:25:06Z</time>
      </trkpt>
      <trkpt lat="44.06537" lon="6.30688">
        <ele>995</ele>
        <time>2009-07-06T12:25:45Z</time>
      </trkpt>
      <trkpt lat="44.06547" lon="6.30687">
        <ele>994</ele>
        <time>2009-07-06T12:25:47Z</time>
      </trkpt>
      <trkpt lat="44.06572" lon="6.30692">
        <ele>992</ele>
        <time>2009-07-06T12:25:51Z</time>
      </trkpt>
      <trkpt lat="44.0659" lon="6.30687">
        <ele>990</ele>
        <time>2009-07-06T12:25:55Z</time>
      </trkpt>
      <trkpt lat="44.06577" lon="6.30668">
        <ele>987</ele>
        <time>2009-07-06T12:25:59Z</time>
      </trkpt>
      <trkpt lat="44.06533" lon="6.30655">
        <ele>984</ele>
        <time>2009-07-06T12:26:05Z</time>
      </trkpt>
      <trkpt lat="44.0653" lon="6.30628">
        <ele>982</ele>
        <time>2009-07-06T12:26:10Z</time>
      </trkpt>
      <trkpt lat="44.06537" lon="6.30627">
        <ele>981</ele>
        <time>2009-07-06T12:26:11Z</time>
      </trkpt>
      <trkpt lat="44.06563" lon="6.30608">
        <ele>978</ele>
        <time>2009-07-06T12:26:15Z</time>
      </trkpt>
      <trkpt lat="44.06575" lon="6.3059">
        <ele>977</ele>
        <time>2009-07-06T12:26:17Z</time>
      </trkpt>
      <trkpt lat="44.06592" lon="6.30557">
        <ele>974</ele>
        <time>2009-07-06T12:26:20Z</time>
      </trkpt>
      <trkpt lat="44.06602" lon="6.305">
        <ele>969</ele>
        <time>2009-07-06T12:26:25Z</time>
      </trkpt>
      <trkpt lat="44.06598" lon="6.3048">
        <ele>968</ele>
        <time>2009-07-06T12:26:27Z</time>
      </trkpt>
      <trkpt lat="44.06597" lon="6.3046">
        <ele>966</ele>
        <time>2009-07-06T12:26:30Z</time>
      </trkpt>
      <trkpt lat="44.06608" lon="6.30457">
        <ele>967</ele>
        <time>2009-07-06T12:26:33Z</time>
      </trkpt>
      <trkpt lat="44.06642" lon="6.30503">
        <ele>966</ele>
        <time>2009-07-06T12:26:42Z</time>
      </trkpt>
      <trkpt lat="44.06653" lon="6.30502">
        <ele>966</ele>
        <time>2009-07-06T12:26:44Z</time>
      </trkpt>
      <trkpt lat="44.06667" lon="6.30497">
        <ele>965</ele>
        <time>2009-07-06T12:26:46Z</time>
      </trkpt>
      <trkpt lat="44.06705" lon="6.30523">
        <ele>962</ele>
        <time>2009-07-06T12:26:54Z</time>
      </trkpt>
      <trkpt lat="44.06698" lon="6.30542">
        <ele>961</ele>
        <time>2009-07-06T12:26:56Z</time>
      </trkpt>
      <trkpt lat="44.06688" lon="6.30558">
        <ele>961</ele>
        <time>2009-07-06T12:26:58Z</time>
      </trkpt>
      <trkpt lat="44.06677" lon="6.30642">
        <ele>960</ele>
        <time>2009-07-06T12:27:06Z</time>
      </trkpt>
      <trkpt lat="44.0668" lon="6.3066">
        <ele>960</ele>
        <time>2009-07-06T12:27:08Z</time>
      </trkpt>
      <trkpt lat="44.06708" lon="6.30663">
        <ele>960</ele>
        <time>2009-07-06T12:27:14Z</time>
      </trkpt>
      <trkpt lat="44.06715" lon="6.30647">
        <ele>960</ele>
        <time>2009-07-06T12:27:16Z</time>
      </trkpt>
      <trkpt lat="44.06743" lon="6.30622">
        <ele>962</ele>
        <time>2009-07-06T12:27:21Z</time>
      </trkpt>
      <trkpt lat="44.06762" lon="6.30607">
        <ele>964</ele>
        <time>2009-07-06T12:27:24Z</time>
      </trkpt>
      <trkpt lat="44.06788" lon="6.30577">
        <ele>967</ele>
        <time>2009-07-06T12:27:29Z</time>
      </trkpt>
      <trkpt lat="44.06793" lon="6.3057">
        <ele>967</ele>
        <time>2009-07-06T12:27:30Z</time>
      </trkpt>
      <trkpt lat="44.06803" lon="6.3056">
        <ele>968</ele>
        <time>2009-07-06T12:27:32Z</time>
      </trkpt>
      <trkpt lat="44.06835" lon="6.30563">
        <ele>971</ele>
        <time>2009-07-06T12:27:37Z</time>
      </trkpt>
      <trkpt lat="44.0684" lon="6.30567">
        <ele>971</ele>
        <time>2009-07-06T12:27:38Z</time>
      </trkpt>
      <trkpt lat="44.0688" lon="6.3058">
        <ele>973</ele>
        <time>2009-07-06T12:27:50Z</time>
      </trkpt>
      <trkpt lat="44.06917" lon="6.30592">
        <ele>973</ele>
        <time>2009-07-06T12:28:04Z</time>
      </trkpt>
      <trkpt lat="44.06925" lon="6.30608">
        <ele>973</ele>
        <time>2009-07-06T12:28:08Z</time>
      </trkpt>
      <trkpt lat="44.06932" lon="6.3063">
        <ele>972</ele>
        <time>2009-07-06T12:28:12Z</time>
      </trkpt>
      <trkpt lat="44.06945" lon="6.30657">
        <ele>971</ele>
        <time>2009-07-06T12:28:16Z</time>
      </trkpt>
      <trkpt lat="44.0699" lon="6.30713">
        <ele>967</ele>
        <time>2009-07-06T12:28:25Z</time>
      </trkpt>
      <trkpt lat="44.07017" lon="6.30745">
        <ele>966</ele>
        <time>2009-07-06T12:28:29Z</time>
      </trkpt>
      <trkpt lat="44.07063" lon="6.30763">
        <ele>963</ele>
        <time>2009-07-06T12:28:35Z</time>
      </trkpt>
      <trkpt lat="44.07103" lon="6.3076">
        <ele>962</ele>
        <time>2009-07-06T12:28:40Z</time>
      </trkpt>
      <trkpt lat="44.07147" lon="6.30785">
        <ele>960</ele>
        <time>2009-07-06T12:28:46Z</time>
      </trkpt>
      <trkpt lat="44.07155" lon="6.30785">
        <ele>959</ele>
        <time>2009-07-06T12:28:47Z</time>
      </trkpt>
      <trkpt lat="44.07172" lon="6.30787">
        <ele>959</ele>
        <time>2009-07-06T12:28:49Z</time>
      </trkpt>
      <trkpt lat="44.07208" lon="6.30813">
        <ele>958</ele>
        <time>2009-07-06T12:28:54Z</time>
      </trkpt>
      <trkpt lat="44.07243" lon="6.30847">
        <ele>960</ele>
        <time>2009-07-06T12:29:03Z</time>
      </trkpt>
      <trkpt lat="44.0726" lon="6.3086">
        <ele>964</ele>
        <time>2009-07-06T12:29:14Z</time>
      </trkpt>
      <trkpt lat="44.07263" lon="6.30863">
        <ele>965</ele>
        <time>2009-07-06T12:29:17Z</time>
      </trkpt>
      <trkpt lat="44.07283" lon="6.30873">
        <ele>967</ele>
        <time>2009-07-06T12:29:31Z</time>
      </trkpt>
      <trkpt lat="44.07308" lon="6.30875">
        <ele>969</ele>
        <time>2009-07-06T12:29:47Z</time>
      </trkpt>
      <trkpt lat="44.0733" lon="6.30868">
        <ele>971</ele>
        <time>2009-07-06T12:29:58Z</time>
      </trkpt>
      <trkpt lat="44.07337" lon="6.30868">
        <ele>972</ele>
        <time>2009-07-06T12:30:02Z</time>
      </trkpt>
      <trkpt lat="44.07357" lon="6.30897">
        <ele>972</ele>
        <time>2009-07-06T12:30:14Z</time>
      </trkpt>
      <trkpt lat="44.07375" lon="6.30932">
        <ele>973</ele>
        <time>2009-07-06T12:30:27Z</time>
      </trkpt>
      <trkpt lat="44.07402" lon="6.30947">
        <ele>974</ele>
        <time>2009-07-06T12:30:40Z</time>
      </trkpt>
      <trkpt lat="44.07427" lon="6.30967">
        <ele>975</ele>
        <time>2009-07-06T12:30:54Z</time>
      </trkpt>
      <trkpt lat="44.07467" lon="6.3096">
        <ele>977</ele>
        <time>2009-07-06T12:31:08Z</time>
      </trkpt>
      <trkpt lat="44.07498" lon="6.30997">
        <ele>977</ele>
        <time>2009-07-06T12:31:22Z</time>
      </trkpt>
      <trkpt lat="44.07502" lon="6.31015">
        <ele>976</ele>
        <time>2009-07-06T12:31:25Z</time>
      </trkpt>
      <trkpt lat="44.07517" lon="6.3108">
        <ele>975</ele>
        <time>2009-07-06T12:31:35Z</time>
      </trkpt>
      <trkpt lat="44.07538" lon="6.31082">
        <ele>974</ele>
        <time>2009-07-06T12:31:41Z</time>
      </trkpt>
      <trkpt lat="44.07553" lon="6.31047">
        <ele>975</ele>
        <time>2009-07-06T12:31:47Z</time>
      </trkpt>
      <trkpt lat="44.07562" lon="6.31018">
        <ele>977</ele>
        <time>2009-07-06T12:31:55Z</time>
      </trkpt>
      <trkpt lat="44.07565" lon="6.30995">
        <ele>978</ele>
        <time>2009-07-06T12:32:03Z</time>
      </trkpt>
      <trkpt lat="44.07577" lon="6.30963">
        <ele>981</ele>
        <time>2009-07-06T12:32:17Z</time>
      </trkpt>
      <trkpt lat="44.07588" lon="6.3093">
        <ele>984</ele>
        <time>2009-07-06T12:32:33Z</time>
      </trkpt>
      <trkpt lat="44.07608" lon="6.30925">
        <ele>986</ele>
        <time>2009-07-06T12:32:47Z</time>
      </trkpt>
      <trkpt lat="44.07627" lon="6.30932">
        <ele>988</ele>
        <time>2009-07-06T12:33:02Z</time>
      </trkpt>
      <trkpt lat="44.0763" lon="6.30937">
        <ele>990</ele>
        <time>2009-07-06T12:33:07Z</time>
      </trkpt>
      <trkpt lat="44.07627" lon="6.30952">
        <ele>991</ele>
        <time>2009-07-06T12:33:16Z</time>
      </trkpt>
      <trkpt lat="44.07625" lon="6.30955">
        <ele>991</ele>
        <time>2009-07-06T12:33:18Z</time>
      </trkpt>
      <trkpt lat="44.07612" lon="6.30977">
        <ele>993</ele>
        <time>2009-07-06T12:33:33Z</time>
      </trkpt>
      <trkpt lat="44.0761" lon="6.30985">
        <ele>995</ele>
        <time>2009-07-06T12:33:38Z</time>
      </trkpt>
      <trkpt lat="44.07613" lon="6.30995">
        <ele>996</ele>
        <time>2009-07-06T12:33:43Z</time>
      </trkpt>
      <trkpt lat="44.07623" lon="6.30998">
        <ele>997</ele>
        <time>2009-07-06T12:33:49Z</time>
      </trkpt>
      <trkpt lat="44.07648" lon="6.31">
        <ele>998</ele>
        <time>2009-07-06T12:34:06Z</time>
      </trkpt>
      <trkpt lat="44.07668" lon="6.31008">
        <ele>998</ele>
        <time>2009-07-06T12:34:20Z</time>
      </trkpt>
      <trkpt lat="44.0768" lon="6.30998">
        <ele>998</ele>
        <time>2009-07-06T12:34:30Z</time>
      </trkpt>
      <trkpt lat="44.077" lon="6.30982">
        <ele>1001</ele>
        <time>2009-07-06T12:34:45Z</time>
      </trkpt>
      <trkpt lat="44.07717" lon="6.30965">
        <ele>1003</ele>
        <time>2009-07-06T12:34:59Z</time>
      </trkpt>
      <trkpt lat="44.07728" lon="6.3095">
        <ele>1005</ele>
        <time>2009-07-06T12:35:12Z</time>
      </trkpt>
      <trkpt lat="44.07732" lon="6.30947">
        <ele>1006</ele>
        <time>2009-07-06T12:35:14Z</time>
      </trkpt>
      <trkpt lat="44.07743" lon="6.30933">
        <ele>1008</ele>
        <time>2009-07-06T12:35:26Z</time>
      </trkpt>
      <trkpt lat="44.07753" lon="6.30915">
        <ele>1010</ele>
        <time>2009-07-06T12:35:39Z</time>
      </trkpt>
      <trkpt lat="44.07763" lon="6.30893">
        <ele>1011</ele>
        <time>2009-07-06T12:35:53Z</time>
      </trkpt>
      <trkpt lat="44.07765" lon="6.30892">
        <ele>1011</ele>
        <time>2009-07-06T12:35:54Z</time>
      </trkpt>
      <trkpt lat="44.07782" lon="6.30862">
        <ele>1011</ele>
        <time>2009-07-06T12:36:10Z</time>
      </trkpt>
      <trkpt lat="44.07803" lon="6.30828">
        <ele>1012</ele>
        <time>2009-07-06T12:36:23Z</time>
      </trkpt>
      <trkpt lat="44.07827" lon="6.30775">
        <ele>1012</ele>
        <time>2009-07-06T12:36:38Z</time>
      </trkpt>
      <trkpt lat="44.0784" lon="6.30752">
        <ele>1011</ele>
        <time>2009-07-06T12:36:43Z</time>
      </trkpt>
      <trkpt lat="44.07847" lon="6.30732">
        <ele>1011</ele>
        <time>2009-07-06T12:36:47Z</time>
      </trkpt>
      <trkpt lat="44.07842" lon="6.30688">
        <ele>1008</ele>
        <time>2009-07-06T12:36:55Z</time>
      </trkpt>
      <trkpt lat="44.07867" lon="6.30678">
        <ele>1005</ele>
        <time>2009-07-06T12:37:00Z</time>
      </trkpt>
      <trkpt lat="44.07905" lon="6.307">
        <ele>1003</ele>
        <time>2009-07-06T12:37:06Z</time>
      </trkpt>
      <trkpt lat="44.07927" lon="6.30685">
        <ele>1000</ele>
        <time>2009-07-06T12:37:13Z</time>
      </trkpt>
      <trkpt lat="44.07938" lon="6.30638">
        <ele>997</ele>
        <time>2009-07-06T12:37:19Z</time>
      </trkpt>
      <trkpt lat="44.07963" lon="6.30647">
        <ele>993</ele>
        <time>2009-07-06T12:37:23Z</time>
      </trkpt>
      <trkpt lat="44.07967" lon="6.30657">
        <ele>992</ele>
        <time>2009-07-06T12:37:24Z</time>
      </trkpt>
      <trkpt lat="44.07978" lon="6.30688">
        <ele>988</ele>
        <time>2009-07-06T12:37:27Z</time>
      </trkpt>
      <trkpt lat="44.0798" lon="6.30738">
        <ele>982</ele>
        <time>2009-07-06T12:37:31Z</time>
      </trkpt>
      <trkpt lat="44.0798" lon="6.30752">
        <ele>981</ele>
        <time>2009-07-06T12:37:32Z</time>
      </trkpt>
      <trkpt lat="44.07983" lon="6.30795">
        <ele>978</ele>
        <time>2009-07-06T12:37:35Z</time>
      </trkpt>
      <trkpt lat="44.07992" lon="6.30845">
        <ele>978</ele>
        <time>2009-07-06T12:37:39Z</time>
      </trkpt>
      <trkpt lat="44.07993" lon="6.30888">
        <ele>976</ele>
        <time>2009-07-06T12:37:43Z</time>
      </trkpt>
      <trkpt lat="44.08002" lon="6.30917">
        <ele>977</ele>
        <time>2009-07-06T12:37:46Z</time>
      </trkpt>
      <trkpt lat="44.08012" lon="6.30948">
        <ele>977</ele>
        <time>2009-07-06T12:37:50Z</time>
      </trkpt>
      <trkpt lat="44.08018" lon="6.30972">
        <ele>978</ele>
        <time>2009-07-06T12:37:54Z</time>
      </trkpt>
      <trkpt lat="44.08037" lon="6.30997">
        <ele>976</ele>
        <time>2009-07-06T12:37:59Z</time>
      </trkpt>
      <trkpt lat="44.08055" lon="6.30973">
        <ele>975</ele>
        <time>2009-07-06T12:38:04Z</time>
      </trkpt>
      <trkpt lat="44.08092" lon="6.30948">
        <ele>973</ele>
        <time>2009-07-06T12:38:11Z</time>
      </trkpt>
      <trkpt lat="44.08103" lon="6.30935">
        <ele>972</ele>
        <time>2009-07-06T12:38:13Z</time>
      </trkpt>
      <trkpt lat="44.08115" lon="6.30922">
        <ele>972</ele>
        <time>2009-07-06T12:38:15Z</time>
      </trkpt>
      <trkpt lat="44.08138" lon="6.30902">
        <ele>970</ele>
        <time>2009-07-06T12:38:19Z</time>
      </trkpt>
      <trkpt lat="44.08142" lon="6.30893">
        <ele>969</ele>
        <time>2009-07-06T12:38:20Z</time>
      </trkpt>
      <trkpt lat="44.08187" lon="6.30867">
        <ele>969</ele>
        <time>2009-07-06T12:38:28Z</time>
      </trkpt>
      <trkpt lat="44.082" lon="6.30858">
        <ele>967</ele>
        <time>2009-07-06T12:38:31Z</time>
      </trkpt>
      <trkpt lat="44.08222" lon="6.30853">
        <ele>963</ele>
        <time>2009-07-06T12:38:34Z</time>
      </trkpt>
      <trkpt lat="44.08235" lon="6.3085">
        <ele>962</ele>
        <time>2009-07-06T12:38:36Z</time>
      </trkpt>
      <trkpt lat="44.08262" lon="6.3082">
        <ele>958</ele>
        <time>2009-07-06T12:38:41Z</time>
      </trkpt>
      <trkpt lat="44.0827" lon="6.30813">
        <ele>957</ele>
        <time>2009-07-06T12:38:43Z</time>
      </trkpt>
      <trkpt lat="44.08282" lon="6.30812">
        <ele>957</ele>
        <time>2009-07-06T12:38:45Z</time>
      </trkpt>
      <trkpt lat="44.08317" lon="6.3082">
        <ele>956</ele>
        <time>2009-07-06T12:38:53Z</time>
      </trkpt>
      <trkpt lat="44.0832" lon="6.30822">
        <ele>957</ele>
        <time>2009-07-06T12:39:08Z</time>
      </trkpt>
      <trkpt lat="44.08325" lon="6.30827">
        <ele>957</ele>
        <time>2009-07-06T12:39:51Z</time>
      </trkpt>
      <trkpt lat="44.08332" lon="6.30832">
        <ele>958</ele>
        <time>2009-07-06T12:39:55Z</time>
      </trkpt>
      <trkpt lat="44.0835" lon="6.30843">
        <ele>960</ele>
        <time>2009-07-06T12:40:09Z</time>
      </trkpt>
      <trkpt lat="44.08375" lon="6.30867">
        <ele>960</ele>
        <time>2009-07-06T12:40:21Z</time>
      </trkpt>
      <trkpt lat="44.08393" lon="6.30898">
        <ele>961</ele>
        <time>2009-07-06T12:40:33Z</time>
      </trkpt>
      <trkpt lat="44.08422" lon="6.3093">
        <ele>961</ele>
        <time>2009-07-06T12:40:47Z</time>
      </trkpt>
      <trkpt lat="44.08453" lon="6.30962">
        <ele>962</ele>
        <time>2009-07-06T12:40:58Z</time>
      </trkpt>
      <trkpt lat="44.08497" lon="6.31">
        <ele>961</ele>
        <time>2009-07-06T12:41:11Z</time>
      </trkpt>
      <trkpt lat="44.08502" lon="6.31033">
        <ele>963</ele>
        <time>2009-07-06T12:41:21Z</time>
      </trkpt>
      <trkpt lat="44.08503" lon="6.31053">
        <ele>965</ele>
        <time>2009-07-06T12:41:32Z</time>
      </trkpt>
      <trkpt lat="44.08503" lon="6.31052">
        <ele>1008</ele>
        <time>2009-07-06T12:42:34Z</time>
      </trkpt>
      <trkpt lat="44.08503" lon="6.31052">
        <ele>974</ele>
        <time>2009-07-06T12:42:35Z</time>
      </trkpt>
      <trkpt lat="44.08503" lon="6.3105">
        <ele>973</ele>
        <time>2009-07-06T12:42:39Z</time>
      </trkpt>
      <trkpt lat="44.085" lon="6.31053">
        <ele>973</ele>
        <time>2009-07-06T12:42:49Z</time>
      </trkpt>
      <trkpt lat="44.0851" lon="6.31077">
        <ele>973</ele>
        <time>2009-07-06T12:42:55Z</time>
      </trkpt>
      <trkpt lat="44.0852" lon="6.31095">
        <ele>973</ele>
        <time>2009-07-06T12:42:58Z</time>
      </trkpt>
      <trkpt lat="44.08538" lon="6.31115">
        <ele>973</ele>
        <time>2009-07-06T12:43:02Z</time>
      </trkpt>
      <trkpt lat="44.0855" lon="6.31125">
        <ele>975</ele>
        <time>2009-07-06T12:43:05Z</time>
      </trkpt>
      <trkpt lat="44.08558" lon="6.31132">
        <ele>975</ele>
        <time>2009-07-06T12:43:07Z</time>
      </trkpt>
      <trkpt lat="44.08577" lon="6.31133">
        <ele>975</ele>
        <time>2009-07-06T12:43:11Z</time>
      </trkpt>
      <trkpt lat="44.08625" lon="6.31115">
        <ele>974</ele>
        <time>2009-07-06T12:43:20Z</time>
      </trkpt>
      <trkpt lat="44.08648" lon="6.3112">
        <ele>976</ele>
        <time>2009-07-06T12:43:25Z</time>
      </trkpt>
      <trkpt lat="44.08687" lon="6.31175">
        <ele>979</ele>
        <time>2009-07-06T12:43:37Z</time>
      </trkpt>
      <trkpt lat="44.08717" lon="6.31182">
        <ele>980</ele>
        <time>2009-07-06T12:43:46Z</time>
      </trkpt>
      <trkpt lat="44.08723" lon="6.31178">
        <ele>981</ele>
        <time>2009-07-06T12:43:49Z</time>
      </trkpt>
      <trkpt lat="44.08738" lon="6.31177">
        <ele>981</ele>
        <time>2009-07-06T12:44:05Z</time>
      </trkpt>
      <trkpt lat="44.08723" lon="6.31187">
        <ele>982</ele>
        <time>2009-07-06T12:44:11Z</time>
      </trkpt>
      <trkpt lat="44.0872" lon="6.31202">
        <ele>983</ele>
        <time>2009-07-06T12:44:24Z</time>
      </trkpt>
      <trkpt lat="44.08715" lon="6.31208">
        <ele>983</ele>
        <time>2009-07-06T12:44:41Z</time>
      </trkpt>
      <trkpt lat="44.0872" lon="6.312">
        <ele>982</ele>
        <time>2009-07-06T12:45:47Z</time>
      </trkpt>
      <trkpt lat="44.08718" lon="6.31208">
        <ele>983</ele>
        <time>2009-07-06T12:46:22Z</time>
      </trkpt>
      <trkpt lat="44.08717" lon="6.3121">
        <ele>980</ele>
        <time>2009-07-06T13:19:56Z</time>
      </trkpt>
      <trkpt lat="44.08717" lon="6.31207">
        <ele>980</ele>
        <time>2009-07-06T13:35:58Z</time>
      </trkpt>
      <trkpt lat="44.08717" lon="6.31207">
        <ele>980</ele>
        <time>2009-07-06T13:38:01Z</time>
      </trkpt>
      <trkpt lat="44.08717" lon="6.31207">
        <ele>979</ele>
        <time>2009-07-06T13:38:02Z</time>
      </trkpt>
      <trkpt lat="44.08687" lon="6.31232">
        <ele>979</ele>
        <time>2009-07-06T13:38:07Z</time>
      </trkpt>
      <trkpt lat="44.08715" lon="6.31207">
        <ele>980</ele>
        <time>2009-07-06T13:38:27Z</time>
      </trkpt>
      <trkpt lat="44.08713" lon="6.31203">
        <ele>979</ele>
        <time>2009-07-06T13:38:53Z</time>
      </trkpt>
      <trkpt lat="44.08713" lon="6.31202">
        <ele>979</ele>
        <time>2009-07-06T13:38:54Z</time>
      </trkpt>
      <trkpt lat="44.0871" lon="6.31198">
        <ele>979</ele>
        <time>2009-07-06T13:38:57Z</time>
      </trkpt>
      <trkpt lat="44.08705" lon="6.31198">
        <ele>978</ele>
        <time>2009-07-06T13:39:02Z</time>
      </trkpt>
      <trkpt lat="44.08703" lon="6.31212">
        <ele>980</ele>
        <time>2009-07-06T13:39:07Z</time>
      </trkpt>
      <trkpt lat="44.08717" lon="6.31213">
        <ele>981</ele>
        <time>2009-07-06T13:39:13Z</time>
      </trkpt>
      <trkpt lat="44.08747" lon="6.31195">
        <ele>983</ele>
        <time>2009-07-06T13:39:27Z</time>
      </trkpt>
      <trkpt lat="44.08772" lon="6.31177">
        <ele>985</ele>
        <time>2009-07-06T13:39:40Z</time>
      </trkpt>
      <trkpt lat="44.08797" lon="6.31162">
        <ele>988</ele>
        <time>2009-07-06T13:39:53Z</time>
      </trkpt>
      <trkpt lat="44.08827" lon="6.31173">
        <ele>989</ele>
        <time>2009-07-06T13:40:08Z</time>
      </trkpt>
      <trkpt lat="44.08832" lon="6.31177">
        <ele>989</ele>
        <time>2009-07-06T13:40:11Z</time>
      </trkpt>
      <trkpt lat="44.08842" lon="6.31187">
        <ele>990</ele>
        <time>2009-07-06T13:40:18Z</time>
      </trkpt>
      <trkpt lat="44.08865" lon="6.31202">
        <ele>992</ele>
        <time>2009-07-06T13:40:31Z</time>
      </trkpt>
      <trkpt lat="44.08885" lon="6.31208">
        <ele>994</ele>
        <time>2009-07-06T13:40:41Z</time>
      </trkpt>
      <trkpt lat="44.0891" lon="6.31215">
        <ele>996</ele>
        <time>2009-07-06T13:40:54Z</time>
      </trkpt>
      <trkpt lat="44.08932" lon="6.31235">
        <ele>997</ele>
        <time>2009-07-06T13:41:07Z</time>
      </trkpt>
      <trkpt lat="44.08942" lon="6.31267">
        <ele>998</ele>
        <time>2009-07-06T13:41:22Z</time>
      </trkpt>
      <trkpt lat="44.08947" lon="6.31285">
        <ele>1000</ele>
        <time>2009-07-06T13:41:30Z</time>
      </trkpt>
      <trkpt lat="44.08932" lon="6.31322">
        <ele>1002</ele>
        <time>2009-07-06T13:41:46Z</time>
      </trkpt>
      <trkpt lat="44.08913" lon="6.31342">
        <ele>1004</ele>
        <time>2009-07-06T13:41:59Z</time>
      </trkpt>
      <trkpt lat="44.08893" lon="6.31345">
        <ele>1006</ele>
        <time>2009-07-06T13:42:09Z</time>
      </trkpt>
      <trkpt lat="44.08867" lon="6.31335">
        <ele>1007</ele>
        <time>2009-07-06T13:42:23Z</time>
      </trkpt>
      <trkpt lat="44.08852" lon="6.31337">
        <ele>1008</ele>
        <time>2009-07-06T13:42:31Z</time>
      </trkpt>
      <trkpt lat="44.0885" lon="6.3135">
        <ele>1009</ele>
        <time>2009-07-06T13:42:36Z</time>
      </trkpt>
      <trkpt lat="44.08865" lon="6.31372">
        <ele>1011</ele>
        <time>2009-07-06T13:42:47Z</time>
      </trkpt>
      <trkpt lat="44.0889" lon="6.31395">
        <ele>1013</ele>
        <time>2009-07-06T13:43:02Z</time>
      </trkpt>
      <trkpt lat="44.08895" lon="6.31402">
        <ele>1013</ele>
        <time>2009-07-06T13:43:06Z</time>
      </trkpt>
      <trkpt lat="44.089" lon="6.31408">
        <ele>1014</ele>
        <time>2009-07-06T13:43:10Z</time>
      </trkpt>
      <trkpt lat="44.08925" lon="6.31427">
        <ele>1015</ele>
        <time>2009-07-06T13:43:25Z</time>
      </trkpt>
      <trkpt lat="44.08957" lon="6.31428">
        <ele>1017</ele>
        <time>2009-07-06T13:43:40Z</time>
      </trkpt>
      <trkpt lat="44.0898" lon="6.31423">
        <ele>1018</ele>
        <time>2009-07-06T13:43:53Z</time>
      </trkpt>
      <trkpt lat="44.09015" lon="6.31435">
        <ele>1019</ele>
        <time>2009-07-06T13:44:09Z</time>
      </trkpt>
      <trkpt lat="44.0905" lon="6.31433">
        <ele>1020</ele>
        <time>2009-07-06T13:44:24Z</time>
      </trkpt>
      <trkpt lat="44.09075" lon="6.31417">
        <ele>1021</ele>
        <time>2009-07-06T13:44:37Z</time>
      </trkpt>
      <trkpt lat="44.09097" lon="6.314">
        <ele>1023</ele>
        <time>2009-07-06T13:44:50Z</time>
      </trkpt>
      <trkpt lat="44.09122" lon="6.314">
        <ele>1023</ele>
        <time>2009-07-06T13:45:03Z</time>
      </trkpt>
      <trkpt lat="44.09135" lon="6.3143">
        <ele>1024</ele>
        <time>2009-07-06T13:45:16Z</time>
      </trkpt>
      <trkpt lat="44.09152" lon="6.3146">
        <ele>1025</ele>
        <time>2009-07-06T13:45:29Z</time>
      </trkpt>
      <trkpt lat="44.09177" lon="6.31478">
        <ele>1025</ele>
        <time>2009-07-06T13:45:42Z</time>
      </trkpt>
      <trkpt lat="44.09203" lon="6.31488">
        <ele>1027</ele>
        <time>2009-07-06T13:45:55Z</time>
      </trkpt>
      <trkpt lat="44.09227" lon="6.31495">
        <ele>1028</ele>
        <time>2009-07-06T13:46:07Z</time>
      </trkpt>
      <trkpt lat="44.09253" lon="6.31525">
        <ele>1028</ele>
        <time>2009-07-06T13:46:20Z</time>
      </trkpt>
      <trkpt lat="44.09267" lon="6.31553">
        <ele>1028</ele>
        <time>2009-07-06T13:46:32Z</time>
      </trkpt>
      <trkpt lat="44.09285" lon="6.31583">
        <ele>1028</ele>
        <time>2009-07-06T13:46:45Z</time>
      </trkpt>
      <trkpt lat="44.0932" lon="6.31607">
        <ele>1026</ele>
        <time>2009-07-06T13:46:59Z</time>
      </trkpt>
      <trkpt lat="44.09335" lon="6.31593">
        <ele>1025</ele>
        <time>2009-07-06T13:47:03Z</time>
      </trkpt>
      <trkpt lat="44.0935" lon="6.31577">
        <ele>1023</ele>
        <time>2009-07-06T13:47:07Z</time>
      </trkpt>
      <trkpt lat="44.0937" lon="6.31612">
        <ele>1021</ele>
        <time>2009-07-06T13:47:17Z</time>
      </trkpt>
      <trkpt lat="44.09362" lon="6.31642">
        <ele>1019</ele>
        <time>2009-07-06T13:47:22Z</time>
      </trkpt>
      <trkpt lat="44.09367" lon="6.31678">
        <ele>1017</ele>
        <time>2009-07-06T13:47:27Z</time>
      </trkpt>
      <trkpt lat="44.0937" lon="6.31693">
        <ele>1016</ele>
        <time>2009-07-06T13:47:29Z</time>
      </trkpt>
      <trkpt lat="44.09373" lon="6.31707">
        <ele>1015</ele>
        <time>2009-07-06T13:47:31Z</time>
      </trkpt>
      <trkpt lat="44.09403" lon="6.31722">
        <ele>1014</ele>
        <time>2009-07-06T13:47:37Z</time>
      </trkpt>
      <trkpt lat="44.09418" lon="6.3173">
        <ele>1013</ele>
        <time>2009-07-06T13:47:40Z</time>
      </trkpt>
      <trkpt lat="44.09437" lon="6.31748">
        <ele>1013</ele>
        <time>2009-07-06T13:47:44Z</time>
      </trkpt>
      <trkpt lat="44.09437" lon="6.31773">
        <ele>1012</ele>
        <time>2009-07-06T13:47:49Z</time>
      </trkpt>
      <trkpt lat="44.09427" lon="6.31807">
        <ele>1010</ele>
        <time>2009-07-06T13:47:55Z</time>
      </trkpt>
      <trkpt lat="44.0943" lon="6.31838">
        <ele>1009</ele>
        <time>2009-07-06T13:48:00Z</time>
      </trkpt>
      <trkpt lat="44.0942" lon="6.31863">
        <ele>1007</ele>
        <time>2009-07-06T13:48:04Z</time>
      </trkpt>
      <trkpt lat="44.0942" lon="6.31885">
        <ele>1006</ele>
        <time>2009-07-06T13:48:08Z</time>
      </trkpt>
      <trkpt lat="44.09425" lon="6.31905">
        <ele>1004</ele>
        <time>2009-07-06T13:48:11Z</time>
      </trkpt>
      <trkpt lat="44.09407" lon="6.31948">
        <ele>1001</ele>
        <time>2009-07-06T13:48:19Z</time>
      </trkpt>
      <trkpt lat="44.09418" lon="6.31967">
        <ele>1000</ele>
        <time>2009-07-06T13:48:23Z</time>
      </trkpt>
      <trkpt lat="44.09425" lon="6.31968">
        <ele>1000</ele>
        <time>2009-07-06T13:48:24Z</time>
      </trkpt>
      <trkpt lat="44.0944" lon="6.31972">
        <ele>999</ele>
        <time>2009-07-06T13:48:26Z</time>
      </trkpt>
      <trkpt lat="44.09463" lon="6.31995">
        <ele>997</ele>
        <time>2009-07-06T13:48:32Z</time>
      </trkpt>
      <trkpt lat="44.09472" lon="6.32022">
        <ele>995</ele>
        <time>2009-07-06T13:48:37Z</time>
      </trkpt>
      <trkpt lat="44.09508" lon="6.32045">
        <ele>994</ele>
        <time>2009-07-06T13:48:46Z</time>
      </trkpt>
      <trkpt lat="44.09545" lon="6.32048">
        <ele>992</ele>
        <time>2009-07-06T13:48:57Z</time>
      </trkpt>
      <trkpt lat="44.0957" lon="6.32052">
        <ele>993</ele>
        <time>2009-07-06T13:49:06Z</time>
      </trkpt>
      <trkpt lat="44.09603" lon="6.32062">
        <ele>994</ele>
        <time>2009-07-06T13:49:17Z</time>
      </trkpt>
      <trkpt lat="44.09637" lon="6.32045">
        <ele>995</ele>
        <time>2009-07-06T13:49:26Z</time>
      </trkpt>
      <trkpt lat="44.09643" lon="6.3199">
        <ele>997</ele>
        <time>2009-07-06T13:49:39Z</time>
      </trkpt>
      <trkpt lat="44.09637" lon="6.31962">
        <ele>998</ele>
        <time>2009-07-06T13:49:48Z</time>
      </trkpt>
      <trkpt lat="44.0965" lon="6.31967">
        <ele>999</ele>
        <time>2009-07-06T13:49:59Z</time>
      </trkpt>
      <trkpt lat="44.09652" lon="6.31968">
        <ele>999</ele>
        <time>2009-07-06T13:50:00Z</time>
      </trkpt>
      <trkpt lat="44.09663" lon="6.31978">
        <ele>1000</ele>
        <time>2009-07-06T13:50:07Z</time>
      </trkpt>
      <trkpt lat="44.09673" lon="6.31987">
        <ele>1001</ele>
        <time>2009-07-06T13:50:12Z</time>
      </trkpt>
      <trkpt lat="44.09683" lon="6.32002">
        <ele>1001</ele>
        <time>2009-07-06T13:50:18Z</time>
      </trkpt>
      <trkpt lat="44.09717" lon="6.32017">
        <ele>1002</ele>
        <time>2009-07-06T13:50:33Z</time>
      </trkpt>
      <trkpt lat="44.09745" lon="6.32015">
        <ele>1004</ele>
        <time>2009-07-06T13:50:54Z</time>
      </trkpt>
      <trkpt lat="44.09763" lon="6.32017">
        <ele>1005</ele>
        <time>2009-07-06T13:51:03Z</time>
      </trkpt>
      <trkpt lat="44.09788" lon="6.3202">
        <ele>1006</ele>
        <time>2009-07-06T13:51:12Z</time>
      </trkpt>
      <trkpt lat="44.09807" lon="6.32055">
        <ele>1007</ele>
        <time>2009-07-06T13:51:26Z</time>
      </trkpt>
      <trkpt lat="44.09807" lon="6.32077">
        <ele>1008</ele>
        <time>2009-07-06T13:51:35Z</time>
      </trkpt>
      <trkpt lat="44.09808" lon="6.32085">
        <ele>1008</ele>
        <time>2009-07-06T13:51:42Z</time>
      </trkpt>
      <trkpt lat="44.09808" lon="6.32107">
        <ele>1010</ele>
        <time>2009-07-06T13:51:53Z</time>
      </trkpt>
      <trkpt lat="44.09837" lon="6.32123">
        <ele>1011</ele>
        <time>2009-07-06T13:52:07Z</time>
      </trkpt>
      <trkpt lat="44.09847" lon="6.3213">
        <ele>1010</ele>
        <time>2009-07-06T13:52:15Z</time>
      </trkpt>
      <trkpt lat="44.09875" lon="6.32117">
        <ele>1010</ele>
        <time>2009-07-06T13:52:24Z</time>
      </trkpt>
      <trkpt lat="44.09875" lon="6.32115">
        <ele>1010</ele>
        <time>2009-07-06T13:52:25Z</time>
      </trkpt>
      <trkpt lat="44.09885" lon="6.32092">
        <ele>1011</ele>
        <time>2009-07-06T13:52:37Z</time>
      </trkpt>
      <trkpt lat="44.09898" lon="6.32062">
        <ele>1014</ele>
        <time>2009-07-06T13:52:51Z</time>
      </trkpt>
      <trkpt lat="44.09902" lon="6.32055">
        <ele>1014</ele>
        <time>2009-07-06T13:52:56Z</time>
      </trkpt>
      <trkpt lat="44.09908" lon="6.32045">
        <ele>1015</ele>
        <time>2009-07-06T13:53:02Z</time>
      </trkpt>
      <trkpt lat="44.09902" lon="6.32013">
        <ele>1016</ele>
        <time>2009-07-06T13:53:15Z</time>
      </trkpt>
      <trkpt lat="44.0991" lon="6.31985">
        <ele>1017</ele>
        <time>2009-07-06T13:53:29Z</time>
      </trkpt>
      <trkpt lat="44.09932" lon="6.31967">
        <ele>1018</ele>
        <time>2009-07-06T13:53:43Z</time>
      </trkpt>
      <trkpt lat="44.09937" lon="6.31942">
        <ele>1020</ele>
        <time>2009-07-06T13:53:55Z</time>
      </trkpt>
      <trkpt lat="44.09943" lon="6.31917">
        <ele>1023</ele>
        <time>2009-07-06T13:54:04Z</time>
      </trkpt>
      <trkpt lat="44.09943" lon="6.31917">
        <ele>1024</ele>
        <time>2009-07-06T13:54:17Z</time>
      </trkpt>
      <trkpt lat="44.09943" lon="6.31917">
        <ele>1023</ele>
        <time>2009-07-06T13:54:54Z</time>
      </trkpt>
      <trkpt lat="44.09978" lon="6.31892">
        <ele>1023</ele>
        <time>2009-07-06T13:55:06Z</time>
      </trkpt>
      <trkpt lat="44.10005" lon="6.31867">
        <ele>1024</ele>
        <time>2009-07-06T13:55:19Z</time>
      </trkpt>
      <trkpt lat="44.10023" lon="6.31813">
        <ele>1024</ele>
        <time>2009-07-06T13:55:30Z</time>
      </trkpt>
      <trkpt lat="44.10025" lon="6.31802">
        <ele>1024</ele>
        <time>2009-07-06T13:55:32Z</time>
      </trkpt>
      <trkpt lat="44.1003" lon="6.31758">
        <ele>1023</ele>
        <time>2009-07-06T13:55:39Z</time>
      </trkpt>
      <trkpt lat="44.10043" lon="6.31722">
        <ele>1023</ele>
        <time>2009-07-06T13:55:45Z</time>
      </trkpt>
      <trkpt lat="44.10077" lon="6.31703">
        <ele>1023</ele>
        <time>2009-07-06T13:55:55Z</time>
      </trkpt>
      <trkpt lat="44.10082" lon="6.31712">
        <ele>1024</ele>
        <time>2009-07-06T13:55:58Z</time>
      </trkpt>
      <trkpt lat="44.10093" lon="6.31745">
        <ele>1026</ele>
        <time>2009-07-06T13:56:09Z</time>
      </trkpt>
      <trkpt lat="44.10097" lon="6.31752">
        <ele>1026</ele>
        <time>2009-07-06T13:56:11Z</time>
      </trkpt>
      <trkpt lat="44.10102" lon="6.31765">
        <ele>1027</ele>
        <time>2009-07-06T13:56:16Z</time>
      </trkpt>
      <trkpt lat="44.10128" lon="6.31805">
        <ele>1027</ele>
        <time>2009-07-06T13:56:27Z</time>
      </trkpt>
      <trkpt lat="44.10153" lon="6.31827">
        <ele>1025</ele>
        <time>2009-07-06T13:56:32Z</time>
      </trkpt>
      <trkpt lat="44.10205" lon="6.31842">
        <ele>1021</ele>
        <time>2009-07-06T13:56:40Z</time>
      </trkpt>
      <trkpt lat="44.1022" lon="6.31843">
        <ele>1021</ele>
        <time>2009-07-06T13:56:47Z</time>
      </trkpt>
      <trkpt lat="44.10222" lon="6.3184">
        <ele>1021</ele>
        <time>2009-07-06T13:56:48Z</time>
      </trkpt>
      <trkpt lat="44.10222" lon="6.31817">
        <ele>1023</ele>
        <time>2009-07-06T13:56:54Z</time>
      </trkpt>
      <trkpt lat="44.10222" lon="6.31787">
        <ele>1024</ele>
        <time>2009-07-06T13:57:07Z</time>
      </trkpt>
      <trkpt lat="44.1022" lon="6.31763">
        <ele>1026</ele>
        <time>2009-07-06T13:57:18Z</time>
      </trkpt>
      <trkpt lat="44.10217" lon="6.31755">
        <ele>1027</ele>
        <time>2009-07-06T13:57:23Z</time>
      </trkpt>
      <trkpt lat="44.10228" lon="6.3174">
        <ele>1029</ele>
        <time>2009-07-06T13:57:39Z</time>
      </trkpt>
      <trkpt lat="44.10255" lon="6.31718">
        <ele>1032</ele>
        <time>2009-07-06T13:58:03Z</time>
      </trkpt>
      <trkpt lat="44.10275" lon="6.31713">
        <ele>1035</ele>
        <time>2009-07-06T13:58:17Z</time>
      </trkpt>
      <trkpt lat="44.10297" lon="6.31722">
        <ele>1035</ele>
        <time>2009-07-06T13:58:30Z</time>
      </trkpt>
      <trkpt lat="44.10315" lon="6.3176">
        <ele>1035</ele>
        <time>2009-07-06T13:58:44Z</time>
      </trkpt>
      <trkpt lat="44.1033" lon="6.31792">
        <ele>1037</ele>
        <time>2009-07-06T13:58:59Z</time>
      </trkpt>
      <trkpt lat="44.1034" lon="6.31815">
        <ele>1039</ele>
        <time>2009-07-06T13:59:14Z</time>
      </trkpt>
      <trkpt lat="44.10355" lon="6.31828">
        <ele>1041</ele>
        <time>2009-07-06T13:59:28Z</time>
      </trkpt>
      <trkpt lat="44.10368" lon="6.31827">
        <ele>1042</ele>
        <time>2009-07-06T13:59:35Z</time>
      </trkpt>
      <trkpt lat="44.10375" lon="6.31813">
        <ele>1044</ele>
        <time>2009-07-06T13:59:46Z</time>
      </trkpt>
      <trkpt lat="44.10392" lon="6.31797">
        <ele>1047</ele>
        <time>2009-07-06T14:00:02Z</time>
      </trkpt>
      <trkpt lat="44.10408" lon="6.31793">
        <ele>1048</ele>
        <time>2009-07-06T14:00:16Z</time>
      </trkpt>
      <trkpt lat="44.10427" lon="6.31788">
        <ele>1049</ele>
        <time>2009-07-06T14:00:30Z</time>
      </trkpt>
      <trkpt lat="44.10445" lon="6.31782">
        <ele>1051</ele>
        <time>2009-07-06T14:00:46Z</time>
      </trkpt>
      <trkpt lat="44.10462" lon="6.31788">
        <ele>1053</ele>
        <time>2009-07-06T14:01:01Z</time>
      </trkpt>
      <trkpt lat="44.10473" lon="6.31798">
        <ele>1055</ele>
        <time>2009-07-06T14:01:11Z</time>
      </trkpt>
      <trkpt lat="44.1049" lon="6.31818">
        <ele>1056</ele>
        <time>2009-07-06T14:01:26Z</time>
      </trkpt>
      <trkpt lat="44.10502" lon="6.31827">
        <ele>1058</ele>
        <time>2009-07-06T14:01:35Z</time>
      </trkpt>
      <trkpt lat="44.10513" lon="6.31827">
        <ele>1058</ele>
        <time>2009-07-06T14:01:42Z</time>
      </trkpt>
      <trkpt lat="44.10535" lon="6.31827">
        <ele>1060</ele>
        <time>2009-07-06T14:01:56Z</time>
      </trkpt>
      <trkpt lat="44.10553" lon="6.31833">
        <ele>1061</ele>
        <time>2009-07-06T14:02:07Z</time>
      </trkpt>
      <trkpt lat="44.10572" lon="6.31835">
        <ele>1062</ele>
        <time>2009-07-06T14:02:21Z</time>
      </trkpt>
      <trkpt lat="44.10592" lon="6.3183">
        <ele>1064</ele>
        <time>2009-07-06T14:02:34Z</time>
      </trkpt>
      <trkpt lat="44.10618" lon="6.31815">
        <ele>1065</ele>
        <time>2009-07-06T14:02:49Z</time>
      </trkpt>
      <trkpt lat="44.10642" lon="6.31793">
        <ele>1066</ele>
        <time>2009-07-06T14:03:04Z</time>
      </trkpt>
      <trkpt lat="44.10668" lon="6.31762">
        <ele>1067</ele>
        <time>2009-07-06T14:03:20Z</time>
      </trkpt>
      <trkpt lat="44.10688" lon="6.3173">
        <ele>1070</ele>
        <time>2009-07-06T14:03:36Z</time>
      </trkpt>
      <trkpt lat="44.10707" lon="6.31702">
        <ele>1072</ele>
        <time>2009-07-06T14:03:52Z</time>
      </trkpt>
      <trkpt lat="44.10732" lon="6.31657">
        <ele>1069</ele>
        <time>2009-07-06T14:04:04Z</time>
      </trkpt>
      <trkpt lat="44.1074" lon="6.31642">
        <ele>1067</ele>
        <time>2009-07-06T14:04:14Z</time>
      </trkpt>
      <trkpt lat="44.10755" lon="6.31617">
        <ele>1065</ele>
        <time>2009-07-06T14:06:39Z</time>
      </trkpt>
      <trkpt lat="44.10763" lon="6.31602">
        <ele>1064</ele>
        <time>2009-07-06T14:06:43Z</time>
      </trkpt>
      <trkpt lat="44.10785" lon="6.31563">
        <ele>1061</ele>
        <time>2009-07-06T14:06:49Z</time>
      </trkpt>
      <trkpt lat="44.10808" lon="6.31497">
        <ele>1059</ele>
        <time>2009-07-06T14:06:57Z</time>
      </trkpt>
      <trkpt lat="44.10845" lon="6.31473">
        <ele>1056</ele>
        <time>2009-07-06T14:07:04Z</time>
      </trkpt>
      <trkpt lat="44.10858" lon="6.31493">
        <ele>1054</ele>
        <time>2009-07-06T14:07:07Z</time>
      </trkpt>
      <trkpt lat="44.1087" lon="6.31517">
        <ele>1055</ele>
        <time>2009-07-06T14:07:11Z</time>
      </trkpt>
      <trkpt lat="44.10867" lon="6.31522">
        <ele>1055</ele>
        <time>2009-07-06T14:07:28Z</time>
      </trkpt>
      <trkpt lat="44.10867" lon="6.31525">
        <ele>1056</ele>
        <time>2009-07-06T14:07:34Z</time>
      </trkpt>
      <trkpt lat="44.10868" lon="6.31557">
        <ele>1057</ele>
        <time>2009-07-06T14:07:48Z</time>
      </trkpt>
      <trkpt lat="44.10877" lon="6.31588">
        <ele>1060</ele>
        <time>2009-07-06T14:08:03Z</time>
      </trkpt>
      <trkpt lat="44.10883" lon="6.31623">
        <ele>1062</ele>
        <time>2009-07-06T14:08:20Z</time>
      </trkpt>
      <trkpt lat="44.10883" lon="6.31632">
        <ele>1063</ele>
        <time>2009-07-06T14:08:25Z</time>
      </trkpt>
      <trkpt lat="44.10888" lon="6.31647">
        <ele>1064</ele>
        <time>2009-07-06T14:08:40Z</time>
      </trkpt>
      <trkpt lat="44.10895" lon="6.3167">
        <ele>1067</ele>
        <time>2009-07-06T14:09:02Z</time>
      </trkpt>
      <trkpt lat="44.10907" lon="6.31703">
        <ele>1069</ele>
        <time>2009-07-06T14:09:18Z</time>
      </trkpt>
      <trkpt lat="44.10912" lon="6.31733">
        <ele>1072</ele>
        <time>2009-07-06T14:09:34Z</time>
      </trkpt>
      <trkpt lat="44.10913" lon="6.31762">
        <ele>1074</ele>
        <time>2009-07-06T14:09:49Z</time>
      </trkpt>
      <trkpt lat="44.1091" lon="6.31788">
        <ele>1076</ele>
        <time>2009-07-06T14:10:04Z</time>
      </trkpt>
      <trkpt lat="44.10902" lon="6.3181">
        <ele>1079</ele>
        <time>2009-07-06T14:10:19Z</time>
      </trkpt>
      <trkpt lat="44.10902" lon="6.31813">
        <ele>1079</ele>
        <time>2009-07-06T14:10:20Z</time>
      </trkpt>
      <trkpt lat="44.109" lon="6.31837">
        <ele>1082</ele>
        <time>2009-07-06T14:10:33Z</time>
      </trkpt>
      <trkpt lat="44.109" lon="6.31838">
        <ele>1082</ele>
        <time>2009-07-06T14:10:34Z</time>
      </trkpt>
      <trkpt lat="44.10892" lon="6.3187">
        <ele>1085</ele>
        <time>2009-07-06T14:10:51Z</time>
      </trkpt>
      <trkpt lat="44.10885" lon="6.31892">
        <ele>1086</ele>
        <time>2009-07-06T14:11:04Z</time>
      </trkpt>
      <trkpt lat="44.10878" lon="6.31915">
        <ele>1089</ele>
        <time>2009-07-06T14:11:20Z</time>
      </trkpt>
      <trkpt lat="44.10877" lon="6.31925">
        <ele>1090</ele>
        <time>2009-07-06T14:11:26Z</time>
      </trkpt>
      <trkpt lat="44.10875" lon="6.31935">
        <ele>1091</ele>
        <time>2009-07-06T14:11:32Z</time>
      </trkpt>
      <trkpt lat="44.10868" lon="6.31957">
        <ele>1093</ele>
        <time>2009-07-06T14:11:46Z</time>
      </trkpt>
      <trkpt lat="44.10858" lon="6.31982">
        <ele>1095</ele>
        <time>2009-07-06T14:12:02Z</time>
      </trkpt>
      <trkpt lat="44.10853" lon="6.32003">
        <ele>1097</ele>
        <time>2009-07-06T14:12:16Z</time>
      </trkpt>
      <trkpt lat="44.10845" lon="6.3203">
        <ele>1099</ele>
        <time>2009-07-06T14:12:31Z</time>
      </trkpt>
      <trkpt lat="44.10843" lon="6.32048">
        <ele>1100</ele>
        <time>2009-07-06T14:12:43Z</time>
      </trkpt>
      <trkpt lat="44.1084" lon="6.3207">
        <ele>1102</ele>
        <time>2009-07-06T14:12:54Z</time>
      </trkpt>
      <trkpt lat="44.10842" lon="6.32078">
        <ele>1103</ele>
        <time>2009-07-06T14:13:01Z</time>
      </trkpt>
      <trkpt lat="44.10857" lon="6.32098">
        <ele>1105</ele>
        <time>2009-07-06T14:13:17Z</time>
      </trkpt>
      <trkpt lat="44.10867" lon="6.32107">
        <ele>1106</ele>
        <time>2009-07-06T14:13:26Z</time>
      </trkpt>
      <trkpt lat="44.10875" lon="6.32112">
        <ele>1107</ele>
        <time>2009-07-06T14:13:36Z</time>
      </trkpt>
      <trkpt lat="44.10878" lon="6.32107">
        <ele>1107</ele>
        <time>2009-07-06T14:13:55Z</time>
      </trkpt>
      <trkpt lat="44.10878" lon="6.32107">
        <ele>1107</ele>
        <time>2009-07-06T14:15:57Z</time>
      </trkpt>
      <trkpt lat="44.10903" lon="6.3208">
        <ele>1107</ele>
        <time>2009-07-06T14:16:10Z</time>
      </trkpt>
      <trkpt lat="44.1092" lon="6.3206">
        <ele>1106</ele>
        <time>2009-07-06T14:16:17Z</time>
      </trkpt>
      <trkpt lat="44.10933" lon="6.32063">
        <ele>1106</ele>
        <time>2009-07-06T14:16:21Z</time>
      </trkpt>
      <trkpt lat="44.10942" lon="6.32078">
        <ele>1105</ele>
        <time>2009-07-06T14:16:24Z</time>
      </trkpt>
      <trkpt lat="44.10963" lon="6.32098">
        <ele>1103</ele>
        <time>2009-07-06T14:16:29Z</time>
      </trkpt>
      <trkpt lat="44.11018" lon="6.32123">
        <ele>1102</ele>
        <time>2009-07-06T14:16:39Z</time>
      </trkpt>
      <trkpt lat="44.11043" lon="6.32117">
        <ele>1102</ele>
        <time>2009-07-06T14:16:44Z</time>
      </trkpt>
      <trkpt lat="44.1106" lon="6.32108">
        <ele>1100</ele>
        <time>2009-07-06T14:16:48Z</time>
      </trkpt>
      <trkpt lat="44.11068" lon="6.32125">
        <ele>1098</ele>
        <time>2009-07-06T14:16:53Z</time>
      </trkpt>
      <trkpt lat="44.11068" lon="6.32137">
        <ele>1097</ele>
        <time>2009-07-06T14:16:55Z</time>
      </trkpt>
      <trkpt lat="44.11063" lon="6.3216">
        <ele>1096</ele>
        <time>2009-07-06T14:16:59Z</time>
      </trkpt>
      <trkpt lat="44.11058" lon="6.32192">
        <ele>1093</ele>
        <time>2009-07-06T14:17:10Z</time>
      </trkpt>
      <trkpt lat="44.11057" lon="6.32197">
        <ele>1093</ele>
        <time>2009-07-06T14:17:34Z</time>
      </trkpt>
      <trkpt lat="44.11058" lon="6.32208">
        <ele>1094</ele>
        <time>2009-07-06T14:31:41Z</time>
      </trkpt>
      <trkpt lat="44.11053" lon="6.32247">
        <ele>1090</ele>
        <time>2009-07-06T14:31:48Z</time>
      </trkpt>
      <trkpt lat="44.1106" lon="6.32268">
        <ele>1089</ele>
        <time>2009-07-06T14:31:55Z</time>
      </trkpt>
      <trkpt lat="44.11065" lon="6.32272">
        <ele>1089</ele>
        <time>2009-07-06T14:31:56Z</time>
      </trkpt>
      <trkpt lat="44.11077" lon="6.32287">
        <ele>1087</ele>
        <time>2009-07-06T14:32:00Z</time>
      </trkpt>
      <trkpt lat="44.1109" lon="6.32293">
        <ele>1087</ele>
        <time>2009-07-06T14:32:04Z</time>
      </trkpt>
      <trkpt lat="44.11122" lon="6.32297">
        <ele>1088</ele>
        <time>2009-07-06T14:32:14Z</time>
      </trkpt>
      <trkpt lat="44.11125" lon="6.32303">
        <ele>1091</ele>
        <time>2009-07-06T14:32:25Z</time>
      </trkpt>
      <trkpt lat="44.1113" lon="6.32307">
        <ele>1089</ele>
        <time>2009-07-06T14:33:20Z</time>
      </trkpt>
      <trkpt lat="44.1113" lon="6.32307">
        <ele>1090</ele>
        <time>2009-07-06T14:34:08Z</time>
      </trkpt>
      <trkpt lat="44.1113" lon="6.32307">
        <ele>1089</ele>
        <time>2009-07-06T14:34:11Z</time>
      </trkpt>
      <trkpt lat="44.1113" lon="6.32295">
        <ele>1089</ele>
        <time>2009-07-06T14:34:16Z</time>
      </trkpt>
      <trkpt lat="44.11137" lon="6.32293">
        <ele>1087</ele>
        <time>2009-07-06T14:34:20Z</time>
      </trkpt>
      <trkpt lat="44.11142" lon="6.32297">
        <ele>1086</ele>
        <time>2009-07-06T14:34:24Z</time>
      </trkpt>
      <trkpt lat="44.11143" lon="6.32315">
        <ele>1083</ele>
        <time>2009-07-06T14:34:30Z</time>
      </trkpt>
      <trkpt lat="44.11155" lon="6.32345">
        <ele>1083</ele>
        <time>2009-07-06T14:34:41Z</time>
      </trkpt>
      <trkpt lat="44.11158" lon="6.32367">
        <ele>1081</ele>
        <time>2009-07-06T14:34:46Z</time>
      </trkpt>
      <trkpt lat="44.11173" lon="6.3237">
        <ele>1079</ele>
        <time>2009-07-06T14:34:51Z</time>
      </trkpt>
      <trkpt lat="44.11168" lon="6.32385">
        <ele>1075</ele>
        <time>2009-07-06T15:36:40Z</time>
      </trkpt>
      <trkpt lat="44.1117" lon="6.3239">
        <ele>1074</ele>
        <time>2009-07-06T15:36:43Z</time>
      </trkpt>
      <trkpt lat="44.1117" lon="6.32405">
        <ele>1074</ele>
        <time>2009-07-06T15:37:01Z</time>
      </trkpt>
      <trkpt lat="44.1117" lon="6.32407">
        <ele>1074</ele>
        <time>2009-07-06T15:37:02Z</time>
      </trkpt>
      <trkpt lat="44.11177" lon="6.32422">
        <ele>1072</ele>
        <time>2009-07-06T15:37:11Z</time>
      </trkpt>
      <trkpt lat="44.1117" lon="6.32435">
        <ele>1070</ele>
        <time>2009-07-06T15:37:25Z</time>
      </trkpt>
      <trkpt lat="44.11162" lon="6.3245">
        <ele>1066</ele>
        <time>2009-07-06T15:37:33Z</time>
      </trkpt>
      <trkpt lat="44.1116" lon="6.32452">
        <ele>1066</ele>
        <time>2009-07-06T15:37:34Z</time>
      </trkpt>
      <trkpt lat="44.11152" lon="6.32463">
        <ele>1063</ele>
        <time>2009-07-06T15:37:43Z</time>
      </trkpt>
      <trkpt lat="44.1115" lon="6.32463">
        <ele>1062</ele>
        <time>2009-07-06T15:38:05Z</time>
      </trkpt>
      <trkpt lat="44.11152" lon="6.32463">
        <ele>1063</ele>
        <time>2009-07-06T15:39:33Z</time>
      </trkpt>
      <trkpt lat="44.11157" lon="6.32482">
        <ele>1061</ele>
        <time>2009-07-06T15:39:45Z</time>
      </trkpt>
      <trkpt lat="44.11158" lon="6.32495">
        <ele>1060</ele>
        <time>2009-07-06T15:39:51Z</time>
      </trkpt>
      <trkpt lat="44.11145" lon="6.32503">
        <ele>1058</ele>
        <time>2009-07-06T15:40:03Z</time>
      </trkpt>
      <trkpt lat="44.11145" lon="6.32505">
        <ele>1058</ele>
        <time>2009-07-06T15:40:04Z</time>
      </trkpt>
      <trkpt lat="44.11138" lon="6.32513">
        <ele>1056</ele>
        <time>2009-07-06T15:40:12Z</time>
      </trkpt>
      <trkpt lat="44.1114" lon="6.32533">
        <ele>1054</ele>
        <time>2009-07-06T15:40:27Z</time>
      </trkpt>
      <trkpt lat="44.1114" lon="6.32543">
        <ele>1053</ele>
        <time>2009-07-06T15:40:34Z</time>
      </trkpt>
      <trkpt lat="44.11148" lon="6.32558">
        <ele>1050</ele>
        <time>2009-07-06T15:40:48Z</time>
      </trkpt>
      <trkpt lat="44.1115" lon="6.3257">
        <ele>1048</ele>
        <time>2009-07-06T15:40:57Z</time>
      </trkpt>
      <trkpt lat="44.11143" lon="6.32585">
        <ele>1044</ele>
        <time>2009-07-06T15:41:12Z</time>
      </trkpt>
      <trkpt lat="44.11152" lon="6.32587">
        <ele>1042</ele>
        <time>2009-07-06T15:41:30Z</time>
      </trkpt>
      <trkpt lat="44.11155" lon="6.32585">
        <ele>1041</ele>
        <time>2009-07-06T15:41:52Z</time>
      </trkpt>
      <trkpt lat="44.11157" lon="6.326">
        <ele>1038</ele>
        <time>2009-07-06T15:42:05Z</time>
      </trkpt>
      <trkpt lat="44.11162" lon="6.32613">
        <ele>1036</ele>
        <time>2009-07-06T15:42:18Z</time>
      </trkpt>
      <trkpt lat="44.11162" lon="6.3262">
        <ele>1034</ele>
        <time>2009-07-06T15:42:33Z</time>
      </trkpt>
      <trkpt lat="44.1116" lon="6.32622">
        <ele>1034</ele>
        <time>2009-07-06T15:42:35Z</time>
      </trkpt>
      <trkpt lat="44.11155" lon="6.32633">
        <ele>1030</ele>
        <time>2009-07-06T15:42:41Z</time>
      </trkpt>
      <trkpt lat="44.11152" lon="6.32642">
        <ele>1028</ele>
        <time>2009-07-06T15:42:55Z</time>
      </trkpt>
      <trkpt lat="44.11152" lon="6.32657">
        <ele>1026</ele>
        <time>2009-07-06T15:43:00Z</time>
      </trkpt>
      <trkpt lat="44.11157" lon="6.3268">
        <ele>1023</ele>
        <time>2009-07-06T15:43:10Z</time>
      </trkpt>
      <trkpt lat="44.11158" lon="6.32685">
        <ele>1021</ele>
        <time>2009-07-06T15:43:12Z</time>
      </trkpt>
      <trkpt lat="44.1116" lon="6.32697">
        <ele>1020</ele>
        <time>2009-07-06T15:43:23Z</time>
      </trkpt>
      <trkpt lat="44.11158" lon="6.32712">
        <ele>1017</ele>
        <time>2009-07-06T15:43:36Z</time>
      </trkpt>
      <trkpt lat="44.11158" lon="6.32713">
        <ele>1017</ele>
        <time>2009-07-06T15:43:37Z</time>
      </trkpt>
      <trkpt lat="44.11148" lon="6.32732">
        <ele>1013</ele>
        <time>2009-07-06T15:43:53Z</time>
      </trkpt>
      <trkpt lat="44.11143" lon="6.3273">
        <ele>1012</ele>
        <time>2009-07-06T15:43:58Z</time>
      </trkpt>
      <trkpt lat="44.11138" lon="6.3273">
        <ele>1010</ele>
        <time>2009-07-06T15:44:14Z</time>
      </trkpt>
      <trkpt lat="44.11137" lon="6.32727">
        <ele>1010</ele>
        <time>2009-07-06T15:44:31Z</time>
      </trkpt>
      <trkpt lat="44.1113" lon="6.3272">
        <ele>1009</ele>
        <time>2009-07-06T15:44:39Z</time>
      </trkpt>
      <trkpt lat="44.11122" lon="6.32715">
        <ele>1006</ele>
        <time>2009-07-06T15:44:54Z</time>
      </trkpt>
      <trkpt lat="44.11122" lon="6.3273">
        <ele>1009</ele>
        <time>2009-07-06T15:45:36Z</time>
      </trkpt>
      <trkpt lat="44.11117" lon="6.32737">
        <ele>1009</ele>
        <time>2009-07-06T15:46:02Z</time>
      </trkpt>
      <trkpt lat="44.11117" lon="6.32748">
        <ele>1010</ele>
        <time>2009-07-06T15:46:17Z</time>
      </trkpt>
      <trkpt lat="44.1113" lon="6.3276">
        <ele>1010</ele>
        <time>2009-07-06T15:46:32Z</time>
      </trkpt>
      <trkpt lat="44.11138" lon="6.32773">
        <ele>1012</ele>
        <time>2009-07-06T15:46:52Z</time>
      </trkpt>
      <trkpt lat="44.11143" lon="6.32783">
        <ele>1011</ele>
        <time>2009-07-06T15:47:11Z</time>
      </trkpt>
      <trkpt lat="44.11153" lon="6.32792">
        <ele>1012</ele>
        <time>2009-07-06T15:47:28Z</time>
      </trkpt>
      <trkpt lat="44.11168" lon="6.32798">
        <ele>1013</ele>
        <time>2009-07-06T15:47:46Z</time>
      </trkpt>
      <trkpt lat="44.11172" lon="6.32805">
        <ele>1013</ele>
        <time>2009-07-06T15:47:52Z</time>
      </trkpt>
      <trkpt lat="44.11182" lon="6.32823">
        <ele>1015</ele>
        <time>2009-07-06T15:48:06Z</time>
      </trkpt>
      <trkpt lat="44.11185" lon="6.32832">
        <ele>1015</ele>
        <time>2009-07-06T15:48:29Z</time>
      </trkpt>
      <trkpt lat="44.11187" lon="6.32852">
        <ele>1014</ele>
        <time>2009-07-06T15:48:44Z</time>
      </trkpt>
      <trkpt lat="44.11188" lon="6.3286">
        <ele>1014</ele>
        <time>2009-07-06T15:48:48Z</time>
      </trkpt>
      <trkpt lat="44.11188" lon="6.3289">
        <ele>1013</ele>
        <time>2009-07-06T15:49:02Z</time>
      </trkpt>
      <trkpt lat="44.11193" lon="6.32905">
        <ele>1013</ele>
        <time>2009-07-06T15:49:11Z</time>
      </trkpt>
      <trkpt lat="44.11195" lon="6.32927">
        <ele>1013</ele>
        <time>2009-07-06T15:49:24Z</time>
      </trkpt>
      <trkpt lat="44.11197" lon="6.3294">
        <ele>1012</ele>
        <time>2009-07-06T15:49:31Z</time>
      </trkpt>
      <trkpt lat="44.11195" lon="6.32967">
        <ele>1010</ele>
        <time>2009-07-06T15:49:44Z</time>
      </trkpt>
      <trkpt lat="44.11192" lon="6.32977">
        <ele>1010</ele>
        <time>2009-07-06T15:49:59Z</time>
      </trkpt>
      <trkpt lat="44.11192" lon="6.32993">
        <ele>1011</ele>
        <time>2009-07-06T15:50:15Z</time>
      </trkpt>
      <trkpt lat="44.11208" lon="6.33003">
        <ele>1009</ele>
        <time>2009-07-06T15:50:32Z</time>
      </trkpt>
      <trkpt lat="44.11212" lon="6.33007">
        <ele>1010</ele>
        <time>2009-07-06T15:51:44Z</time>
      </trkpt>
      <trkpt lat="44.11215" lon="6.3301">
        <ele>1010</ele>
        <time>2009-07-06T15:51:58Z</time>
      </trkpt>
      <trkpt lat="44.11245" lon="6.33008">
        <ele>1011</ele>
        <time>2009-07-06T15:52:11Z</time>
      </trkpt>
      <trkpt lat="44.11285" lon="6.3302">
        <ele>1010</ele>
        <time>2009-07-06T15:52:25Z</time>
      </trkpt>
      <trkpt lat="44.11315" lon="6.33023">
        <ele>1010</ele>
        <time>2009-07-06T15:52:36Z</time>
      </trkpt>
      <trkpt lat="44.11352" lon="6.33038">
        <ele>1009</ele>
        <time>2009-07-06T15:52:49Z</time>
      </trkpt>
      <trkpt lat="44.11378" lon="6.3305">
        <ele>1005</ele>
        <time>2009-07-06T15:52:56Z</time>
      </trkpt>
      <trkpt lat="44.11382" lon="6.33053">
        <ele>1005</ele>
        <time>2009-07-06T15:52:57Z</time>
      </trkpt>
      <trkpt lat="44.11407" lon="6.33075">
        <ele>1004</ele>
        <time>2009-07-06T15:53:08Z</time>
      </trkpt>
      <trkpt lat="44.11432" lon="6.33115">
        <ele>1003</ele>
        <time>2009-07-06T15:53:20Z</time>
      </trkpt>
      <trkpt lat="44.11452" lon="6.33142">
        <ele>1001</ele>
        <time>2009-07-06T15:53:30Z</time>
      </trkpt>
      <trkpt lat="44.11473" lon="6.33185">
        <ele>1000</ele>
        <time>2009-07-06T15:53:44Z</time>
      </trkpt>
      <trkpt lat="44.11483" lon="6.33213">
        <ele>999</ele>
        <time>2009-07-06T15:53:56Z</time>
      </trkpt>
      <trkpt lat="44.11485" lon="6.33217">
        <ele>998</ele>
        <time>2009-07-06T15:53:59Z</time>
      </trkpt>
      <trkpt lat="44.11505" lon="6.33233">
        <ele>998</ele>
        <time>2009-07-06T15:54:14Z</time>
      </trkpt>
      <trkpt lat="44.11523" lon="6.33265">
        <ele>995</ele>
        <time>2009-07-06T15:54:27Z</time>
      </trkpt>
      <trkpt lat="44.11538" lon="6.33288">
        <ele>992</ele>
        <time>2009-07-06T15:54:37Z</time>
      </trkpt>
      <trkpt lat="44.1154" lon="6.3329">
        <ele>991</ele>
        <time>2009-07-06T15:54:38Z</time>
      </trkpt>
      <trkpt lat="44.11553" lon="6.33298">
        <ele>990</ele>
        <time>2009-07-06T15:54:50Z</time>
      </trkpt>
      <trkpt lat="44.11558" lon="6.33303">
        <ele>988</ele>
        <time>2009-07-06T15:55:02Z</time>
      </trkpt>
      <trkpt lat="44.11573" lon="6.333">
        <ele>986</ele>
        <time>2009-07-06T15:55:26Z</time>
      </trkpt>
      <trkpt lat="44.1158" lon="6.333">
        <ele>985</ele>
        <time>2009-07-06T15:55:35Z</time>
      </trkpt>
      <trkpt lat="44.116" lon="6.33303">
        <ele>983</ele>
        <time>2009-07-06T15:55:54Z</time>
      </trkpt>
      <trkpt lat="44.11615" lon="6.33292">
        <ele>981</ele>
        <time>2009-07-06T15:56:07Z</time>
      </trkpt>
      <trkpt lat="44.11633" lon="6.33282">
        <ele>978</ele>
        <time>2009-07-06T15:56:22Z</time>
      </trkpt>
      <trkpt lat="44.11635" lon="6.33285">
        <ele>976</ele>
        <time>2009-07-06T15:56:43Z</time>
      </trkpt>
      <trkpt lat="44.11633" lon="6.3329">
        <ele>976</ele>
        <time>2009-07-06T15:56:57Z</time>
      </trkpt>
      <trkpt lat="44.11635" lon="6.33292">
        <ele>976</ele>
        <time>2009-07-06T15:56:58Z</time>
      </trkpt>
      <trkpt lat="44.11642" lon="6.333">
        <ele>976</ele>
        <time>2009-07-06T15:57:06Z</time>
      </trkpt>
      <trkpt lat="44.1166" lon="6.33308">
        <ele>975</ele>
        <time>2009-07-06T15:57:20Z</time>
      </trkpt>
      <trkpt lat="44.11677" lon="6.3333">
        <ele>973</ele>
        <time>2009-07-06T15:57:41Z</time>
      </trkpt>
      <trkpt lat="44.11707" lon="6.33338">
        <ele>969</ele>
        <time>2009-07-06T15:57:52Z</time>
      </trkpt>
      <trkpt lat="44.11727" lon="6.33342">
        <ele>966</ele>
        <time>2009-07-06T15:57:58Z</time>
      </trkpt>
      <trkpt lat="44.11758" lon="6.33347">
        <ele>963</ele>
        <time>2009-07-06T15:58:05Z</time>
      </trkpt>
      <trkpt lat="44.11802" lon="6.33338">
        <ele>960</ele>
        <time>2009-07-06T15:58:18Z</time>
      </trkpt>
      <trkpt lat="44.11805" lon="6.33338">
        <ele>960</ele>
        <time>2009-07-06T15:58:19Z</time>
      </trkpt>
      <trkpt lat="44.11815" lon="6.33337">
        <ele>959</ele>
        <time>2009-07-06T15:58:21Z</time>
      </trkpt>
      <trkpt lat="44.11835" lon="6.33333">
        <ele>957</ele>
        <time>2009-07-06T15:58:25Z</time>
      </trkpt>
      <trkpt lat="44.11853" lon="6.33323">
        <ele>955</ele>
        <time>2009-07-06T15:58:30Z</time>
      </trkpt>
      <trkpt lat="44.11863" lon="6.33335">
        <ele>954</ele>
        <time>2009-07-06T15:58:33Z</time>
      </trkpt>
      <trkpt lat="44.11877" lon="6.33345">
        <ele>953</ele>
        <time>2009-07-06T15:58:36Z</time>
      </trkpt>
      <trkpt lat="44.1189" lon="6.33352">
        <ele>951</ele>
        <time>2009-07-06T15:58:39Z</time>
      </trkpt>
      <trkpt lat="44.11922" lon="6.33372">
        <ele>947</ele>
        <time>2009-07-06T15:58:50Z</time>
      </trkpt>
      <trkpt lat="44.11942" lon="6.33388">
        <ele>944</ele>
        <time>2009-07-06T15:58:56Z</time>
      </trkpt>
      <trkpt lat="44.11947" lon="6.33403">
        <ele>942</ele>
        <time>2009-07-06T15:58:59Z</time>
      </trkpt>
      <trkpt lat="44.11965" lon="6.3342">
        <ele>942</ele>
        <time>2009-07-06T15:59:02Z</time>
      </trkpt>
      <trkpt lat="44.12003" lon="6.33435">
        <ele>945</ele>
        <time>2009-07-06T15:59:11Z</time>
      </trkpt>
      <trkpt lat="44.1204" lon="6.33437">
        <ele>947</ele>
        <time>2009-07-06T15:59:24Z</time>
      </trkpt>
      <trkpt lat="44.12068" lon="6.33435">
        <ele>949</ele>
        <time>2009-07-06T15:59:37Z</time>
      </trkpt>
      <trkpt lat="44.12092" lon="6.33438">
        <ele>952</ele>
        <time>2009-07-06T15:59:48Z</time>
      </trkpt>
      <trkpt lat="44.12095" lon="6.33442">
        <ele>952</ele>
        <time>2009-07-06T15:59:51Z</time>
      </trkpt>
      <trkpt lat="44.12108" lon="6.33453">
        <ele>956</ele>
        <time>2009-07-06T16:00:00Z</time>
      </trkpt>
      <trkpt lat="44.12118" lon="6.33442">
        <ele>956</ele>
        <time>2009-07-06T16:00:06Z</time>
      </trkpt>
      <trkpt lat="44.12135" lon="6.33418">
        <ele>958</ele>
        <time>2009-07-06T16:00:21Z</time>
      </trkpt>
      <trkpt lat="44.12142" lon="6.33408">
        <ele>959</ele>
        <time>2009-07-06T16:12:49Z</time>
      </trkpt>
      <trkpt lat="44.12158" lon="6.33408">
        <ele>961</ele>
        <time>2009-07-06T16:13:03Z</time>
      </trkpt>
      <trkpt lat="44.12167" lon="6.33413">
        <ele>963</ele>
        <time>2009-07-06T16:13:09Z</time>
      </trkpt>
      <trkpt lat="44.12177" lon="6.33412">
        <ele>964</ele>
        <time>2009-07-06T16:13:14Z</time>
      </trkpt>
      <trkpt lat="44.12202" lon="6.33415">
        <ele>967</ele>
        <time>2009-07-06T16:13:28Z</time>
      </trkpt>
      <trkpt lat="44.12225" lon="6.3342">
        <ele>968</ele>
        <time>2009-07-06T16:13:42Z</time>
      </trkpt>
      <trkpt lat="44.12235" lon="6.33427">
        <ele>968</ele>
        <time>2009-07-06T16:13:48Z</time>
      </trkpt>
      <trkpt lat="44.1226" lon="6.33433">
        <ele>970</ele>
        <time>2009-07-06T16:14:03Z</time>
      </trkpt>
      <trkpt lat="44.12265" lon="6.33435">
        <ele>970</ele>
        <time>2009-07-06T16:14:17Z</time>
      </trkpt>
      <trkpt lat="44.12267" lon="6.33432">
        <ele>970</ele>
        <time>2009-07-06T16:14:19Z</time>
      </trkpt>
      <trkpt lat="44.12297" lon="6.33428">
        <ele>971</ele>
        <time>2009-07-06T16:14:35Z</time>
      </trkpt>
      <trkpt lat="44.12323" lon="6.33423">
        <ele>971</ele>
        <time>2009-07-06T16:14:50Z</time>
      </trkpt>
      <trkpt lat="44.12357" lon="6.33407">
        <ele>971</ele>
        <time>2009-07-06T16:15:04Z</time>
      </trkpt>
      <trkpt lat="44.12365" lon="6.33402">
        <ele>970</ele>
        <time>2009-07-06T16:15:14Z</time>
      </trkpt>
      <trkpt lat="44.12367" lon="6.33402">
        <ele>971</ele>
        <time>2009-07-06T16:15:35Z</time>
      </trkpt>
      <trkpt lat="44.12367" lon="6.33402">
        <ele>970</ele>
        <time>2009-07-06T16:15:56Z</time>
      </trkpt>
      <trkpt lat="44.12375" lon="6.33407">
        <ele>969</ele>
        <time>2009-07-06T16:15:59Z</time>
      </trkpt>
      <trkpt lat="44.12392" lon="6.3342">
        <ele>969</ele>
        <time>2009-07-06T16:16:03Z</time>
      </trkpt>
      <trkpt lat="44.12408" lon="6.33425">
        <ele>970</ele>
        <time>2009-07-06T16:16:06Z</time>
      </trkpt>
      <trkpt lat="44.1245" lon="6.33443">
        <ele>971</ele>
        <time>2009-07-06T16:16:18Z</time>
      </trkpt>
      <trkpt lat="44.12452" lon="6.33452">
        <ele>971</ele>
        <time>2009-07-06T16:16:22Z</time>
      </trkpt>
      <trkpt lat="44.12462" lon="6.33485">
        <ele>968</ele>
        <time>2009-07-06T16:16:31Z</time>
      </trkpt>
      <trkpt lat="44.12473" lon="6.33513">
        <ele>965</ele>
        <time>2009-07-06T16:16:36Z</time>
      </trkpt>
      <trkpt lat="44.1248" lon="6.33528">
        <ele>965</ele>
        <time>2009-07-06T16:16:39Z</time>
      </trkpt>
      <trkpt lat="44.12505" lon="6.3356">
        <ele>963</ele>
        <time>2009-07-06T16:16:50Z</time>
      </trkpt>
      <trkpt lat="44.12515" lon="6.33573">
        <ele>962</ele>
        <time>2009-07-06T16:16:56Z</time>
      </trkpt>
      <trkpt lat="44.12528" lon="6.3358">
        <ele>961</ele>
        <time>2009-07-06T16:17:07Z</time>
      </trkpt>
      <trkpt lat="44.12535" lon="6.3358">
        <ele>962</ele>
        <time>2009-07-06T16:17:11Z</time>
      </trkpt>
      <trkpt lat="44.12553" lon="6.33582">
        <ele>963</ele>
        <time>2009-07-06T16:17:28Z</time>
      </trkpt>
      <trkpt lat="44.12585" lon="6.3359">
        <ele>963</ele>
        <time>2009-07-06T16:17:38Z</time>
      </trkpt>
      <trkpt lat="44.12615" lon="6.33607">
        <ele>964</ele>
        <time>2009-07-06T16:17:50Z</time>
      </trkpt>
      <trkpt lat="44.12628" lon="6.33618">
        <ele>965</ele>
        <time>2009-07-06T16:17:56Z</time>
      </trkpt>
      <trkpt lat="44.12652" lon="6.33645">
        <ele>962</ele>
        <time>2009-07-06T16:18:10Z</time>
      </trkpt>
      <trkpt lat="44.12665" lon="6.33658">
        <ele>960</ele>
        <time>2009-07-06T16:18:28Z</time>
      </trkpt>
      <trkpt lat="44.12672" lon="6.33665">
        <ele>959</ele>
        <time>2009-07-06T16:18:43Z</time>
      </trkpt>
      <trkpt lat="44.12678" lon="6.33672">
        <ele>957</ele>
        <time>2009-07-06T16:18:48Z</time>
      </trkpt>
      <trkpt lat="44.12682" lon="6.33682">
        <ele>957</ele>
        <time>2009-07-06T16:18:51Z</time>
      </trkpt>
      <trkpt lat="44.12695" lon="6.33723">
        <ele>954</ele>
        <time>2009-07-06T16:19:04Z</time>
      </trkpt>
      <trkpt lat="44.12695" lon="6.33732">
        <ele>953</ele>
        <time>2009-07-06T16:19:07Z</time>
      </trkpt>
      <trkpt lat="44.12697" lon="6.33737">
        <ele>952</ele>
        <time>2009-07-06T16:19:11Z</time>
      </trkpt>
      <trkpt lat="44.12703" lon="6.33738">
        <ele>952</ele>
        <time>2009-07-06T16:19:14Z</time>
      </trkpt>
      <trkpt lat="44.1273" lon="6.33732">
        <ele>955</ele>
        <time>2009-07-06T16:19:26Z</time>
      </trkpt>
      <trkpt lat="44.12748" lon="6.33723">
        <ele>957</ele>
        <time>2009-07-06T16:19:39Z</time>
      </trkpt>
      <trkpt lat="44.1277" lon="6.33718">
        <ele>960</ele>
        <time>2009-07-06T16:19:54Z</time>
      </trkpt>
      <trkpt lat="44.12788" lon="6.33707">
        <ele>962</ele>
        <time>2009-07-06T16:20:09Z</time>
      </trkpt>
      <trkpt lat="44.12803" lon="6.33697">
        <ele>965</ele>
        <time>2009-07-06T16:20:23Z</time>
      </trkpt>
      <trkpt lat="44.12823" lon="6.3368">
        <ele>968</ele>
        <time>2009-07-06T16:20:40Z</time>
      </trkpt>
      <trkpt lat="44.12842" lon="6.3367">
        <ele>971</ele>
        <time>2009-07-06T16:20:53Z</time>
      </trkpt>
      <trkpt lat="44.12857" lon="6.33658">
        <ele>973</ele>
        <time>2009-07-06T16:21:09Z</time>
      </trkpt>
      <trkpt lat="44.12867" lon="6.33645">
        <ele>975</ele>
        <time>2009-07-06T16:21:23Z</time>
      </trkpt>
      <trkpt lat="44.1288" lon="6.33635">
        <ele>977</ele>
        <time>2009-07-06T16:21:37Z</time>
      </trkpt>
      <trkpt lat="44.12887" lon="6.33632">
        <ele>978</ele>
        <time>2009-07-06T16:21:50Z</time>
      </trkpt>
      <trkpt lat="44.12902" lon="6.33635">
        <ele>980</ele>
        <time>2009-07-06T16:22:09Z</time>
      </trkpt>
      <trkpt lat="44.12905" lon="6.33638">
        <ele>979</ele>
        <time>2009-07-06T16:22:33Z</time>
      </trkpt>
      <trkpt lat="44.12907" lon="6.3364">
        <ele>979</ele>
        <time>2009-07-06T16:35:51Z</time>
      </trkpt>
      <trkpt lat="44.12915" lon="6.33652">
        <ele>978</ele>
        <time>2009-07-06T16:35:56Z</time>
      </trkpt>
      <trkpt lat="44.12922" lon="6.3366">
        <ele>977</ele>
        <time>2009-07-06T16:35:59Z</time>
      </trkpt>
      <trkpt lat="44.12933" lon="6.33655">
        <ele>979</ele>
        <time>2009-07-06T16:36:04Z</time>
      </trkpt>
      <trkpt lat="44.12962" lon="6.3362">
        <ele>978</ele>
        <time>2009-07-06T16:36:17Z</time>
      </trkpt>
      <trkpt lat="44.12988" lon="6.3361">
        <ele>978</ele>
        <time>2009-07-06T16:36:27Z</time>
      </trkpt>
      <trkpt lat="44.13007" lon="6.3361">
        <ele>979</ele>
        <time>2009-07-06T16:36:41Z</time>
      </trkpt>
      <trkpt lat="44.13012" lon="6.33612">
        <ele>979</ele>
        <time>2009-07-06T16:37:02Z</time>
      </trkpt>
      <trkpt lat="44.13027" lon="6.3361">
        <ele>978</ele>
        <time>2009-07-06T16:37:56Z</time>
      </trkpt>
      <trkpt lat="44.13035" lon="6.33615">
        <ele>977</ele>
        <time>2009-07-06T16:37:58Z</time>
      </trkpt>
      <trkpt lat="44.13043" lon="6.33622">
        <ele>976</ele>
        <time>2009-07-06T16:38:00Z</time>
      </trkpt>
      <trkpt lat="44.13068" lon="6.33648">
        <ele>973</ele>
        <time>2009-07-06T16:38:05Z</time>
      </trkpt>
      <trkpt lat="44.13095" lon="6.3365">
        <ele>973</ele>
        <time>2009-07-06T16:38:10Z</time>
      </trkpt>
      <trkpt lat="44.13138" lon="6.33657">
        <ele>972</ele>
        <time>2009-07-06T16:38:21Z</time>
      </trkpt>
      <trkpt lat="44.13155" lon="6.33673">
        <ele>970</ele>
        <time>2009-07-06T16:38:25Z</time>
      </trkpt>
      <trkpt lat="44.13168" lon="6.33687">
        <ele>969</ele>
        <time>2009-07-06T16:38:28Z</time>
      </trkpt>
      <trkpt lat="44.13203" lon="6.33702">
        <ele>967</ele>
        <time>2009-07-06T16:38:34Z</time>
      </trkpt>
      <trkpt lat="44.13215" lon="6.33703">
        <ele>966</ele>
        <time>2009-07-06T16:38:36Z</time>
      </trkpt>
      <trkpt lat="44.1323" lon="6.337">
        <ele>965</ele>
        <time>2009-07-06T16:38:39Z</time>
      </trkpt>
      <trkpt lat="44.1324" lon="6.33697">
        <ele>964</ele>
        <time>2009-07-06T16:38:41Z</time>
      </trkpt>
      <trkpt lat="44.1326" lon="6.3369">
        <ele>961</ele>
        <time>2009-07-06T16:38:45Z</time>
      </trkpt>
      <trkpt lat="44.1332" lon="6.33685">
        <ele>958</ele>
        <time>2009-07-06T16:38:55Z</time>
      </trkpt>
      <trkpt lat="44.13368" lon="6.33688">
        <ele>955</ele>
        <time>2009-07-06T16:39:06Z</time>
      </trkpt>
      <trkpt lat="44.134" lon="6.3369">
        <ele>951</ele>
        <time>2009-07-06T16:39:17Z</time>
      </trkpt>
      <trkpt lat="44.13418" lon="6.33693">
        <ele>949</ele>
        <time>2009-07-06T16:39:28Z</time>
      </trkpt>
      <trkpt lat="44.1342" lon="6.3369">
        <ele>949</ele>
        <time>2009-07-06T16:40:52Z</time>
      </trkpt>
      <trkpt lat="44.13423" lon="6.33735">
        <ele>949</ele>
        <time>2009-07-06T16:41:04Z</time>
      </trkpt>
      <trkpt lat="44.13425" lon="6.33775">
        <ele>946</ele>
        <time>2009-07-06T16:41:14Z</time>
      </trkpt>
      <trkpt lat="44.13425" lon="6.3378">
        <ele>945</ele>
        <time>2009-07-06T16:41:16Z</time>
      </trkpt>
      <trkpt lat="44.13423" lon="6.33782">
        <ele>945</ele>
        <time>2009-07-06T16:41:17Z</time>
      </trkpt>
      <trkpt lat="44.13417" lon="6.33797">
        <ele>943</ele>
        <time>2009-07-06T16:41:25Z</time>
      </trkpt>
      <trkpt lat="44.13407" lon="6.33813">
        <ele>939</ele>
        <time>2009-07-06T16:41:32Z</time>
      </trkpt>
      <trkpt lat="44.13397" lon="6.33828">
        <ele>936</ele>
        <time>2009-07-06T16:41:38Z</time>
      </trkpt>
      <trkpt lat="44.13397" lon="6.3383">
        <ele>936</ele>
        <time>2009-07-06T16:41:39Z</time>
      </trkpt>
      <trkpt lat="44.13385" lon="6.33838">
        <ele>933</ele>
        <time>2009-07-06T16:41:46Z</time>
      </trkpt>
      <trkpt lat="44.13383" lon="6.33838">
        <ele>933</ele>
        <time>2009-07-06T16:41:47Z</time>
      </trkpt>
      <trkpt lat="44.13377" lon="6.33845">
        <ele>930</ele>
        <time>2009-07-06T16:41:52Z</time>
      </trkpt>
      <trkpt lat="44.1337" lon="6.3386">
        <ele>926</ele>
        <time>2009-07-06T16:41:58Z</time>
      </trkpt>
      <trkpt lat="44.1336" lon="6.33873">
        <ele>923</ele>
        <time>2009-07-06T16:42:05Z</time>
      </trkpt>
      <trkpt lat="44.13358" lon="6.33878">
        <ele>923</ele>
        <time>2009-07-06T16:42:08Z</time>
      </trkpt>
      <trkpt lat="44.13358" lon="6.33893">
        <ele>921</ele>
        <time>2009-07-06T16:42:12Z</time>
      </trkpt>
      <trkpt lat="44.13358" lon="6.33903">
        <ele>920</ele>
        <time>2009-07-06T16:42:26Z</time>
      </trkpt>
      <trkpt lat="44.13358" lon="6.33903">
        <ele>920</ele>
        <time>2009-07-06T16:42:43Z</time>
      </trkpt>
      <trkpt lat="44.13332" lon="6.33927">
        <ele>918</ele>
        <time>2009-07-06T16:42:55Z</time>
      </trkpt>
      <trkpt lat="44.13317" lon="6.33943">
        <ele>914</ele>
        <time>2009-07-06T16:43:02Z</time>
      </trkpt>
      <trkpt lat="44.13315" lon="6.33945">
        <ele>914</ele>
        <time>2009-07-06T16:43:04Z</time>
      </trkpt>
      <trkpt lat="44.1331" lon="6.33953">
        <ele>912</ele>
        <time>2009-07-06T16:43:08Z</time>
      </trkpt>
      <trkpt lat="44.133" lon="6.33973">
        <ele>909</ele>
        <time>2009-07-06T16:43:15Z</time>
      </trkpt>
      <trkpt lat="44.13287" lon="6.33987">
        <ele>906</ele>
        <time>2009-07-06T16:43:24Z</time>
      </trkpt>
      <trkpt lat="44.13285" lon="6.33992">
        <ele>904</ele>
        <time>2009-07-06T16:43:27Z</time>
      </trkpt>
      <trkpt lat="44.13283" lon="6.33995">
        <ele>903</ele>
        <time>2009-07-06T16:43:28Z</time>
      </trkpt>
      <trkpt lat="44.13268" lon="6.34028">
        <ele>900</ele>
        <time>2009-07-06T16:43:38Z</time>
      </trkpt>
      <trkpt lat="44.13267" lon="6.34047">
        <ele>898</ele>
        <time>2009-07-06T16:43:41Z</time>
      </trkpt>
      <trkpt lat="44.13267" lon="6.3406">
        <ele>897</ele>
        <time>2009-07-06T16:43:45Z</time>
      </trkpt>
      <trkpt lat="44.13263" lon="6.34072">
        <ele>895</ele>
        <time>2009-07-06T16:43:49Z</time>
      </trkpt>
      <trkpt lat="44.13263" lon="6.34085">
        <ele>893</ele>
        <time>2009-07-06T16:43:53Z</time>
      </trkpt>
      <trkpt lat="44.13263" lon="6.34105">
        <ele>890</ele>
        <time>2009-07-06T16:43:59Z</time>
      </trkpt>
      <trkpt lat="44.1325" lon="6.3414">
        <ele>886</ele>
        <time>2009-07-06T16:44:10Z</time>
      </trkpt>
      <trkpt lat="44.13248" lon="6.34148">
        <ele>885</ele>
        <time>2009-07-06T16:44:13Z</time>
      </trkpt>
      <trkpt lat="44.13247" lon="6.34158">
        <ele>884</ele>
        <time>2009-07-06T16:44:16Z</time>
      </trkpt>
      <trkpt lat="44.13248" lon="6.34167">
        <ele>882</ele>
        <time>2009-07-06T16:44:19Z</time>
      </trkpt>
      <trkpt lat="44.13257" lon="6.34167">
        <ele>880</ele>
        <time>2009-07-06T16:44:23Z</time>
      </trkpt>
      <trkpt lat="44.1328" lon="6.34158">
        <ele>877</ele>
        <time>2009-07-06T16:44:31Z</time>
      </trkpt>
      <trkpt lat="44.13283" lon="6.34157">
        <ele>876</ele>
        <time>2009-07-06T16:44:32Z</time>
      </trkpt>
      <trkpt lat="44.13293" lon="6.3415">
        <ele>874</ele>
        <time>2009-07-06T16:44:43Z</time>
      </trkpt>
      <trkpt lat="44.13295" lon="6.3415">
        <ele>874</ele>
        <time>2009-07-06T16:45:11Z</time>
      </trkpt>
      <trkpt lat="44.13303" lon="6.34157">
        <ele>874</ele>
        <time>2009-07-06T16:45:15Z</time>
      </trkpt>
      <trkpt lat="44.1333" lon="6.34163">
        <ele>870</ele>
        <time>2009-07-06T16:45:20Z</time>
      </trkpt>
      <trkpt lat="44.13338" lon="6.34163">
        <ele>869</ele>
        <time>2009-07-06T16:45:22Z</time>
      </trkpt>
      <trkpt lat="44.13343" lon="6.34165">
        <ele>868</ele>
        <time>2009-07-06T16:45:23Z</time>
      </trkpt>
      <trkpt lat="44.13357" lon="6.34207">
        <ele>870</ele>
        <time>2009-07-06T16:45:33Z</time>
      </trkpt>
      <trkpt lat="44.1336" lon="6.34208">
        <ele>870</ele>
        <time>2009-07-06T16:45:34Z</time>
      </trkpt>
      <trkpt lat="44.13398" lon="6.34227">
        <ele>873</ele>
        <time>2009-07-06T16:45:51Z</time>
      </trkpt>
      <trkpt lat="44.1342" lon="6.3424">
        <ele>874</ele>
        <time>2009-07-06T16:46:04Z</time>
      </trkpt>
      <trkpt lat="44.13452" lon="6.34265">
        <ele>877</ele>
        <time>2009-07-06T16:46:22Z</time>
      </trkpt>
      <trkpt lat="44.13458" lon="6.34277">
        <ele>878</ele>
        <time>2009-07-06T16:46:29Z</time>
      </trkpt>
      <trkpt lat="44.13458" lon="6.34283">
        <ele>879</ele>
        <time>2009-07-06T16:46:32Z</time>
      </trkpt>
      <trkpt lat="44.1345" lon="6.34287">
        <ele>879</ele>
        <time>2009-07-06T16:46:43Z</time>
      </trkpt>
      <trkpt lat="44.13452" lon="6.34288">
        <ele>879</ele>
        <time>2009-07-06T16:47:39Z</time>
      </trkpt>
      <trkpt lat="44.13452" lon="6.34288">
        <ele>879</ele>
        <time>2009-07-06T16:47:46Z</time>
      </trkpt>
      <trkpt lat="44.13445" lon="6.34343">
        <ele>880</ele>
        <time>2009-07-06T16:47:59Z</time>
      </trkpt>
      <trkpt lat="44.13408" lon="6.34395">
        <ele>881</ele>
        <time>2009-07-06T16:48:12Z</time>
      </trkpt>
      <trkpt lat="44.13367" lon="6.3444">
        <ele>883</ele>
        <time>2009-07-06T16:48:27Z</time>
      </trkpt>
      <trkpt lat="44.1333" lon="6.34502">
        <ele>880</ele>
        <time>2009-07-06T16:48:40Z</time>
      </trkpt>
      <trkpt lat="44.13295" lon="6.34542">
        <ele>879</ele>
        <time>2009-07-06T16:48:52Z</time>
      </trkpt>
      <trkpt lat="44.13287" lon="6.3454">
        <ele>878</ele>
        <time>2009-07-06T16:48:54Z</time>
      </trkpt>
      <trkpt lat="44.13258" lon="6.34528">
        <ele>879</ele>
        <time>2009-07-06T16:49:00Z</time>
      </trkpt>
      <trkpt lat="44.13253" lon="6.34537">
        <ele>880</ele>
        <time>2009-07-06T16:49:05Z</time>
      </trkpt>
      <trkpt lat="44.13253" lon="6.34563">
        <ele>883</ele>
        <time>2009-07-06T16:49:16Z</time>
      </trkpt>
      <trkpt lat="44.13268" lon="6.34582">
        <ele>884</ele>
        <time>2009-07-06T16:49:28Z</time>
      </trkpt>
      <trkpt lat="44.13282" lon="6.34603">
        <ele>885</ele>
        <time>2009-07-06T16:49:43Z</time>
      </trkpt>
      <trkpt lat="44.13278" lon="6.34605">
        <ele>885</ele>
        <time>2009-07-06T16:49:48Z</time>
      </trkpt>
      <trkpt lat="44.1327" lon="6.34598">
        <ele>886</ele>
        <time>2009-07-06T16:49:54Z</time>
      </trkpt>
      <trkpt lat="44.13265" lon="6.34597">
        <ele>887</ele>
        <time>2009-07-06T16:49:58Z</time>
      </trkpt>
      <trkpt lat="44.13255" lon="6.34607">
        <ele>890</ele>
        <time>2009-07-06T16:50:11Z</time>
      </trkpt>
      <trkpt lat="44.13253" lon="6.34607">
        <ele>890</ele>
        <time>2009-07-06T16:52:01Z</time>
      </trkpt>
      <trkpt lat="44.13268" lon="6.346">
        <ele>886</ele>
        <time>2009-07-06T16:52:08Z</time>
      </trkpt>
      <trkpt lat="44.13282" lon="6.34605">
        <ele>885</ele>
        <time>2009-07-06T16:52:11Z</time>
      </trkpt>
      <trkpt lat="44.1329" lon="6.34615">
        <ele>885</ele>
        <time>2009-07-06T16:52:13Z</time>
      </trkpt>
      <trkpt lat="44.13315" lon="6.34613">
        <ele>885</ele>
        <time>2009-07-06T16:52:20Z</time>
      </trkpt>
      <trkpt lat="44.13332" lon="6.34587">
        <ele>887</ele>
        <time>2009-07-06T16:52:33Z</time>
      </trkpt>
      <trkpt lat="44.13355" lon="6.3459">
        <ele>890</ele>
        <time>2009-07-06T16:52:49Z</time>
      </trkpt>
      <trkpt lat="44.13377" lon="6.34602">
        <ele>892</ele>
        <time>2009-07-06T16:53:06Z</time>
      </trkpt>
      <trkpt lat="44.13397" lon="6.34615">
        <ele>894</ele>
        <time>2009-07-06T16:53:24Z</time>
      </trkpt>
      <trkpt lat="44.13418" lon="6.34632">
        <ele>897</ele>
        <time>2009-07-06T16:53:37Z</time>
      </trkpt>
      <trkpt lat="44.1343" lon="6.34665">
        <ele>899</ele>
        <time>2009-07-06T16:53:52Z</time>
      </trkpt>
      <trkpt lat="44.1343" lon="6.34667">
        <ele>899</ele>
        <time>2009-07-06T16:53:53Z</time>
      </trkpt>
      <trkpt lat="44.1343" lon="6.34678">
        <ele>899</ele>
        <time>2009-07-06T16:54:05Z</time>
      </trkpt>
      <trkpt lat="44.13435" lon="6.34705">
        <ele>901</ele>
        <time>2009-07-06T16:54:20Z</time>
      </trkpt>
      <trkpt lat="44.13443" lon="6.34732">
        <ele>904</ele>
        <time>2009-07-06T16:54:35Z</time>
      </trkpt>
      <trkpt lat="44.13448" lon="6.34763">
        <ele>906</ele>
        <time>2009-07-06T16:54:51Z</time>
      </trkpt>
      <trkpt lat="44.13455" lon="6.34783">
        <ele>908</ele>
        <time>2009-07-06T16:55:05Z</time>
      </trkpt>
      <trkpt lat="44.13463" lon="6.34808">
        <ele>911</ele>
        <time>2009-07-06T16:55:21Z</time>
      </trkpt>
      <trkpt lat="44.13468" lon="6.34837">
        <ele>912</ele>
        <time>2009-07-06T16:55:38Z</time>
      </trkpt>
      <trkpt lat="44.13478" lon="6.34857">
        <ele>914</ele>
        <time>2009-07-06T16:55:52Z</time>
      </trkpt>
      <trkpt lat="44.1349" lon="6.3488">
        <ele>916</ele>
        <time>2009-07-06T16:56:07Z</time>
      </trkpt>
      <trkpt lat="44.13495" lon="6.349">
        <ele>918</ele>
        <time>2009-07-06T16:56:21Z</time>
      </trkpt>
      <trkpt lat="44.13497" lon="6.34908">
        <ele>919</ele>
        <time>2009-07-06T16:56:26Z</time>
      </trkpt>
      <trkpt lat="44.1349" lon="6.34915">
        <ele>919</ele>
        <time>2009-07-06T16:56:32Z</time>
      </trkpt>
      <trkpt lat="44.13465" lon="6.34898">
        <ele>922</ele>
        <time>2009-07-06T16:56:51Z</time>
      </trkpt>
      <trkpt lat="44.1346" lon="6.34893">
        <ele>922</ele>
        <time>2009-07-06T16:56:55Z</time>
      </trkpt>
      <trkpt lat="44.13452" lon="6.34887">
        <ele>923</ele>
        <time>2009-07-06T16:57:03Z</time>
      </trkpt>
      <trkpt lat="44.1343" lon="6.3487">
        <ele>925</ele>
        <time>2009-07-06T16:57:22Z</time>
      </trkpt>
      <trkpt lat="44.13413" lon="6.34862">
        <ele>927</ele>
        <time>2009-07-06T16:57:35Z</time>
      </trkpt>
      <trkpt lat="44.13387" lon="6.34858">
        <ele>929</ele>
        <time>2009-07-06T16:57:53Z</time>
      </trkpt>
      <trkpt lat="44.13367" lon="6.34865">
        <ele>930</ele>
        <time>2009-07-06T16:58:06Z</time>
      </trkpt>
      <trkpt lat="44.1336" lon="6.34873">
        <ele>931</ele>
        <time>2009-07-06T16:58:12Z</time>
      </trkpt>
      <trkpt lat="44.13365" lon="6.349">
        <ele>933</ele>
        <time>2009-07-06T16:58:26Z</time>
      </trkpt>
      <trkpt lat="44.13383" lon="6.3492">
        <ele>935</ele>
        <time>2009-07-06T16:58:43Z</time>
      </trkpt>
      <trkpt lat="44.13397" lon="6.34948">
        <ele>937</ele>
        <time>2009-07-06T16:59:00Z</time>
      </trkpt>
      <trkpt lat="44.134" lon="6.34975">
        <ele>939</ele>
        <time>2009-07-06T16:59:16Z</time>
      </trkpt>
      <trkpt lat="44.134" lon="6.3499">
        <ele>940</ele>
        <time>2009-07-06T16:59:23Z</time>
      </trkpt>
      <trkpt lat="44.13397" lon="6.34995">
        <ele>940</ele>
        <time>2009-07-06T16:59:27Z</time>
      </trkpt>
      <trkpt lat="44.13388" lon="6.35025">
        <ele>943</ele>
        <time>2009-07-06T16:59:44Z</time>
      </trkpt>
      <trkpt lat="44.13382" lon="6.3505">
        <ele>944</ele>
        <time>2009-07-06T16:59:58Z</time>
      </trkpt>
      <trkpt lat="44.13378" lon="6.35067">
        <ele>945</ele>
        <time>2009-07-06T17:00:06Z</time>
      </trkpt>
      <trkpt lat="44.13378" lon="6.35078">
        <ele>946</ele>
        <time>2009-07-06T17:00:11Z</time>
      </trkpt>
      <trkpt lat="44.13383" lon="6.35128">
        <ele>947</ele>
        <time>2009-07-06T17:00:27Z</time>
      </trkpt>
      <trkpt lat="44.13405" lon="6.35158">
        <ele>948</ele>
        <time>2009-07-06T17:00:40Z</time>
      </trkpt>
      <trkpt lat="44.13422" lon="6.35188">
        <ele>951</ele>
        <time>2009-07-06T17:00:55Z</time>
      </trkpt>
      <trkpt lat="44.13437" lon="6.35225">
        <ele>953</ele>
        <time>2009-07-06T17:01:13Z</time>
      </trkpt>
      <trkpt lat="44.13438" lon="6.35253">
        <ele>955</ele>
        <time>2009-07-06T17:01:28Z</time>
      </trkpt>
      <trkpt lat="44.13427" lon="6.35288">
        <ele>958</ele>
        <time>2009-07-06T17:01:45Z</time>
      </trkpt>
      <trkpt lat="44.13425" lon="6.35292">
        <ele>958</ele>
        <time>2009-07-06T17:01:47Z</time>
      </trkpt>
      <trkpt lat="44.134" lon="6.35307">
        <ele>960</ele>
        <time>2009-07-06T17:02:05Z</time>
      </trkpt>
      <trkpt lat="44.1339" lon="6.35332">
        <ele>962</ele>
        <time>2009-07-06T17:02:20Z</time>
      </trkpt>
      <trkpt lat="44.13388" lon="6.35358">
        <ele>964</ele>
        <time>2009-07-06T17:02:33Z</time>
      </trkpt>
      <trkpt lat="44.13385" lon="6.35385">
        <ele>966</ele>
        <time>2009-07-06T17:02:46Z</time>
      </trkpt>
      <trkpt lat="44.13387" lon="6.35395">
        <ele>966</ele>
        <time>2009-07-06T17:02:52Z</time>
      </trkpt>
      <trkpt lat="44.1339" lon="6.35408">
        <ele>968</ele>
        <time>2009-07-06T17:02:58Z</time>
      </trkpt>
      <trkpt lat="44.1339" lon="6.35418">
        <ele>969</ele>
        <time>2009-07-06T17:03:04Z</time>
      </trkpt>
      <trkpt lat="44.13383" lon="6.35438">
        <ele>972</ele>
        <time>2009-07-06T17:03:20Z</time>
      </trkpt>
      <trkpt lat="44.1338" lon="6.35438">
        <ele>972</ele>
        <time>2009-07-06T17:03:23Z</time>
      </trkpt>
      <trkpt lat="44.13373" lon="6.35435">
        <ele>973</ele>
        <time>2009-07-06T17:03:28Z</time>
      </trkpt>
      <trkpt lat="44.13353" lon="6.35432">
        <ele>974</ele>
        <time>2009-07-06T17:03:42Z</time>
      </trkpt>
      <trkpt lat="44.13353" lon="6.35432">
        <ele>974</ele>
        <time>2009-07-06T17:03:43Z</time>
      </trkpt>
      <trkpt lat="44.1334" lon="6.35432">
        <ele>976</ele>
        <time>2009-07-06T17:03:52Z</time>
      </trkpt>
      <trkpt lat="44.13335" lon="6.35432">
        <ele>976</ele>
        <time>2009-07-06T17:03:57Z</time>
      </trkpt>
      <trkpt lat="44.13332" lon="6.35433">
        <ele>977</ele>
        <time>2009-07-06T17:04:14Z</time>
      </trkpt>
      <trkpt lat="44.13315" lon="6.35438">
        <ele>979</ele>
        <time>2009-07-06T17:05:52Z</time>
      </trkpt>
      <trkpt lat="44.13312" lon="6.35442">
        <ele>978</ele>
        <time>2009-07-06T17:06:12Z</time>
      </trkpt>
      <trkpt lat="44.13293" lon="6.35448">
        <ele>982</ele>
        <time>2009-07-06T17:07:25Z</time>
      </trkpt>
      <trkpt lat="44.13267" lon="6.35453">
        <ele>985</ele>
        <time>2009-07-06T17:07:39Z</time>
      </trkpt>
      <trkpt lat="44.1324" lon="6.35428">
        <ele>986</ele>
        <time>2009-07-06T17:07:54Z</time>
      </trkpt>
      <trkpt lat="44.13218" lon="6.35403">
        <ele>989</ele>
        <time>2009-07-06T17:08:09Z</time>
      </trkpt>
      <trkpt lat="44.13188" lon="6.35377">
        <ele>992</ele>
        <time>2009-07-06T17:08:26Z</time>
      </trkpt>
      <trkpt lat="44.13163" lon="6.35363">
        <ele>995</ele>
        <time>2009-07-06T17:08:39Z</time>
      </trkpt>
      <trkpt lat="44.1313" lon="6.35367">
        <ele>997</ele>
        <time>2009-07-06T17:08:53Z</time>
      </trkpt>
      <trkpt lat="44.13093" lon="6.35363">
        <ele>998</ele>
        <time>2009-07-06T17:09:06Z</time>
      </trkpt>
      <trkpt lat="44.13068" lon="6.35397">
        <ele>998</ele>
        <time>2009-07-06T17:09:17Z</time>
      </trkpt>
      <trkpt lat="44.13028" lon="6.3546">
        <ele>999</ele>
        <time>2009-07-06T17:09:34Z</time>
      </trkpt>
      <trkpt lat="44.1299" lon="6.35507">
        <ele>1001</ele>
        <time>2009-07-06T17:09:48Z</time>
      </trkpt>
      <trkpt lat="44.12955" lon="6.3552">
        <ele>1004</ele>
        <time>2009-07-06T17:10:01Z</time>
      </trkpt>
      <trkpt lat="44.12922" lon="6.35505">
        <ele>1007</ele>
        <time>2009-07-06T17:10:14Z</time>
      </trkpt>
      <trkpt lat="44.12892" lon="6.35483">
        <ele>1010</ele>
        <time>2009-07-06T17:10:27Z</time>
      </trkpt>
      <trkpt lat="44.12872" lon="6.35487">
        <ele>1010</ele>
        <time>2009-07-06T17:10:39Z</time>
      </trkpt>
      <trkpt lat="44.12855" lon="6.3547">
        <ele>1011</ele>
        <time>2009-07-06T17:10:49Z</time>
      </trkpt>
      <trkpt lat="44.1286" lon="6.35437">
        <ele>1013</ele>
        <time>2009-07-06T17:11:02Z</time>
      </trkpt>
      <trkpt lat="44.12863" lon="6.35408">
        <ele>1014</ele>
        <time>2009-07-06T17:11:15Z</time>
      </trkpt>
      <trkpt lat="44.12855" lon="6.35382">
        <ele>1016</ele>
        <time>2009-07-06T17:11:30Z</time>
      </trkpt>
      <trkpt lat="44.12842" lon="6.35363">
        <ele>1019</ele>
        <time>2009-07-06T17:11:46Z</time>
      </trkpt>
      <trkpt lat="44.1284" lon="6.3536">
        <ele>1019</ele>
        <time>2009-07-06T17:11:48Z</time>
      </trkpt>
      <trkpt lat="44.12837" lon="6.35355">
        <ele>1019</ele>
        <time>2009-07-06T17:11:52Z</time>
      </trkpt>
      <trkpt lat="44.1282" lon="6.35337">
        <ele>1022</ele>
        <time>2009-07-06T17:12:08Z</time>
      </trkpt>
      <trkpt lat="44.12815" lon="6.35337">
        <ele>1022</ele>
        <time>2009-07-06T17:12:13Z</time>
      </trkpt>
      <trkpt lat="44.12812" lon="6.35338">
        <ele>1023</ele>
        <time>2009-07-06T17:12:15Z</time>
      </trkpt>
      <trkpt lat="44.12798" lon="6.35353">
        <ele>1024</ele>
        <time>2009-07-06T17:12:29Z</time>
      </trkpt>
      <trkpt lat="44.12783" lon="6.3536">
        <ele>1026</ele>
        <time>2009-07-06T17:12:42Z</time>
      </trkpt>
      <trkpt lat="44.12755" lon="6.35358">
        <ele>1027</ele>
        <time>2009-07-06T17:12:56Z</time>
      </trkpt>
      <trkpt lat="44.12738" lon="6.35345">
        <ele>1029</ele>
        <time>2009-07-06T17:13:10Z</time>
      </trkpt>
      <trkpt lat="44.12717" lon="6.35342">
        <ele>1031</ele>
        <time>2009-07-06T17:13:24Z</time>
      </trkpt>
      <trkpt lat="44.12715" lon="6.3535">
        <ele>1032</ele>
        <time>2009-07-06T17:13:29Z</time>
      </trkpt>
      <trkpt lat="44.12717" lon="6.35357">
        <ele>1033</ele>
        <time>2009-07-06T17:13:33Z</time>
      </trkpt>
      <trkpt lat="44.1272" lon="6.35363">
        <ele>1033</ele>
        <time>2009-07-06T17:13:38Z</time>
      </trkpt>
      <trkpt lat="44.12715" lon="6.35392">
        <ele>1035</ele>
        <time>2009-07-06T17:13:55Z</time>
      </trkpt>
      <trkpt lat="44.12715" lon="6.35407">
        <ele>1036</ele>
        <time>2009-07-06T17:14:05Z</time>
      </trkpt>
      <trkpt lat="44.12713" lon="6.35413">
        <ele>1037</ele>
        <time>2009-07-06T17:14:09Z</time>
      </trkpt>
      <trkpt lat="44.12708" lon="6.35442">
        <ele>1039</ele>
        <time>2009-07-06T17:14:27Z</time>
      </trkpt>
      <trkpt lat="44.12707" lon="6.35442">
        <ele>1039</ele>
        <time>2009-07-06T17:14:28Z</time>
      </trkpt>
      <trkpt lat="44.12707" lon="6.3546">
        <ele>1041</ele>
        <time>2009-07-06T17:14:40Z</time>
      </trkpt>
      <trkpt lat="44.12712" lon="6.35488">
        <ele>1044</ele>
        <time>2009-07-06T17:14:57Z</time>
      </trkpt>
      <trkpt lat="44.12712" lon="6.35492">
        <ele>1044</ele>
        <time>2009-07-06T17:14:59Z</time>
      </trkpt>
      <trkpt lat="44.12697" lon="6.35505">
        <ele>1046</ele>
        <time>2009-07-06T17:15:15Z</time>
      </trkpt>
      <trkpt lat="44.12677" lon="6.355">
        <ele>1047</ele>
        <time>2009-07-06T17:15:28Z</time>
      </trkpt>
      <trkpt lat="44.12668" lon="6.35488">
        <ele>1048</ele>
        <time>2009-07-06T17:15:41Z</time>
      </trkpt>
      <trkpt lat="44.12663" lon="6.35482">
        <ele>1049</ele>
        <time>2009-07-06T17:15:47Z</time>
      </trkpt>
      <trkpt lat="44.12652" lon="6.35477">
        <ele>1051</ele>
        <time>2009-07-06T17:16:00Z</time>
      </trkpt>
      <trkpt lat="44.1265" lon="6.35478">
        <ele>1051</ele>
        <time>2009-07-06T17:16:04Z</time>
      </trkpt>
      <trkpt lat="44.12647" lon="6.35483">
        <ele>1052</ele>
        <time>2009-07-06T17:16:08Z</time>
      </trkpt>
      <trkpt lat="44.12642" lon="6.3551">
        <ele>1053</ele>
        <time>2009-07-06T17:16:26Z</time>
      </trkpt>
      <trkpt lat="44.1264" lon="6.35518">
        <ele>1054</ele>
        <time>2009-07-06T17:16:31Z</time>
      </trkpt>
      <trkpt lat="44.1264" lon="6.35532">
        <ele>1055</ele>
        <time>2009-07-06T17:16:42Z</time>
      </trkpt>
      <trkpt lat="44.12638" lon="6.35535">
        <ele>1055</ele>
        <time>2009-07-06T17:16:44Z</time>
      </trkpt>
      <trkpt lat="44.12635" lon="6.35545">
        <ele>1056</ele>
        <time>2009-07-06T17:16:51Z</time>
      </trkpt>
      <trkpt lat="44.1263" lon="6.35568">
        <ele>1058</ele>
        <time>2009-07-06T17:17:08Z</time>
      </trkpt>
      <trkpt lat="44.1262" lon="6.35578">
        <ele>1059</ele>
        <time>2009-07-06T17:17:17Z</time>
      </trkpt>
      <trkpt lat="44.1261" lon="6.35593">
        <ele>1061</ele>
        <time>2009-07-06T17:17:32Z</time>
      </trkpt>
      <trkpt lat="44.12607" lon="6.35602">
        <ele>1062</ele>
        <time>2009-07-06T17:17:38Z</time>
      </trkpt>
      <trkpt lat="44.126" lon="6.35618">
        <ele>1063</ele>
        <time>2009-07-06T17:17:51Z</time>
      </trkpt>
      <trkpt lat="44.1259" lon="6.35628">
        <ele>1065</ele>
        <time>2009-07-06T17:18:06Z</time>
      </trkpt>
      <trkpt lat="44.12572" lon="6.35633">
        <ele>1066</ele>
        <time>2009-07-06T17:18:20Z</time>
      </trkpt>
      <trkpt lat="44.12558" lon="6.35645">
        <ele>1068</ele>
        <time>2009-07-06T17:18:37Z</time>
      </trkpt>
      <trkpt lat="44.12545" lon="6.35657">
        <ele>1069</ele>
        <time>2009-07-06T17:18:52Z</time>
      </trkpt>
      <trkpt lat="44.1254" lon="6.3566">
        <ele>1069</ele>
        <time>2009-07-06T17:18:57Z</time>
      </trkpt>
      <trkpt lat="44.12538" lon="6.35663">
        <ele>1069</ele>
        <time>2009-07-06T17:19:00Z</time>
      </trkpt>
      <trkpt lat="44.12535" lon="6.35687">
        <ele>1072</ele>
        <time>2009-07-06T17:19:16Z</time>
      </trkpt>
      <trkpt lat="44.12537" lon="6.35698">
        <ele>1072</ele>
        <time>2009-07-06T17:19:23Z</time>
      </trkpt>
      <trkpt lat="44.12552" lon="6.35715">
        <ele>1073</ele>
        <time>2009-07-06T17:19:37Z</time>
      </trkpt>
      <trkpt lat="44.1256" lon="6.3572">
        <ele>1074</ele>
        <time>2009-07-06T17:19:43Z</time>
      </trkpt>
      <trkpt lat="44.12578" lon="6.35733">
        <ele>1076</ele>
        <time>2009-07-06T17:19:58Z</time>
      </trkpt>
      <trkpt lat="44.12587" lon="6.35738">
        <ele>1076</ele>
        <time>2009-07-06T17:20:04Z</time>
      </trkpt>
      <trkpt lat="44.12588" lon="6.35738">
        <ele>1076</ele>
        <time>2009-07-06T17:20:18Z</time>
      </trkpt>
      <trkpt lat="44.12587" lon="6.35742">
        <ele>1077</ele>
        <time>2009-07-06T17:21:08Z</time>
      </trkpt>
      <trkpt lat="44.12587" lon="6.35767">
        <ele>1078</ele>
        <time>2009-07-06T17:21:20Z</time>
      </trkpt>
      <trkpt lat="44.12565" lon="6.35818">
        <ele>1080</ele>
        <time>2009-07-06T17:21:36Z</time>
      </trkpt>
      <trkpt lat="44.12557" lon="6.35868">
        <ele>1082</ele>
        <time>2009-07-06T17:21:50Z</time>
      </trkpt>
      <trkpt lat="44.12553" lon="6.35915">
        <ele>1084</ele>
        <time>2009-07-06T17:22:04Z</time>
      </trkpt>
      <trkpt lat="44.12532" lon="6.3594">
        <ele>1085</ele>
        <time>2009-07-06T17:22:17Z</time>
      </trkpt>
      <trkpt lat="44.12525" lon="6.35948">
        <ele>1086</ele>
        <time>2009-07-06T17:22:31Z</time>
      </trkpt>
      <trkpt lat="44.12512" lon="6.35972">
        <ele>1087</ele>
        <time>2009-07-06T17:23:45Z</time>
      </trkpt>
      <trkpt lat="44.12513" lon="6.36017">
        <ele>1089</ele>
        <time>2009-07-06T17:24:00Z</time>
      </trkpt>
      <trkpt lat="44.12513" lon="6.36072">
        <ele>1091</ele>
        <time>2009-07-06T17:24:16Z</time>
      </trkpt>
      <trkpt lat="44.12522" lon="6.3611">
        <ele>1092</ele>
        <time>2009-07-06T17:24:30Z</time>
      </trkpt>
      <trkpt lat="44.12537" lon="6.36133">
        <ele>1094</ele>
        <time>2009-07-06T17:24:43Z</time>
      </trkpt>
      <trkpt lat="44.1254" lon="6.36145">
        <ele>1095</ele>
        <time>2009-07-06T17:24:48Z</time>
      </trkpt>
      <trkpt lat="44.12545" lon="6.3616">
        <ele>1096</ele>
        <time>2009-07-06T17:24:57Z</time>
      </trkpt>
      <trkpt lat="44.12548" lon="6.36168">
        <ele>1096</ele>
        <time>2009-07-06T17:25:01Z</time>
      </trkpt>
      <trkpt lat="44.12563" lon="6.36203">
        <ele>1099</ele>
        <time>2009-07-06T17:25:19Z</time>
      </trkpt>
      <trkpt lat="44.12568" lon="6.36213">
        <ele>1099</ele>
        <time>2009-07-06T17:25:25Z</time>
      </trkpt>
      <trkpt lat="44.12572" lon="6.36222">
        <ele>1100</ele>
        <time>2009-07-06T17:25:30Z</time>
      </trkpt>
      <trkpt lat="44.12572" lon="6.3624">
        <ele>1102</ele>
        <time>2009-07-06T17:25:42Z</time>
      </trkpt>
      <trkpt lat="44.12575" lon="6.36248">
        <ele>1104</ele>
        <time>2009-07-06T17:25:56Z</time>
      </trkpt>
      <trkpt lat="44.12568" lon="6.36268">
        <ele>1106</ele>
        <time>2009-07-06T17:27:57Z</time>
      </trkpt>
      <trkpt lat="44.12568" lon="6.36293">
        <ele>1107</ele>
        <time>2009-07-06T17:28:09Z</time>
      </trkpt>
      <trkpt lat="44.1257" lon="6.36303">
        <ele>1108</ele>
        <time>2009-07-06T17:28:14Z</time>
      </trkpt>
      <trkpt lat="44.12572" lon="6.36307">
        <ele>1108</ele>
        <time>2009-07-06T17:28:16Z</time>
      </trkpt>
      <trkpt lat="44.12572" lon="6.36318">
        <ele>1109</ele>
        <time>2009-07-06T17:28:21Z</time>
      </trkpt>
      <trkpt lat="44.12572" lon="6.36337">
        <ele>1110</ele>
        <time>2009-07-06T17:28:31Z</time>
      </trkpt>
      <trkpt lat="44.12573" lon="6.36363">
        <ele>1111</ele>
        <time>2009-07-06T17:28:47Z</time>
      </trkpt>
      <trkpt lat="44.1258" lon="6.36388">
        <ele>1113</ele>
        <time>2009-07-06T17:28:59Z</time>
      </trkpt>
      <trkpt lat="44.1257" lon="6.3642">
        <ele>1113</ele>
        <time>2009-07-06T17:29:14Z</time>
      </trkpt>
      <trkpt lat="44.12543" lon="6.36448">
        <ele>1114</ele>
        <time>2009-07-06T17:29:27Z</time>
      </trkpt>
      <trkpt lat="44.12525" lon="6.3648">
        <ele>1115</ele>
        <time>2009-07-06T17:29:39Z</time>
      </trkpt>
      <trkpt lat="44.12525" lon="6.36485">
        <ele>1115</ele>
        <time>2009-07-06T17:29:41Z</time>
      </trkpt>
      <trkpt lat="44.12532" lon="6.365">
        <ele>1116</ele>
        <time>2009-07-06T17:29:46Z</time>
      </trkpt>
      <trkpt lat="44.12535" lon="6.3651">
        <ele>1117</ele>
        <time>2009-07-06T17:29:50Z</time>
      </trkpt>
      <trkpt lat="44.12537" lon="6.36518">
        <ele>1117</ele>
        <time>2009-07-06T17:29:54Z</time>
      </trkpt>
      <trkpt lat="44.12537" lon="6.36522">
        <ele>1117</ele>
        <time>2009-07-06T17:29:56Z</time>
      </trkpt>
      <trkpt lat="44.1255" lon="6.36552">
        <ele>1120</ele>
        <time>2009-07-06T17:30:09Z</time>
      </trkpt>
      <trkpt lat="44.12552" lon="6.36553">
        <ele>1120</ele>
        <time>2009-07-06T17:30:10Z</time>
      </trkpt>
      <trkpt lat="44.1257" lon="6.36583">
        <ele>1123</ele>
        <time>2009-07-06T17:30:26Z</time>
      </trkpt>
      <trkpt lat="44.1257" lon="6.36588">
        <ele>1123</ele>
        <time>2009-07-06T17:30:29Z</time>
      </trkpt>
      <trkpt lat="44.1258" lon="6.36608">
        <ele>1126</ele>
        <time>2009-07-06T17:30:43Z</time>
      </trkpt>
      <trkpt lat="44.12588" lon="6.3663">
        <ele>1127</ele>
        <time>2009-07-06T17:30:55Z</time>
      </trkpt>
      <trkpt lat="44.12592" lon="6.36642">
        <ele>1129</ele>
        <time>2009-07-06T17:31:03Z</time>
      </trkpt>
      <trkpt lat="44.12592" lon="6.36648">
        <ele>1130</ele>
        <time>2009-07-06T17:31:07Z</time>
      </trkpt>
      <trkpt lat="44.12585" lon="6.36678">
        <ele>1133</ele>
        <time>2009-07-06T17:31:21Z</time>
      </trkpt>
      <trkpt lat="44.12568" lon="6.36683">
        <ele>1134</ele>
        <time>2009-07-06T17:31:33Z</time>
      </trkpt>
      <trkpt lat="44.12558" lon="6.367">
        <ele>1137</ele>
        <time>2009-07-06T17:31:47Z</time>
      </trkpt>
      <trkpt lat="44.12545" lon="6.36723">
        <ele>1139</ele>
        <time>2009-07-06T17:32:01Z</time>
      </trkpt>
      <trkpt lat="44.12527" lon="6.36745">
        <ele>1143</ele>
        <time>2009-07-06T17:32:11Z</time>
      </trkpt>
      <trkpt lat="44.12507" lon="6.3677">
        <ele>1146</ele>
        <time>2009-07-06T17:32:20Z</time>
      </trkpt>
      <trkpt lat="44.12502" lon="6.36778">
        <ele>1147</ele>
        <time>2009-07-06T17:32:22Z</time>
      </trkpt>
      <trkpt lat="44.12498" lon="6.36783">
        <ele>1147</ele>
        <time>2009-07-06T17:32:24Z</time>
      </trkpt>
      <trkpt lat="44.12482" lon="6.36788">
        <ele>1149</ele>
        <time>2009-07-06T17:32:35Z</time>
      </trkpt>
      <trkpt lat="44.1247" lon="6.36785">
        <ele>1151</ele>
        <time>2009-07-06T17:32:45Z</time>
      </trkpt>
      <trkpt lat="44.12465" lon="6.36787">
        <ele>1152</ele>
        <time>2009-07-06T17:32:50Z</time>
      </trkpt>
      <trkpt lat="44.12452" lon="6.36798">
        <ele>1154</ele>
        <time>2009-07-06T17:33:03Z</time>
      </trkpt>
      <trkpt lat="44.12443" lon="6.3681">
        <ele>1155</ele>
        <time>2009-07-06T17:33:15Z</time>
      </trkpt>
      <trkpt lat="44.12435" lon="6.36822">
        <ele>1157</ele>
        <time>2009-07-06T17:33:28Z</time>
      </trkpt>
      <trkpt lat="44.12422" lon="6.3683">
        <ele>1158</ele>
        <time>2009-07-06T17:33:41Z</time>
      </trkpt>
      <trkpt lat="44.1241" lon="6.36842">
        <ele>1160</ele>
        <time>2009-07-06T17:33:54Z</time>
      </trkpt>
      <trkpt lat="44.12403" lon="6.36857">
        <ele>1161</ele>
        <time>2009-07-06T17:34:04Z</time>
      </trkpt>
      <trkpt lat="44.12408" lon="6.3688">
        <ele>1163</ele>
        <time>2009-07-06T17:34:18Z</time>
      </trkpt>
      <trkpt lat="44.12408" lon="6.36883">
        <ele>1163</ele>
        <time>2009-07-06T17:34:20Z</time>
      </trkpt>
      <trkpt lat="44.12408" lon="6.36903">
        <ele>1166</ele>
        <time>2009-07-06T17:34:36Z</time>
      </trkpt>
      <trkpt lat="44.12407" lon="6.36913">
        <ele>1166</ele>
        <time>2009-07-06T17:34:52Z</time>
      </trkpt>
      <trkpt lat="44.1241" lon="6.36923">
        <ele>1170</ele>
        <time>2009-07-06T17:38:44Z</time>
      </trkpt>
      <trkpt lat="44.12405" lon="6.36952">
        <ele>1172</ele>
        <time>2009-07-06T17:38:57Z</time>
      </trkpt>
      <trkpt lat="44.12398" lon="6.36973">
        <ele>1174</ele>
        <time>2009-07-06T17:39:08Z</time>
      </trkpt>
      <trkpt lat="44.12395" lon="6.36997">
        <ele>1176</ele>
        <time>2009-07-06T17:39:22Z</time>
      </trkpt>
      <trkpt lat="44.12393" lon="6.37023">
        <ele>1179</ele>
        <time>2009-07-06T17:39:38Z</time>
      </trkpt>
      <trkpt lat="44.1239" lon="6.37047">
        <ele>1181</ele>
        <time>2009-07-06T17:39:51Z</time>
      </trkpt>
      <trkpt lat="44.1239" lon="6.37053">
        <ele>1181</ele>
        <time>2009-07-06T17:39:55Z</time>
      </trkpt>
      <trkpt lat="44.12388" lon="6.37072">
        <ele>1183</ele>
        <time>2009-07-06T17:40:05Z</time>
      </trkpt>
      <trkpt lat="44.12387" lon="6.37077">
        <ele>1184</ele>
        <time>2009-07-06T17:40:08Z</time>
      </trkpt>
      <trkpt lat="44.12387" lon="6.37082">
        <ele>1184</ele>
        <time>2009-07-06T17:40:11Z</time>
      </trkpt>
      <trkpt lat="44.12387" lon="6.37088">
        <ele>1185</ele>
        <time>2009-07-06T17:40:15Z</time>
      </trkpt>
      <trkpt lat="44.12385" lon="6.37102">
        <ele>1186</ele>
        <time>2009-07-06T17:40:23Z</time>
      </trkpt>
      <trkpt lat="44.12385" lon="6.3711">
        <ele>1187</ele>
        <time>2009-07-06T17:40:28Z</time>
      </trkpt>
      <trkpt lat="44.12383" lon="6.3712">
        <ele>1188</ele>
        <time>2009-07-06T17:40:34Z</time>
      </trkpt>
      <trkpt lat="44.12378" lon="6.37135">
        <ele>1190</ele>
        <time>2009-07-06T17:40:41Z</time>
      </trkpt>
      <trkpt lat="44.12377" lon="6.37158">
        <ele>1192</ele>
        <time>2009-07-06T17:40:53Z</time>
      </trkpt>
      <trkpt lat="44.12377" lon="6.37167">
        <ele>1193</ele>
        <time>2009-07-06T17:40:58Z</time>
      </trkpt>
      <trkpt lat="44.12375" lon="6.37175">
        <ele>1193</ele>
        <time>2009-07-06T17:41:02Z</time>
      </trkpt>
      <trkpt lat="44.12373" lon="6.37182">
        <ele>1194</ele>
        <time>2009-07-06T17:41:07Z</time>
      </trkpt>
      <trkpt lat="44.12362" lon="6.37198">
        <ele>1196</ele>
        <time>2009-07-06T17:41:20Z</time>
      </trkpt>
      <trkpt lat="44.12357" lon="6.372">
        <ele>1196</ele>
        <time>2009-07-06T17:41:24Z</time>
      </trkpt>
      <trkpt lat="44.12353" lon="6.37202">
        <ele>1196</ele>
        <time>2009-07-06T17:41:26Z</time>
      </trkpt>
      <trkpt lat="44.12342" lon="6.37212">
        <ele>1198</ele>
        <time>2009-07-06T17:41:38Z</time>
      </trkpt>
      <trkpt lat="44.12328" lon="6.37233">
        <ele>1201</ele>
        <time>2009-07-06T17:41:58Z</time>
      </trkpt>
      <trkpt lat="44.12325" lon="6.37247">
        <ele>1202</ele>
        <time>2009-07-06T17:42:06Z</time>
      </trkpt>
      <trkpt lat="44.12323" lon="6.37252">
        <ele>1203</ele>
        <time>2009-07-06T17:42:09Z</time>
      </trkpt>
      <trkpt lat="44.12307" lon="6.3727">
        <ele>1205</ele>
        <time>2009-07-06T17:42:24Z</time>
      </trkpt>
      <trkpt lat="44.12293" lon="6.3728">
        <ele>1206</ele>
        <time>2009-07-06T17:42:34Z</time>
      </trkpt>
      <trkpt lat="44.12287" lon="6.37283">
        <ele>1207</ele>
        <time>2009-07-06T17:42:51Z</time>
      </trkpt>
      <trkpt lat="44.12282" lon="6.37287">
        <ele>1208</ele>
        <time>2009-07-06T17:45:27Z</time>
      </trkpt>
      <trkpt lat="44.12272" lon="6.37293">
        <ele>1209</ele>
        <time>2009-07-06T17:46:53Z</time>
      </trkpt>
      <trkpt lat="44.12248" lon="6.37305">
        <ele>1210</ele>
        <time>2009-07-06T17:47:07Z</time>
      </trkpt>
      <trkpt lat="44.12225" lon="6.3733">
        <ele>1209</ele>
        <time>2009-07-06T17:47:23Z</time>
      </trkpt>
      <trkpt lat="44.12198" lon="6.37355">
        <ele>1207</ele>
        <time>2009-07-06T17:47:32Z</time>
      </trkpt>
      <trkpt lat="44.12188" lon="6.37367">
        <ele>1206</ele>
        <time>2009-07-06T17:47:35Z</time>
      </trkpt>
      <trkpt lat="44.12172" lon="6.37395">
        <ele>1203</ele>
        <time>2009-07-06T17:47:41Z</time>
      </trkpt>
      <trkpt lat="44.12142" lon="6.3741">
        <ele>1200</ele>
        <time>2009-07-06T17:47:51Z</time>
      </trkpt>
      <trkpt lat="44.12097" lon="6.37415">
        <ele>1197</ele>
        <time>2009-07-06T17:48:02Z</time>
      </trkpt>
      <trkpt lat="44.12092" lon="6.37415">
        <ele>1196</ele>
        <time>2009-07-06T17:48:03Z</time>
      </trkpt>
      <trkpt lat="44.12083" lon="6.3742">
        <ele>1196</ele>
        <time>2009-07-06T17:48:05Z</time>
      </trkpt>
      <trkpt lat="44.12058" lon="6.37435">
        <ele>1193</ele>
        <time>2009-07-06T17:48:11Z</time>
      </trkpt>
      <trkpt lat="44.12033" lon="6.37453">
        <ele>1191</ele>
        <time>2009-07-06T17:48:17Z</time>
      </trkpt>
      <trkpt lat="44.12012" lon="6.37478">
        <ele>1190</ele>
        <time>2009-07-06T17:48:23Z</time>
      </trkpt>
      <trkpt lat="44.1199" lon="6.37502">
        <ele>1190</ele>
        <time>2009-07-06T17:48:30Z</time>
      </trkpt>
      <trkpt lat="44.1198" lon="6.37522">
        <ele>1189</ele>
        <time>2009-07-06T17:48:34Z</time>
      </trkpt>
      <trkpt lat="44.11978" lon="6.37528">
        <ele>1189</ele>
        <time>2009-07-06T17:48:36Z</time>
      </trkpt>
      <trkpt lat="44.12005" lon="6.37567">
        <ele>1189</ele>
        <time>2009-07-06T17:48:46Z</time>
      </trkpt>
      <trkpt lat="44.12028" lon="6.37602">
        <ele>1189</ele>
        <time>2009-07-06T17:48:56Z</time>
      </trkpt>
      <trkpt lat="44.12045" lon="6.37628">
        <ele>1192</ele>
        <time>2009-07-06T17:49:08Z</time>
      </trkpt>
      <trkpt lat="44.12045" lon="6.37633">
        <ele>1192</ele>
        <time>2009-07-06T17:49:32Z</time>
      </trkpt>
      <trkpt lat="44.12045" lon="6.37642">
        <ele>1193</ele>
        <time>2009-07-06T17:49:38Z</time>
      </trkpt>
      <trkpt lat="44.12062" lon="6.37677">
        <ele>1195</ele>
        <time>2009-07-06T17:49:54Z</time>
      </trkpt>
      <trkpt lat="44.12067" lon="6.3768">
        <ele>1196</ele>
        <time>2009-07-06T17:49:58Z</time>
      </trkpt>
      <trkpt lat="44.12072" lon="6.37692">
        <ele>1197</ele>
        <time>2009-07-06T17:50:03Z</time>
      </trkpt>
      <trkpt lat="44.12078" lon="6.37722">
        <ele>1199</ele>
        <time>2009-07-06T17:50:18Z</time>
      </trkpt>
      <trkpt lat="44.12085" lon="6.37742">
        <ele>1201</ele>
        <time>2009-07-06T17:50:32Z</time>
      </trkpt>
      <trkpt lat="44.12093" lon="6.37763">
        <ele>1202</ele>
        <time>2009-07-06T17:50:44Z</time>
      </trkpt>
      <trkpt lat="44.12097" lon="6.37785">
        <ele>1205</ele>
        <time>2009-07-06T17:50:59Z</time>
      </trkpt>
      <trkpt lat="44.121" lon="6.37792">
        <ele>1205</ele>
        <time>2009-07-06T17:51:02Z</time>
      </trkpt>
      <trkpt lat="44.121" lon="6.37812">
        <ele>1206</ele>
        <time>2009-07-06T17:51:14Z</time>
      </trkpt>
      <trkpt lat="44.12103" lon="6.37833">
        <ele>1208</ele>
        <time>2009-07-06T17:51:29Z</time>
      </trkpt>
      <trkpt lat="44.12103" lon="6.37843">
        <ele>1209</ele>
        <time>2009-07-06T17:51:34Z</time>
      </trkpt>
      <trkpt lat="44.1211" lon="6.37865">
        <ele>1211</ele>
        <time>2009-07-06T17:51:49Z</time>
      </trkpt>
      <trkpt lat="44.12117" lon="6.37892">
        <ele>1213</ele>
        <time>2009-07-06T17:52:05Z</time>
      </trkpt>
      <trkpt lat="44.12112" lon="6.37903">
        <ele>1214</ele>
        <time>2009-07-06T17:52:14Z</time>
      </trkpt>
      <trkpt lat="44.12108" lon="6.37905">
        <ele>1215</ele>
        <time>2009-07-06T17:52:17Z</time>
      </trkpt>
      <trkpt lat="44.12097" lon="6.37927">
        <ele>1218</ele>
        <time>2009-07-06T17:52:34Z</time>
      </trkpt>
      <trkpt lat="44.12087" lon="6.37935">
        <ele>1220</ele>
        <time>2009-07-06T17:52:48Z</time>
      </trkpt>
      <trkpt lat="44.12077" lon="6.37952">
        <ele>1221</ele>
        <time>2009-07-06T17:53:03Z</time>
      </trkpt>
      <trkpt lat="44.1207" lon="6.37975">
        <ele>1222</ele>
        <time>2009-07-06T17:53:17Z</time>
      </trkpt>
      <trkpt lat="44.12062" lon="6.37997">
        <ele>1224</ele>
        <time>2009-07-06T17:53:30Z</time>
      </trkpt>
      <trkpt lat="44.12053" lon="6.38018">
        <ele>1226</ele>
        <time>2009-07-06T17:53:44Z</time>
      </trkpt>
      <trkpt lat="44.12045" lon="6.38033">
        <ele>1227</ele>
        <time>2009-07-06T17:53:55Z</time>
      </trkpt>
      <trkpt lat="44.12048" lon="6.3805">
        <ele>1228</ele>
        <time>2009-07-06T17:54:06Z</time>
      </trkpt>
      <trkpt lat="44.12058" lon="6.38075">
        <ele>1230</ele>
        <time>2009-07-06T17:54:21Z</time>
      </trkpt>
      <trkpt lat="44.12065" lon="6.38097">
        <ele>1232</ele>
        <time>2009-07-06T17:54:35Z</time>
      </trkpt>
      <trkpt lat="44.12065" lon="6.38103">
        <ele>1233</ele>
        <time>2009-07-06T17:54:40Z</time>
      </trkpt>
      <trkpt lat="44.12063" lon="6.38112">
        <ele>1234</ele>
        <time>2009-07-06T17:54:45Z</time>
      </trkpt>
      <trkpt lat="44.12047" lon="6.38128">
        <ele>1236</ele>
        <time>2009-07-06T17:55:02Z</time>
      </trkpt>
      <trkpt lat="44.12047" lon="6.38128">
        <ele>1236</ele>
        <time>2009-07-06T17:55:03Z</time>
      </trkpt>
      <trkpt lat="44.12033" lon="6.38142">
        <ele>1238</ele>
        <time>2009-07-06T17:55:19Z</time>
      </trkpt>
      <trkpt lat="44.12027" lon="6.38153">
        <ele>1239</ele>
        <time>2009-07-06T17:55:28Z</time>
      </trkpt>
      <trkpt lat="44.12025" lon="6.38183">
        <ele>1241</ele>
        <time>2009-07-06T17:55:44Z</time>
      </trkpt>
      <trkpt lat="44.12022" lon="6.38197">
        <ele>1242</ele>
        <time>2009-07-06T17:55:52Z</time>
      </trkpt>
      <trkpt lat="44.12005" lon="6.3822">
        <ele>1244</ele>
        <time>2009-07-06T17:56:09Z</time>
      </trkpt>
      <trkpt lat="44.12" lon="6.38233">
        <ele>1245</ele>
        <time>2009-07-06T17:56:16Z</time>
      </trkpt>
      <trkpt lat="44.11995" lon="6.38245">
        <ele>1246</ele>
        <time>2009-07-06T17:56:23Z</time>
      </trkpt>
      <trkpt lat="44.11987" lon="6.3827">
        <ele>1248</ele>
        <time>2009-07-06T17:56:38Z</time>
      </trkpt>
      <trkpt lat="44.11978" lon="6.38292">
        <ele>1249</ele>
        <time>2009-07-06T17:56:51Z</time>
      </trkpt>
      <trkpt lat="44.1197" lon="6.38313">
        <ele>1251</ele>
        <time>2009-07-06T17:57:04Z</time>
      </trkpt>
      <trkpt lat="44.1196" lon="6.38327">
        <ele>1252</ele>
        <time>2009-07-06T17:57:15Z</time>
      </trkpt>
      <trkpt lat="44.1195" lon="6.38343">
        <ele>1254</ele>
        <time>2009-07-06T17:57:29Z</time>
      </trkpt>
      <trkpt lat="44.11948" lon="6.38355">
        <ele>1255</ele>
        <time>2009-07-06T17:57:37Z</time>
      </trkpt>
      <trkpt lat="44.11935" lon="6.3837">
        <ele>1257</ele>
        <time>2009-07-06T17:57:54Z</time>
      </trkpt>
      <trkpt lat="44.11928" lon="6.38382">
        <ele>1258</ele>
        <time>2009-07-06T17:58:02Z</time>
      </trkpt>
      <trkpt lat="44.11925" lon="6.38393">
        <ele>1259</ele>
        <time>2009-07-06T17:58:10Z</time>
      </trkpt>
      <trkpt lat="44.11922" lon="6.38402">
        <ele>1259</ele>
        <time>2009-07-06T17:58:16Z</time>
      </trkpt>
      <trkpt lat="44.1192" lon="6.38403">
        <ele>1260</ele>
        <time>2009-07-06T17:58:18Z</time>
      </trkpt>
      <trkpt lat="44.1192" lon="6.38412">
        <ele>1260</ele>
        <time>2009-07-06T17:58:22Z</time>
      </trkpt>
      <trkpt lat="44.11908" lon="6.38435">
        <ele>1262</ele>
        <time>2009-07-06T17:58:39Z</time>
      </trkpt>
      <trkpt lat="44.11903" lon="6.38453">
        <ele>1264</ele>
        <time>2009-07-06T17:58:50Z</time>
      </trkpt>
      <trkpt lat="44.11902" lon="6.38458">
        <ele>1264</ele>
        <time>2009-07-06T17:58:54Z</time>
      </trkpt>
      <trkpt lat="44.11888" lon="6.38472">
        <ele>1266</ele>
        <time>2009-07-06T17:59:09Z</time>
      </trkpt>
      <trkpt lat="44.11883" lon="6.38482">
        <ele>1268</ele>
        <time>2009-07-06T17:59:16Z</time>
      </trkpt>
      <trkpt lat="44.11878" lon="6.38502">
        <ele>1269</ele>
        <time>2009-07-06T17:59:31Z</time>
      </trkpt>
      <trkpt lat="44.11873" lon="6.38505">
        <ele>1270</ele>
        <time>2009-07-06T17:59:36Z</time>
      </trkpt>
      <trkpt lat="44.11872" lon="6.3851">
        <ele>1271</ele>
        <time>2009-07-06T17:59:56Z</time>
      </trkpt>
      <trkpt lat="44.1187" lon="6.38523">
        <ele>1273</ele>
        <time>2009-07-06T18:04:40Z</time>
      </trkpt>
      <trkpt lat="44.1187" lon="6.38528">
        <ele>1274</ele>
        <time>2009-07-06T18:04:43Z</time>
      </trkpt>
      <trkpt lat="44.11868" lon="6.38538">
        <ele>1275</ele>
        <time>2009-07-06T18:04:49Z</time>
      </trkpt>
      <trkpt lat="44.11867" lon="6.38565">
        <ele>1278</ele>
        <time>2009-07-06T18:05:03Z</time>
      </trkpt>
      <trkpt lat="44.11868" lon="6.38568">
        <ele>1278</ele>
        <time>2009-07-06T18:05:05Z</time>
      </trkpt>
      <trkpt lat="44.11868" lon="6.38577">
        <ele>1279</ele>
        <time>2009-07-06T18:05:09Z</time>
      </trkpt>
      <trkpt lat="44.1187" lon="6.38618">
        <ele>1282</ele>
        <time>2009-07-06T18:05:25Z</time>
      </trkpt>
      <trkpt lat="44.11875" lon="6.38652">
        <ele>1284</ele>
        <time>2009-07-06T18:05:38Z</time>
      </trkpt>
      <trkpt lat="44.11873" lon="6.38688">
        <ele>1286</ele>
        <time>2009-07-06T18:05:54Z</time>
      </trkpt>
      <trkpt lat="44.11868" lon="6.3872">
        <ele>1288</ele>
        <time>2009-07-06T18:06:09Z</time>
      </trkpt>
      <trkpt lat="44.11862" lon="6.38727">
        <ele>1289</ele>
        <time>2009-07-06T18:06:14Z</time>
      </trkpt>
      <trkpt lat="44.11845" lon="6.38738">
        <ele>1290</ele>
        <time>2009-07-06T18:06:27Z</time>
      </trkpt>
      <trkpt lat="44.11838" lon="6.38742">
        <ele>1291</ele>
        <time>2009-07-06T18:06:32Z</time>
      </trkpt>
      <trkpt lat="44.11832" lon="6.38748">
        <ele>1292</ele>
        <time>2009-07-06T18:06:39Z</time>
      </trkpt>
      <trkpt lat="44.11825" lon="6.38753">
        <ele>1293</ele>
        <time>2009-07-06T18:06:45Z</time>
      </trkpt>
      <trkpt lat="44.11822" lon="6.38755">
        <ele>1293</ele>
        <time>2009-07-06T18:06:47Z</time>
      </trkpt>
      <trkpt lat="44.11808" lon="6.38762">
        <ele>1295</ele>
        <time>2009-07-06T18:06:59Z</time>
      </trkpt>
      <trkpt lat="44.11803" lon="6.38765">
        <ele>1295</ele>
        <time>2009-07-06T18:07:03Z</time>
      </trkpt>
      <trkpt lat="44.11797" lon="6.38765">
        <ele>1296</ele>
        <time>2009-07-06T18:07:07Z</time>
      </trkpt>
      <trkpt lat="44.11787" lon="6.38763">
        <ele>1296</ele>
        <time>2009-07-06T18:07:15Z</time>
      </trkpt>
      <trkpt lat="44.11775" lon="6.3876">
        <ele>1298</ele>
        <time>2009-07-06T18:07:28Z</time>
      </trkpt>
      <trkpt lat="44.11767" lon="6.38757">
        <ele>1298</ele>
        <time>2009-07-06T18:07:33Z</time>
      </trkpt>
      <trkpt lat="44.11755" lon="6.38767">
        <ele>1300</ele>
        <time>2009-07-06T18:07:48Z</time>
      </trkpt>
      <trkpt lat="44.11743" lon="6.3878">
        <ele>1303</ele>
        <time>2009-07-06T18:08:03Z</time>
      </trkpt>
      <trkpt lat="44.11742" lon="6.38783">
        <ele>1303</ele>
        <time>2009-07-06T18:08:05Z</time>
      </trkpt>
      <trkpt lat="44.11735" lon="6.38788">
        <ele>1304</ele>
        <time>2009-07-06T18:08:10Z</time>
      </trkpt>
      <trkpt lat="44.11732" lon="6.3879">
        <ele>1304</ele>
        <time>2009-07-06T18:08:14Z</time>
      </trkpt>
      <trkpt lat="44.11712" lon="6.38805">
        <ele>1307</ele>
        <time>2009-07-06T18:08:32Z</time>
      </trkpt>
      <trkpt lat="44.11698" lon="6.3882">
        <ele>1308</ele>
        <time>2009-07-06T18:08:45Z</time>
      </trkpt>
      <trkpt lat="44.11688" lon="6.38842">
        <ele>1311</ele>
        <time>2009-07-06T18:09:00Z</time>
      </trkpt>
      <trkpt lat="44.11677" lon="6.38858">
        <ele>1313</ele>
        <time>2009-07-06T18:09:13Z</time>
      </trkpt>
      <trkpt lat="44.11675" lon="6.3886">
        <ele>1313</ele>
        <time>2009-07-06T18:09:16Z</time>
      </trkpt>
      <trkpt lat="44.11667" lon="6.38867">
        <ele>1314</ele>
        <time>2009-07-06T18:09:25Z</time>
      </trkpt>
      <trkpt lat="44.11655" lon="6.38873">
        <ele>1316</ele>
        <time>2009-07-06T18:09:40Z</time>
      </trkpt>
      <trkpt lat="44.1165" lon="6.38878">
        <ele>1317</ele>
        <time>2009-07-06T18:09:47Z</time>
      </trkpt>
      <trkpt lat="44.11643" lon="6.38883">
        <ele>1318</ele>
        <time>2009-07-06T18:09:55Z</time>
      </trkpt>
      <trkpt lat="44.11642" lon="6.38883">
        <ele>1318</ele>
        <time>2009-07-06T18:09:57Z</time>
      </trkpt>
      <trkpt lat="44.11633" lon="6.38888">
        <ele>1319</ele>
        <time>2009-07-06T18:10:10Z</time>
      </trkpt>
      <trkpt lat="44.11627" lon="6.38895">
        <ele>1321</ele>
        <time>2009-07-06T18:10:20Z</time>
      </trkpt>
      <trkpt lat="44.11608" lon="6.38903">
        <ele>1323</ele>
        <time>2009-07-06T18:10:39Z</time>
      </trkpt>
      <trkpt lat="44.11592" lon="6.38905">
        <ele>1324</ele>
        <time>2009-07-06T18:10:54Z</time>
      </trkpt>
      <trkpt lat="44.11585" lon="6.38902">
        <ele>1325</ele>
        <time>2009-07-06T18:11:02Z</time>
      </trkpt>
      <trkpt lat="44.11572" lon="6.38895">
        <ele>1327</ele>
        <time>2009-07-06T18:11:17Z</time>
      </trkpt>
      <trkpt lat="44.11565" lon="6.3889">
        <ele>1327</ele>
        <time>2009-07-06T18:11:25Z</time>
      </trkpt>
      <trkpt lat="44.11552" lon="6.38898">
        <ele>1329</ele>
        <time>2009-07-06T18:11:38Z</time>
      </trkpt>
      <trkpt lat="44.11542" lon="6.38918">
        <ele>1331</ele>
        <time>2009-07-06T18:11:55Z</time>
      </trkpt>
      <trkpt lat="44.11533" lon="6.38923">
        <ele>1331</ele>
        <time>2009-07-06T18:12:03Z</time>
      </trkpt>
      <trkpt lat="44.11528" lon="6.38932">
        <ele>1332</ele>
        <time>2009-07-06T18:12:09Z</time>
      </trkpt>
      <trkpt lat="44.11515" lon="6.38947">
        <ele>1333</ele>
        <time>2009-07-06T18:12:25Z</time>
      </trkpt>
      <trkpt lat="44.11508" lon="6.38963">
        <ele>1335</ele>
        <time>2009-07-06T18:12:40Z</time>
      </trkpt>
      <trkpt lat="44.11502" lon="6.38973">
        <ele>1336</ele>
        <time>2009-07-06T18:12:59Z</time>
      </trkpt>
      <trkpt lat="44.11497" lon="6.38988">
        <ele>1338</ele>
        <time>2009-07-06T18:13:35Z</time>
      </trkpt>
      <trkpt lat="44.11483" lon="6.39007">
        <ele>1340</ele>
        <time>2009-07-06T18:13:52Z</time>
      </trkpt>
      <trkpt lat="44.11465" lon="6.39012">
        <ele>1342</ele>
        <time>2009-07-06T18:14:08Z</time>
      </trkpt>
      <trkpt lat="44.11455" lon="6.39012">
        <ele>1344</ele>
        <time>2009-07-06T18:14:18Z</time>
      </trkpt>
      <trkpt lat="44.11453" lon="6.3901">
        <ele>1344</ele>
        <time>2009-07-06T18:14:20Z</time>
      </trkpt>
      <trkpt lat="44.11435" lon="6.39005">
        <ele>1346</ele>
        <time>2009-07-06T18:14:36Z</time>
      </trkpt>
      <trkpt lat="44.11432" lon="6.39005">
        <ele>1346</ele>
        <time>2009-07-06T18:14:39Z</time>
      </trkpt>
      <trkpt lat="44.11415" lon="6.39">
        <ele>1348</ele>
        <time>2009-07-06T18:14:53Z</time>
      </trkpt>
      <trkpt lat="44.11412" lon="6.39">
        <ele>1349</ele>
        <time>2009-07-06T18:14:57Z</time>
      </trkpt>
      <trkpt lat="44.11403" lon="6.39">
        <ele>1350</ele>
        <time>2009-07-06T18:15:04Z</time>
      </trkpt>
      <trkpt lat="44.114" lon="6.39">
        <ele>1350</ele>
        <time>2009-07-06T18:15:06Z</time>
      </trkpt>
      <trkpt lat="44.11395" lon="6.39">
        <ele>1351</ele>
        <time>2009-07-06T18:15:12Z</time>
      </trkpt>
      <trkpt lat="44.11377" lon="6.38993">
        <ele>1353</ele>
        <time>2009-07-06T18:15:27Z</time>
      </trkpt>
      <trkpt lat="44.11375" lon="6.38992">
        <ele>1354</ele>
        <time>2009-07-06T18:15:29Z</time>
      </trkpt>
      <trkpt lat="44.11367" lon="6.38992">
        <ele>1355</ele>
        <time>2009-07-06T18:15:38Z</time>
      </trkpt>
      <trkpt lat="44.11348" lon="6.38992">
        <ele>1356</ele>
        <time>2009-07-06T18:15:54Z</time>
      </trkpt>
      <trkpt lat="44.11333" lon="6.38987">
        <ele>1358</ele>
        <time>2009-07-06T18:16:07Z</time>
      </trkpt>
      <trkpt lat="44.1133" lon="6.38983">
        <ele>1358</ele>
        <time>2009-07-06T18:16:11Z</time>
      </trkpt>
      <trkpt lat="44.11323" lon="6.38977">
        <ele>1359</ele>
        <time>2009-07-06T18:16:18Z</time>
      </trkpt>
      <trkpt lat="44.11317" lon="6.38967">
        <ele>1360</ele>
        <time>2009-07-06T18:16:27Z</time>
      </trkpt>
      <trkpt lat="44.11315" lon="6.38963">
        <ele>1360</ele>
        <time>2009-07-06T18:16:29Z</time>
      </trkpt>
      <trkpt lat="44.11302" lon="6.3895">
        <ele>1362</ele>
        <time>2009-07-06T18:16:44Z</time>
      </trkpt>
      <trkpt lat="44.11285" lon="6.38972">
        <ele>1363</ele>
        <time>2009-07-06T18:17:00Z</time>
      </trkpt>
      <trkpt lat="44.11267" lon="6.38973">
        <ele>1363</ele>
        <time>2009-07-06T18:17:13Z</time>
      </trkpt>
      <trkpt lat="44.11262" lon="6.38973">
        <ele>1363</ele>
        <time>2009-07-06T18:17:17Z</time>
      </trkpt>
      <trkpt lat="44.11232" lon="6.38975">
        <ele>1362</ele>
        <time>2009-07-06T18:17:35Z</time>
      </trkpt>
      <trkpt lat="44.11222" lon="6.38982">
        <ele>1362</ele>
        <time>2009-07-06T18:17:40Z</time>
      </trkpt>
      <trkpt lat="44.11238" lon="6.39002">
        <ele>1364</ele>
        <time>2009-07-06T18:17:49Z</time>
      </trkpt>
      <trkpt lat="44.11257" lon="6.39022">
        <ele>1366</ele>
        <time>2009-07-06T18:18:03Z</time>
      </trkpt>
      <trkpt lat="44.11288" lon="6.39042">
        <ele>1367</ele>
        <time>2009-07-06T18:18:18Z</time>
      </trkpt>
      <trkpt lat="44.1132" lon="6.39055">
        <ele>1366</ele>
        <time>2009-07-06T18:18:28Z</time>
      </trkpt>
      <trkpt lat="44.11348" lon="6.39068">
        <ele>1368</ele>
        <time>2009-07-06T18:18:41Z</time>
      </trkpt>
      <trkpt lat="44.11357" lon="6.39073">
        <ele>1368</ele>
        <time>2009-07-06T18:18:45Z</time>
      </trkpt>
      <trkpt lat="44.11423" lon="6.39078">
        <ele>1369</ele>
        <time>2009-07-06T18:18:57Z</time>
      </trkpt>
      <trkpt lat="44.11412" lon="6.39093">
        <ele>1370</ele>
        <time>2009-07-06T18:19:05Z</time>
      </trkpt>
      <trkpt lat="44.11408" lon="6.39107">
        <ele>1371</ele>
        <time>2009-07-06T18:19:11Z</time>
      </trkpt>
      <trkpt lat="44.11398" lon="6.39115">
        <ele>1371</ele>
        <time>2009-07-06T18:19:14Z</time>
      </trkpt>
      <trkpt lat="44.1135" lon="6.39162">
        <ele>1372</ele>
        <time>2009-07-06T18:19:28Z</time>
      </trkpt>
      <trkpt lat="44.11332" lon="6.39173">
        <ele>1372</ele>
        <time>2009-07-06T18:19:31Z</time>
      </trkpt>
      <trkpt lat="44.11315" lon="6.3921">
        <ele>1373</ele>
        <time>2009-07-06T18:19:44Z</time>
      </trkpt>
      <trkpt lat="44.11313" lon="6.39223">
        <ele>1373</ele>
        <time>2009-07-06T18:19:53Z</time>
      </trkpt>
      <trkpt lat="44.11317" lon="6.39237">
        <ele>1374</ele>
        <time>2009-07-06T18:20:03Z</time>
      </trkpt>
      <trkpt lat="44.1132" lon="6.39283">
        <ele>1376</ele>
        <time>2009-07-06T18:20:24Z</time>
      </trkpt>
      <trkpt lat="44.11325" lon="6.39322">
        <ele>1378</ele>
        <time>2009-07-06T18:20:43Z</time>
      </trkpt>
      <trkpt lat="44.11327" lon="6.39343">
        <ele>1379</ele>
        <time>2009-07-06T18:20:54Z</time>
      </trkpt>
      <trkpt lat="44.11325" lon="6.3937">
        <ele>1381</ele>
        <time>2009-07-06T18:21:08Z</time>
      </trkpt>
      <trkpt lat="44.11325" lon="6.39393">
        <ele>1383</ele>
        <time>2009-07-06T18:21:22Z</time>
      </trkpt>
      <trkpt lat="44.11325" lon="6.39407">
        <ele>1383</ele>
        <time>2009-07-06T18:21:29Z</time>
      </trkpt>
      <trkpt lat="44.11318" lon="6.3943">
        <ele>1385</ele>
        <time>2009-07-06T18:21:44Z</time>
      </trkpt>
      <trkpt lat="44.11318" lon="6.39433">
        <ele>1385</ele>
        <time>2009-07-06T18:21:45Z</time>
      </trkpt>
      <trkpt lat="44.11303" lon="6.39452">
        <ele>1386</ele>
        <time>2009-07-06T18:22:01Z</time>
      </trkpt>
      <trkpt lat="44.11293" lon="6.39468">
        <ele>1388</ele>
        <time>2009-07-06T18:22:14Z</time>
      </trkpt>
      <trkpt lat="44.11292" lon="6.39473">
        <ele>1388</ele>
        <time>2009-07-06T18:22:18Z</time>
      </trkpt>
      <trkpt lat="44.11292" lon="6.39478">
        <ele>1389</ele>
        <time>2009-07-06T18:22:20Z</time>
      </trkpt>
      <trkpt lat="44.1129" lon="6.3948">
        <ele>1389</ele>
        <time>2009-07-06T18:22:22Z</time>
      </trkpt>
      <trkpt lat="44.11283" lon="6.39502">
        <ele>1391</ele>
        <time>2009-07-06T18:22:38Z</time>
      </trkpt>
      <trkpt lat="44.11283" lon="6.39507">
        <ele>1391</ele>
        <time>2009-07-06T18:22:41Z</time>
      </trkpt>
      <trkpt lat="44.11283" lon="6.3951">
        <ele>1391</ele>
        <time>2009-07-06T18:22:44Z</time>
      </trkpt>
      <trkpt lat="44.11285" lon="6.39533">
        <ele>1393</ele>
        <time>2009-07-06T18:22:58Z</time>
      </trkpt>
      <trkpt lat="44.11285" lon="6.39555">
        <ele>1395</ele>
        <time>2009-07-06T18:23:13Z</time>
      </trkpt>
      <trkpt lat="44.1129" lon="6.39575">
        <ele>1396</ele>
        <time>2009-07-06T18:23:29Z</time>
      </trkpt>
      <trkpt lat="44.11293" lon="6.39578">
        <ele>1397</ele>
        <time>2009-07-06T18:23:34Z</time>
      </trkpt>
      <trkpt lat="44.11313" lon="6.39583">
        <ele>1399</ele>
        <time>2009-07-06T18:23:49Z</time>
      </trkpt>
      <trkpt lat="44.11322" lon="6.39593">
        <ele>1400</ele>
        <time>2009-07-06T18:24:01Z</time>
      </trkpt>
      <trkpt lat="44.11325" lon="6.39597">
        <ele>1401</ele>
        <time>2009-07-06T18:24:05Z</time>
      </trkpt>
      <trkpt lat="44.11335" lon="6.39613">
        <ele>1403</ele>
        <time>2009-07-06T18:24:20Z</time>
      </trkpt>
      <trkpt lat="44.11348" lon="6.39625">
        <ele>1404</ele>
        <time>2009-07-06T18:24:33Z</time>
      </trkpt>
      <trkpt lat="44.11358" lon="6.39628">
        <ele>1404</ele>
        <time>2009-07-06T18:24:41Z</time>
      </trkpt>
      <trkpt lat="44.11365" lon="6.39627">
        <ele>1405</ele>
        <time>2009-07-06T18:24:47Z</time>
      </trkpt>
      <trkpt lat="44.11368" lon="6.39623">
        <ele>1405</ele>
        <time>2009-07-06T18:24:51Z</time>
      </trkpt>
      <trkpt lat="44.11378" lon="6.39613">
        <ele>1406</ele>
        <time>2009-07-06T18:25:01Z</time>
      </trkpt>
      <trkpt lat="44.11385" lon="6.39622">
        <ele>1407</ele>
        <time>2009-07-06T18:25:08Z</time>
      </trkpt>
      <trkpt lat="44.11385" lon="6.39628">
        <ele>1408</ele>
        <time>2009-07-06T18:25:12Z</time>
      </trkpt>
      <trkpt lat="44.11382" lon="6.39632">
        <ele>1408</ele>
        <time>2009-07-06T18:25:16Z</time>
      </trkpt>
      <trkpt lat="44.11372" lon="6.39637">
        <ele>1408</ele>
        <time>2009-07-06T18:25:26Z</time>
      </trkpt>
      <trkpt lat="44.11368" lon="6.3964">
        <ele>1409</ele>
        <time>2009-07-06T18:25:30Z</time>
      </trkpt>
      <trkpt lat="44.11363" lon="6.39642">
        <ele>1409</ele>
        <time>2009-07-06T18:25:32Z</time>
      </trkpt>
      <trkpt lat="44.1135" lon="6.3965">
        <ele>1410</ele>
        <time>2009-07-06T18:25:44Z</time>
      </trkpt>
      <trkpt lat="44.11332" lon="6.39647">
        <ele>1412</ele>
        <time>2009-07-06T18:26:01Z</time>
      </trkpt>
      <trkpt lat="44.11313" lon="6.39642">
        <ele>1414</ele>
        <time>2009-07-06T18:26:18Z</time>
      </trkpt>
      <trkpt lat="44.11308" lon="6.39637">
        <ele>1414</ele>
        <time>2009-07-06T18:26:23Z</time>
      </trkpt>
      <trkpt lat="44.11305" lon="6.39637">
        <ele>1414</ele>
        <time>2009-07-06T18:26:25Z</time>
      </trkpt>
      <trkpt lat="44.11302" lon="6.3964">
        <ele>1415</ele>
        <time>2009-07-06T18:26:31Z</time>
      </trkpt>
      <trkpt lat="44.113" lon="6.39643">
        <ele>1416</ele>
        <time>2009-07-06T18:26:33Z</time>
      </trkpt>
      <trkpt lat="44.11302" lon="6.39655">
        <ele>1417</ele>
        <time>2009-07-06T18:26:41Z</time>
      </trkpt>
      <trkpt lat="44.11322" lon="6.39668">
        <ele>1419</ele>
        <time>2009-07-06T18:26:58Z</time>
      </trkpt>
      <trkpt lat="44.11333" lon="6.3968">
        <ele>1420</ele>
        <time>2009-07-06T18:27:13Z</time>
      </trkpt>
      <trkpt lat="44.11348" lon="6.39692">
        <ele>1422</ele>
        <time>2009-07-06T18:27:30Z</time>
      </trkpt>
      <trkpt lat="44.11363" lon="6.39705">
        <ele>1424</ele>
        <time>2009-07-06T18:27:44Z</time>
      </trkpt>
      <trkpt lat="44.11377" lon="6.39708">
        <ele>1425</ele>
        <time>2009-07-06T18:27:58Z</time>
      </trkpt>
      <trkpt lat="44.11392" lon="6.39713">
        <ele>1427</ele>
        <time>2009-07-06T18:28:10Z</time>
      </trkpt>
      <trkpt lat="44.11407" lon="6.39712">
        <ele>1428</ele>
        <time>2009-07-06T18:28:24Z</time>
      </trkpt>
      <trkpt lat="44.1142" lon="6.3971">
        <ele>1430</ele>
        <time>2009-07-06T18:28:38Z</time>
      </trkpt>
      <trkpt lat="44.1143" lon="6.39697">
        <ele>1431</ele>
        <time>2009-07-06T18:28:51Z</time>
      </trkpt>
      <trkpt lat="44.11435" lon="6.39692">
        <ele>1432</ele>
        <time>2009-07-06T18:28:56Z</time>
      </trkpt>
      <trkpt lat="44.1144" lon="6.3968">
        <ele>1433</ele>
        <time>2009-07-06T18:29:05Z</time>
      </trkpt>
      <trkpt lat="44.11443" lon="6.39668">
        <ele>1434</ele>
        <time>2009-07-06T18:29:13Z</time>
      </trkpt>
      <trkpt lat="44.11448" lon="6.39657">
        <ele>1434</ele>
        <time>2009-07-06T18:29:21Z</time>
      </trkpt>
      <trkpt lat="44.11453" lon="6.3965">
        <ele>1435</ele>
        <time>2009-07-06T18:29:26Z</time>
      </trkpt>
      <trkpt lat="44.11455" lon="6.39642">
        <ele>1435</ele>
        <time>2009-07-06T18:29:32Z</time>
      </trkpt>
      <trkpt lat="44.11457" lon="6.39635">
        <ele>1435</ele>
        <time>2009-07-06T18:29:36Z</time>
      </trkpt>
      <trkpt lat="44.11462" lon="6.39635">
        <ele>1436</ele>
        <time>2009-07-06T18:29:40Z</time>
      </trkpt>
      <trkpt lat="44.11467" lon="6.39647">
        <ele>1437</ele>
        <time>2009-07-06T18:29:48Z</time>
      </trkpt>
      <trkpt lat="44.11462" lon="6.39663">
        <ele>1438</ele>
        <time>2009-07-06T18:29:58Z</time>
      </trkpt>
      <trkpt lat="44.11462" lon="6.3967">
        <ele>1439</ele>
        <time>2009-07-06T18:30:02Z</time>
      </trkpt>
      <trkpt lat="44.11462" lon="6.39698">
        <ele>1441</ele>
        <time>2009-07-06T18:30:18Z</time>
      </trkpt>
      <trkpt lat="44.11463" lon="6.39722">
        <ele>1442</ele>
        <time>2009-07-06T18:30:33Z</time>
      </trkpt>
      <trkpt lat="44.11463" lon="6.39732">
        <ele>1443</ele>
        <time>2009-07-06T18:30:39Z</time>
      </trkpt>
      <trkpt lat="44.11462" lon="6.3975">
        <ele>1444</ele>
        <time>2009-07-06T18:30:52Z</time>
      </trkpt>
      <trkpt lat="44.11462" lon="6.39747">
        <ele>1445</ele>
        <time>2009-07-06T18:31:41Z</time>
      </trkpt>
      <trkpt lat="44.1146" lon="6.39748">
        <ele>1445</ele>
        <time>2009-07-06T18:33:29Z</time>
      </trkpt>
      <trkpt lat="44.11438" lon="6.39767">
        <ele>1447</ele>
        <time>2009-07-06T18:33:45Z</time>
      </trkpt>
      <trkpt lat="44.11437" lon="6.39768">
        <ele>1448</ele>
        <time>2009-07-06T18:33:46Z</time>
      </trkpt>
      <trkpt lat="44.11413" lon="6.39777">
        <ele>1450</ele>
        <time>2009-07-06T18:34:01Z</time>
      </trkpt>
      <trkpt lat="44.11397" lon="6.3978">
        <ele>1453</ele>
        <time>2009-07-06T18:34:15Z</time>
      </trkpt>
      <trkpt lat="44.11382" lon="6.39783">
        <ele>1455</ele>
        <time>2009-07-06T18:34:28Z</time>
      </trkpt>
      <trkpt lat="44.11368" lon="6.39783">
        <ele>1457</ele>
        <time>2009-07-06T18:34:42Z</time>
      </trkpt>
      <trkpt lat="44.1135" lon="6.39785">
        <ele>1458</ele>
        <time>2009-07-06T18:34:58Z</time>
      </trkpt>
      <trkpt lat="44.11335" lon="6.39783">
        <ele>1460</ele>
        <time>2009-07-06T18:35:12Z</time>
      </trkpt>
      <trkpt lat="44.1132" lon="6.39785">
        <ele>1461</ele>
        <time>2009-07-06T18:35:26Z</time>
      </trkpt>
      <trkpt lat="44.11307" lon="6.39792">
        <ele>1463</ele>
        <time>2009-07-06T18:35:40Z</time>
      </trkpt>
      <trkpt lat="44.11295" lon="6.39797">
        <ele>1465</ele>
        <time>2009-07-06T18:35:52Z</time>
      </trkpt>
      <trkpt lat="44.11292" lon="6.39798">
        <ele>1465</ele>
        <time>2009-07-06T18:35:55Z</time>
      </trkpt>
      <trkpt lat="44.11275" lon="6.39803">
        <ele>1468</ele>
        <time>2009-07-06T18:36:11Z</time>
      </trkpt>
      <trkpt lat="44.11262" lon="6.39803">
        <ele>1470</ele>
        <time>2009-07-06T18:36:23Z</time>
      </trkpt>
      <trkpt lat="44.1125" lon="6.39807">
        <ele>1471</ele>
        <time>2009-07-06T18:36:38Z</time>
      </trkpt>
      <trkpt lat="44.11232" lon="6.3981">
        <ele>1474</ele>
        <time>2009-07-06T18:36:56Z</time>
      </trkpt>
      <trkpt lat="44.11227" lon="6.3981">
        <ele>1474</ele>
        <time>2009-07-06T18:37:00Z</time>
      </trkpt>
      <trkpt lat="44.11212" lon="6.39812">
        <ele>1476</ele>
        <time>2009-07-06T18:37:15Z</time>
      </trkpt>
      <trkpt lat="44.11197" lon="6.3981">
        <ele>1478</ele>
        <time>2009-07-06T18:37:32Z</time>
      </trkpt>
      <trkpt lat="44.11195" lon="6.3981">
        <ele>1479</ele>
        <time>2009-07-06T18:37:33Z</time>
      </trkpt>
      <trkpt lat="44.11188" lon="6.39808">
        <ele>1480</ele>
        <time>2009-07-06T18:37:39Z</time>
      </trkpt>
      <trkpt lat="44.11177" lon="6.39812">
        <ele>1481</ele>
        <time>2009-07-06T18:37:49Z</time>
      </trkpt>
      <trkpt lat="44.11175" lon="6.39813">
        <ele>1481</ele>
        <time>2009-07-06T18:37:51Z</time>
      </trkpt>
      <trkpt lat="44.1117" lon="6.39812">
        <ele>1482</ele>
        <time>2009-07-06T18:37:55Z</time>
      </trkpt>
      <trkpt lat="44.11152" lon="6.39807">
        <ele>1484</ele>
        <time>2009-07-06T18:38:12Z</time>
      </trkpt>
      <trkpt lat="44.11148" lon="6.39805">
        <ele>1485</ele>
        <time>2009-07-06T18:38:16Z</time>
      </trkpt>
      <trkpt lat="44.1114" lon="6.39795">
        <ele>1486</ele>
        <time>2009-07-06T18:38:23Z</time>
      </trkpt>
      <trkpt lat="44.11123" lon="6.39787">
        <ele>1488</ele>
        <time>2009-07-06T18:38:40Z</time>
      </trkpt>
      <trkpt lat="44.11113" lon="6.39787">
        <ele>1489</ele>
        <time>2009-07-06T18:38:49Z</time>
      </trkpt>
      <trkpt lat="44.11098" lon="6.39793">
        <ele>1491</ele>
        <time>2009-07-06T18:39:04Z</time>
      </trkpt>
      <trkpt lat="44.11085" lon="6.39805">
        <ele>1494</ele>
        <time>2009-07-06T18:39:18Z</time>
      </trkpt>
      <trkpt lat="44.11083" lon="6.39807">
        <ele>1494</ele>
        <time>2009-07-06T18:39:21Z</time>
      </trkpt>
      <trkpt lat="44.11077" lon="6.39808">
        <ele>1495</ele>
        <time>2009-07-06T18:39:27Z</time>
      </trkpt>
      <trkpt lat="44.11067" lon="6.39823">
        <ele>1496</ele>
        <time>2009-07-06T18:39:41Z</time>
      </trkpt>
      <trkpt lat="44.11062" lon="6.39825">
        <ele>1497</ele>
        <time>2009-07-06T18:39:56Z</time>
      </trkpt>
      <trkpt lat="44.11047" lon="6.3984">
        <ele>1499</ele>
        <time>2009-07-06T18:40:09Z</time>
      </trkpt>
      <trkpt lat="44.11027" lon="6.39852">
        <ele>1501</ele>
        <time>2009-07-06T18:40:24Z</time>
      </trkpt>
      <trkpt lat="44.11012" lon="6.39855">
        <ele>1502</ele>
        <time>2009-07-06T18:40:37Z</time>
      </trkpt>
      <trkpt lat="44.11007" lon="6.39867">
        <ele>1503</ele>
        <time>2009-07-06T18:40:48Z</time>
      </trkpt>
      <trkpt lat="44.11007" lon="6.39868">
        <ele>1502</ele>
        <time>2009-07-06T18:41:05Z</time>
      </trkpt>
      <trkpt lat="44.11007" lon="6.3987">
        <ele>1505</ele>
        <time>2009-07-06T18:51:11Z</time>
      </trkpt>
      <trkpt lat="44.11005" lon="6.39872">
        <ele>1505</ele>
        <time>2009-07-06T18:52:32Z</time>
      </trkpt>
      <trkpt lat="44.10985" lon="6.3989">
        <ele>1504</ele>
        <time>2009-07-06T18:52:47Z</time>
      </trkpt>
      <trkpt lat="44.10978" lon="6.39903">
        <ele>1503</ele>
        <time>2009-07-06T18:53:02Z</time>
      </trkpt>
      <trkpt lat="44.10978" lon="6.39898">
        <ele>1502</ele>
        <time>2009-07-06T18:53:19Z</time>
      </trkpt>
      <trkpt lat="44.10978" lon="6.39903">
        <ele>1502</ele>
        <time>2009-07-06T18:56:03Z</time>
      </trkpt>
      <trkpt lat="44.10977" lon="6.39903">
        <ele>1502</ele>
        <time>2009-07-06T18:56:04Z</time>
      </trkpt>
      <trkpt lat="44.10975" lon="6.39903">
        <ele>1502</ele>
        <time>2009-07-06T18:56:07Z</time>
      </trkpt>
      <trkpt lat="44.1097" lon="6.39898">
        <ele>1500</ele>
        <time>2009-07-06T18:56:11Z</time>
      </trkpt>
      <trkpt lat="44.10968" lon="6.39897">
        <ele>1499</ele>
        <time>2009-07-06T18:56:12Z</time>
      </trkpt>
      <trkpt lat="44.10962" lon="6.3989">
        <ele>1498</ele>
        <time>2009-07-06T18:56:17Z</time>
      </trkpt>
      <trkpt lat="44.10953" lon="6.3988">
        <ele>1495</ele>
        <time>2009-07-06T18:56:22Z</time>
      </trkpt>
      <trkpt lat="44.10952" lon="6.39875">
        <ele>1495</ele>
        <time>2009-07-06T18:56:24Z</time>
      </trkpt>
      <trkpt lat="44.10938" lon="6.3987">
        <ele>1493</ele>
        <time>2009-07-06T18:56:36Z</time>
      </trkpt>
      <trkpt lat="44.10927" lon="6.39865">
        <ele>1490</ele>
        <time>2009-07-06T18:56:59Z</time>
      </trkpt>
      <trkpt lat="44.10895" lon="6.39863">
        <ele>1486</ele>
        <time>2009-07-06T18:57:09Z</time>
      </trkpt>
      <trkpt lat="44.10878" lon="6.39857">
        <ele>1483</ele>
        <time>2009-07-06T18:57:14Z</time>
      </trkpt>
      <trkpt lat="44.10855" lon="6.39855">
        <ele>1480</ele>
        <time>2009-07-06T18:57:21Z</time>
      </trkpt>
      <trkpt lat="44.10855" lon="6.39855">
        <ele>1480</ele>
        <time>2009-07-06T18:57:40Z</time>
      </trkpt>
      <trkpt lat="44.1085" lon="6.39853">
        <ele>1478</ele>
        <time>2009-07-06T18:57:48Z</time>
      </trkpt>
      <trkpt lat="44.10843" lon="6.39848">
        <ele>1477</ele>
        <time>2009-07-06T18:57:54Z</time>
      </trkpt>
      <trkpt lat="44.10822" lon="6.39845">
        <ele>1474</ele>
        <time>2009-07-06T18:58:04Z</time>
      </trkpt>
      <trkpt lat="44.10808" lon="6.39848">
        <ele>1472</ele>
        <time>2009-07-06T18:58:08Z</time>
      </trkpt>
      <trkpt lat="44.1079" lon="6.39852">
        <ele>1469</ele>
        <time>2009-07-06T18:58:14Z</time>
      </trkpt>
      <trkpt lat="44.10783" lon="6.39852">
        <ele>1468</ele>
        <time>2009-07-06T18:58:16Z</time>
      </trkpt>
      <trkpt lat="44.10772" lon="6.39848">
        <ele>1466</ele>
        <time>2009-07-06T18:58:20Z</time>
      </trkpt>
      <trkpt lat="44.10742" lon="6.3985">
        <ele>1463</ele>
        <time>2009-07-06T18:58:30Z</time>
      </trkpt>
      <trkpt lat="44.10738" lon="6.39852">
        <ele>1462</ele>
        <time>2009-07-06T18:58:31Z</time>
      </trkpt>
      <trkpt lat="44.10722" lon="6.3986">
        <ele>1459</ele>
        <time>2009-07-06T18:58:37Z</time>
      </trkpt>
      <trkpt lat="44.10713" lon="6.39865">
        <ele>1457</ele>
        <time>2009-07-06T18:58:51Z</time>
      </trkpt>
      <trkpt lat="44.1071" lon="6.39863">
        <ele>1456</ele>
        <time>2009-07-06T18:59:06Z</time>
      </trkpt>
      <trkpt lat="44.10707" lon="6.39862">
        <ele>1455</ele>
        <time>2009-07-06T18:59:25Z</time>
      </trkpt>
      <trkpt lat="44.10698" lon="6.39862">
        <ele>1452</ele>
        <time>2009-07-06T19:01:03Z</time>
      </trkpt>
      <trkpt lat="44.10687" lon="6.39858">
        <ele>1451</ele>
        <time>2009-07-06T19:01:13Z</time>
      </trkpt>
      <trkpt lat="44.10678" lon="6.39855">
        <ele>1449</ele>
        <time>2009-07-06T19:01:25Z</time>
      </trkpt>
      <trkpt lat="44.10675" lon="6.3985">
        <ele>1448</ele>
        <time>2009-07-06T19:01:39Z</time>
      </trkpt>
      <trkpt lat="44.1066" lon="6.3984">
        <ele>1445</ele>
        <time>2009-07-06T19:01:50Z</time>
      </trkpt>
      <trkpt lat="44.10662" lon="6.3984">
        <ele>1445</ele>
        <time>2009-07-06T19:02:55Z</time>
      </trkpt>
      <trkpt lat="44.10652" lon="6.39837">
        <ele>1444</ele>
        <time>2009-07-06T19:05:01Z</time>
      </trkpt>
      <trkpt lat="44.10638" lon="6.39838">
        <ele>1442</ele>
        <time>2009-07-06T19:05:14Z</time>
      </trkpt>
      <trkpt lat="44.10623" lon="6.39835">
        <ele>1439</ele>
        <time>2009-07-06T19:05:29Z</time>
      </trkpt>
      <trkpt lat="44.10615" lon="6.39832">
        <ele>1436</ele>
        <time>2009-07-06T19:05:45Z</time>
      </trkpt>
      <trkpt lat="44.10612" lon="6.39832">
        <ele>1435</ele>
        <time>2009-07-06T19:05:57Z</time>
      </trkpt>
      <trkpt lat="44.1061" lon="6.39832">
        <ele>1435</ele>
        <time>2009-07-06T19:05:58Z</time>
      </trkpt>
      <trkpt lat="44.10602" lon="6.39835">
        <ele>1433</ele>
        <time>2009-07-06T19:06:11Z</time>
      </trkpt>
      <trkpt lat="44.10592" lon="6.39832">
        <ele>1430</ele>
        <time>2009-07-06T19:06:27Z</time>
      </trkpt>
      <trkpt lat="44.10582" lon="6.39828">
        <ele>1427</ele>
        <time>2009-07-06T19:06:42Z</time>
      </trkpt>
      <trkpt lat="44.10573" lon="6.39823">
        <ele>1424</ele>
        <time>2009-07-06T19:06:57Z</time>
      </trkpt>
      <trkpt lat="44.10563" lon="6.39813">
        <ele>1421</ele>
        <time>2009-07-06T19:07:13Z</time>
      </trkpt>
      <trkpt lat="44.10553" lon="6.39812">
        <ele>1419</ele>
        <time>2009-07-06T19:07:32Z</time>
      </trkpt>
      <trkpt lat="44.10545" lon="6.3981">
        <ele>1417</ele>
        <time>2009-07-06T19:07:46Z</time>
      </trkpt>
      <trkpt lat="44.10535" lon="6.39815">
        <ele>1414</ele>
        <time>2009-07-06T19:08:00Z</time>
      </trkpt>
      <trkpt lat="44.10527" lon="6.39815">
        <ele>1413</ele>
        <time>2009-07-06T19:08:21Z</time>
      </trkpt>
      <trkpt lat="44.10523" lon="6.39813">
        <ele>1412</ele>
        <time>2009-07-06T19:08:43Z</time>
      </trkpt>
      <trkpt lat="44.10517" lon="6.39805">
        <ele>1413</ele>
        <time>2009-07-06T19:09:13Z</time>
      </trkpt>
      <trkpt lat="44.10513" lon="6.39805">
        <ele>1413</ele>
        <time>2009-07-06T19:09:31Z</time>
      </trkpt>
      <trkpt lat="44.10507" lon="6.39802">
        <ele>1412</ele>
        <time>2009-07-06T19:09:53Z</time>
      </trkpt>
      <trkpt lat="44.105" lon="6.39798">
        <ele>1409</ele>
        <time>2009-07-06T19:10:09Z</time>
      </trkpt>
      <trkpt lat="44.10495" lon="6.398">
        <ele>1406</ele>
        <time>2009-07-06T19:10:21Z</time>
      </trkpt>
      <trkpt lat="44.10492" lon="6.398">
        <ele>1405</ele>
        <time>2009-07-06T19:10:46Z</time>
      </trkpt>
      <trkpt lat="44.1049" lon="6.39802">
        <ele>1402</ele>
        <time>2009-07-06T19:14:00Z</time>
      </trkpt>
      <trkpt lat="44.10487" lon="6.39802">
        <ele>1401</ele>
        <time>2009-07-06T19:14:02Z</time>
      </trkpt>
      <trkpt lat="44.10475" lon="6.39802">
        <ele>1398</ele>
        <time>2009-07-06T19:14:13Z</time>
      </trkpt>
      <trkpt lat="44.10467" lon="6.39798">
        <ele>1395</ele>
        <time>2009-07-06T19:14:25Z</time>
      </trkpt>
      <trkpt lat="44.10458" lon="6.39792">
        <ele>1391</ele>
        <time>2009-07-06T19:14:37Z</time>
      </trkpt>
      <trkpt lat="44.10452" lon="6.398">
        <ele>1388</ele>
        <time>2009-07-06T19:14:49Z</time>
      </trkpt>
      <trkpt lat="44.1045" lon="6.39808">
        <ele>1386</ele>
        <time>2009-07-06T19:14:55Z</time>
      </trkpt>
      <trkpt lat="44.10442" lon="6.39805">
        <ele>1383</ele>
        <time>2009-07-06T19:15:09Z</time>
      </trkpt>
      <trkpt lat="44.10442" lon="6.39793">
        <ele>1381</ele>
        <time>2009-07-06T19:15:28Z</time>
      </trkpt>
      <trkpt lat="44.10443" lon="6.3979">
        <ele>1381</ele>
        <time>2009-07-06T19:16:12Z</time>
      </trkpt>
      <trkpt lat="44.10438" lon="6.39787">
        <ele>1380</ele>
        <time>2009-07-06T19:17:30Z</time>
      </trkpt>
      <trkpt lat="44.10437" lon="6.39783">
        <ele>1379</ele>
        <time>2009-07-06T19:17:46Z</time>
      </trkpt>
      <trkpt lat="44.10433" lon="6.39782">
        <ele>1376</ele>
        <time>2009-07-06T19:18:15Z</time>
      </trkpt>
      <trkpt lat="44.10427" lon="6.3979">
        <ele>1373</ele>
        <time>2009-07-06T19:18:27Z</time>
      </trkpt>
      <trkpt lat="44.10422" lon="6.398">
        <ele>1370</ele>
        <time>2009-07-06T19:18:39Z</time>
      </trkpt>
      <trkpt lat="44.10415" lon="6.39787">
        <ele>1367</ele>
        <time>2009-07-06T19:18:53Z</time>
      </trkpt>
      <trkpt lat="44.10408" lon="6.39777">
        <ele>1364</ele>
        <time>2009-07-06T19:19:10Z</time>
      </trkpt>
      <trkpt lat="44.10402" lon="6.3977">
        <ele>1360</ele>
        <time>2009-07-06T19:19:27Z</time>
      </trkpt>
      <trkpt lat="44.1039" lon="6.39768">
        <ele>1358</ele>
        <time>2009-07-06T19:19:49Z</time>
      </trkpt>
      <trkpt lat="44.1039" lon="6.3977">
        <ele>1358</ele>
        <time>2009-07-06T19:20:09Z</time>
      </trkpt>
      <trkpt lat="44.1039" lon="6.3977">
        <ele>1357</ele>
        <time>2009-07-06T19:20:13Z</time>
      </trkpt>
      <trkpt lat="44.1038" lon="6.39767">
        <ele>1355</ele>
        <time>2009-07-06T19:20:18Z</time>
      </trkpt>
      <trkpt lat="44.1036" lon="6.39762">
        <ele>1352</ele>
        <time>2009-07-06T19:20:29Z</time>
      </trkpt>
      <trkpt lat="44.10347" lon="6.39752">
        <ele>1348</ele>
        <time>2009-07-06T19:20:37Z</time>
      </trkpt>
      <trkpt lat="44.10335" lon="6.39732">
        <ele>1346</ele>
        <time>2009-07-06T19:20:44Z</time>
      </trkpt>
      <trkpt lat="44.10323" lon="6.39723">
        <ele>1342</ele>
        <time>2009-07-06T19:20:51Z</time>
      </trkpt>
      <trkpt lat="44.10323" lon="6.39723">
        <ele>1342</ele>
        <time>2009-07-06T19:20:52Z</time>
      </trkpt>
      <trkpt lat="44.10313" lon="6.39723">
        <ele>1340</ele>
        <time>2009-07-06T19:20:56Z</time>
      </trkpt>
      <trkpt lat="44.10303" lon="6.39722">
        <ele>1336</ele>
        <time>2009-07-06T19:21:01Z</time>
      </trkpt>
      <trkpt lat="44.10295" lon="6.39717">
        <ele>1334</ele>
        <time>2009-07-06T19:21:05Z</time>
      </trkpt>
      <trkpt lat="44.10285" lon="6.39712">
        <ele>1332</ele>
        <time>2009-07-06T19:21:07Z</time>
      </trkpt>
      <trkpt lat="44.10277" lon="6.39705">
        <ele>1331</ele>
        <time>2009-07-06T19:21:09Z</time>
      </trkpt>
      <trkpt lat="44.10267" lon="6.397">
        <ele>1329</ele>
        <time>2009-07-06T19:21:11Z</time>
      </trkpt>
      <trkpt lat="44.10255" lon="6.39697">
        <ele>1328</ele>
        <time>2009-07-06T19:21:13Z</time>
      </trkpt>
      <trkpt lat="44.10248" lon="6.39695">
        <ele>1329</ele>
        <time>2009-07-06T19:21:15Z</time>
      </trkpt>
      <trkpt lat="44.10228" lon="6.3969">
        <ele>1327</ele>
        <time>2009-07-06T19:21:25Z</time>
      </trkpt>
      <trkpt lat="44.10222" lon="6.39688">
        <ele>1324</ele>
        <time>2009-07-06T19:21:41Z</time>
      </trkpt>
      <trkpt lat="44.10215" lon="6.39685">
        <ele>1323</ele>
        <time>2009-07-06T19:21:49Z</time>
      </trkpt>
      <trkpt lat="44.10202" lon="6.39678">
        <ele>1319</ele>
        <time>2009-07-06T19:21:55Z</time>
      </trkpt>
      <trkpt lat="44.102" lon="6.39678">
        <ele>1318</ele>
        <time>2009-07-06T19:21:56Z</time>
      </trkpt>
      <trkpt lat="44.10188" lon="6.39687">
        <ele>1314</ele>
        <time>2009-07-06T19:22:03Z</time>
      </trkpt>
      <trkpt lat="44.10187" lon="6.3968">
        <ele>1314</ele>
        <time>2009-07-06T19:22:09Z</time>
      </trkpt>
      <trkpt lat="44.10173" lon="6.3966">
        <ele>1311</ele>
        <time>2009-07-06T19:22:19Z</time>
      </trkpt>
      <trkpt lat="44.10153" lon="6.39647">
        <ele>1308</ele>
        <time>2009-07-06T19:22:23Z</time>
      </trkpt>
      <trkpt lat="44.10142" lon="6.39642">
        <ele>1307</ele>
        <time>2009-07-06T19:22:25Z</time>
      </trkpt>
      <trkpt lat="44.1013" lon="6.3964">
        <ele>1306</ele>
        <time>2009-07-06T19:22:27Z</time>
      </trkpt>
      <trkpt lat="44.10097" lon="6.39643">
        <ele>1303</ele>
        <time>2009-07-06T19:22:36Z</time>
      </trkpt>
      <trkpt lat="44.10097" lon="6.39645">
        <ele>1303</ele>
        <time>2009-07-06T19:22:49Z</time>
      </trkpt>
      <trkpt lat="44.10093" lon="6.39643">
        <ele>1302</ele>
        <time>2009-07-06T19:23:42Z</time>
      </trkpt>
      <trkpt lat="44.10072" lon="6.39635">
        <ele>1298</ele>
        <time>2009-07-06T19:24:10Z</time>
      </trkpt>
      <trkpt lat="44.10045" lon="6.39632">
        <ele>1294</ele>
        <time>2009-07-06T19:24:17Z</time>
      </trkpt>
      <trkpt lat="44.10027" lon="6.3962">
        <ele>1291</ele>
        <time>2009-07-06T19:24:23Z</time>
      </trkpt>
      <trkpt lat="44.10018" lon="6.39617">
        <ele>1290</ele>
        <time>2009-07-06T19:24:25Z</time>
      </trkpt>
      <trkpt lat="44.10007" lon="6.3961">
        <ele>1288</ele>
        <time>2009-07-06T19:24:29Z</time>
      </trkpt>
      <trkpt lat="44.10003" lon="6.39608">
        <ele>1287</ele>
        <time>2009-07-06T19:24:30Z</time>
      </trkpt>
      <trkpt lat="44.09997" lon="6.39597">
        <ele>1285</ele>
        <time>2009-07-06T19:24:35Z</time>
      </trkpt>
      <trkpt lat="44.09988" lon="6.39588">
        <ele>1283</ele>
        <time>2009-07-06T19:24:38Z</time>
      </trkpt>
      <trkpt lat="44.09983" lon="6.39572">
        <ele>1281</ele>
        <time>2009-07-06T19:24:42Z</time>
      </trkpt>
      <trkpt lat="44.09953" lon="6.39555">
        <ele>1278</ele>
        <time>2009-07-06T19:24:54Z</time>
      </trkpt>
      <trkpt lat="44.09947" lon="6.39547">
        <ele>1277</ele>
        <time>2009-07-06T19:24:56Z</time>
      </trkpt>
      <trkpt lat="44.09938" lon="6.39532">
        <ele>1276</ele>
        <time>2009-07-06T19:24:59Z</time>
      </trkpt>
      <trkpt lat="44.09912" lon="6.3952">
        <ele>1272</ele>
        <time>2009-07-06T19:25:08Z</time>
      </trkpt>
      <trkpt lat="44.09895" lon="6.39522">
        <ele>1269</ele>
        <time>2009-07-06T19:25:13Z</time>
      </trkpt>
      <trkpt lat="44.09887" lon="6.3952">
        <ele>1267</ele>
        <time>2009-07-06T19:25:16Z</time>
      </trkpt>
      <trkpt lat="44.09878" lon="6.39522">
        <ele>1266</ele>
        <time>2009-07-06T19:25:19Z</time>
      </trkpt>
      <trkpt lat="44.09868" lon="6.39522">
        <ele>1264</ele>
        <time>2009-07-06T19:25:23Z</time>
      </trkpt>
      <trkpt lat="44.0985" lon="6.3951">
        <ele>1260</ele>
        <time>2009-07-06T19:25:31Z</time>
      </trkpt>
      <trkpt lat="44.0984" lon="6.39507">
        <ele>1259</ele>
        <time>2009-07-06T19:25:35Z</time>
      </trkpt>
      <trkpt lat="44.09823" lon="6.39505">
        <ele>1255</ele>
        <time>2009-07-06T19:25:42Z</time>
      </trkpt>
      <trkpt lat="44.0982" lon="6.39505">
        <ele>1255</ele>
        <time>2009-07-06T19:25:43Z</time>
      </trkpt>
      <trkpt lat="44.09793" lon="6.39502">
        <ele>1252</ele>
        <time>2009-07-06T19:25:51Z</time>
      </trkpt>
      <trkpt lat="44.09782" lon="6.39497">
        <ele>1250</ele>
        <time>2009-07-06T19:25:55Z</time>
      </trkpt>
      <trkpt lat="44.09775" lon="6.39492">
        <ele>1249</ele>
        <time>2009-07-06T19:25:58Z</time>
      </trkpt>
      <trkpt lat="44.09773" lon="6.39478">
        <ele>1246</ele>
        <time>2009-07-06T19:26:03Z</time>
      </trkpt>
      <trkpt lat="44.09762" lon="6.39468">
        <ele>1246</ele>
        <time>2009-07-06T19:26:09Z</time>
      </trkpt>
      <trkpt lat="44.09755" lon="6.39455">
        <ele>1242</ele>
        <time>2009-07-06T19:26:19Z</time>
      </trkpt>
      <trkpt lat="44.09753" lon="6.39452">
        <ele>1241</ele>
        <time>2009-07-06T19:26:29Z</time>
      </trkpt>
      <trkpt lat="44.0974" lon="6.3945">
        <ele>1238</ele>
        <time>2009-07-06T19:26:43Z</time>
      </trkpt>
      <trkpt lat="44.09728" lon="6.39453">
        <ele>1235</ele>
        <time>2009-07-06T19:26:55Z</time>
      </trkpt>
      <trkpt lat="44.09713" lon="6.39447">
        <ele>1232</ele>
        <time>2009-07-06T19:27:10Z</time>
      </trkpt>
      <trkpt lat="44.09698" lon="6.39435">
        <ele>1231</ele>
        <time>2009-07-06T19:27:26Z</time>
      </trkpt>
      <trkpt lat="44.09682" lon="6.39425">
        <ele>1229</ele>
        <time>2009-07-06T19:27:34Z</time>
      </trkpt>
      <trkpt lat="44.09667" lon="6.3941">
        <ele>1227</ele>
        <time>2009-07-06T19:27:37Z</time>
      </trkpt>
      <trkpt lat="44.09638" lon="6.39387">
        <ele>1227</ele>
        <time>2009-07-06T19:27:45Z</time>
      </trkpt>
      <trkpt lat="44.09633" lon="6.39385">
        <ele>1227</ele>
        <time>2009-07-06T19:27:48Z</time>
      </trkpt>
      <trkpt lat="44.09635" lon="6.39383">
        <ele>1227</ele>
        <time>2009-07-06T19:27:50Z</time>
      </trkpt>
      <trkpt lat="44.09637" lon="6.3938">
        <ele>1226</ele>
        <time>2009-07-06T19:27:53Z</time>
      </trkpt>
      <trkpt lat="44.09645" lon="6.39375">
        <ele>1226</ele>
        <time>2009-07-06T19:27:58Z</time>
      </trkpt>
      <trkpt lat="44.0962" lon="6.39373">
        <ele>1225</ele>
        <time>2009-07-06T19:28:24Z</time>
      </trkpt>
      <trkpt lat="44.09615" lon="6.39373">
        <ele>1226</ele>
        <time>2009-07-06T19:28:53Z</time>
      </trkpt>
      <trkpt lat="44.096" lon="6.3936">
        <ele>1225</ele>
        <time>2009-07-06T19:28:57Z</time>
      </trkpt>
      <trkpt lat="44.09585" lon="6.39365">
        <ele>1225</ele>
        <time>2009-07-06T19:29:10Z</time>
      </trkpt>
      <trkpt lat="44.09585" lon="6.39363">
        <ele>1225</ele>
        <time>2009-07-06T19:29:31Z</time>
      </trkpt>
      <trkpt lat="44.09577" lon="6.39333">
        <ele>1224</ele>
        <time>2009-07-06T19:29:42Z</time>
      </trkpt>
      <trkpt lat="44.09582" lon="6.3931">
        <ele>1223</ele>
        <time>2009-07-06T19:29:47Z</time>
      </trkpt>
      <trkpt lat="44.09563" lon="6.39288">
        <ele>1220</ele>
        <time>2009-07-06T19:29:56Z</time>
      </trkpt>
      <trkpt lat="44.09553" lon="6.39285">
        <ele>1219</ele>
        <time>2009-07-06T19:29:59Z</time>
      </trkpt>
      <trkpt lat="44.09538" lon="6.39277">
        <ele>1215</ele>
        <time>2009-07-06T19:30:05Z</time>
      </trkpt>
      <trkpt lat="44.0951" lon="6.39265">
        <ele>1212</ele>
        <time>2009-07-06T19:30:16Z</time>
      </trkpt>
      <trkpt lat="44.0949" lon="6.3926">
        <ele>1209</ele>
        <time>2009-07-06T19:30:23Z</time>
      </trkpt>
      <trkpt lat="44.09478" lon="6.3926">
        <ele>1207</ele>
        <time>2009-07-06T19:30:27Z</time>
      </trkpt>
      <trkpt lat="44.09465" lon="6.39263">
        <ele>1203</ele>
        <time>2009-07-06T19:30:33Z</time>
      </trkpt>
      <trkpt lat="44.09448" lon="6.3927">
        <ele>1200</ele>
        <time>2009-07-06T19:30:40Z</time>
      </trkpt>
      <trkpt lat="44.09443" lon="6.39273">
        <ele>1199</ele>
        <time>2009-07-06T19:30:42Z</time>
      </trkpt>
      <trkpt lat="44.09433" lon="6.39273">
        <ele>1197</ele>
        <time>2009-07-06T19:30:46Z</time>
      </trkpt>
      <trkpt lat="44.09422" lon="6.39272">
        <ele>1195</ele>
        <time>2009-07-06T19:30:50Z</time>
      </trkpt>
      <trkpt lat="44.09403" lon="6.39268">
        <ele>1193</ele>
        <time>2009-07-06T19:30:56Z</time>
      </trkpt>
      <trkpt lat="44.09397" lon="6.3926">
        <ele>1191</ele>
        <time>2009-07-06T19:31:11Z</time>
      </trkpt>
      <trkpt lat="44.09377" lon="6.39252">
        <ele>1188</ele>
        <time>2009-07-06T19:31:35Z</time>
      </trkpt>
      <trkpt lat="44.09372" lon="6.39253">
        <ele>1188</ele>
        <time>2009-07-06T19:31:37Z</time>
      </trkpt>
      <trkpt lat="44.09363" lon="6.3925">
        <ele>1187</ele>
        <time>2009-07-06T19:31:41Z</time>
      </trkpt>
      <trkpt lat="44.09348" lon="6.39237">
        <ele>1184</ele>
        <time>2009-07-06T19:31:49Z</time>
      </trkpt>
      <trkpt lat="44.09328" lon="6.39232">
        <ele>1180</ele>
        <time>2009-07-06T19:31:58Z</time>
      </trkpt>
      <trkpt lat="44.09297" lon="6.39218">
        <ele>1176</ele>
        <time>2009-07-06T19:32:08Z</time>
      </trkpt>
      <trkpt lat="44.09248" lon="6.3921">
        <ele>1174</ele>
        <time>2009-07-06T19:32:20Z</time>
      </trkpt>
      <trkpt lat="44.0923" lon="6.39205">
        <ele>1173</ele>
        <time>2009-07-06T19:32:25Z</time>
      </trkpt>
      <trkpt lat="44.09223" lon="6.39195">
        <ele>1172</ele>
        <time>2009-07-06T19:32:28Z</time>
      </trkpt>
      <trkpt lat="44.09197" lon="6.39183">
        <ele>1170</ele>
        <time>2009-07-06T19:32:36Z</time>
      </trkpt>
      <trkpt lat="44.09185" lon="6.39187">
        <ele>1169</ele>
        <time>2009-07-06T19:32:39Z</time>
      </trkpt>
      <trkpt lat="44.09145" lon="6.39188">
        <ele>1165</ele>
        <time>2009-07-06T19:32:50Z</time>
      </trkpt>
      <trkpt lat="44.09125" lon="6.39185">
        <ele>1163</ele>
        <time>2009-07-06T19:32:55Z</time>
      </trkpt>
      <trkpt lat="44.09097" lon="6.39182">
        <ele>1161</ele>
        <time>2009-07-06T19:33:01Z</time>
      </trkpt>
      <trkpt lat="44.09052" lon="6.3917">
        <ele>1160</ele>
        <time>2009-07-06T19:33:14Z</time>
      </trkpt>
      <trkpt lat="44.0904" lon="6.39142">
        <ele>1159</ele>
        <time>2009-07-06T19:33:23Z</time>
      </trkpt>
      <trkpt lat="44.09032" lon="6.39112">
        <ele>1157</ele>
        <time>2009-07-06T19:33:30Z</time>
      </trkpt>
      <trkpt lat="44.09008" lon="6.3906">
        <ele>1157</ele>
        <time>2009-07-06T19:33:43Z</time>
      </trkpt>
      <trkpt lat="44.08995" lon="6.39043">
        <ele>1155</ele>
        <time>2009-07-06T19:33:51Z</time>
      </trkpt>
      <trkpt lat="44.0898" lon="6.39028">
        <ele>1152</ele>
        <time>2009-07-06T19:33:57Z</time>
      </trkpt>
      <trkpt lat="44.08977" lon="6.3902">
        <ele>1151</ele>
        <time>2009-07-06T19:33:59Z</time>
      </trkpt>
      <trkpt lat="44.0896" lon="6.39002">
        <ele>1148</ele>
        <time>2009-07-06T19:34:05Z</time>
      </trkpt>
      <trkpt lat="44.08947" lon="6.38967">
        <ele>1146</ele>
        <time>2009-07-06T19:34:15Z</time>
      </trkpt>
      <trkpt lat="44.08955" lon="6.38927">
        <ele>1146</ele>
        <time>2009-07-06T19:34:27Z</time>
      </trkpt>
      <trkpt lat="44.0895" lon="6.38868">
        <ele>1145</ele>
        <time>2009-07-06T19:34:39Z</time>
      </trkpt>
      <trkpt lat="44.08953" lon="6.38832">
        <ele>1142</ele>
        <time>2009-07-06T19:34:47Z</time>
      </trkpt>
      <trkpt lat="44.08947" lon="6.38802">
        <ele>1138</ele>
        <time>2009-07-06T19:34:54Z</time>
      </trkpt>
      <trkpt lat="44.08937" lon="6.38775">
        <ele>1135</ele>
        <time>2009-07-06T19:35:00Z</time>
      </trkpt>
      <trkpt lat="44.0893" lon="6.38743">
        <ele>1132</ele>
        <time>2009-07-06T19:35:09Z</time>
      </trkpt>
      <trkpt lat="44.0893" lon="6.3874">
        <ele>1132</ele>
        <time>2009-07-06T19:35:10Z</time>
      </trkpt>
      <trkpt lat="44.08927" lon="6.38732">
        <ele>1130</ele>
        <time>2009-07-06T19:35:14Z</time>
      </trkpt>
      <trkpt lat="44.08923" lon="6.38732">
        <ele>1129</ele>
        <time>2009-07-06T19:35:15Z</time>
      </trkpt>
      <trkpt lat="44.08917" lon="6.38733">
        <ele>1127</ele>
        <time>2009-07-06T19:35:18Z</time>
      </trkpt>
      <trkpt lat="44.089" lon="6.38728">
        <ele>1125</ele>
        <time>2009-07-06T19:35:22Z</time>
      </trkpt>
      <trkpt lat="44.08887" lon="6.3872">
        <ele>1123</ele>
        <time>2009-07-06T19:35:26Z</time>
      </trkpt>
      <trkpt lat="44.08858" lon="6.387">
        <ele>1120</ele>
        <time>2009-07-06T19:35:38Z</time>
      </trkpt>
      <trkpt lat="44.08858" lon="6.387">
        <ele>1120</ele>
        <time>2009-07-06T19:36:08Z</time>
      </trkpt>
      <trkpt lat="44.08858" lon="6.387">
        <ele>1120</ele>
        <time>2009-07-06T19:36:12Z</time>
      </trkpt>
      <trkpt lat="44.08845" lon="6.38743">
        <ele>1116</ele>
        <time>2009-07-06T19:36:20Z</time>
      </trkpt>
      <trkpt lat="44.08842" lon="6.38758">
        <ele>1116</ele>
        <time>2009-07-06T19:36:22Z</time>
      </trkpt>
      <trkpt lat="44.08837" lon="6.3878">
        <ele>1113</ele>
        <time>2009-07-06T19:36:25Z</time>
      </trkpt>
      <trkpt lat="44.08832" lon="6.38805">
        <ele>1110</ele>
        <time>2009-07-06T19:36:28Z</time>
      </trkpt>
      <trkpt lat="44.08833" lon="6.38857">
        <ele>1107</ele>
        <time>2009-07-06T19:36:34Z</time>
      </trkpt>
      <trkpt lat="44.08835" lon="6.38875">
        <ele>1106</ele>
        <time>2009-07-06T19:36:36Z</time>
      </trkpt>
      <trkpt lat="44.08835" lon="6.38897">
        <ele>1105</ele>
        <time>2009-07-06T19:36:39Z</time>
      </trkpt>
      <trkpt lat="44.08807" lon="6.38903">
        <ele>1103</ele>
        <time>2009-07-06T19:36:46Z</time>
      </trkpt>
      <trkpt lat="44.088" lon="6.38893">
        <ele>1103</ele>
        <time>2009-07-06T19:36:48Z</time>
      </trkpt>
      <trkpt lat="44.08782" lon="6.38865">
        <ele>1103</ele>
        <time>2009-07-06T19:36:53Z</time>
      </trkpt>
      <trkpt lat="44.0875" lon="6.38827">
        <ele>1104</ele>
        <time>2009-07-06T19:37:02Z</time>
      </trkpt>
      <trkpt lat="44.0873" lon="6.3881">
        <ele>1103</ele>
        <time>2009-07-06T19:37:07Z</time>
      </trkpt>
      <trkpt lat="44.0872" lon="6.388">
        <ele>1102</ele>
        <time>2009-07-06T19:37:10Z</time>
      </trkpt>
      <trkpt lat="44.08705" lon="6.3878">
        <ele>1101</ele>
        <time>2009-07-06T19:37:15Z</time>
      </trkpt>
      <trkpt lat="44.0867" lon="6.38745">
        <ele>1097</ele>
        <time>2009-07-06T19:37:26Z</time>
      </trkpt>
      <trkpt lat="44.0866" lon="6.38737">
        <ele>1097</ele>
        <time>2009-07-06T19:37:28Z</time>
      </trkpt>
      <trkpt lat="44.08637" lon="6.38723">
        <ele>1094</ele>
        <time>2009-07-06T19:37:32Z</time>
      </trkpt>
      <trkpt lat="44.0862" lon="6.38707">
        <ele>1094</ele>
        <time>2009-07-06T19:37:35Z</time>
      </trkpt>
      <trkpt lat="44.0858" lon="6.38653">
        <ele>1090</ele>
        <time>2009-07-06T19:37:48Z</time>
      </trkpt>
      <trkpt lat="44.08555" lon="6.3863">
        <ele>1087</ele>
        <time>2009-07-06T19:37:54Z</time>
      </trkpt>
      <trkpt lat="44.0852" lon="6.38603">
        <ele>1085</ele>
        <time>2009-07-06T19:38:00Z</time>
      </trkpt>
      <trkpt lat="44.08507" lon="6.38588">
        <ele>1084</ele>
        <time>2009-07-06T19:38:03Z</time>
      </trkpt>
      <trkpt lat="44.08497" lon="6.38573">
        <ele>1084</ele>
        <time>2009-07-06T19:38:06Z</time>
      </trkpt>
      <trkpt lat="44.08485" lon="6.38562">
        <ele>1084</ele>
        <time>2009-07-06T19:38:09Z</time>
      </trkpt>
      <trkpt lat="44.08465" lon="6.3855">
        <ele>1082</ele>
        <time>2009-07-06T19:38:13Z</time>
      </trkpt>
      <trkpt lat="44.08402" lon="6.38538">
        <ele>1083</ele>
        <time>2009-07-06T19:38:26Z</time>
      </trkpt>
      <trkpt lat="44.08378" lon="6.3854">
        <ele>1083</ele>
        <time>2009-07-06T19:38:33Z</time>
      </trkpt>
      <trkpt lat="44.08372" lon="6.38543">
        <ele>1082</ele>
        <time>2009-07-06T19:38:35Z</time>
      </trkpt>
      <trkpt lat="44.08365" lon="6.38548">
        <ele>1082</ele>
        <time>2009-07-06T19:38:37Z</time>
      </trkpt>
      <trkpt lat="44.08318" lon="6.3859">
        <ele>1082</ele>
        <time>2009-07-06T19:38:50Z</time>
      </trkpt>
      <trkpt lat="44.08293" lon="6.3863">
        <ele>1082</ele>
        <time>2009-07-06T19:39:02Z</time>
      </trkpt>
      <trkpt lat="44.0829" lon="6.38632">
        <ele>1082</ele>
        <time>2009-07-06T19:39:03Z</time>
      </trkpt>
      <trkpt lat="44.08242" lon="6.38613">
        <ele>1081</ele>
        <time>2009-07-06T19:39:17Z</time>
      </trkpt>
      <trkpt lat="44.08223" lon="6.38595">
        <ele>1079</ele>
        <time>2009-07-06T19:39:22Z</time>
      </trkpt>
      <trkpt lat="44.08212" lon="6.38578">
        <ele>1078</ele>
        <time>2009-07-06T19:39:26Z</time>
      </trkpt>
      <trkpt lat="44.08207" lon="6.38572">
        <ele>1077</ele>
        <time>2009-07-06T19:39:28Z</time>
      </trkpt>
      <trkpt lat="44.08195" lon="6.38553">
        <ele>1075</ele>
        <time>2009-07-06T19:39:32Z</time>
      </trkpt>
      <trkpt lat="44.08188" lon="6.38537">
        <ele>1073</ele>
        <time>2009-07-06T19:39:35Z</time>
      </trkpt>
      <trkpt lat="44.08183" lon="6.38517">
        <ele>1072</ele>
        <time>2009-07-06T19:39:38Z</time>
      </trkpt>
      <trkpt lat="44.08178" lon="6.38505">
        <ele>1072</ele>
        <time>2009-07-06T19:39:40Z</time>
      </trkpt>
      <trkpt lat="44.0817" lon="6.38492">
        <ele>1070</ele>
        <time>2009-07-06T19:39:43Z</time>
      </trkpt>
      <trkpt lat="44.08157" lon="6.38477">
        <ele>1068</ele>
        <time>2009-07-06T19:39:47Z</time>
      </trkpt>
      <trkpt lat="44.08142" lon="6.3849">
        <ele>1065</ele>
        <time>2009-07-06T19:39:53Z</time>
      </trkpt>
      <trkpt lat="44.08133" lon="6.3851">
        <ele>1062</ele>
        <time>2009-07-06T19:39:57Z</time>
      </trkpt>
      <trkpt lat="44.08123" lon="6.38512">
        <ele>1061</ele>
        <time>2009-07-06T19:40:00Z</time>
      </trkpt>
      <trkpt lat="44.08115" lon="6.38507">
        <ele>1060</ele>
        <time>2009-07-06T19:40:02Z</time>
      </trkpt>
      <trkpt lat="44.08107" lon="6.38495">
        <ele>1059</ele>
        <time>2009-07-06T19:40:05Z</time>
      </trkpt>
      <trkpt lat="44.08092" lon="6.38485">
        <ele>1057</ele>
        <time>2009-07-06T19:40:09Z</time>
      </trkpt>
      <trkpt lat="44.08063" lon="6.38472">
        <ele>1053</ele>
        <time>2009-07-06T19:40:16Z</time>
      </trkpt>
      <trkpt lat="44.0806" lon="6.38468">
        <ele>1053</ele>
        <time>2009-07-06T19:40:17Z</time>
      </trkpt>
      <trkpt lat="44.08047" lon="6.38447">
        <ele>1050</ele>
        <time>2009-07-06T19:40:23Z</time>
      </trkpt>
      <trkpt lat="44.08045" lon="6.38408">
        <ele>1047</ele>
        <time>2009-07-06T19:40:31Z</time>
      </trkpt>
      <trkpt lat="44.08047" lon="6.38403">
        <ele>1046</ele>
        <time>2009-07-06T19:40:32Z</time>
      </trkpt>
      <trkpt lat="44.08063" lon="6.38385">
        <ele>1045</ele>
        <time>2009-07-06T19:40:37Z</time>
      </trkpt>
      <trkpt lat="44.08072" lon="6.3838">
        <ele>1044</ele>
        <time>2009-07-06T19:40:39Z</time>
      </trkpt>
      <trkpt lat="44.08082" lon="6.38377">
        <ele>1043</ele>
        <time>2009-07-06T19:40:41Z</time>
      </trkpt>
      <trkpt lat="44.08088" lon="6.38375">
        <ele>1042</ele>
        <time>2009-07-06T19:40:42Z</time>
      </trkpt>
      <trkpt lat="44.08133" lon="6.38362">
        <ele>1038</ele>
        <time>2009-07-06T19:40:55Z</time>
      </trkpt>
      <trkpt lat="44.0814" lon="6.38362">
        <ele>1038</ele>
        <time>2009-07-06T19:40:57Z</time>
      </trkpt>
      <trkpt lat="44.08138" lon="6.38342">
        <ele>1036</ele>
        <time>2009-07-06T19:41:05Z</time>
      </trkpt>
      <trkpt lat="44.08097" lon="6.38328">
        <ele>1035</ele>
        <time>2009-07-06T19:41:20Z</time>
      </trkpt>
      <trkpt lat="44.08055" lon="6.38312">
        <ele>1031</ele>
        <time>2009-07-06T19:41:31Z</time>
      </trkpt>
      <trkpt lat="44.08017" lon="6.38307">
        <ele>1028</ele>
        <time>2009-07-06T19:41:39Z</time>
      </trkpt>
      <trkpt lat="44.07998" lon="6.38305">
        <ele>1026</ele>
        <time>2009-07-06T19:41:43Z</time>
      </trkpt>
      <trkpt lat="44.07985" lon="6.38307">
        <ele>1025</ele>
        <time>2009-07-06T19:41:46Z</time>
      </trkpt>
      <trkpt lat="44.07965" lon="6.3832">
        <ele>1023</ele>
        <time>2009-07-06T19:41:51Z</time>
      </trkpt>
      <trkpt lat="44.0795" lon="6.38337">
        <ele>1021</ele>
        <time>2009-07-06T19:41:55Z</time>
      </trkpt>
      <trkpt lat="44.07928" lon="6.3836">
        <ele>1020</ele>
        <time>2009-07-06T19:42:00Z</time>
      </trkpt>
      <trkpt lat="44.07918" lon="6.38382">
        <ele>1018</ele>
        <time>2009-07-06T19:42:04Z</time>
      </trkpt>
      <trkpt lat="44.07917" lon="6.38392">
        <ele>1017</ele>
        <time>2009-07-06T19:42:06Z</time>
      </trkpt>
      <trkpt lat="44.0789" lon="6.384">
        <ele>1014</ele>
        <time>2009-07-06T19:42:14Z</time>
      </trkpt>
      <trkpt lat="44.07878" lon="6.38388">
        <ele>1012</ele>
        <time>2009-07-06T19:42:17Z</time>
      </trkpt>
      <trkpt lat="44.07873" lon="6.38378">
        <ele>1011</ele>
        <time>2009-07-06T19:42:19Z</time>
      </trkpt>
      <trkpt lat="44.07855" lon="6.38345">
        <ele>1011</ele>
        <time>2009-07-06T19:42:30Z</time>
      </trkpt>
      <trkpt lat="44.0783" lon="6.38317">
        <ele>1011</ele>
        <time>2009-07-06T19:42:43Z</time>
      </trkpt>
      <trkpt lat="44.07825" lon="6.38315">
        <ele>1011</ele>
        <time>2009-07-06T19:42:57Z</time>
      </trkpt>
      <trkpt lat="44.078" lon="6.3831">
        <ele>1010</ele>
        <time>2009-07-06T19:43:37Z</time>
      </trkpt>
      <trkpt lat="44.07757" lon="6.38295">
        <ele>1008</ele>
        <time>2009-07-06T19:43:48Z</time>
      </trkpt>
      <trkpt lat="44.07695" lon="6.38287">
        <ele>1005</ele>
        <time>2009-07-06T19:43:58Z</time>
      </trkpt>
      <trkpt lat="44.07658" lon="6.38287">
        <ele>1002</ele>
        <time>2009-07-06T19:44:03Z</time>
      </trkpt>
      <trkpt lat="44.07617" lon="6.38283">
        <ele>999</ele>
        <time>2009-07-06T19:44:09Z</time>
      </trkpt>
      <trkpt lat="44.07608" lon="6.38283">
        <ele>999</ele>
        <time>2009-07-06T19:44:10Z</time>
      </trkpt>
      <trkpt lat="44.0758" lon="6.38308">
        <ele>998</ele>
        <time>2009-07-06T19:44:15Z</time>
      </trkpt>
      <trkpt lat="44.07532" lon="6.38323">
        <ele>995</ele>
        <time>2009-07-06T19:44:23Z</time>
      </trkpt>
      <trkpt lat="44.07497" lon="6.38348">
        <ele>994</ele>
        <time>2009-07-06T19:44:29Z</time>
      </trkpt>
      <trkpt lat="44.0748" lon="6.38377">
        <ele>994</ele>
        <time>2009-07-06T19:44:33Z</time>
      </trkpt>
      <trkpt lat="44.0745" lon="6.38397">
        <ele>993</ele>
        <time>2009-07-06T19:44:38Z</time>
      </trkpt>
      <trkpt lat="44.07353" lon="6.38442">
        <ele>992</ele>
        <time>2009-07-06T19:44:54Z</time>
      </trkpt>
      <trkpt lat="44.07307" lon="6.38453">
        <ele>992</ele>
        <time>2009-07-06T19:45:02Z</time>
      </trkpt>
      <trkpt lat="44.07287" lon="6.38463">
        <ele>992</ele>
        <time>2009-07-06T19:45:06Z</time>
      </trkpt>
      <trkpt lat="44.07267" lon="6.38465">
        <ele>992</ele>
        <time>2009-07-06T19:45:10Z</time>
      </trkpt>
      <trkpt lat="44.07228" lon="6.38473">
        <ele>991</ele>
        <time>2009-07-06T19:45:17Z</time>
      </trkpt>
      <trkpt lat="44.07152" lon="6.38522">
        <ele>990</ele>
        <time>2009-07-06T19:45:31Z</time>
      </trkpt>
      <trkpt lat="44.07105" lon="6.38575">
        <ele>986</ele>
        <time>2009-07-06T19:45:41Z</time>
      </trkpt>
      <trkpt lat="44.07082" lon="6.3861">
        <ele>983</ele>
        <time>2009-07-06T19:45:46Z</time>
      </trkpt>
      <trkpt lat="44.07062" lon="6.3865">
        <ele>980</ele>
        <time>2009-07-06T19:45:51Z</time>
      </trkpt>
      <trkpt lat="44.07047" lon="6.38677">
        <ele>977</ele>
        <time>2009-07-06T19:45:55Z</time>
      </trkpt>
      <trkpt lat="44.07038" lon="6.38693">
        <ele>976</ele>
        <time>2009-07-06T19:45:58Z</time>
      </trkpt>
      <trkpt lat="44.07027" lon="6.38713">
        <ele>974</ele>
        <time>2009-07-06T19:46:02Z</time>
      </trkpt>
      <trkpt lat="44.06995" lon="6.38725">
        <ele>972</ele>
        <time>2009-07-06T19:46:12Z</time>
      </trkpt>
      <trkpt lat="44.06992" lon="6.38723">
        <ele>972</ele>
        <time>2009-07-06T19:46:14Z</time>
      </trkpt>
      <trkpt lat="44.06985" lon="6.38725">
        <ele>971</ele>
        <time>2009-07-06T19:46:36Z</time>
      </trkpt>
      <trkpt lat="44.06987" lon="6.38723">
        <ele>971</ele>
        <time>2009-07-06T19:46:40Z</time>
      </trkpt>
      <trkpt lat="44.06992" lon="6.38717">
        <ele>971</ele>
        <time>2009-07-06T19:46:45Z</time>
      </trkpt>
      <trkpt lat="44.06992" lon="6.38712">
        <ele>971</ele>
        <time>2009-07-06T19:46:57Z</time>
      </trkpt>
      <trkpt lat="44.06988" lon="6.3872">
        <ele>971</ele>
        <time>2009-07-06T19:47:15Z</time>
      </trkpt>
      <trkpt lat="44.06985" lon="6.38722">
        <ele>970</ele>
        <time>2009-07-06T19:47:26Z</time>
      </trkpt>
      <trkpt lat="44.06948" lon="6.3875">
        <ele>969</ele>
        <time>2009-07-06T19:47:39Z</time>
      </trkpt>
      <trkpt lat="44.06933" lon="6.3876">
        <ele>968</ele>
        <time>2009-07-06T19:47:43Z</time>
      </trkpt>
      <trkpt lat="44.06915" lon="6.38762">
        <ele>968</ele>
        <time>2009-07-06T19:47:47Z</time>
      </trkpt>
      <trkpt lat="44.0689" lon="6.38755">
        <ele>968</ele>
        <time>2009-07-06T19:47:52Z</time>
      </trkpt>
      <trkpt lat="44.06817" lon="6.38733">
        <ele>966</ele>
        <time>2009-07-06T19:48:06Z</time>
      </trkpt>
      <trkpt lat="44.06802" lon="6.38723">
        <ele>966</ele>
        <time>2009-07-06T19:48:09Z</time>
      </trkpt>
      <trkpt lat="44.06783" lon="6.38708">
        <ele>965</ele>
        <time>2009-07-06T19:48:15Z</time>
      </trkpt>
      <trkpt lat="44.06763" lon="6.38745">
        <ele>967</ele>
        <time>2009-07-06T19:48:25Z</time>
      </trkpt>
      <trkpt lat="44.06753" lon="6.38772">
        <ele>966</ele>
        <time>2009-07-06T19:48:31Z</time>
      </trkpt>
      <trkpt lat="44.06742" lon="6.3879">
        <ele>965</ele>
        <time>2009-07-06T19:48:35Z</time>
      </trkpt>
      <trkpt lat="44.06727" lon="6.3882">
        <ele>963</ele>
        <time>2009-07-06T19:48:40Z</time>
      </trkpt>
      <trkpt lat="44.06707" lon="6.38845">
        <ele>962</ele>
        <time>2009-07-06T19:48:45Z</time>
      </trkpt>
      <trkpt lat="44.06685" lon="6.38872">
        <ele>960</ele>
        <time>2009-07-06T19:48:51Z</time>
      </trkpt>
      <trkpt lat="44.0668" lon="6.389">
        <ele>962</ele>
        <time>2009-07-06T19:48:56Z</time>
      </trkpt>
      <trkpt lat="44.06683" lon="6.38913">
        <ele>962</ele>
        <time>2009-07-06T19:49:08Z</time>
      </trkpt>
      <trkpt lat="44.06683" lon="6.38915">
        <ele>962</ele>
        <time>2009-07-06T19:49:37Z</time>
      </trkpt>
    </trkseg>
  </trk>
</gpx>